<?xml version="1.0" encoding="UTF-8"?>
<gpx xmlns="http://www.topografix.com/GPX/1/1"
     creator="GpsDump 4.73"
     version="1.1"
     xmlns:xsi="http://www.w3.org/2001/XMLSchema-instance"
     xsi:schemaLocation="http://www.topografix.com/GPX/1/1 http://www.topografix.com/GPX/1/1/gpx.xsd">
  <metadata>
    <link href="http://www.gethome.no/stein.sorensen/">
      <text>GPS dump for www.flightlog.org</text>
    </link>
    <time>2013-09-08T13:19:12Z</time>
    <bounds minlat="43.030617" minlon="-3.012117" maxlat="43.107967" maxlon="-2.939233"/>
  </metadata>
  <trk>
    <name>Track 001</name>
    <trkseg>
      <trkpt lat="43.106383" lon="-2.940850">
        <ele>703.0</ele>
        <time>2013-07-29T14:00:50Z</time>
      </trkpt>
      <trkpt lat="43.106233" lon="-2.940633">
        <ele>659.0</ele>
        <time>2013-07-29T14:00:51Z</time>
      </trkpt>
      <trkpt lat="43.106083" lon="-2.940767">
        <ele>659.0</ele>
        <time>2013-07-29T14:00:52Z</time>
      </trkpt>
      <trkpt lat="43.106033" lon="-2.941050">
        <ele>0.0</ele>
        <time>2013-07-29T14:00:54Z</time>
      </trkpt>
      <trkpt lat="43.105767" lon="-2.941533">
        <ele>0.0</ele>
        <time>2013-07-29T14:00:57Z</time>
      </trkpt>
      <trkpt lat="43.105683" lon="-2.941883">
        <ele>0.0</ele>
        <time>2013-07-29T14:01:02Z</time>
      </trkpt>
      <trkpt lat="43.106567" lon="-2.941333">
        <ele>659.0</ele>
        <time>2013-07-29T14:01:03Z</time>
      </trkpt>
      <trkpt lat="43.106317" lon="-2.940867">
        <ele>658.0</ele>
        <time>2013-07-29T14:01:04Z</time>
      </trkpt>
      <trkpt lat="43.106217" lon="-2.940667">
        <ele>639.0</ele>
        <time>2013-07-29T14:01:05Z</time>
      </trkpt>
      <trkpt lat="43.106250" lon="-2.940667">
        <ele>629.0</ele>
        <time>2013-07-29T14:01:06Z</time>
      </trkpt>
      <trkpt lat="43.106267" lon="-2.940667">
        <ele>634.0</ele>
        <time>2013-07-29T14:01:07Z</time>
      </trkpt>
      <trkpt lat="43.106283" lon="-2.940617">
        <ele>639.0</ele>
        <time>2013-07-29T14:01:08Z</time>
      </trkpt>
      <trkpt lat="43.106300" lon="-2.940583">
        <ele>644.0</ele>
        <time>2013-07-29T14:01:09Z</time>
      </trkpt>
      <trkpt lat="43.106283" lon="-2.940550">
        <ele>648.0</ele>
        <time>2013-07-29T14:01:10Z</time>
      </trkpt>
      <trkpt lat="43.106283" lon="-2.940550">
        <ele>649.0</ele>
        <time>2013-07-29T14:01:11Z</time>
      </trkpt>
      <trkpt lat="43.106283" lon="-2.940550">
        <ele>649.0</ele>
        <time>2013-07-29T14:01:12Z</time>
      </trkpt>
      <trkpt lat="43.106283" lon="-2.940533">
        <ele>650.0</ele>
        <time>2013-07-29T14:01:13Z</time>
      </trkpt>
      <trkpt lat="43.106283" lon="-2.940533">
        <ele>650.0</ele>
        <time>2013-07-29T14:01:14Z</time>
      </trkpt>
      <trkpt lat="43.106283" lon="-2.940533">
        <ele>651.0</ele>
        <time>2013-07-29T14:01:15Z</time>
      </trkpt>
      <trkpt lat="43.106283" lon="-2.940517">
        <ele>651.0</ele>
        <time>2013-07-29T14:01:16Z</time>
      </trkpt>
      <trkpt lat="43.106300" lon="-2.940517">
        <ele>652.0</ele>
        <time>2013-07-29T14:01:17Z</time>
      </trkpt>
      <trkpt lat="43.106283" lon="-2.940517">
        <ele>653.0</ele>
        <time>2013-07-29T14:01:18Z</time>
      </trkpt>
      <trkpt lat="43.106283" lon="-2.940517">
        <ele>653.0</ele>
        <time>2013-07-29T14:01:19Z</time>
      </trkpt>
      <trkpt lat="43.106283" lon="-2.940500">
        <ele>654.0</ele>
        <time>2013-07-29T14:01:20Z</time>
      </trkpt>
      <trkpt lat="43.106283" lon="-2.940500">
        <ele>654.0</ele>
        <time>2013-07-29T14:01:21Z</time>
      </trkpt>
      <trkpt lat="43.106283" lon="-2.940500">
        <ele>654.0</ele>
        <time>2013-07-29T14:01:22Z</time>
      </trkpt>
      <trkpt lat="43.106283" lon="-2.940500">
        <ele>654.0</ele>
        <time>2013-07-29T14:01:23Z</time>
      </trkpt>
      <trkpt lat="43.106300" lon="-2.940517">
        <ele>654.0</ele>
        <time>2013-07-29T14:01:24Z</time>
      </trkpt>
      <trkpt lat="43.106300" lon="-2.940517">
        <ele>654.0</ele>
        <time>2013-07-29T14:01:25Z</time>
      </trkpt>
      <trkpt lat="43.106300" lon="-2.940517">
        <ele>655.0</ele>
        <time>2013-07-29T14:01:26Z</time>
      </trkpt>
      <trkpt lat="43.106283" lon="-2.940500">
        <ele>655.0</ele>
        <time>2013-07-29T14:01:27Z</time>
      </trkpt>
      <trkpt lat="43.106300" lon="-2.940517">
        <ele>655.0</ele>
        <time>2013-07-29T14:01:28Z</time>
      </trkpt>
      <trkpt lat="43.106283" lon="-2.940517">
        <ele>655.0</ele>
        <time>2013-07-29T14:01:29Z</time>
      </trkpt>
      <trkpt lat="43.106300" lon="-2.940517">
        <ele>656.0</ele>
        <time>2013-07-29T14:01:30Z</time>
      </trkpt>
      <trkpt lat="43.106300" lon="-2.940517">
        <ele>656.0</ele>
        <time>2013-07-29T14:01:31Z</time>
      </trkpt>
      <trkpt lat="43.106300" lon="-2.940517">
        <ele>656.0</ele>
        <time>2013-07-29T14:01:32Z</time>
      </trkpt>
      <trkpt lat="43.106300" lon="-2.940517">
        <ele>656.0</ele>
        <time>2013-07-29T14:01:33Z</time>
      </trkpt>
      <trkpt lat="43.106300" lon="-2.940517">
        <ele>656.0</ele>
        <time>2013-07-29T14:01:34Z</time>
      </trkpt>
      <trkpt lat="43.106300" lon="-2.940517">
        <ele>656.0</ele>
        <time>2013-07-29T14:01:35Z</time>
      </trkpt>
      <trkpt lat="43.106300" lon="-2.940517">
        <ele>656.0</ele>
        <time>2013-07-29T14:01:36Z</time>
      </trkpt>
      <trkpt lat="43.106300" lon="-2.940517">
        <ele>656.0</ele>
        <time>2013-07-29T14:01:37Z</time>
      </trkpt>
      <trkpt lat="43.106300" lon="-2.940517">
        <ele>656.0</ele>
        <time>2013-07-29T14:01:38Z</time>
      </trkpt>
      <trkpt lat="43.106300" lon="-2.940517">
        <ele>656.0</ele>
        <time>2013-07-29T14:01:39Z</time>
      </trkpt>
      <trkpt lat="43.106300" lon="-2.940517">
        <ele>656.0</ele>
        <time>2013-07-29T14:01:40Z</time>
      </trkpt>
      <trkpt lat="43.106300" lon="-2.940500">
        <ele>656.0</ele>
        <time>2013-07-29T14:01:41Z</time>
      </trkpt>
      <trkpt lat="43.106300" lon="-2.940500">
        <ele>656.0</ele>
        <time>2013-07-29T14:01:42Z</time>
      </trkpt>
      <trkpt lat="43.106283" lon="-2.940500">
        <ele>656.0</ele>
        <time>2013-07-29T14:01:43Z</time>
      </trkpt>
      <trkpt lat="43.106300" lon="-2.940517">
        <ele>656.0</ele>
        <time>2013-07-29T14:01:44Z</time>
      </trkpt>
      <trkpt lat="43.106283" lon="-2.940517">
        <ele>656.0</ele>
        <time>2013-07-29T14:01:45Z</time>
      </trkpt>
      <trkpt lat="43.106283" lon="-2.940517">
        <ele>656.0</ele>
        <time>2013-07-29T14:01:46Z</time>
      </trkpt>
      <trkpt lat="43.106283" lon="-2.940517">
        <ele>656.0</ele>
        <time>2013-07-29T14:01:47Z</time>
      </trkpt>
      <trkpt lat="43.106283" lon="-2.940517">
        <ele>656.0</ele>
        <time>2013-07-29T14:01:48Z</time>
      </trkpt>
      <trkpt lat="43.106283" lon="-2.940500">
        <ele>656.0</ele>
        <time>2013-07-29T14:01:49Z</time>
      </trkpt>
      <trkpt lat="43.106300" lon="-2.940500">
        <ele>656.0</ele>
        <time>2013-07-29T14:01:50Z</time>
      </trkpt>
      <trkpt lat="43.106300" lon="-2.940500">
        <ele>656.0</ele>
        <time>2013-07-29T14:01:51Z</time>
      </trkpt>
      <trkpt lat="43.106300" lon="-2.940517">
        <ele>656.0</ele>
        <time>2013-07-29T14:01:52Z</time>
      </trkpt>
      <trkpt lat="43.106300" lon="-2.940517">
        <ele>656.0</ele>
        <time>2013-07-29T14:01:53Z</time>
      </trkpt>
      <trkpt lat="43.106300" lon="-2.940500">
        <ele>657.0</ele>
        <time>2013-07-29T14:01:54Z</time>
      </trkpt>
      <trkpt lat="43.106300" lon="-2.940517">
        <ele>657.0</ele>
        <time>2013-07-29T14:01:55Z</time>
      </trkpt>
      <trkpt lat="43.106300" lon="-2.940517">
        <ele>657.0</ele>
        <time>2013-07-29T14:01:56Z</time>
      </trkpt>
      <trkpt lat="43.106300" lon="-2.940517">
        <ele>657.0</ele>
        <time>2013-07-29T14:01:57Z</time>
      </trkpt>
      <trkpt lat="43.106300" lon="-2.940500">
        <ele>657.0</ele>
        <time>2013-07-29T14:01:58Z</time>
      </trkpt>
      <trkpt lat="43.106300" lon="-2.940500">
        <ele>657.0</ele>
        <time>2013-07-29T14:01:59Z</time>
      </trkpt>
      <trkpt lat="43.106300" lon="-2.940500">
        <ele>657.0</ele>
        <time>2013-07-29T14:02:00Z</time>
      </trkpt>
      <trkpt lat="43.106300" lon="-2.940500">
        <ele>657.0</ele>
        <time>2013-07-29T14:02:01Z</time>
      </trkpt>
      <trkpt lat="43.106300" lon="-2.940500">
        <ele>657.0</ele>
        <time>2013-07-29T14:02:02Z</time>
      </trkpt>
      <trkpt lat="43.106300" lon="-2.940500">
        <ele>657.0</ele>
        <time>2013-07-29T14:02:03Z</time>
      </trkpt>
      <trkpt lat="43.106300" lon="-2.940500">
        <ele>657.0</ele>
        <time>2013-07-29T14:02:04Z</time>
      </trkpt>
      <trkpt lat="43.106283" lon="-2.940500">
        <ele>657.0</ele>
        <time>2013-07-29T14:02:05Z</time>
      </trkpt>
      <trkpt lat="43.106283" lon="-2.940483">
        <ele>657.0</ele>
        <time>2013-07-29T14:02:06Z</time>
      </trkpt>
      <trkpt lat="43.106300" lon="-2.940483">
        <ele>657.0</ele>
        <time>2013-07-29T14:02:07Z</time>
      </trkpt>
      <trkpt lat="43.106300" lon="-2.940500">
        <ele>657.0</ele>
        <time>2013-07-29T14:02:08Z</time>
      </trkpt>
      <trkpt lat="43.106317" lon="-2.940517">
        <ele>657.0</ele>
        <time>2013-07-29T14:02:09Z</time>
      </trkpt>
      <trkpt lat="43.106333" lon="-2.940517">
        <ele>657.0</ele>
        <time>2013-07-29T14:02:10Z</time>
      </trkpt>
      <trkpt lat="43.106333" lon="-2.940517">
        <ele>657.0</ele>
        <time>2013-07-29T14:02:11Z</time>
      </trkpt>
      <trkpt lat="43.106350" lon="-2.940517">
        <ele>658.0</ele>
        <time>2013-07-29T14:02:12Z</time>
      </trkpt>
      <trkpt lat="43.106350" lon="-2.940517">
        <ele>658.0</ele>
        <time>2013-07-29T14:02:13Z</time>
      </trkpt>
      <trkpt lat="43.106367" lon="-2.940533">
        <ele>658.0</ele>
        <time>2013-07-29T14:02:14Z</time>
      </trkpt>
      <trkpt lat="43.106367" lon="-2.940533">
        <ele>658.0</ele>
        <time>2013-07-29T14:02:15Z</time>
      </trkpt>
      <trkpt lat="43.106383" lon="-2.940533">
        <ele>658.0</ele>
        <time>2013-07-29T14:02:16Z</time>
      </trkpt>
      <trkpt lat="43.106383" lon="-2.940533">
        <ele>658.0</ele>
        <time>2013-07-29T14:02:17Z</time>
      </trkpt>
      <trkpt lat="43.106400" lon="-2.940533">
        <ele>658.0</ele>
        <time>2013-07-29T14:02:18Z</time>
      </trkpt>
      <trkpt lat="43.106400" lon="-2.940517">
        <ele>658.0</ele>
        <time>2013-07-29T14:02:19Z</time>
      </trkpt>
      <trkpt lat="43.106400" lon="-2.940517">
        <ele>658.0</ele>
        <time>2013-07-29T14:02:20Z</time>
      </trkpt>
      <trkpt lat="43.106400" lon="-2.940517">
        <ele>658.0</ele>
        <time>2013-07-29T14:02:21Z</time>
      </trkpt>
      <trkpt lat="43.106383" lon="-2.940533">
        <ele>658.0</ele>
        <time>2013-07-29T14:02:22Z</time>
      </trkpt>
      <trkpt lat="43.106367" lon="-2.940567">
        <ele>658.0</ele>
        <time>2013-07-29T14:02:23Z</time>
      </trkpt>
      <trkpt lat="43.106367" lon="-2.940567">
        <ele>658.0</ele>
        <time>2013-07-29T14:02:24Z</time>
      </trkpt>
      <trkpt lat="43.106367" lon="-2.940567">
        <ele>658.0</ele>
        <time>2013-07-29T14:02:25Z</time>
      </trkpt>
      <trkpt lat="43.106350" lon="-2.940567">
        <ele>658.0</ele>
        <time>2013-07-29T14:02:26Z</time>
      </trkpt>
      <trkpt lat="43.106367" lon="-2.940567">
        <ele>658.0</ele>
        <time>2013-07-29T14:02:27Z</time>
      </trkpt>
      <trkpt lat="43.106367" lon="-2.940567">
        <ele>658.0</ele>
        <time>2013-07-29T14:02:28Z</time>
      </trkpt>
      <trkpt lat="43.106367" lon="-2.940567">
        <ele>658.0</ele>
        <time>2013-07-29T14:02:29Z</time>
      </trkpt>
      <trkpt lat="43.106367" lon="-2.940567">
        <ele>658.0</ele>
        <time>2013-07-29T14:02:30Z</time>
      </trkpt>
      <trkpt lat="43.106367" lon="-2.940550">
        <ele>658.0</ele>
        <time>2013-07-29T14:02:31Z</time>
      </trkpt>
      <trkpt lat="43.106367" lon="-2.940567">
        <ele>658.0</ele>
        <time>2013-07-29T14:02:32Z</time>
      </trkpt>
      <trkpt lat="43.106367" lon="-2.940567">
        <ele>658.0</ele>
        <time>2013-07-29T14:02:33Z</time>
      </trkpt>
      <trkpt lat="43.106367" lon="-2.940567">
        <ele>658.0</ele>
        <time>2013-07-29T14:02:34Z</time>
      </trkpt>
      <trkpt lat="43.106383" lon="-2.940533">
        <ele>658.0</ele>
        <time>2013-07-29T14:02:35Z</time>
      </trkpt>
      <trkpt lat="43.106383" lon="-2.940533">
        <ele>658.0</ele>
        <time>2013-07-29T14:02:36Z</time>
      </trkpt>
      <trkpt lat="43.106383" lon="-2.940533">
        <ele>658.0</ele>
        <time>2013-07-29T14:02:37Z</time>
      </trkpt>
      <trkpt lat="43.106367" lon="-2.940550">
        <ele>658.0</ele>
        <time>2013-07-29T14:02:38Z</time>
      </trkpt>
      <trkpt lat="43.106367" lon="-2.940550">
        <ele>658.0</ele>
        <time>2013-07-29T14:02:39Z</time>
      </trkpt>
      <trkpt lat="43.106383" lon="-2.940567">
        <ele>658.0</ele>
        <time>2013-07-29T14:02:40Z</time>
      </trkpt>
      <trkpt lat="43.106383" lon="-2.940567">
        <ele>658.0</ele>
        <time>2013-07-29T14:02:41Z</time>
      </trkpt>
      <trkpt lat="43.106383" lon="-2.940567">
        <ele>658.0</ele>
        <time>2013-07-29T14:02:42Z</time>
      </trkpt>
      <trkpt lat="43.106383" lon="-2.940567">
        <ele>658.0</ele>
        <time>2013-07-29T14:02:43Z</time>
      </trkpt>
      <trkpt lat="43.106400" lon="-2.940583">
        <ele>658.0</ele>
        <time>2013-07-29T14:02:44Z</time>
      </trkpt>
      <trkpt lat="43.106400" lon="-2.940567">
        <ele>658.0</ele>
        <time>2013-07-29T14:02:45Z</time>
      </trkpt>
      <trkpt lat="43.106400" lon="-2.940567">
        <ele>658.0</ele>
        <time>2013-07-29T14:02:46Z</time>
      </trkpt>
      <trkpt lat="43.106400" lon="-2.940567">
        <ele>658.0</ele>
        <time>2013-07-29T14:02:47Z</time>
      </trkpt>
      <trkpt lat="43.106400" lon="-2.940550">
        <ele>658.0</ele>
        <time>2013-07-29T14:02:48Z</time>
      </trkpt>
      <trkpt lat="43.106417" lon="-2.940550">
        <ele>658.0</ele>
        <time>2013-07-29T14:02:49Z</time>
      </trkpt>
      <trkpt lat="43.106400" lon="-2.940550">
        <ele>658.0</ele>
        <time>2013-07-29T14:02:50Z</time>
      </trkpt>
      <trkpt lat="43.106417" lon="-2.940550">
        <ele>658.0</ele>
        <time>2013-07-29T14:02:51Z</time>
      </trkpt>
      <trkpt lat="43.106417" lon="-2.940567">
        <ele>658.0</ele>
        <time>2013-07-29T14:02:52Z</time>
      </trkpt>
      <trkpt lat="43.106417" lon="-2.940550">
        <ele>658.0</ele>
        <time>2013-07-29T14:02:53Z</time>
      </trkpt>
      <trkpt lat="43.106417" lon="-2.940567">
        <ele>658.0</ele>
        <time>2013-07-29T14:02:54Z</time>
      </trkpt>
      <trkpt lat="43.106400" lon="-2.940567">
        <ele>658.0</ele>
        <time>2013-07-29T14:02:55Z</time>
      </trkpt>
      <trkpt lat="43.106417" lon="-2.940567">
        <ele>658.0</ele>
        <time>2013-07-29T14:02:56Z</time>
      </trkpt>
      <trkpt lat="43.106417" lon="-2.940567">
        <ele>658.0</ele>
        <time>2013-07-29T14:02:57Z</time>
      </trkpt>
      <trkpt lat="43.106417" lon="-2.940567">
        <ele>658.0</ele>
        <time>2013-07-29T14:02:58Z</time>
      </trkpt>
      <trkpt lat="43.106417" lon="-2.940567">
        <ele>658.0</ele>
        <time>2013-07-29T14:02:59Z</time>
      </trkpt>
      <trkpt lat="43.106417" lon="-2.940567">
        <ele>658.0</ele>
        <time>2013-07-29T14:03:00Z</time>
      </trkpt>
      <trkpt lat="43.106433" lon="-2.940567">
        <ele>658.0</ele>
        <time>2013-07-29T14:03:01Z</time>
      </trkpt>
      <trkpt lat="43.106433" lon="-2.940583">
        <ele>658.0</ele>
        <time>2013-07-29T14:03:02Z</time>
      </trkpt>
      <trkpt lat="43.106433" lon="-2.940583">
        <ele>658.0</ele>
        <time>2013-07-29T14:03:03Z</time>
      </trkpt>
      <trkpt lat="43.106433" lon="-2.940583">
        <ele>658.0</ele>
        <time>2013-07-29T14:03:04Z</time>
      </trkpt>
      <trkpt lat="43.106433" lon="-2.940567">
        <ele>658.0</ele>
        <time>2013-07-29T14:03:05Z</time>
      </trkpt>
      <trkpt lat="43.106433" lon="-2.940567">
        <ele>658.0</ele>
        <time>2013-07-29T14:03:06Z</time>
      </trkpt>
      <trkpt lat="43.106417" lon="-2.940567">
        <ele>658.0</ele>
        <time>2013-07-29T14:03:07Z</time>
      </trkpt>
      <trkpt lat="43.106417" lon="-2.940567">
        <ele>658.0</ele>
        <time>2013-07-29T14:03:08Z</time>
      </trkpt>
      <trkpt lat="43.106433" lon="-2.940567">
        <ele>658.0</ele>
        <time>2013-07-29T14:03:09Z</time>
      </trkpt>
      <trkpt lat="43.106417" lon="-2.940567">
        <ele>658.0</ele>
        <time>2013-07-29T14:03:10Z</time>
      </trkpt>
      <trkpt lat="43.106417" lon="-2.940567">
        <ele>658.0</ele>
        <time>2013-07-29T14:03:11Z</time>
      </trkpt>
      <trkpt lat="43.106433" lon="-2.940583">
        <ele>658.0</ele>
        <time>2013-07-29T14:03:12Z</time>
      </trkpt>
      <trkpt lat="43.106433" lon="-2.940567">
        <ele>658.0</ele>
        <time>2013-07-29T14:03:13Z</time>
      </trkpt>
      <trkpt lat="43.106433" lon="-2.940567">
        <ele>658.0</ele>
        <time>2013-07-29T14:03:14Z</time>
      </trkpt>
      <trkpt lat="43.106433" lon="-2.940567">
        <ele>658.0</ele>
        <time>2013-07-29T14:03:15Z</time>
      </trkpt>
      <trkpt lat="43.106433" lon="-2.940567">
        <ele>658.0</ele>
        <time>2013-07-29T14:03:16Z</time>
      </trkpt>
      <trkpt lat="43.106433" lon="-2.940567">
        <ele>658.0</ele>
        <time>2013-07-29T14:03:17Z</time>
      </trkpt>
      <trkpt lat="43.106433" lon="-2.940567">
        <ele>658.0</ele>
        <time>2013-07-29T14:03:18Z</time>
      </trkpt>
      <trkpt lat="43.106417" lon="-2.940567">
        <ele>658.0</ele>
        <time>2013-07-29T14:03:19Z</time>
      </trkpt>
      <trkpt lat="43.106417" lon="-2.940567">
        <ele>658.0</ele>
        <time>2013-07-29T14:03:20Z</time>
      </trkpt>
      <trkpt lat="43.106433" lon="-2.940567">
        <ele>658.0</ele>
        <time>2013-07-29T14:03:21Z</time>
      </trkpt>
      <trkpt lat="43.106417" lon="-2.940567">
        <ele>658.0</ele>
        <time>2013-07-29T14:03:22Z</time>
      </trkpt>
      <trkpt lat="43.106433" lon="-2.940550">
        <ele>658.0</ele>
        <time>2013-07-29T14:03:23Z</time>
      </trkpt>
      <trkpt lat="43.106433" lon="-2.940550">
        <ele>658.0</ele>
        <time>2013-07-29T14:03:24Z</time>
      </trkpt>
      <trkpt lat="43.106417" lon="-2.940550">
        <ele>658.0</ele>
        <time>2013-07-29T14:03:25Z</time>
      </trkpt>
      <trkpt lat="43.106433" lon="-2.940567">
        <ele>658.0</ele>
        <time>2013-07-29T14:03:26Z</time>
      </trkpt>
      <trkpt lat="43.106417" lon="-2.940567">
        <ele>658.0</ele>
        <time>2013-07-29T14:03:27Z</time>
      </trkpt>
      <trkpt lat="43.106417" lon="-2.940567">
        <ele>658.0</ele>
        <time>2013-07-29T14:03:28Z</time>
      </trkpt>
      <trkpt lat="43.106417" lon="-2.940550">
        <ele>658.0</ele>
        <time>2013-07-29T14:03:29Z</time>
      </trkpt>
      <trkpt lat="43.106400" lon="-2.940550">
        <ele>658.0</ele>
        <time>2013-07-29T14:03:30Z</time>
      </trkpt>
      <trkpt lat="43.106400" lon="-2.940567">
        <ele>658.0</ele>
        <time>2013-07-29T14:03:31Z</time>
      </trkpt>
      <trkpt lat="43.106383" lon="-2.940550">
        <ele>659.0</ele>
        <time>2013-07-29T14:03:32Z</time>
      </trkpt>
      <trkpt lat="43.106383" lon="-2.940550">
        <ele>659.0</ele>
        <time>2013-07-29T14:03:33Z</time>
      </trkpt>
      <trkpt lat="43.106383" lon="-2.940567">
        <ele>659.0</ele>
        <time>2013-07-29T14:03:34Z</time>
      </trkpt>
      <trkpt lat="43.106383" lon="-2.940567">
        <ele>659.0</ele>
        <time>2013-07-29T14:03:35Z</time>
      </trkpt>
      <trkpt lat="43.106383" lon="-2.940583">
        <ele>659.0</ele>
        <time>2013-07-29T14:03:36Z</time>
      </trkpt>
      <trkpt lat="43.106383" lon="-2.940583">
        <ele>659.0</ele>
        <time>2013-07-29T14:03:37Z</time>
      </trkpt>
      <trkpt lat="43.106383" lon="-2.940583">
        <ele>659.0</ele>
        <time>2013-07-29T14:03:38Z</time>
      </trkpt>
      <trkpt lat="43.106400" lon="-2.940583">
        <ele>659.0</ele>
        <time>2013-07-29T14:03:39Z</time>
      </trkpt>
      <trkpt lat="43.106417" lon="-2.940567">
        <ele>659.0</ele>
        <time>2013-07-29T14:03:40Z</time>
      </trkpt>
      <trkpt lat="43.106417" lon="-2.940567">
        <ele>659.0</ele>
        <time>2013-07-29T14:03:41Z</time>
      </trkpt>
      <trkpt lat="43.106417" lon="-2.940550">
        <ele>659.0</ele>
        <time>2013-07-29T14:03:42Z</time>
      </trkpt>
      <trkpt lat="43.106433" lon="-2.940533">
        <ele>659.0</ele>
        <time>2013-07-29T14:03:43Z</time>
      </trkpt>
      <trkpt lat="43.106433" lon="-2.940533">
        <ele>659.0</ele>
        <time>2013-07-29T14:03:44Z</time>
      </trkpt>
      <trkpt lat="43.106433" lon="-2.940533">
        <ele>659.0</ele>
        <time>2013-07-29T14:03:45Z</time>
      </trkpt>
      <trkpt lat="43.106450" lon="-2.940533">
        <ele>659.0</ele>
        <time>2013-07-29T14:03:46Z</time>
      </trkpt>
      <trkpt lat="43.106450" lon="-2.940533">
        <ele>659.0</ele>
        <time>2013-07-29T14:03:47Z</time>
      </trkpt>
      <trkpt lat="43.106450" lon="-2.940533">
        <ele>659.0</ele>
        <time>2013-07-29T14:03:48Z</time>
      </trkpt>
      <trkpt lat="43.106467" lon="-2.940533">
        <ele>659.0</ele>
        <time>2013-07-29T14:03:49Z</time>
      </trkpt>
      <trkpt lat="43.106467" lon="-2.940533">
        <ele>659.0</ele>
        <time>2013-07-29T14:03:50Z</time>
      </trkpt>
      <trkpt lat="43.106467" lon="-2.940533">
        <ele>659.0</ele>
        <time>2013-07-29T14:03:51Z</time>
      </trkpt>
      <trkpt lat="43.106467" lon="-2.940533">
        <ele>659.0</ele>
        <time>2013-07-29T14:03:52Z</time>
      </trkpt>
      <trkpt lat="43.106467" lon="-2.940533">
        <ele>659.0</ele>
        <time>2013-07-29T14:03:53Z</time>
      </trkpt>
      <trkpt lat="43.106450" lon="-2.940533">
        <ele>659.0</ele>
        <time>2013-07-29T14:03:54Z</time>
      </trkpt>
      <trkpt lat="43.106467" lon="-2.940533">
        <ele>659.0</ele>
        <time>2013-07-29T14:03:55Z</time>
      </trkpt>
      <trkpt lat="43.106450" lon="-2.940533">
        <ele>659.0</ele>
        <time>2013-07-29T14:03:56Z</time>
      </trkpt>
      <trkpt lat="43.106450" lon="-2.940550">
        <ele>659.0</ele>
        <time>2013-07-29T14:03:57Z</time>
      </trkpt>
      <trkpt lat="43.106450" lon="-2.940533">
        <ele>659.0</ele>
        <time>2013-07-29T14:03:58Z</time>
      </trkpt>
      <trkpt lat="43.106450" lon="-2.940533">
        <ele>659.0</ele>
        <time>2013-07-29T14:03:59Z</time>
      </trkpt>
      <trkpt lat="43.106450" lon="-2.940533">
        <ele>659.0</ele>
        <time>2013-07-29T14:04:00Z</time>
      </trkpt>
      <trkpt lat="43.106450" lon="-2.940550">
        <ele>659.0</ele>
        <time>2013-07-29T14:04:01Z</time>
      </trkpt>
      <trkpt lat="43.106450" lon="-2.940550">
        <ele>659.0</ele>
        <time>2013-07-29T14:04:02Z</time>
      </trkpt>
      <trkpt lat="43.106450" lon="-2.940550">
        <ele>659.0</ele>
        <time>2013-07-29T14:04:03Z</time>
      </trkpt>
      <trkpt lat="43.106450" lon="-2.940550">
        <ele>660.0</ele>
        <time>2013-07-29T14:04:04Z</time>
      </trkpt>
      <trkpt lat="43.106450" lon="-2.940550">
        <ele>660.0</ele>
        <time>2013-07-29T14:04:05Z</time>
      </trkpt>
      <trkpt lat="43.106450" lon="-2.940550">
        <ele>660.0</ele>
        <time>2013-07-29T14:04:06Z</time>
      </trkpt>
      <trkpt lat="43.106450" lon="-2.940550">
        <ele>660.0</ele>
        <time>2013-07-29T14:04:07Z</time>
      </trkpt>
      <trkpt lat="43.106450" lon="-2.940550">
        <ele>660.0</ele>
        <time>2013-07-29T14:04:08Z</time>
      </trkpt>
      <trkpt lat="43.106467" lon="-2.940550">
        <ele>660.0</ele>
        <time>2013-07-29T14:04:09Z</time>
      </trkpt>
      <trkpt lat="43.106450" lon="-2.940550">
        <ele>660.0</ele>
        <time>2013-07-29T14:04:10Z</time>
      </trkpt>
      <trkpt lat="43.106450" lon="-2.940550">
        <ele>660.0</ele>
        <time>2013-07-29T14:04:11Z</time>
      </trkpt>
      <trkpt lat="43.106450" lon="-2.940567">
        <ele>660.0</ele>
        <time>2013-07-29T14:04:12Z</time>
      </trkpt>
      <trkpt lat="43.106450" lon="-2.940550">
        <ele>660.0</ele>
        <time>2013-07-29T14:04:13Z</time>
      </trkpt>
      <trkpt lat="43.106450" lon="-2.940567">
        <ele>660.0</ele>
        <time>2013-07-29T14:04:14Z</time>
      </trkpt>
      <trkpt lat="43.106450" lon="-2.940550">
        <ele>660.0</ele>
        <time>2013-07-29T14:04:15Z</time>
      </trkpt>
      <trkpt lat="43.106450" lon="-2.940567">
        <ele>661.0</ele>
        <time>2013-07-29T14:04:16Z</time>
      </trkpt>
      <trkpt lat="43.106467" lon="-2.940567">
        <ele>661.0</ele>
        <time>2013-07-29T14:04:17Z</time>
      </trkpt>
      <trkpt lat="43.106450" lon="-2.940567">
        <ele>661.0</ele>
        <time>2013-07-29T14:04:18Z</time>
      </trkpt>
      <trkpt lat="43.106450" lon="-2.940567">
        <ele>661.0</ele>
        <time>2013-07-29T14:04:19Z</time>
      </trkpt>
      <trkpt lat="43.106467" lon="-2.940567">
        <ele>662.0</ele>
        <time>2013-07-29T14:04:20Z</time>
      </trkpt>
      <trkpt lat="43.106467" lon="-2.940567">
        <ele>662.0</ele>
        <time>2013-07-29T14:04:21Z</time>
      </trkpt>
      <trkpt lat="43.106467" lon="-2.940567">
        <ele>662.0</ele>
        <time>2013-07-29T14:04:22Z</time>
      </trkpt>
      <trkpt lat="43.106467" lon="-2.940567">
        <ele>662.0</ele>
        <time>2013-07-29T14:04:23Z</time>
      </trkpt>
      <trkpt lat="43.106450" lon="-2.940567">
        <ele>661.0</ele>
        <time>2013-07-29T14:04:24Z</time>
      </trkpt>
      <trkpt lat="43.106450" lon="-2.940567">
        <ele>661.0</ele>
        <time>2013-07-29T14:04:25Z</time>
      </trkpt>
      <trkpt lat="43.106450" lon="-2.940567">
        <ele>661.0</ele>
        <time>2013-07-29T14:04:26Z</time>
      </trkpt>
      <trkpt lat="43.106467" lon="-2.940567">
        <ele>661.0</ele>
        <time>2013-07-29T14:04:27Z</time>
      </trkpt>
      <trkpt lat="43.106450" lon="-2.940567">
        <ele>661.0</ele>
        <time>2013-07-29T14:04:28Z</time>
      </trkpt>
      <trkpt lat="43.106450" lon="-2.940567">
        <ele>661.0</ele>
        <time>2013-07-29T14:04:29Z</time>
      </trkpt>
      <trkpt lat="43.106450" lon="-2.940567">
        <ele>661.0</ele>
        <time>2013-07-29T14:04:30Z</time>
      </trkpt>
      <trkpt lat="43.106450" lon="-2.940567">
        <ele>661.0</ele>
        <time>2013-07-29T14:04:31Z</time>
      </trkpt>
      <trkpt lat="43.106450" lon="-2.940550">
        <ele>661.0</ele>
        <time>2013-07-29T14:04:32Z</time>
      </trkpt>
      <trkpt lat="43.106450" lon="-2.940567">
        <ele>661.0</ele>
        <time>2013-07-29T14:04:33Z</time>
      </trkpt>
      <trkpt lat="43.106467" lon="-2.940567">
        <ele>661.0</ele>
        <time>2013-07-29T14:04:34Z</time>
      </trkpt>
      <trkpt lat="43.106467" lon="-2.940567">
        <ele>661.0</ele>
        <time>2013-07-29T14:04:35Z</time>
      </trkpt>
      <trkpt lat="43.106450" lon="-2.940567">
        <ele>661.0</ele>
        <time>2013-07-29T14:04:36Z</time>
      </trkpt>
      <trkpt lat="43.106450" lon="-2.940567">
        <ele>661.0</ele>
        <time>2013-07-29T14:04:37Z</time>
      </trkpt>
      <trkpt lat="43.106467" lon="-2.940567">
        <ele>661.0</ele>
        <time>2013-07-29T14:04:38Z</time>
      </trkpt>
      <trkpt lat="43.106467" lon="-2.940567">
        <ele>661.0</ele>
        <time>2013-07-29T14:04:39Z</time>
      </trkpt>
      <trkpt lat="43.106467" lon="-2.940567">
        <ele>661.0</ele>
        <time>2013-07-29T14:04:40Z</time>
      </trkpt>
      <trkpt lat="43.106467" lon="-2.940567">
        <ele>661.0</ele>
        <time>2013-07-29T14:04:41Z</time>
      </trkpt>
      <trkpt lat="43.106467" lon="-2.940567">
        <ele>661.0</ele>
        <time>2013-07-29T14:04:42Z</time>
      </trkpt>
      <trkpt lat="43.106467" lon="-2.940567">
        <ele>661.0</ele>
        <time>2013-07-29T14:04:43Z</time>
      </trkpt>
      <trkpt lat="43.106467" lon="-2.940567">
        <ele>661.0</ele>
        <time>2013-07-29T14:04:44Z</time>
      </trkpt>
      <trkpt lat="43.106467" lon="-2.940567">
        <ele>661.0</ele>
        <time>2013-07-29T14:04:45Z</time>
      </trkpt>
      <trkpt lat="43.106467" lon="-2.940567">
        <ele>661.0</ele>
        <time>2013-07-29T14:04:46Z</time>
      </trkpt>
      <trkpt lat="43.106450" lon="-2.940567">
        <ele>662.0</ele>
        <time>2013-07-29T14:04:47Z</time>
      </trkpt>
      <trkpt lat="43.106450" lon="-2.940567">
        <ele>662.0</ele>
        <time>2013-07-29T14:04:48Z</time>
      </trkpt>
      <trkpt lat="43.106450" lon="-2.940567">
        <ele>662.0</ele>
        <time>2013-07-29T14:04:49Z</time>
      </trkpt>
      <trkpt lat="43.106450" lon="-2.940567">
        <ele>661.0</ele>
        <time>2013-07-29T14:04:50Z</time>
      </trkpt>
      <trkpt lat="43.106450" lon="-2.940567">
        <ele>661.0</ele>
        <time>2013-07-29T14:04:51Z</time>
      </trkpt>
      <trkpt lat="43.106450" lon="-2.940567">
        <ele>661.0</ele>
        <time>2013-07-29T14:04:52Z</time>
      </trkpt>
      <trkpt lat="43.106450" lon="-2.940567">
        <ele>661.0</ele>
        <time>2013-07-29T14:04:53Z</time>
      </trkpt>
      <trkpt lat="43.106450" lon="-2.940567">
        <ele>662.0</ele>
        <time>2013-07-29T14:04:54Z</time>
      </trkpt>
      <trkpt lat="43.106450" lon="-2.940567">
        <ele>662.0</ele>
        <time>2013-07-29T14:04:55Z</time>
      </trkpt>
      <trkpt lat="43.106450" lon="-2.940567">
        <ele>662.0</ele>
        <time>2013-07-29T14:04:56Z</time>
      </trkpt>
      <trkpt lat="43.106450" lon="-2.940567">
        <ele>662.0</ele>
        <time>2013-07-29T14:04:57Z</time>
      </trkpt>
      <trkpt lat="43.106450" lon="-2.940567">
        <ele>662.0</ele>
        <time>2013-07-29T14:04:58Z</time>
      </trkpt>
      <trkpt lat="43.106450" lon="-2.940567">
        <ele>662.0</ele>
        <time>2013-07-29T14:04:59Z</time>
      </trkpt>
      <trkpt lat="43.106450" lon="-2.940567">
        <ele>662.0</ele>
        <time>2013-07-29T14:05:00Z</time>
      </trkpt>
      <trkpt lat="43.106450" lon="-2.940567">
        <ele>662.0</ele>
        <time>2013-07-29T14:05:01Z</time>
      </trkpt>
      <trkpt lat="43.106450" lon="-2.940567">
        <ele>661.0</ele>
        <time>2013-07-29T14:05:02Z</time>
      </trkpt>
      <trkpt lat="43.106450" lon="-2.940567">
        <ele>662.0</ele>
        <time>2013-07-29T14:05:03Z</time>
      </trkpt>
      <trkpt lat="43.106450" lon="-2.940567">
        <ele>662.0</ele>
        <time>2013-07-29T14:05:04Z</time>
      </trkpt>
      <trkpt lat="43.106450" lon="-2.940567">
        <ele>662.0</ele>
        <time>2013-07-29T14:05:05Z</time>
      </trkpt>
      <trkpt lat="43.106450" lon="-2.940567">
        <ele>662.0</ele>
        <time>2013-07-29T14:05:06Z</time>
      </trkpt>
      <trkpt lat="43.106450" lon="-2.940567">
        <ele>662.0</ele>
        <time>2013-07-29T14:05:07Z</time>
      </trkpt>
      <trkpt lat="43.106450" lon="-2.940567">
        <ele>662.0</ele>
        <time>2013-07-29T14:05:08Z</time>
      </trkpt>
      <trkpt lat="43.106450" lon="-2.940567">
        <ele>662.0</ele>
        <time>2013-07-29T14:05:09Z</time>
      </trkpt>
      <trkpt lat="43.106433" lon="-2.940583">
        <ele>662.0</ele>
        <time>2013-07-29T14:05:10Z</time>
      </trkpt>
      <trkpt lat="43.106433" lon="-2.940583">
        <ele>662.0</ele>
        <time>2013-07-29T14:05:11Z</time>
      </trkpt>
      <trkpt lat="43.106450" lon="-2.940583">
        <ele>662.0</ele>
        <time>2013-07-29T14:05:12Z</time>
      </trkpt>
      <trkpt lat="43.106450" lon="-2.940583">
        <ele>662.0</ele>
        <time>2013-07-29T14:05:13Z</time>
      </trkpt>
      <trkpt lat="43.106450" lon="-2.940583">
        <ele>662.0</ele>
        <time>2013-07-29T14:05:14Z</time>
      </trkpt>
      <trkpt lat="43.106450" lon="-2.940583">
        <ele>662.0</ele>
        <time>2013-07-29T14:05:15Z</time>
      </trkpt>
      <trkpt lat="43.106433" lon="-2.940567">
        <ele>662.0</ele>
        <time>2013-07-29T14:05:16Z</time>
      </trkpt>
      <trkpt lat="43.106433" lon="-2.940567">
        <ele>662.0</ele>
        <time>2013-07-29T14:05:17Z</time>
      </trkpt>
      <trkpt lat="43.106433" lon="-2.940567">
        <ele>663.0</ele>
        <time>2013-07-29T14:05:18Z</time>
      </trkpt>
      <trkpt lat="43.106433" lon="-2.940550">
        <ele>663.0</ele>
        <time>2013-07-29T14:05:19Z</time>
      </trkpt>
      <trkpt lat="43.106433" lon="-2.940550">
        <ele>663.0</ele>
        <time>2013-07-29T14:05:20Z</time>
      </trkpt>
      <trkpt lat="43.106433" lon="-2.940550">
        <ele>663.0</ele>
        <time>2013-07-29T14:05:21Z</time>
      </trkpt>
      <trkpt lat="43.106433" lon="-2.940533">
        <ele>663.0</ele>
        <time>2013-07-29T14:05:22Z</time>
      </trkpt>
      <trkpt lat="43.106433" lon="-2.940533">
        <ele>663.0</ele>
        <time>2013-07-29T14:05:23Z</time>
      </trkpt>
      <trkpt lat="43.106433" lon="-2.940517">
        <ele>663.0</ele>
        <time>2013-07-29T14:05:24Z</time>
      </trkpt>
      <trkpt lat="43.106433" lon="-2.940517">
        <ele>663.0</ele>
        <time>2013-07-29T14:05:25Z</time>
      </trkpt>
      <trkpt lat="43.106433" lon="-2.940500">
        <ele>662.0</ele>
        <time>2013-07-29T14:05:26Z</time>
      </trkpt>
      <trkpt lat="43.106433" lon="-2.940500">
        <ele>662.0</ele>
        <time>2013-07-29T14:05:27Z</time>
      </trkpt>
      <trkpt lat="43.106433" lon="-2.940500">
        <ele>662.0</ele>
        <time>2013-07-29T14:05:28Z</time>
      </trkpt>
      <trkpt lat="43.106433" lon="-2.940500">
        <ele>662.0</ele>
        <time>2013-07-29T14:05:29Z</time>
      </trkpt>
      <trkpt lat="43.106433" lon="-2.940500">
        <ele>662.0</ele>
        <time>2013-07-29T14:05:30Z</time>
      </trkpt>
      <trkpt lat="43.106433" lon="-2.940500">
        <ele>662.0</ele>
        <time>2013-07-29T14:05:31Z</time>
      </trkpt>
      <trkpt lat="43.106433" lon="-2.940500">
        <ele>662.0</ele>
        <time>2013-07-29T14:05:32Z</time>
      </trkpt>
      <trkpt lat="43.106433" lon="-2.940500">
        <ele>662.0</ele>
        <time>2013-07-29T14:05:33Z</time>
      </trkpt>
      <trkpt lat="43.106433" lon="-2.940500">
        <ele>662.0</ele>
        <time>2013-07-29T14:05:34Z</time>
      </trkpt>
      <trkpt lat="43.106433" lon="-2.940500">
        <ele>662.0</ele>
        <time>2013-07-29T14:05:35Z</time>
      </trkpt>
      <trkpt lat="43.106433" lon="-2.940500">
        <ele>662.0</ele>
        <time>2013-07-29T14:05:36Z</time>
      </trkpt>
      <trkpt lat="43.106433" lon="-2.940500">
        <ele>662.0</ele>
        <time>2013-07-29T14:05:37Z</time>
      </trkpt>
      <trkpt lat="43.106433" lon="-2.940500">
        <ele>662.0</ele>
        <time>2013-07-29T14:05:38Z</time>
      </trkpt>
      <trkpt lat="43.106433" lon="-2.940500">
        <ele>662.0</ele>
        <time>2013-07-29T14:05:39Z</time>
      </trkpt>
      <trkpt lat="43.106433" lon="-2.940500">
        <ele>662.0</ele>
        <time>2013-07-29T14:05:40Z</time>
      </trkpt>
      <trkpt lat="43.106433" lon="-2.940500">
        <ele>661.0</ele>
        <time>2013-07-29T14:05:41Z</time>
      </trkpt>
      <trkpt lat="43.106433" lon="-2.940500">
        <ele>662.0</ele>
        <time>2013-07-29T14:05:42Z</time>
      </trkpt>
      <trkpt lat="43.106433" lon="-2.940500">
        <ele>661.0</ele>
        <time>2013-07-29T14:05:43Z</time>
      </trkpt>
      <trkpt lat="43.106433" lon="-2.940483">
        <ele>661.0</ele>
        <time>2013-07-29T14:05:44Z</time>
      </trkpt>
      <trkpt lat="43.106433" lon="-2.940483">
        <ele>661.0</ele>
        <time>2013-07-29T14:05:45Z</time>
      </trkpt>
      <trkpt lat="43.106433" lon="-2.940500">
        <ele>661.0</ele>
        <time>2013-07-29T14:05:46Z</time>
      </trkpt>
      <trkpt lat="43.106433" lon="-2.940483">
        <ele>661.0</ele>
        <time>2013-07-29T14:05:47Z</time>
      </trkpt>
      <trkpt lat="43.106433" lon="-2.940483">
        <ele>661.0</ele>
        <time>2013-07-29T14:05:48Z</time>
      </trkpt>
      <trkpt lat="43.106433" lon="-2.940483">
        <ele>661.0</ele>
        <time>2013-07-29T14:05:49Z</time>
      </trkpt>
      <trkpt lat="43.106433" lon="-2.940483">
        <ele>661.0</ele>
        <time>2013-07-29T14:05:50Z</time>
      </trkpt>
      <trkpt lat="43.106433" lon="-2.940483">
        <ele>661.0</ele>
        <time>2013-07-29T14:05:51Z</time>
      </trkpt>
      <trkpt lat="43.106433" lon="-2.940483">
        <ele>661.0</ele>
        <time>2013-07-29T14:05:52Z</time>
      </trkpt>
      <trkpt lat="43.106433" lon="-2.940483">
        <ele>661.0</ele>
        <time>2013-07-29T14:05:53Z</time>
      </trkpt>
      <trkpt lat="43.106433" lon="-2.940483">
        <ele>661.0</ele>
        <time>2013-07-29T14:05:54Z</time>
      </trkpt>
      <trkpt lat="43.106433" lon="-2.940483">
        <ele>660.0</ele>
        <time>2013-07-29T14:05:55Z</time>
      </trkpt>
      <trkpt lat="43.106433" lon="-2.940483">
        <ele>660.0</ele>
        <time>2013-07-29T14:05:56Z</time>
      </trkpt>
      <trkpt lat="43.106433" lon="-2.940483">
        <ele>660.0</ele>
        <time>2013-07-29T14:05:57Z</time>
      </trkpt>
      <trkpt lat="43.106433" lon="-2.940483">
        <ele>661.0</ele>
        <time>2013-07-29T14:05:58Z</time>
      </trkpt>
      <trkpt lat="43.106433" lon="-2.940483">
        <ele>660.0</ele>
        <time>2013-07-29T14:05:59Z</time>
      </trkpt>
      <trkpt lat="43.106433" lon="-2.940483">
        <ele>660.0</ele>
        <time>2013-07-29T14:06:00Z</time>
      </trkpt>
      <trkpt lat="43.106417" lon="-2.940483">
        <ele>660.0</ele>
        <time>2013-07-29T14:06:01Z</time>
      </trkpt>
      <trkpt lat="43.106433" lon="-2.940483">
        <ele>660.0</ele>
        <time>2013-07-29T14:06:02Z</time>
      </trkpt>
      <trkpt lat="43.106433" lon="-2.940483">
        <ele>660.0</ele>
        <time>2013-07-29T14:06:03Z</time>
      </trkpt>
      <trkpt lat="43.106417" lon="-2.940483">
        <ele>660.0</ele>
        <time>2013-07-29T14:06:04Z</time>
      </trkpt>
      <trkpt lat="43.106417" lon="-2.940483">
        <ele>660.0</ele>
        <time>2013-07-29T14:06:05Z</time>
      </trkpt>
      <trkpt lat="43.106417" lon="-2.940483">
        <ele>660.0</ele>
        <time>2013-07-29T14:06:06Z</time>
      </trkpt>
      <trkpt lat="43.106417" lon="-2.940483">
        <ele>660.0</ele>
        <time>2013-07-29T14:06:07Z</time>
      </trkpt>
      <trkpt lat="43.106433" lon="-2.940483">
        <ele>660.0</ele>
        <time>2013-07-29T14:06:08Z</time>
      </trkpt>
      <trkpt lat="43.106433" lon="-2.940483">
        <ele>660.0</ele>
        <time>2013-07-29T14:06:09Z</time>
      </trkpt>
      <trkpt lat="43.106433" lon="-2.940483">
        <ele>660.0</ele>
        <time>2013-07-29T14:06:10Z</time>
      </trkpt>
      <trkpt lat="43.106433" lon="-2.940467">
        <ele>660.0</ele>
        <time>2013-07-29T14:06:11Z</time>
      </trkpt>
      <trkpt lat="43.106433" lon="-2.940467">
        <ele>660.0</ele>
        <time>2013-07-29T14:06:12Z</time>
      </trkpt>
      <trkpt lat="43.106433" lon="-2.940483">
        <ele>660.0</ele>
        <time>2013-07-29T14:06:13Z</time>
      </trkpt>
      <trkpt lat="43.106433" lon="-2.940483">
        <ele>660.0</ele>
        <time>2013-07-29T14:06:14Z</time>
      </trkpt>
      <trkpt lat="43.106450" lon="-2.940483">
        <ele>660.0</ele>
        <time>2013-07-29T14:06:15Z</time>
      </trkpt>
      <trkpt lat="43.106450" lon="-2.940483">
        <ele>660.0</ele>
        <time>2013-07-29T14:06:16Z</time>
      </trkpt>
      <trkpt lat="43.106433" lon="-2.940483">
        <ele>660.0</ele>
        <time>2013-07-29T14:06:17Z</time>
      </trkpt>
      <trkpt lat="43.106433" lon="-2.940483">
        <ele>660.0</ele>
        <time>2013-07-29T14:06:18Z</time>
      </trkpt>
      <trkpt lat="43.106433" lon="-2.940483">
        <ele>660.0</ele>
        <time>2013-07-29T14:06:19Z</time>
      </trkpt>
      <trkpt lat="43.106433" lon="-2.940483">
        <ele>660.0</ele>
        <time>2013-07-29T14:06:20Z</time>
      </trkpt>
      <trkpt lat="43.106433" lon="-2.940483">
        <ele>660.0</ele>
        <time>2013-07-29T14:06:21Z</time>
      </trkpt>
      <trkpt lat="43.106433" lon="-2.940500">
        <ele>660.0</ele>
        <time>2013-07-29T14:06:22Z</time>
      </trkpt>
      <trkpt lat="43.106450" lon="-2.940500">
        <ele>660.0</ele>
        <time>2013-07-29T14:06:23Z</time>
      </trkpt>
      <trkpt lat="43.106450" lon="-2.940483">
        <ele>660.0</ele>
        <time>2013-07-29T14:06:24Z</time>
      </trkpt>
      <trkpt lat="43.106450" lon="-2.940500">
        <ele>660.0</ele>
        <time>2013-07-29T14:06:25Z</time>
      </trkpt>
      <trkpt lat="43.106450" lon="-2.940500">
        <ele>660.0</ele>
        <time>2013-07-29T14:06:26Z</time>
      </trkpt>
      <trkpt lat="43.106450" lon="-2.940500">
        <ele>660.0</ele>
        <time>2013-07-29T14:06:27Z</time>
      </trkpt>
      <trkpt lat="43.106450" lon="-2.940500">
        <ele>660.0</ele>
        <time>2013-07-29T14:06:28Z</time>
      </trkpt>
      <trkpt lat="43.106450" lon="-2.940500">
        <ele>660.0</ele>
        <time>2013-07-29T14:06:29Z</time>
      </trkpt>
      <trkpt lat="43.106450" lon="-2.940500">
        <ele>660.0</ele>
        <time>2013-07-29T14:06:30Z</time>
      </trkpt>
      <trkpt lat="43.106450" lon="-2.940500">
        <ele>660.0</ele>
        <time>2013-07-29T14:06:31Z</time>
      </trkpt>
      <trkpt lat="43.106450" lon="-2.940500">
        <ele>661.0</ele>
        <time>2013-07-29T14:06:32Z</time>
      </trkpt>
      <trkpt lat="43.106450" lon="-2.940500">
        <ele>661.0</ele>
        <time>2013-07-29T14:06:33Z</time>
      </trkpt>
      <trkpt lat="43.106450" lon="-2.940500">
        <ele>661.0</ele>
        <time>2013-07-29T14:06:34Z</time>
      </trkpt>
      <trkpt lat="43.106450" lon="-2.940500">
        <ele>661.0</ele>
        <time>2013-07-29T14:06:35Z</time>
      </trkpt>
      <trkpt lat="43.106450" lon="-2.940500">
        <ele>661.0</ele>
        <time>2013-07-29T14:06:36Z</time>
      </trkpt>
      <trkpt lat="43.106450" lon="-2.940500">
        <ele>661.0</ele>
        <time>2013-07-29T14:06:37Z</time>
      </trkpt>
      <trkpt lat="43.106450" lon="-2.940500">
        <ele>662.0</ele>
        <time>2013-07-29T14:06:38Z</time>
      </trkpt>
      <trkpt lat="43.106450" lon="-2.940500">
        <ele>662.0</ele>
        <time>2013-07-29T14:06:39Z</time>
      </trkpt>
      <trkpt lat="43.106450" lon="-2.940500">
        <ele>662.0</ele>
        <time>2013-07-29T14:06:40Z</time>
      </trkpt>
      <trkpt lat="43.106450" lon="-2.940500">
        <ele>661.0</ele>
        <time>2013-07-29T14:06:40Z</time>
      </trkpt>
      <trkpt lat="43.106450" lon="-2.940500">
        <ele>661.0</ele>
        <time>2013-07-29T14:06:41Z</time>
      </trkpt>
      <trkpt lat="43.106450" lon="-2.940500">
        <ele>661.0</ele>
        <time>2013-07-29T14:06:42Z</time>
      </trkpt>
      <trkpt lat="43.106450" lon="-2.940500">
        <ele>661.0</ele>
        <time>2013-07-29T14:06:44Z</time>
      </trkpt>
      <trkpt lat="43.106450" lon="-2.940500">
        <ele>661.0</ele>
        <time>2013-07-29T14:06:45Z</time>
      </trkpt>
      <trkpt lat="43.106450" lon="-2.940500">
        <ele>661.0</ele>
        <time>2013-07-29T14:06:46Z</time>
      </trkpt>
      <trkpt lat="43.106450" lon="-2.940500">
        <ele>661.0</ele>
        <time>2013-07-29T14:06:47Z</time>
      </trkpt>
      <trkpt lat="43.106450" lon="-2.940500">
        <ele>661.0</ele>
        <time>2013-07-29T14:06:49Z</time>
      </trkpt>
      <trkpt lat="43.106450" lon="-2.940500">
        <ele>661.0</ele>
        <time>2013-07-29T14:06:50Z</time>
      </trkpt>
      <trkpt lat="43.106450" lon="-2.940500">
        <ele>661.0</ele>
        <time>2013-07-29T14:06:51Z</time>
      </trkpt>
      <trkpt lat="43.106450" lon="-2.940500">
        <ele>660.0</ele>
        <time>2013-07-29T14:06:52Z</time>
      </trkpt>
      <trkpt lat="43.106450" lon="-2.940483">
        <ele>660.0</ele>
        <time>2013-07-29T14:06:53Z</time>
      </trkpt>
      <trkpt lat="43.106450" lon="-2.940483">
        <ele>660.0</ele>
        <time>2013-07-29T14:06:54Z</time>
      </trkpt>
      <trkpt lat="43.106450" lon="-2.940483">
        <ele>659.0</ele>
        <time>2013-07-29T14:06:55Z</time>
      </trkpt>
      <trkpt lat="43.106433" lon="-2.940483">
        <ele>659.0</ele>
        <time>2013-07-29T14:06:56Z</time>
      </trkpt>
      <trkpt lat="43.106433" lon="-2.940483">
        <ele>659.0</ele>
        <time>2013-07-29T14:06:57Z</time>
      </trkpt>
      <trkpt lat="43.106433" lon="-2.940483">
        <ele>659.0</ele>
        <time>2013-07-29T14:06:58Z</time>
      </trkpt>
      <trkpt lat="43.106433" lon="-2.940483">
        <ele>659.0</ele>
        <time>2013-07-29T14:06:59Z</time>
      </trkpt>
      <trkpt lat="43.106450" lon="-2.940500">
        <ele>660.0</ele>
        <time>2013-07-29T14:07:00Z</time>
      </trkpt>
      <trkpt lat="43.106433" lon="-2.940500">
        <ele>660.0</ele>
        <time>2013-07-29T14:07:01Z</time>
      </trkpt>
      <trkpt lat="43.106433" lon="-2.940500">
        <ele>661.0</ele>
        <time>2013-07-29T14:07:02Z</time>
      </trkpt>
      <trkpt lat="43.106433" lon="-2.940483">
        <ele>661.0</ele>
        <time>2013-07-29T14:07:03Z</time>
      </trkpt>
      <trkpt lat="43.106433" lon="-2.940483">
        <ele>661.0</ele>
        <time>2013-07-29T14:07:04Z</time>
      </trkpt>
      <trkpt lat="43.106433" lon="-2.940483">
        <ele>661.0</ele>
        <time>2013-07-29T14:07:06Z</time>
      </trkpt>
      <trkpt lat="43.106450" lon="-2.940483">
        <ele>661.0</ele>
        <time>2013-07-29T14:07:07Z</time>
      </trkpt>
      <trkpt lat="43.106450" lon="-2.940483">
        <ele>661.0</ele>
        <time>2013-07-29T14:07:08Z</time>
      </trkpt>
      <trkpt lat="43.106450" lon="-2.940483">
        <ele>661.0</ele>
        <time>2013-07-29T14:07:09Z</time>
      </trkpt>
      <trkpt lat="43.106450" lon="-2.940483">
        <ele>661.0</ele>
        <time>2013-07-29T14:07:10Z</time>
      </trkpt>
      <trkpt lat="43.106450" lon="-2.940483">
        <ele>661.0</ele>
        <time>2013-07-29T14:07:11Z</time>
      </trkpt>
      <trkpt lat="43.106450" lon="-2.940483">
        <ele>661.0</ele>
        <time>2013-07-29T14:07:12Z</time>
      </trkpt>
      <trkpt lat="43.106433" lon="-2.940483">
        <ele>661.0</ele>
        <time>2013-07-29T14:07:13Z</time>
      </trkpt>
      <trkpt lat="43.106433" lon="-2.940483">
        <ele>661.0</ele>
        <time>2013-07-29T14:07:14Z</time>
      </trkpt>
      <trkpt lat="43.106450" lon="-2.940483">
        <ele>661.0</ele>
        <time>2013-07-29T14:07:15Z</time>
      </trkpt>
      <trkpt lat="43.106450" lon="-2.940483">
        <ele>661.0</ele>
        <time>2013-07-29T14:07:16Z</time>
      </trkpt>
      <trkpt lat="43.106450" lon="-2.940483">
        <ele>661.0</ele>
        <time>2013-07-29T14:07:17Z</time>
      </trkpt>
      <trkpt lat="43.106450" lon="-2.940483">
        <ele>661.0</ele>
        <time>2013-07-29T14:07:18Z</time>
      </trkpt>
      <trkpt lat="43.106450" lon="-2.940483">
        <ele>661.0</ele>
        <time>2013-07-29T14:07:19Z</time>
      </trkpt>
      <trkpt lat="43.106450" lon="-2.940483">
        <ele>661.0</ele>
        <time>2013-07-29T14:07:20Z</time>
      </trkpt>
      <trkpt lat="43.106450" lon="-2.940483">
        <ele>661.0</ele>
        <time>2013-07-29T14:07:21Z</time>
      </trkpt>
      <trkpt lat="43.106450" lon="-2.940483">
        <ele>661.0</ele>
        <time>2013-07-29T14:07:22Z</time>
      </trkpt>
      <trkpt lat="43.106433" lon="-2.940483">
        <ele>661.0</ele>
        <time>2013-07-29T14:07:23Z</time>
      </trkpt>
      <trkpt lat="43.106433" lon="-2.940467">
        <ele>661.0</ele>
        <time>2013-07-29T14:07:24Z</time>
      </trkpt>
      <trkpt lat="43.106433" lon="-2.940467">
        <ele>661.0</ele>
        <time>2013-07-29T14:07:25Z</time>
      </trkpt>
      <trkpt lat="43.106433" lon="-2.940467">
        <ele>661.0</ele>
        <time>2013-07-29T14:07:26Z</time>
      </trkpt>
      <trkpt lat="43.106433" lon="-2.940467">
        <ele>661.0</ele>
        <time>2013-07-29T14:07:27Z</time>
      </trkpt>
      <trkpt lat="43.106433" lon="-2.940467">
        <ele>661.0</ele>
        <time>2013-07-29T14:07:28Z</time>
      </trkpt>
      <trkpt lat="43.106433" lon="-2.940483">
        <ele>661.0</ele>
        <time>2013-07-29T14:07:29Z</time>
      </trkpt>
      <trkpt lat="43.106433" lon="-2.940483">
        <ele>661.0</ele>
        <time>2013-07-29T14:07:30Z</time>
      </trkpt>
      <trkpt lat="43.106433" lon="-2.940483">
        <ele>661.0</ele>
        <time>2013-07-29T14:07:31Z</time>
      </trkpt>
      <trkpt lat="43.106433" lon="-2.940483">
        <ele>661.0</ele>
        <time>2013-07-29T14:07:32Z</time>
      </trkpt>
      <trkpt lat="43.106433" lon="-2.940483">
        <ele>661.0</ele>
        <time>2013-07-29T14:07:33Z</time>
      </trkpt>
      <trkpt lat="43.106433" lon="-2.940483">
        <ele>661.0</ele>
        <time>2013-07-29T14:07:34Z</time>
      </trkpt>
      <trkpt lat="43.106433" lon="-2.940483">
        <ele>661.0</ele>
        <time>2013-07-29T14:07:35Z</time>
      </trkpt>
      <trkpt lat="43.106433" lon="-2.940483">
        <ele>661.0</ele>
        <time>2013-07-29T14:07:36Z</time>
      </trkpt>
      <trkpt lat="43.106433" lon="-2.940483">
        <ele>661.0</ele>
        <time>2013-07-29T14:07:37Z</time>
      </trkpt>
      <trkpt lat="43.106433" lon="-2.940483">
        <ele>661.0</ele>
        <time>2013-07-29T14:07:38Z</time>
      </trkpt>
      <trkpt lat="43.106433" lon="-2.940483">
        <ele>661.0</ele>
        <time>2013-07-29T14:07:39Z</time>
      </trkpt>
      <trkpt lat="43.106433" lon="-2.940483">
        <ele>661.0</ele>
        <time>2013-07-29T14:07:40Z</time>
      </trkpt>
      <trkpt lat="43.106433" lon="-2.940483">
        <ele>661.0</ele>
        <time>2013-07-29T14:07:41Z</time>
      </trkpt>
      <trkpt lat="43.106433" lon="-2.940483">
        <ele>660.0</ele>
        <time>2013-07-29T14:07:42Z</time>
      </trkpt>
      <trkpt lat="43.106450" lon="-2.940467">
        <ele>660.0</ele>
        <time>2013-07-29T14:07:43Z</time>
      </trkpt>
      <trkpt lat="43.106433" lon="-2.940467">
        <ele>660.0</ele>
        <time>2013-07-29T14:07:44Z</time>
      </trkpt>
      <trkpt lat="43.106450" lon="-2.940467">
        <ele>660.0</ele>
        <time>2013-07-29T14:07:45Z</time>
      </trkpt>
      <trkpt lat="43.106450" lon="-2.940467">
        <ele>660.0</ele>
        <time>2013-07-29T14:07:46Z</time>
      </trkpt>
      <trkpt lat="43.106433" lon="-2.940467">
        <ele>660.0</ele>
        <time>2013-07-29T14:07:47Z</time>
      </trkpt>
      <trkpt lat="43.106433" lon="-2.940467">
        <ele>660.0</ele>
        <time>2013-07-29T14:07:48Z</time>
      </trkpt>
      <trkpt lat="43.106433" lon="-2.940467">
        <ele>660.0</ele>
        <time>2013-07-29T14:07:49Z</time>
      </trkpt>
      <trkpt lat="43.106433" lon="-2.940467">
        <ele>660.0</ele>
        <time>2013-07-29T14:07:50Z</time>
      </trkpt>
      <trkpt lat="43.106433" lon="-2.940467">
        <ele>660.0</ele>
        <time>2013-07-29T14:07:51Z</time>
      </trkpt>
      <trkpt lat="43.106433" lon="-2.940467">
        <ele>660.0</ele>
        <time>2013-07-29T14:07:52Z</time>
      </trkpt>
      <trkpt lat="43.106433" lon="-2.940467">
        <ele>660.0</ele>
        <time>2013-07-29T14:07:53Z</time>
      </trkpt>
      <trkpt lat="43.106433" lon="-2.940467">
        <ele>660.0</ele>
        <time>2013-07-29T14:07:54Z</time>
      </trkpt>
      <trkpt lat="43.106433" lon="-2.940467">
        <ele>660.0</ele>
        <time>2013-07-29T14:07:55Z</time>
      </trkpt>
      <trkpt lat="43.106433" lon="-2.940467">
        <ele>661.0</ele>
        <time>2013-07-29T14:07:56Z</time>
      </trkpt>
      <trkpt lat="43.106433" lon="-2.940467">
        <ele>661.0</ele>
        <time>2013-07-29T14:07:57Z</time>
      </trkpt>
      <trkpt lat="43.106433" lon="-2.940467">
        <ele>661.0</ele>
        <time>2013-07-29T14:07:58Z</time>
      </trkpt>
      <trkpt lat="43.106433" lon="-2.940467">
        <ele>661.0</ele>
        <time>2013-07-29T14:07:59Z</time>
      </trkpt>
      <trkpt lat="43.106417" lon="-2.940467">
        <ele>661.0</ele>
        <time>2013-07-29T14:08:00Z</time>
      </trkpt>
      <trkpt lat="43.106417" lon="-2.940450">
        <ele>661.0</ele>
        <time>2013-07-29T14:08:01Z</time>
      </trkpt>
      <trkpt lat="43.106417" lon="-2.940450">
        <ele>661.0</ele>
        <time>2013-07-29T14:08:02Z</time>
      </trkpt>
      <trkpt lat="43.106433" lon="-2.940450">
        <ele>661.0</ele>
        <time>2013-07-29T14:08:03Z</time>
      </trkpt>
      <trkpt lat="43.106433" lon="-2.940450">
        <ele>660.0</ele>
        <time>2013-07-29T14:08:04Z</time>
      </trkpt>
      <trkpt lat="43.106417" lon="-2.940450">
        <ele>660.0</ele>
        <time>2013-07-29T14:08:05Z</time>
      </trkpt>
      <trkpt lat="43.106417" lon="-2.940450">
        <ele>660.0</ele>
        <time>2013-07-29T14:08:06Z</time>
      </trkpt>
      <trkpt lat="43.106417" lon="-2.940450">
        <ele>660.0</ele>
        <time>2013-07-29T14:08:07Z</time>
      </trkpt>
      <trkpt lat="43.106417" lon="-2.940450">
        <ele>660.0</ele>
        <time>2013-07-29T14:08:08Z</time>
      </trkpt>
      <trkpt lat="43.106417" lon="-2.940450">
        <ele>660.0</ele>
        <time>2013-07-29T14:08:09Z</time>
      </trkpt>
      <trkpt lat="43.106417" lon="-2.940450">
        <ele>661.0</ele>
        <time>2013-07-29T14:08:10Z</time>
      </trkpt>
      <trkpt lat="43.106433" lon="-2.940467">
        <ele>661.0</ele>
        <time>2013-07-29T14:08:11Z</time>
      </trkpt>
      <trkpt lat="43.106433" lon="-2.940467">
        <ele>661.0</ele>
        <time>2013-07-29T14:08:12Z</time>
      </trkpt>
      <trkpt lat="43.106433" lon="-2.940467">
        <ele>661.0</ele>
        <time>2013-07-29T14:08:13Z</time>
      </trkpt>
      <trkpt lat="43.106433" lon="-2.940483">
        <ele>661.0</ele>
        <time>2013-07-29T14:08:14Z</time>
      </trkpt>
      <trkpt lat="43.106433" lon="-2.940483">
        <ele>661.0</ele>
        <time>2013-07-29T14:08:15Z</time>
      </trkpt>
      <trkpt lat="43.106433" lon="-2.940483">
        <ele>661.0</ele>
        <time>2013-07-29T14:08:16Z</time>
      </trkpt>
      <trkpt lat="43.106433" lon="-2.940467">
        <ele>661.0</ele>
        <time>2013-07-29T14:08:17Z</time>
      </trkpt>
      <trkpt lat="43.106433" lon="-2.940467">
        <ele>661.0</ele>
        <time>2013-07-29T14:08:18Z</time>
      </trkpt>
      <trkpt lat="43.106433" lon="-2.940483">
        <ele>661.0</ele>
        <time>2013-07-29T14:08:19Z</time>
      </trkpt>
      <trkpt lat="43.106433" lon="-2.940483">
        <ele>661.0</ele>
        <time>2013-07-29T14:08:20Z</time>
      </trkpt>
      <trkpt lat="43.106433" lon="-2.940483">
        <ele>661.0</ele>
        <time>2013-07-29T14:08:21Z</time>
      </trkpt>
      <trkpt lat="43.106433" lon="-2.940483">
        <ele>661.0</ele>
        <time>2013-07-29T14:08:22Z</time>
      </trkpt>
      <trkpt lat="43.106433" lon="-2.940483">
        <ele>661.0</ele>
        <time>2013-07-29T14:08:23Z</time>
      </trkpt>
      <trkpt lat="43.106433" lon="-2.940483">
        <ele>661.0</ele>
        <time>2013-07-29T14:08:24Z</time>
      </trkpt>
      <trkpt lat="43.106433" lon="-2.940483">
        <ele>661.0</ele>
        <time>2013-07-29T14:08:25Z</time>
      </trkpt>
      <trkpt lat="43.106433" lon="-2.940483">
        <ele>661.0</ele>
        <time>2013-07-29T14:08:26Z</time>
      </trkpt>
      <trkpt lat="43.106433" lon="-2.940483">
        <ele>661.0</ele>
        <time>2013-07-29T14:08:27Z</time>
      </trkpt>
      <trkpt lat="43.106433" lon="-2.940483">
        <ele>661.0</ele>
        <time>2013-07-29T14:08:28Z</time>
      </trkpt>
      <trkpt lat="43.106433" lon="-2.940483">
        <ele>661.0</ele>
        <time>2013-07-29T14:08:29Z</time>
      </trkpt>
      <trkpt lat="43.106433" lon="-2.940483">
        <ele>661.0</ele>
        <time>2013-07-29T14:08:30Z</time>
      </trkpt>
      <trkpt lat="43.106433" lon="-2.940483">
        <ele>661.0</ele>
        <time>2013-07-29T14:08:31Z</time>
      </trkpt>
      <trkpt lat="43.106433" lon="-2.940483">
        <ele>661.0</ele>
        <time>2013-07-29T14:08:32Z</time>
      </trkpt>
      <trkpt lat="43.106433" lon="-2.940483">
        <ele>661.0</ele>
        <time>2013-07-29T14:08:33Z</time>
      </trkpt>
      <trkpt lat="43.106433" lon="-2.940483">
        <ele>661.0</ele>
        <time>2013-07-29T14:08:34Z</time>
      </trkpt>
      <trkpt lat="43.106433" lon="-2.940483">
        <ele>662.0</ele>
        <time>2013-07-29T14:08:35Z</time>
      </trkpt>
      <trkpt lat="43.106433" lon="-2.940467">
        <ele>662.0</ele>
        <time>2013-07-29T14:08:36Z</time>
      </trkpt>
      <trkpt lat="43.106417" lon="-2.940467">
        <ele>661.0</ele>
        <time>2013-07-29T14:08:37Z</time>
      </trkpt>
      <trkpt lat="43.106417" lon="-2.940467">
        <ele>661.0</ele>
        <time>2013-07-29T14:08:38Z</time>
      </trkpt>
      <trkpt lat="43.106417" lon="-2.940450">
        <ele>661.0</ele>
        <time>2013-07-29T14:08:39Z</time>
      </trkpt>
      <trkpt lat="43.106400" lon="-2.940433">
        <ele>661.0</ele>
        <time>2013-07-29T14:08:40Z</time>
      </trkpt>
      <trkpt lat="43.106400" lon="-2.940433">
        <ele>661.0</ele>
        <time>2013-07-29T14:08:41Z</time>
      </trkpt>
      <trkpt lat="43.106400" lon="-2.940433">
        <ele>661.0</ele>
        <time>2013-07-29T14:08:42Z</time>
      </trkpt>
      <trkpt lat="43.106400" lon="-2.940433">
        <ele>661.0</ele>
        <time>2013-07-29T14:08:43Z</time>
      </trkpt>
      <trkpt lat="43.106400" lon="-2.940433">
        <ele>661.0</ele>
        <time>2013-07-29T14:08:44Z</time>
      </trkpt>
      <trkpt lat="43.106400" lon="-2.940433">
        <ele>661.0</ele>
        <time>2013-07-29T14:08:45Z</time>
      </trkpt>
      <trkpt lat="43.106417" lon="-2.940433">
        <ele>661.0</ele>
        <time>2013-07-29T14:08:46Z</time>
      </trkpt>
      <trkpt lat="43.106417" lon="-2.940433">
        <ele>661.0</ele>
        <time>2013-07-29T14:08:47Z</time>
      </trkpt>
      <trkpt lat="43.106417" lon="-2.940433">
        <ele>661.0</ele>
        <time>2013-07-29T14:08:48Z</time>
      </trkpt>
      <trkpt lat="43.106417" lon="-2.940450">
        <ele>661.0</ele>
        <time>2013-07-29T14:08:49Z</time>
      </trkpt>
      <trkpt lat="43.106417" lon="-2.940450">
        <ele>661.0</ele>
        <time>2013-07-29T14:08:50Z</time>
      </trkpt>
      <trkpt lat="43.106400" lon="-2.940433">
        <ele>661.0</ele>
        <time>2013-07-29T14:08:51Z</time>
      </trkpt>
      <trkpt lat="43.106400" lon="-2.940433">
        <ele>661.0</ele>
        <time>2013-07-29T14:08:52Z</time>
      </trkpt>
      <trkpt lat="43.106433" lon="-2.940433">
        <ele>661.0</ele>
        <time>2013-07-29T14:08:53Z</time>
      </trkpt>
      <trkpt lat="43.106417" lon="-2.940417">
        <ele>661.0</ele>
        <time>2013-07-29T14:08:54Z</time>
      </trkpt>
      <trkpt lat="43.106400" lon="-2.940417">
        <ele>661.0</ele>
        <time>2013-07-29T14:08:55Z</time>
      </trkpt>
      <trkpt lat="43.106400" lon="-2.940417">
        <ele>661.0</ele>
        <time>2013-07-29T14:08:56Z</time>
      </trkpt>
      <trkpt lat="43.106400" lon="-2.940417">
        <ele>661.0</ele>
        <time>2013-07-29T14:08:57Z</time>
      </trkpt>
      <trkpt lat="43.106400" lon="-2.940417">
        <ele>661.0</ele>
        <time>2013-07-29T14:08:58Z</time>
      </trkpt>
      <trkpt lat="43.106400" lon="-2.940417">
        <ele>661.0</ele>
        <time>2013-07-29T14:08:59Z</time>
      </trkpt>
      <trkpt lat="43.106400" lon="-2.940417">
        <ele>661.0</ele>
        <time>2013-07-29T14:09:00Z</time>
      </trkpt>
      <trkpt lat="43.106400" lon="-2.940417">
        <ele>661.0</ele>
        <time>2013-07-29T14:09:01Z</time>
      </trkpt>
      <trkpt lat="43.106400" lon="-2.940417">
        <ele>661.0</ele>
        <time>2013-07-29T14:09:02Z</time>
      </trkpt>
      <trkpt lat="43.106400" lon="-2.940433">
        <ele>661.0</ele>
        <time>2013-07-29T14:09:04Z</time>
      </trkpt>
      <trkpt lat="43.106400" lon="-2.940433">
        <ele>661.0</ele>
        <time>2013-07-29T14:09:05Z</time>
      </trkpt>
      <trkpt lat="43.106417" lon="-2.940433">
        <ele>661.0</ele>
        <time>2013-07-29T14:09:06Z</time>
      </trkpt>
      <trkpt lat="43.106417" lon="-2.940433">
        <ele>661.0</ele>
        <time>2013-07-29T14:09:07Z</time>
      </trkpt>
      <trkpt lat="43.106417" lon="-2.940433">
        <ele>661.0</ele>
        <time>2013-07-29T14:09:08Z</time>
      </trkpt>
      <trkpt lat="43.106417" lon="-2.940433">
        <ele>661.0</ele>
        <time>2013-07-29T14:09:09Z</time>
      </trkpt>
      <trkpt lat="43.106417" lon="-2.940450">
        <ele>661.0</ele>
        <time>2013-07-29T14:09:10Z</time>
      </trkpt>
      <trkpt lat="43.106417" lon="-2.940417">
        <ele>661.0</ele>
        <time>2013-07-29T14:09:11Z</time>
      </trkpt>
      <trkpt lat="43.106417" lon="-2.940417">
        <ele>661.0</ele>
        <time>2013-07-29T14:09:12Z</time>
      </trkpt>
      <trkpt lat="43.106417" lon="-2.940433">
        <ele>661.0</ele>
        <time>2013-07-29T14:09:13Z</time>
      </trkpt>
      <trkpt lat="43.106417" lon="-2.940417">
        <ele>661.0</ele>
        <time>2013-07-29T14:09:14Z</time>
      </trkpt>
      <trkpt lat="43.106417" lon="-2.940433">
        <ele>661.0</ele>
        <time>2013-07-29T14:09:15Z</time>
      </trkpt>
      <trkpt lat="43.106433" lon="-2.940433">
        <ele>661.0</ele>
        <time>2013-07-29T14:09:16Z</time>
      </trkpt>
      <trkpt lat="43.106433" lon="-2.940433">
        <ele>661.0</ele>
        <time>2013-07-29T14:09:17Z</time>
      </trkpt>
      <trkpt lat="43.106433" lon="-2.940433">
        <ele>661.0</ele>
        <time>2013-07-29T14:09:18Z</time>
      </trkpt>
      <trkpt lat="43.106433" lon="-2.940433">
        <ele>661.0</ele>
        <time>2013-07-29T14:09:19Z</time>
      </trkpt>
      <trkpt lat="43.106417" lon="-2.940433">
        <ele>661.0</ele>
        <time>2013-07-29T14:09:20Z</time>
      </trkpt>
      <trkpt lat="43.106400" lon="-2.940433">
        <ele>661.0</ele>
        <time>2013-07-29T14:09:21Z</time>
      </trkpt>
      <trkpt lat="43.106400" lon="-2.940433">
        <ele>661.0</ele>
        <time>2013-07-29T14:09:22Z</time>
      </trkpt>
      <trkpt lat="43.106400" lon="-2.940433">
        <ele>661.0</ele>
        <time>2013-07-29T14:09:23Z</time>
      </trkpt>
      <trkpt lat="43.106400" lon="-2.940450">
        <ele>661.0</ele>
        <time>2013-07-29T14:09:24Z</time>
      </trkpt>
      <trkpt lat="43.106417" lon="-2.940467">
        <ele>661.0</ele>
        <time>2013-07-29T14:09:25Z</time>
      </trkpt>
      <trkpt lat="43.106417" lon="-2.940467">
        <ele>661.0</ele>
        <time>2013-07-29T14:09:26Z</time>
      </trkpt>
      <trkpt lat="43.106433" lon="-2.940467">
        <ele>661.0</ele>
        <time>2013-07-29T14:09:27Z</time>
      </trkpt>
      <trkpt lat="43.106433" lon="-2.940467">
        <ele>661.0</ele>
        <time>2013-07-29T14:09:28Z</time>
      </trkpt>
      <trkpt lat="43.106433" lon="-2.940450">
        <ele>661.0</ele>
        <time>2013-07-29T14:09:29Z</time>
      </trkpt>
      <trkpt lat="43.106433" lon="-2.940450">
        <ele>661.0</ele>
        <time>2013-07-29T14:09:30Z</time>
      </trkpt>
      <trkpt lat="43.106433" lon="-2.940450">
        <ele>661.0</ele>
        <time>2013-07-29T14:09:31Z</time>
      </trkpt>
      <trkpt lat="43.106433" lon="-2.940450">
        <ele>661.0</ele>
        <time>2013-07-29T14:09:32Z</time>
      </trkpt>
      <trkpt lat="43.106433" lon="-2.940450">
        <ele>661.0</ele>
        <time>2013-07-29T14:09:33Z</time>
      </trkpt>
      <trkpt lat="43.106433" lon="-2.940450">
        <ele>661.0</ele>
        <time>2013-07-29T14:09:34Z</time>
      </trkpt>
      <trkpt lat="43.106433" lon="-2.940450">
        <ele>661.0</ele>
        <time>2013-07-29T14:09:35Z</time>
      </trkpt>
      <trkpt lat="43.106433" lon="-2.940450">
        <ele>661.0</ele>
        <time>2013-07-29T14:09:36Z</time>
      </trkpt>
      <trkpt lat="43.106433" lon="-2.940450">
        <ele>661.0</ele>
        <time>2013-07-29T14:09:37Z</time>
      </trkpt>
      <trkpt lat="43.106417" lon="-2.940433">
        <ele>661.0</ele>
        <time>2013-07-29T14:09:38Z</time>
      </trkpt>
      <trkpt lat="43.106417" lon="-2.940417">
        <ele>661.0</ele>
        <time>2013-07-29T14:09:39Z</time>
      </trkpt>
      <trkpt lat="43.106417" lon="-2.940417">
        <ele>661.0</ele>
        <time>2013-07-29T14:09:40Z</time>
      </trkpt>
      <trkpt lat="43.106400" lon="-2.940417">
        <ele>661.0</ele>
        <time>2013-07-29T14:09:41Z</time>
      </trkpt>
      <trkpt lat="43.106417" lon="-2.940417">
        <ele>661.0</ele>
        <time>2013-07-29T14:09:42Z</time>
      </trkpt>
      <trkpt lat="43.106417" lon="-2.940417">
        <ele>661.0</ele>
        <time>2013-07-29T14:09:43Z</time>
      </trkpt>
      <trkpt lat="43.106433" lon="-2.940417">
        <ele>661.0</ele>
        <time>2013-07-29T14:09:44Z</time>
      </trkpt>
      <trkpt lat="43.106433" lon="-2.940400">
        <ele>661.0</ele>
        <time>2013-07-29T14:09:45Z</time>
      </trkpt>
      <trkpt lat="43.106450" lon="-2.940383">
        <ele>661.0</ele>
        <time>2013-07-29T14:09:46Z</time>
      </trkpt>
      <trkpt lat="43.106467" lon="-2.940350">
        <ele>660.0</ele>
        <time>2013-07-29T14:09:47Z</time>
      </trkpt>
      <trkpt lat="43.106500" lon="-2.940317">
        <ele>660.0</ele>
        <time>2013-07-29T14:09:48Z</time>
      </trkpt>
      <trkpt lat="43.106533" lon="-2.940300">
        <ele>660.0</ele>
        <time>2013-07-29T14:09:49Z</time>
      </trkpt>
      <trkpt lat="43.106567" lon="-2.940267">
        <ele>660.0</ele>
        <time>2013-07-29T14:09:50Z</time>
      </trkpt>
      <trkpt lat="43.106600" lon="-2.940250">
        <ele>660.0</ele>
        <time>2013-07-29T14:09:51Z</time>
      </trkpt>
      <trkpt lat="43.106617" lon="-2.940233">
        <ele>660.0</ele>
        <time>2013-07-29T14:09:52Z</time>
      </trkpt>
      <trkpt lat="43.106633" lon="-2.940233">
        <ele>661.0</ele>
        <time>2013-07-29T14:09:53Z</time>
      </trkpt>
      <trkpt lat="43.106667" lon="-2.940217">
        <ele>660.0</ele>
        <time>2013-07-29T14:09:54Z</time>
      </trkpt>
      <trkpt lat="43.106717" lon="-2.940183">
        <ele>660.0</ele>
        <time>2013-07-29T14:09:55Z</time>
      </trkpt>
      <trkpt lat="43.106767" lon="-2.940167">
        <ele>660.0</ele>
        <time>2013-07-29T14:09:56Z</time>
      </trkpt>
      <trkpt lat="43.106800" lon="-2.940150">
        <ele>660.0</ele>
        <time>2013-07-29T14:09:57Z</time>
      </trkpt>
      <trkpt lat="43.106817" lon="-2.940133">
        <ele>660.0</ele>
        <time>2013-07-29T14:09:58Z</time>
      </trkpt>
      <trkpt lat="43.106833" lon="-2.940117">
        <ele>660.0</ele>
        <time>2013-07-29T14:09:59Z</time>
      </trkpt>
      <trkpt lat="43.106850" lon="-2.940100">
        <ele>661.0</ele>
        <time>2013-07-29T14:10:00Z</time>
      </trkpt>
      <trkpt lat="43.106883" lon="-2.940083">
        <ele>660.0</ele>
        <time>2013-07-29T14:10:01Z</time>
      </trkpt>
      <trkpt lat="43.106917" lon="-2.940067">
        <ele>660.0</ele>
        <time>2013-07-29T14:10:02Z</time>
      </trkpt>
      <trkpt lat="43.106950" lon="-2.940067">
        <ele>659.0</ele>
        <time>2013-07-29T14:10:03Z</time>
      </trkpt>
      <trkpt lat="43.107000" lon="-2.940083">
        <ele>660.0</ele>
        <time>2013-07-29T14:10:04Z</time>
      </trkpt>
      <trkpt lat="43.107033" lon="-2.940100">
        <ele>660.0</ele>
        <time>2013-07-29T14:10:05Z</time>
      </trkpt>
      <trkpt lat="43.107067" lon="-2.940117">
        <ele>660.0</ele>
        <time>2013-07-29T14:10:06Z</time>
      </trkpt>
      <trkpt lat="43.107100" lon="-2.940117">
        <ele>661.0</ele>
        <time>2013-07-29T14:10:07Z</time>
      </trkpt>
      <trkpt lat="43.107150" lon="-2.940100">
        <ele>661.0</ele>
        <time>2013-07-29T14:10:08Z</time>
      </trkpt>
      <trkpt lat="43.107183" lon="-2.940050">
        <ele>662.0</ele>
        <time>2013-07-29T14:10:09Z</time>
      </trkpt>
      <trkpt lat="43.107217" lon="-2.940033">
        <ele>664.0</ele>
        <time>2013-07-29T14:10:10Z</time>
      </trkpt>
      <trkpt lat="43.107250" lon="-2.940017">
        <ele>665.0</ele>
        <time>2013-07-29T14:10:11Z</time>
      </trkpt>
      <trkpt lat="43.107267" lon="-2.940017">
        <ele>666.0</ele>
        <time>2013-07-29T14:10:12Z</time>
      </trkpt>
      <trkpt lat="43.107317" lon="-2.940000">
        <ele>667.0</ele>
        <time>2013-07-29T14:10:13Z</time>
      </trkpt>
      <trkpt lat="43.107367" lon="-2.939983">
        <ele>667.0</ele>
        <time>2013-07-29T14:10:14Z</time>
      </trkpt>
      <trkpt lat="43.107400" lon="-2.939950">
        <ele>667.0</ele>
        <time>2013-07-29T14:10:15Z</time>
      </trkpt>
      <trkpt lat="43.107450" lon="-2.939917">
        <ele>669.0</ele>
        <time>2013-07-29T14:10:16Z</time>
      </trkpt>
      <trkpt lat="43.107483" lon="-2.939883">
        <ele>671.0</ele>
        <time>2013-07-29T14:10:17Z</time>
      </trkpt>
      <trkpt lat="43.107517" lon="-2.939867">
        <ele>673.0</ele>
        <time>2013-07-29T14:10:18Z</time>
      </trkpt>
      <trkpt lat="43.107550" lon="-2.939850">
        <ele>674.0</ele>
        <time>2013-07-29T14:10:19Z</time>
      </trkpt>
      <trkpt lat="43.107600" lon="-2.939833">
        <ele>675.0</ele>
        <time>2013-07-29T14:10:20Z</time>
      </trkpt>
      <trkpt lat="43.107633" lon="-2.939817">
        <ele>676.0</ele>
        <time>2013-07-29T14:10:21Z</time>
      </trkpt>
      <trkpt lat="43.107683" lon="-2.939800">
        <ele>675.0</ele>
        <time>2013-07-29T14:10:22Z</time>
      </trkpt>
      <trkpt lat="43.107717" lon="-2.939767">
        <ele>676.0</ele>
        <time>2013-07-29T14:10:23Z</time>
      </trkpt>
      <trkpt lat="43.107750" lon="-2.939733">
        <ele>678.0</ele>
        <time>2013-07-29T14:10:24Z</time>
      </trkpt>
      <trkpt lat="43.107783" lon="-2.939700">
        <ele>680.0</ele>
        <time>2013-07-29T14:10:25Z</time>
      </trkpt>
      <trkpt lat="43.107833" lon="-2.939667">
        <ele>682.0</ele>
        <time>2013-07-29T14:10:26Z</time>
      </trkpt>
      <trkpt lat="43.107867" lon="-2.939667">
        <ele>685.0</ele>
        <time>2013-07-29T14:10:27Z</time>
      </trkpt>
      <trkpt lat="43.107883" lon="-2.939683">
        <ele>688.0</ele>
        <time>2013-07-29T14:10:28Z</time>
      </trkpt>
      <trkpt lat="43.107917" lon="-2.939683">
        <ele>690.0</ele>
        <time>2013-07-29T14:10:29Z</time>
      </trkpt>
      <trkpt lat="43.107950" lon="-2.939667">
        <ele>692.0</ele>
        <time>2013-07-29T14:10:30Z</time>
      </trkpt>
      <trkpt lat="43.107967" lon="-2.939600">
        <ele>693.0</ele>
        <time>2013-07-29T14:10:31Z</time>
      </trkpt>
      <trkpt lat="43.107950" lon="-2.939517">
        <ele>695.0</ele>
        <time>2013-07-29T14:10:32Z</time>
      </trkpt>
      <trkpt lat="43.107900" lon="-2.939417">
        <ele>697.0</ele>
        <time>2013-07-29T14:10:33Z</time>
      </trkpt>
      <trkpt lat="43.107817" lon="-2.939317">
        <ele>700.0</ele>
        <time>2013-07-29T14:10:34Z</time>
      </trkpt>
      <trkpt lat="43.107717" lon="-2.939267">
        <ele>702.0</ele>
        <time>2013-07-29T14:10:35Z</time>
      </trkpt>
      <trkpt lat="43.107600" lon="-2.939233">
        <ele>705.0</ele>
        <time>2013-07-29T14:10:36Z</time>
      </trkpt>
      <trkpt lat="43.107483" lon="-2.939250">
        <ele>708.0</ele>
        <time>2013-07-29T14:10:37Z</time>
      </trkpt>
      <trkpt lat="43.107367" lon="-2.939283">
        <ele>711.0</ele>
        <time>2013-07-29T14:10:38Z</time>
      </trkpt>
      <trkpt lat="43.107283" lon="-2.939367">
        <ele>713.0</ele>
        <time>2013-07-29T14:10:39Z</time>
      </trkpt>
      <trkpt lat="43.107183" lon="-2.939467">
        <ele>715.0</ele>
        <time>2013-07-29T14:10:40Z</time>
      </trkpt>
      <trkpt lat="43.107117" lon="-2.939583">
        <ele>717.0</ele>
        <time>2013-07-29T14:10:41Z</time>
      </trkpt>
      <trkpt lat="43.107067" lon="-2.939667">
        <ele>720.0</ele>
        <time>2013-07-29T14:10:42Z</time>
      </trkpt>
      <trkpt lat="43.107017" lon="-2.939733">
        <ele>723.0</ele>
        <time>2013-07-29T14:10:43Z</time>
      </trkpt>
      <trkpt lat="43.106967" lon="-2.939800">
        <ele>726.0</ele>
        <time>2013-07-29T14:10:44Z</time>
      </trkpt>
      <trkpt lat="43.106933" lon="-2.939867">
        <ele>727.0</ele>
        <time>2013-07-29T14:10:45Z</time>
      </trkpt>
      <trkpt lat="43.106933" lon="-2.939983">
        <ele>727.0</ele>
        <time>2013-07-29T14:10:46Z</time>
      </trkpt>
      <trkpt lat="43.106933" lon="-2.940067">
        <ele>728.0</ele>
        <time>2013-07-29T14:10:47Z</time>
      </trkpt>
      <trkpt lat="43.106950" lon="-2.940133">
        <ele>729.0</ele>
        <time>2013-07-29T14:10:48Z</time>
      </trkpt>
      <trkpt lat="43.106983" lon="-2.940183">
        <ele>730.0</ele>
        <time>2013-07-29T14:10:49Z</time>
      </trkpt>
      <trkpt lat="43.107033" lon="-2.940200">
        <ele>732.0</ele>
        <time>2013-07-29T14:10:50Z</time>
      </trkpt>
      <trkpt lat="43.107067" lon="-2.940200">
        <ele>734.0</ele>
        <time>2013-07-29T14:10:51Z</time>
      </trkpt>
      <trkpt lat="43.107117" lon="-2.940217">
        <ele>734.0</ele>
        <time>2013-07-29T14:10:52Z</time>
      </trkpt>
      <trkpt lat="43.107167" lon="-2.940217">
        <ele>736.0</ele>
        <time>2013-07-29T14:10:53Z</time>
      </trkpt>
      <trkpt lat="43.107217" lon="-2.940217">
        <ele>737.0</ele>
        <time>2013-07-29T14:10:54Z</time>
      </trkpt>
      <trkpt lat="43.107267" lon="-2.940200">
        <ele>738.0</ele>
        <time>2013-07-29T14:10:55Z</time>
      </trkpt>
      <trkpt lat="43.107300" lon="-2.940200">
        <ele>739.0</ele>
        <time>2013-07-29T14:10:56Z</time>
      </trkpt>
      <trkpt lat="43.107333" lon="-2.940217">
        <ele>741.0</ele>
        <time>2013-07-29T14:10:57Z</time>
      </trkpt>
      <trkpt lat="43.107367" lon="-2.940233">
        <ele>742.0</ele>
        <time>2013-07-29T14:10:58Z</time>
      </trkpt>
      <trkpt lat="43.107400" lon="-2.940250">
        <ele>744.0</ele>
        <time>2013-07-29T14:10:59Z</time>
      </trkpt>
      <trkpt lat="43.107433" lon="-2.940267">
        <ele>745.0</ele>
        <time>2013-07-29T14:11:00Z</time>
      </trkpt>
      <trkpt lat="43.107483" lon="-2.940267">
        <ele>746.0</ele>
        <time>2013-07-29T14:11:01Z</time>
      </trkpt>
      <trkpt lat="43.107517" lon="-2.940267">
        <ele>748.0</ele>
        <time>2013-07-29T14:11:02Z</time>
      </trkpt>
      <trkpt lat="43.107550" lon="-2.940283">
        <ele>750.0</ele>
        <time>2013-07-29T14:11:03Z</time>
      </trkpt>
      <trkpt lat="43.107600" lon="-2.940300">
        <ele>753.0</ele>
        <time>2013-07-29T14:11:04Z</time>
      </trkpt>
      <trkpt lat="43.107633" lon="-2.940333">
        <ele>755.0</ele>
        <time>2013-07-29T14:11:05Z</time>
      </trkpt>
      <trkpt lat="43.107683" lon="-2.940350">
        <ele>757.0</ele>
        <time>2013-07-29T14:11:06Z</time>
      </trkpt>
      <trkpt lat="43.107717" lon="-2.940350">
        <ele>759.0</ele>
        <time>2013-07-29T14:11:07Z</time>
      </trkpt>
      <trkpt lat="43.107750" lon="-2.940333">
        <ele>762.0</ele>
        <time>2013-07-29T14:11:08Z</time>
      </trkpt>
      <trkpt lat="43.107767" lon="-2.940300">
        <ele>764.0</ele>
        <time>2013-07-29T14:11:09Z</time>
      </trkpt>
      <trkpt lat="43.107750" lon="-2.940233">
        <ele>766.0</ele>
        <time>2013-07-29T14:11:10Z</time>
      </trkpt>
      <trkpt lat="43.107733" lon="-2.940167">
        <ele>767.0</ele>
        <time>2013-07-29T14:11:11Z</time>
      </trkpt>
      <trkpt lat="43.107700" lon="-2.940083">
        <ele>768.0</ele>
        <time>2013-07-29T14:11:12Z</time>
      </trkpt>
      <trkpt lat="43.107633" lon="-2.940017">
        <ele>769.0</ele>
        <time>2013-07-29T14:11:13Z</time>
      </trkpt>
      <trkpt lat="43.107550" lon="-2.939950">
        <ele>770.0</ele>
        <time>2013-07-29T14:11:14Z</time>
      </trkpt>
      <trkpt lat="43.107433" lon="-2.939917">
        <ele>770.0</ele>
        <time>2013-07-29T14:11:15Z</time>
      </trkpt>
      <trkpt lat="43.107317" lon="-2.939933">
        <ele>770.0</ele>
        <time>2013-07-29T14:11:16Z</time>
      </trkpt>
      <trkpt lat="43.107200" lon="-2.940017">
        <ele>770.0</ele>
        <time>2013-07-29T14:11:17Z</time>
      </trkpt>
      <trkpt lat="43.107100" lon="-2.940133">
        <ele>770.0</ele>
        <time>2013-07-29T14:11:18Z</time>
      </trkpt>
      <trkpt lat="43.107033" lon="-2.940283">
        <ele>771.0</ele>
        <time>2013-07-29T14:11:19Z</time>
      </trkpt>
      <trkpt lat="43.106967" lon="-2.940433">
        <ele>772.0</ele>
        <time>2013-07-29T14:11:20Z</time>
      </trkpt>
      <trkpt lat="43.106933" lon="-2.940550">
        <ele>773.0</ele>
        <time>2013-07-29T14:11:21Z</time>
      </trkpt>
      <trkpt lat="43.106917" lon="-2.940667">
        <ele>775.0</ele>
        <time>2013-07-29T14:11:22Z</time>
      </trkpt>
      <trkpt lat="43.106900" lon="-2.940767">
        <ele>778.0</ele>
        <time>2013-07-29T14:11:23Z</time>
      </trkpt>
      <trkpt lat="43.106900" lon="-2.940900">
        <ele>780.0</ele>
        <time>2013-07-29T14:11:24Z</time>
      </trkpt>
      <trkpt lat="43.106883" lon="-2.941033">
        <ele>782.0</ele>
        <time>2013-07-29T14:11:25Z</time>
      </trkpt>
      <trkpt lat="43.106900" lon="-2.941167">
        <ele>784.0</ele>
        <time>2013-07-29T14:11:26Z</time>
      </trkpt>
      <trkpt lat="43.106917" lon="-2.941250">
        <ele>786.0</ele>
        <time>2013-07-29T14:11:27Z</time>
      </trkpt>
      <trkpt lat="43.106933" lon="-2.941333">
        <ele>788.0</ele>
        <time>2013-07-29T14:11:28Z</time>
      </trkpt>
      <trkpt lat="43.106967" lon="-2.941400">
        <ele>790.0</ele>
        <time>2013-07-29T14:11:29Z</time>
      </trkpt>
      <trkpt lat="43.107017" lon="-2.941450">
        <ele>791.0</ele>
        <time>2013-07-29T14:11:30Z</time>
      </trkpt>
      <trkpt lat="43.107050" lon="-2.941500">
        <ele>792.0</ele>
        <time>2013-07-29T14:11:31Z</time>
      </trkpt>
      <trkpt lat="43.107100" lon="-2.941533">
        <ele>793.0</ele>
        <time>2013-07-29T14:11:32Z</time>
      </trkpt>
      <trkpt lat="43.107133" lon="-2.941550">
        <ele>794.0</ele>
        <time>2013-07-29T14:11:33Z</time>
      </trkpt>
      <trkpt lat="43.107167" lon="-2.941550">
        <ele>795.0</ele>
        <time>2013-07-29T14:11:34Z</time>
      </trkpt>
      <trkpt lat="43.107200" lon="-2.941533">
        <ele>796.0</ele>
        <time>2013-07-29T14:11:35Z</time>
      </trkpt>
      <trkpt lat="43.107217" lon="-2.941500">
        <ele>797.0</ele>
        <time>2013-07-29T14:11:36Z</time>
      </trkpt>
      <trkpt lat="43.107250" lon="-2.941467">
        <ele>797.0</ele>
        <time>2013-07-29T14:11:37Z</time>
      </trkpt>
      <trkpt lat="43.107267" lon="-2.941450">
        <ele>798.0</ele>
        <time>2013-07-29T14:11:38Z</time>
      </trkpt>
      <trkpt lat="43.107300" lon="-2.941450">
        <ele>799.0</ele>
        <time>2013-07-29T14:11:39Z</time>
      </trkpt>
      <trkpt lat="43.107317" lon="-2.941433">
        <ele>799.0</ele>
        <time>2013-07-29T14:11:40Z</time>
      </trkpt>
      <trkpt lat="43.107333" lon="-2.941417">
        <ele>800.0</ele>
        <time>2013-07-29T14:11:41Z</time>
      </trkpt>
      <trkpt lat="43.107350" lon="-2.941367">
        <ele>800.0</ele>
        <time>2013-07-29T14:11:42Z</time>
      </trkpt>
      <trkpt lat="43.107383" lon="-2.941333">
        <ele>801.0</ele>
        <time>2013-07-29T14:11:43Z</time>
      </trkpt>
      <trkpt lat="43.107400" lon="-2.941300">
        <ele>802.0</ele>
        <time>2013-07-29T14:11:44Z</time>
      </trkpt>
      <trkpt lat="43.107400" lon="-2.941250">
        <ele>805.0</ele>
        <time>2013-07-29T14:11:45Z</time>
      </trkpt>
      <trkpt lat="43.107433" lon="-2.941217">
        <ele>807.0</ele>
        <time>2013-07-29T14:11:46Z</time>
      </trkpt>
      <trkpt lat="43.107450" lon="-2.941200">
        <ele>809.0</ele>
        <time>2013-07-29T14:11:47Z</time>
      </trkpt>
      <trkpt lat="43.107483" lon="-2.941167">
        <ele>810.0</ele>
        <time>2013-07-29T14:11:48Z</time>
      </trkpt>
      <trkpt lat="43.107517" lon="-2.941133">
        <ele>812.0</ele>
        <time>2013-07-29T14:11:49Z</time>
      </trkpt>
      <trkpt lat="43.107533" lon="-2.941100">
        <ele>814.0</ele>
        <time>2013-07-29T14:11:50Z</time>
      </trkpt>
      <trkpt lat="43.107567" lon="-2.941083">
        <ele>816.0</ele>
        <time>2013-07-29T14:11:51Z</time>
      </trkpt>
      <trkpt lat="43.107583" lon="-2.941050">
        <ele>819.0</ele>
        <time>2013-07-29T14:11:52Z</time>
      </trkpt>
      <trkpt lat="43.107600" lon="-2.941000">
        <ele>821.0</ele>
        <time>2013-07-29T14:11:53Z</time>
      </trkpt>
      <trkpt lat="43.107617" lon="-2.940967">
        <ele>823.0</ele>
        <time>2013-07-29T14:11:54Z</time>
      </trkpt>
      <trkpt lat="43.107650" lon="-2.940933">
        <ele>824.0</ele>
        <time>2013-07-29T14:11:55Z</time>
      </trkpt>
      <trkpt lat="43.107683" lon="-2.940917">
        <ele>825.0</ele>
        <time>2013-07-29T14:11:56Z</time>
      </trkpt>
      <trkpt lat="43.107717" lon="-2.940900">
        <ele>827.0</ele>
        <time>2013-07-29T14:11:57Z</time>
      </trkpt>
      <trkpt lat="43.107750" lon="-2.940883">
        <ele>830.0</ele>
        <time>2013-07-29T14:11:58Z</time>
      </trkpt>
      <trkpt lat="43.107767" lon="-2.940883">
        <ele>833.0</ele>
        <time>2013-07-29T14:11:59Z</time>
      </trkpt>
      <trkpt lat="43.107783" lon="-2.940867">
        <ele>835.0</ele>
        <time>2013-07-29T14:12:00Z</time>
      </trkpt>
      <trkpt lat="43.107800" lon="-2.940833">
        <ele>836.0</ele>
        <time>2013-07-29T14:12:01Z</time>
      </trkpt>
      <trkpt lat="43.107800" lon="-2.940767">
        <ele>837.0</ele>
        <time>2013-07-29T14:12:02Z</time>
      </trkpt>
      <trkpt lat="43.107800" lon="-2.940683">
        <ele>838.0</ele>
        <time>2013-07-29T14:12:03Z</time>
      </trkpt>
      <trkpt lat="43.107750" lon="-2.940567">
        <ele>839.0</ele>
        <time>2013-07-29T14:12:04Z</time>
      </trkpt>
      <trkpt lat="43.107683" lon="-2.940467">
        <ele>840.0</ele>
        <time>2013-07-29T14:12:05Z</time>
      </trkpt>
      <trkpt lat="43.107567" lon="-2.940417">
        <ele>842.0</ele>
        <time>2013-07-29T14:12:06Z</time>
      </trkpt>
      <trkpt lat="43.107433" lon="-2.940433">
        <ele>844.0</ele>
        <time>2013-07-29T14:12:07Z</time>
      </trkpt>
      <trkpt lat="43.107317" lon="-2.940500">
        <ele>846.0</ele>
        <time>2013-07-29T14:12:08Z</time>
      </trkpt>
      <trkpt lat="43.107217" lon="-2.940583">
        <ele>849.0</ele>
        <time>2013-07-29T14:12:09Z</time>
      </trkpt>
      <trkpt lat="43.107133" lon="-2.940683">
        <ele>854.0</ele>
        <time>2013-07-29T14:12:10Z</time>
      </trkpt>
      <trkpt lat="43.107067" lon="-2.940783">
        <ele>857.0</ele>
        <time>2013-07-29T14:12:11Z</time>
      </trkpt>
      <trkpt lat="43.107000" lon="-2.940900">
        <ele>860.0</ele>
        <time>2013-07-29T14:12:12Z</time>
      </trkpt>
      <trkpt lat="43.106967" lon="-2.941017">
        <ele>863.0</ele>
        <time>2013-07-29T14:12:13Z</time>
      </trkpt>
      <trkpt lat="43.106950" lon="-2.941150">
        <ele>864.0</ele>
        <time>2013-07-29T14:12:14Z</time>
      </trkpt>
      <trkpt lat="43.106933" lon="-2.941267">
        <ele>865.0</ele>
        <time>2013-07-29T14:12:15Z</time>
      </trkpt>
      <trkpt lat="43.106950" lon="-2.941350">
        <ele>866.0</ele>
        <time>2013-07-29T14:12:16Z</time>
      </trkpt>
      <trkpt lat="43.106967" lon="-2.941433">
        <ele>868.0</ele>
        <time>2013-07-29T14:12:17Z</time>
      </trkpt>
      <trkpt lat="43.107000" lon="-2.941483">
        <ele>870.0</ele>
        <time>2013-07-29T14:12:18Z</time>
      </trkpt>
      <trkpt lat="43.107033" lon="-2.941517">
        <ele>871.0</ele>
        <time>2013-07-29T14:12:19Z</time>
      </trkpt>
      <trkpt lat="43.107067" lon="-2.941550">
        <ele>873.0</ele>
        <time>2013-07-29T14:12:20Z</time>
      </trkpt>
      <trkpt lat="43.107100" lon="-2.941567">
        <ele>875.0</ele>
        <time>2013-07-29T14:12:21Z</time>
      </trkpt>
      <trkpt lat="43.107117" lon="-2.941567">
        <ele>876.0</ele>
        <time>2013-07-29T14:12:22Z</time>
      </trkpt>
      <trkpt lat="43.107150" lon="-2.941550">
        <ele>877.0</ele>
        <time>2013-07-29T14:12:23Z</time>
      </trkpt>
      <trkpt lat="43.107167" lon="-2.941533">
        <ele>878.0</ele>
        <time>2013-07-29T14:12:24Z</time>
      </trkpt>
      <trkpt lat="43.107200" lon="-2.941500">
        <ele>879.0</ele>
        <time>2013-07-29T14:12:25Z</time>
      </trkpt>
      <trkpt lat="43.107250" lon="-2.941483">
        <ele>879.0</ele>
        <time>2013-07-29T14:12:26Z</time>
      </trkpt>
      <trkpt lat="43.107283" lon="-2.941450">
        <ele>880.0</ele>
        <time>2013-07-29T14:12:27Z</time>
      </trkpt>
      <trkpt lat="43.107333" lon="-2.941433">
        <ele>881.0</ele>
        <time>2013-07-29T14:12:28Z</time>
      </trkpt>
      <trkpt lat="43.107367" lon="-2.941433">
        <ele>882.0</ele>
        <time>2013-07-29T14:12:29Z</time>
      </trkpt>
      <trkpt lat="43.107400" lon="-2.941417">
        <ele>884.0</ele>
        <time>2013-07-29T14:12:30Z</time>
      </trkpt>
      <trkpt lat="43.107433" lon="-2.941400">
        <ele>885.0</ele>
        <time>2013-07-29T14:12:31Z</time>
      </trkpt>
      <trkpt lat="43.107467" lon="-2.941383">
        <ele>887.0</ele>
        <time>2013-07-29T14:12:32Z</time>
      </trkpt>
      <trkpt lat="43.107500" lon="-2.941350">
        <ele>888.0</ele>
        <time>2013-07-29T14:12:33Z</time>
      </trkpt>
      <trkpt lat="43.107517" lon="-2.941300">
        <ele>890.0</ele>
        <time>2013-07-29T14:12:34Z</time>
      </trkpt>
      <trkpt lat="43.107533" lon="-2.941217">
        <ele>891.0</ele>
        <time>2013-07-29T14:12:35Z</time>
      </trkpt>
      <trkpt lat="43.107517" lon="-2.941133">
        <ele>892.0</ele>
        <time>2013-07-29T14:12:36Z</time>
      </trkpt>
      <trkpt lat="43.107483" lon="-2.941033">
        <ele>894.0</ele>
        <time>2013-07-29T14:12:37Z</time>
      </trkpt>
      <trkpt lat="43.107417" lon="-2.940967">
        <ele>896.0</ele>
        <time>2013-07-29T14:12:38Z</time>
      </trkpt>
      <trkpt lat="43.107350" lon="-2.940900">
        <ele>898.0</ele>
        <time>2013-07-29T14:12:39Z</time>
      </trkpt>
      <trkpt lat="43.107250" lon="-2.940850">
        <ele>899.0</ele>
        <time>2013-07-29T14:12:40Z</time>
      </trkpt>
      <trkpt lat="43.107133" lon="-2.940833">
        <ele>900.0</ele>
        <time>2013-07-29T14:12:41Z</time>
      </trkpt>
      <trkpt lat="43.107017" lon="-2.940833">
        <ele>901.0</ele>
        <time>2013-07-29T14:12:42Z</time>
      </trkpt>
      <trkpt lat="43.106933" lon="-2.940883">
        <ele>904.0</ele>
        <time>2013-07-29T14:12:43Z</time>
      </trkpt>
      <trkpt lat="43.106833" lon="-2.940933">
        <ele>906.0</ele>
        <time>2013-07-29T14:12:44Z</time>
      </trkpt>
      <trkpt lat="43.106767" lon="-2.941017">
        <ele>908.0</ele>
        <time>2013-07-29T14:12:45Z</time>
      </trkpt>
      <trkpt lat="43.106700" lon="-2.941117">
        <ele>909.0</ele>
        <time>2013-07-29T14:12:46Z</time>
      </trkpt>
      <trkpt lat="43.106650" lon="-2.941233">
        <ele>910.0</ele>
        <time>2013-07-29T14:12:47Z</time>
      </trkpt>
      <trkpt lat="43.106633" lon="-2.941350">
        <ele>911.0</ele>
        <time>2013-07-29T14:12:48Z</time>
      </trkpt>
      <trkpt lat="43.106633" lon="-2.941483">
        <ele>911.0</ele>
        <time>2013-07-29T14:12:49Z</time>
      </trkpt>
      <trkpt lat="43.106667" lon="-2.941567">
        <ele>912.0</ele>
        <time>2013-07-29T14:12:50Z</time>
      </trkpt>
      <trkpt lat="43.106700" lon="-2.941617">
        <ele>914.0</ele>
        <time>2013-07-29T14:12:51Z</time>
      </trkpt>
      <trkpt lat="43.106750" lon="-2.941667">
        <ele>918.0</ele>
        <time>2013-07-29T14:12:52Z</time>
      </trkpt>
      <trkpt lat="43.106767" lon="-2.941717">
        <ele>920.0</ele>
        <time>2013-07-29T14:12:53Z</time>
      </trkpt>
      <trkpt lat="43.106800" lon="-2.941750">
        <ele>922.0</ele>
        <time>2013-07-29T14:12:54Z</time>
      </trkpt>
      <trkpt lat="43.106850" lon="-2.941783">
        <ele>923.0</ele>
        <time>2013-07-29T14:12:55Z</time>
      </trkpt>
      <trkpt lat="43.106900" lon="-2.941800">
        <ele>924.0</ele>
        <time>2013-07-29T14:12:56Z</time>
      </trkpt>
      <trkpt lat="43.106967" lon="-2.941800">
        <ele>924.0</ele>
        <time>2013-07-29T14:12:57Z</time>
      </trkpt>
      <trkpt lat="43.107017" lon="-2.941800">
        <ele>924.0</ele>
        <time>2013-07-29T14:12:58Z</time>
      </trkpt>
      <trkpt lat="43.107067" lon="-2.941783">
        <ele>924.0</ele>
        <time>2013-07-29T14:12:59Z</time>
      </trkpt>
      <trkpt lat="43.107100" lon="-2.941783">
        <ele>924.0</ele>
        <time>2013-07-29T14:13:00Z</time>
      </trkpt>
      <trkpt lat="43.107150" lon="-2.941733">
        <ele>924.0</ele>
        <time>2013-07-29T14:13:01Z</time>
      </trkpt>
      <trkpt lat="43.107183" lon="-2.941667">
        <ele>924.0</ele>
        <time>2013-07-29T14:13:02Z</time>
      </trkpt>
      <trkpt lat="43.107217" lon="-2.941583">
        <ele>924.0</ele>
        <time>2013-07-29T14:13:03Z</time>
      </trkpt>
      <trkpt lat="43.107233" lon="-2.941483">
        <ele>924.0</ele>
        <time>2013-07-29T14:13:04Z</time>
      </trkpt>
      <trkpt lat="43.107250" lon="-2.941383">
        <ele>924.0</ele>
        <time>2013-07-29T14:13:05Z</time>
      </trkpt>
      <trkpt lat="43.107267" lon="-2.941317">
        <ele>924.0</ele>
        <time>2013-07-29T14:13:06Z</time>
      </trkpt>
      <trkpt lat="43.107283" lon="-2.941233">
        <ele>925.0</ele>
        <time>2013-07-29T14:13:07Z</time>
      </trkpt>
      <trkpt lat="43.107283" lon="-2.941167">
        <ele>927.0</ele>
        <time>2013-07-29T14:13:08Z</time>
      </trkpt>
      <trkpt lat="43.107300" lon="-2.941083">
        <ele>928.0</ele>
        <time>2013-07-29T14:13:09Z</time>
      </trkpt>
      <trkpt lat="43.107300" lon="-2.941000">
        <ele>930.0</ele>
        <time>2013-07-29T14:13:10Z</time>
      </trkpt>
      <trkpt lat="43.107317" lon="-2.940900">
        <ele>932.0</ele>
        <time>2013-07-29T14:13:11Z</time>
      </trkpt>
      <trkpt lat="43.107300" lon="-2.940817">
        <ele>934.0</ele>
        <time>2013-07-29T14:13:12Z</time>
      </trkpt>
      <trkpt lat="43.107317" lon="-2.940750">
        <ele>938.0</ele>
        <time>2013-07-29T14:13:13Z</time>
      </trkpt>
      <trkpt lat="43.107317" lon="-2.940683">
        <ele>943.0</ele>
        <time>2013-07-29T14:13:14Z</time>
      </trkpt>
      <trkpt lat="43.107333" lon="-2.940633">
        <ele>946.0</ele>
        <time>2013-07-29T14:13:15Z</time>
      </trkpt>
      <trkpt lat="43.107350" lon="-2.940567">
        <ele>949.0</ele>
        <time>2013-07-29T14:13:16Z</time>
      </trkpt>
      <trkpt lat="43.107333" lon="-2.940483">
        <ele>951.0</ele>
        <time>2013-07-29T14:13:17Z</time>
      </trkpt>
      <trkpt lat="43.107317" lon="-2.940400">
        <ele>953.0</ele>
        <time>2013-07-29T14:13:18Z</time>
      </trkpt>
      <trkpt lat="43.107267" lon="-2.940317">
        <ele>955.0</ele>
        <time>2013-07-29T14:13:19Z</time>
      </trkpt>
      <trkpt lat="43.107200" lon="-2.940267">
        <ele>957.0</ele>
        <time>2013-07-29T14:13:20Z</time>
      </trkpt>
      <trkpt lat="43.107117" lon="-2.940217">
        <ele>958.0</ele>
        <time>2013-07-29T14:13:21Z</time>
      </trkpt>
      <trkpt lat="43.107017" lon="-2.940183">
        <ele>958.0</ele>
        <time>2013-07-29T14:13:22Z</time>
      </trkpt>
      <trkpt lat="43.106900" lon="-2.940217">
        <ele>958.0</ele>
        <time>2013-07-29T14:13:23Z</time>
      </trkpt>
      <trkpt lat="43.106800" lon="-2.940283">
        <ele>959.0</ele>
        <time>2013-07-29T14:13:24Z</time>
      </trkpt>
      <trkpt lat="43.106700" lon="-2.940383">
        <ele>959.0</ele>
        <time>2013-07-29T14:13:25Z</time>
      </trkpt>
      <trkpt lat="43.106617" lon="-2.940500">
        <ele>959.0</ele>
        <time>2013-07-29T14:13:26Z</time>
      </trkpt>
      <trkpt lat="43.106550" lon="-2.940633">
        <ele>960.0</ele>
        <time>2013-07-29T14:13:27Z</time>
      </trkpt>
      <trkpt lat="43.106517" lon="-2.940767">
        <ele>961.0</ele>
        <time>2013-07-29T14:13:28Z</time>
      </trkpt>
      <trkpt lat="43.106483" lon="-2.940900">
        <ele>961.0</ele>
        <time>2013-07-29T14:13:29Z</time>
      </trkpt>
      <trkpt lat="43.106450" lon="-2.941033">
        <ele>962.0</ele>
        <time>2013-07-29T14:13:30Z</time>
      </trkpt>
      <trkpt lat="43.106450" lon="-2.941167">
        <ele>963.0</ele>
        <time>2013-07-29T14:13:31Z</time>
      </trkpt>
      <trkpt lat="43.106467" lon="-2.941300">
        <ele>963.0</ele>
        <time>2013-07-29T14:13:32Z</time>
      </trkpt>
      <trkpt lat="43.106517" lon="-2.941400">
        <ele>964.0</ele>
        <time>2013-07-29T14:13:33Z</time>
      </trkpt>
      <trkpt lat="43.106550" lon="-2.941467">
        <ele>967.0</ele>
        <time>2013-07-29T14:13:34Z</time>
      </trkpt>
      <trkpt lat="43.106583" lon="-2.941517">
        <ele>971.0</ele>
        <time>2013-07-29T14:13:35Z</time>
      </trkpt>
      <trkpt lat="43.106633" lon="-2.941567">
        <ele>973.0</ele>
        <time>2013-07-29T14:13:36Z</time>
      </trkpt>
      <trkpt lat="43.106667" lon="-2.941617">
        <ele>976.0</ele>
        <time>2013-07-29T14:13:37Z</time>
      </trkpt>
      <trkpt lat="43.106733" lon="-2.941650">
        <ele>978.0</ele>
        <time>2013-07-29T14:13:38Z</time>
      </trkpt>
      <trkpt lat="43.106783" lon="-2.941667">
        <ele>980.0</ele>
        <time>2013-07-29T14:13:39Z</time>
      </trkpt>
      <trkpt lat="43.106833" lon="-2.941667">
        <ele>982.0</ele>
        <time>2013-07-29T14:13:40Z</time>
      </trkpt>
      <trkpt lat="43.106867" lon="-2.941633">
        <ele>984.0</ele>
        <time>2013-07-29T14:13:41Z</time>
      </trkpt>
      <trkpt lat="43.106900" lon="-2.941567">
        <ele>986.0</ele>
        <time>2013-07-29T14:13:42Z</time>
      </trkpt>
      <trkpt lat="43.106933" lon="-2.941483">
        <ele>988.0</ele>
        <time>2013-07-29T14:13:43Z</time>
      </trkpt>
      <trkpt lat="43.106933" lon="-2.941383">
        <ele>990.0</ele>
        <time>2013-07-29T14:13:44Z</time>
      </trkpt>
      <trkpt lat="43.106917" lon="-2.941283">
        <ele>995.0</ele>
        <time>2013-07-29T14:13:45Z</time>
      </trkpt>
      <trkpt lat="43.106867" lon="-2.941200">
        <ele>998.0</ele>
        <time>2013-07-29T14:13:46Z</time>
      </trkpt>
      <trkpt lat="43.106800" lon="-2.941133">
        <ele>1002.0</ele>
        <time>2013-07-29T14:13:47Z</time>
      </trkpt>
      <trkpt lat="43.106733" lon="-2.941100">
        <ele>1004.0</ele>
        <time>2013-07-29T14:13:48Z</time>
      </trkpt>
      <trkpt lat="43.106650" lon="-2.941067">
        <ele>1006.0</ele>
        <time>2013-07-29T14:13:49Z</time>
      </trkpt>
      <trkpt lat="43.106567" lon="-2.941050">
        <ele>1008.0</ele>
        <time>2013-07-29T14:13:50Z</time>
      </trkpt>
      <trkpt lat="43.106450" lon="-2.941050">
        <ele>1010.0</ele>
        <time>2013-07-29T14:13:51Z</time>
      </trkpt>
      <trkpt lat="43.106350" lon="-2.941083">
        <ele>1011.0</ele>
        <time>2013-07-29T14:13:52Z</time>
      </trkpt>
      <trkpt lat="43.106250" lon="-2.941167">
        <ele>1011.0</ele>
        <time>2013-07-29T14:13:53Z</time>
      </trkpt>
      <trkpt lat="43.106150" lon="-2.941267">
        <ele>1013.0</ele>
        <time>2013-07-29T14:13:54Z</time>
      </trkpt>
      <trkpt lat="43.106100" lon="-2.941400">
        <ele>1014.0</ele>
        <time>2013-07-29T14:13:55Z</time>
      </trkpt>
      <trkpt lat="43.106050" lon="-2.941550">
        <ele>1015.0</ele>
        <time>2013-07-29T14:13:56Z</time>
      </trkpt>
      <trkpt lat="43.106033" lon="-2.941700">
        <ele>1016.0</ele>
        <time>2013-07-29T14:13:57Z</time>
      </trkpt>
      <trkpt lat="43.106050" lon="-2.941833">
        <ele>1017.0</ele>
        <time>2013-07-29T14:13:58Z</time>
      </trkpt>
      <trkpt lat="43.106067" lon="-2.941950">
        <ele>1018.0</ele>
        <time>2013-07-29T14:13:59Z</time>
      </trkpt>
      <trkpt lat="43.106117" lon="-2.942033">
        <ele>1020.0</ele>
        <time>2013-07-29T14:14:00Z</time>
      </trkpt>
      <trkpt lat="43.106167" lon="-2.942100">
        <ele>1021.0</ele>
        <time>2013-07-29T14:14:01Z</time>
      </trkpt>
      <trkpt lat="43.106233" lon="-2.942133">
        <ele>1023.0</ele>
        <time>2013-07-29T14:14:02Z</time>
      </trkpt>
      <trkpt lat="43.106300" lon="-2.942150">
        <ele>1024.0</ele>
        <time>2013-07-29T14:14:03Z</time>
      </trkpt>
      <trkpt lat="43.106367" lon="-2.942117">
        <ele>1026.0</ele>
        <time>2013-07-29T14:14:04Z</time>
      </trkpt>
      <trkpt lat="43.106400" lon="-2.942017">
        <ele>1029.0</ele>
        <time>2013-07-29T14:14:06Z</time>
      </trkpt>
      <trkpt lat="43.106417" lon="-2.941967">
        <ele>1031.0</ele>
        <time>2013-07-29T14:14:07Z</time>
      </trkpt>
      <trkpt lat="43.106433" lon="-2.941900">
        <ele>1034.0</ele>
        <time>2013-07-29T14:14:08Z</time>
      </trkpt>
      <trkpt lat="43.106467" lon="-2.941850">
        <ele>1037.0</ele>
        <time>2013-07-29T14:14:09Z</time>
      </trkpt>
      <trkpt lat="43.106467" lon="-2.941783">
        <ele>1040.0</ele>
        <time>2013-07-29T14:14:10Z</time>
      </trkpt>
      <trkpt lat="43.106450" lon="-2.941700">
        <ele>1043.0</ele>
        <time>2013-07-29T14:14:11Z</time>
      </trkpt>
      <trkpt lat="43.106417" lon="-2.941617">
        <ele>1045.0</ele>
        <time>2013-07-29T14:14:12Z</time>
      </trkpt>
      <trkpt lat="43.106350" lon="-2.941533">
        <ele>1048.0</ele>
        <time>2013-07-29T14:14:13Z</time>
      </trkpt>
      <trkpt lat="43.106267" lon="-2.941467">
        <ele>1051.0</ele>
        <time>2013-07-29T14:14:14Z</time>
      </trkpt>
      <trkpt lat="43.106167" lon="-2.941417">
        <ele>1053.0</ele>
        <time>2013-07-29T14:14:15Z</time>
      </trkpt>
      <trkpt lat="43.106067" lon="-2.941433">
        <ele>1056.0</ele>
        <time>2013-07-29T14:14:16Z</time>
      </trkpt>
      <trkpt lat="43.105967" lon="-2.941467">
        <ele>1060.0</ele>
        <time>2013-07-29T14:14:17Z</time>
      </trkpt>
      <trkpt lat="43.105883" lon="-2.941533">
        <ele>1064.0</ele>
        <time>2013-07-29T14:14:18Z</time>
      </trkpt>
      <trkpt lat="43.105817" lon="-2.941617">
        <ele>1067.0</ele>
        <time>2013-07-29T14:14:19Z</time>
      </trkpt>
      <trkpt lat="43.105700" lon="-2.941833">
        <ele>1071.0</ele>
        <time>2013-07-29T14:14:21Z</time>
      </trkpt>
      <trkpt lat="43.105650" lon="-2.941983">
        <ele>1071.0</ele>
        <time>2013-07-29T14:14:22Z</time>
      </trkpt>
      <trkpt lat="43.105617" lon="-2.942117">
        <ele>1072.0</ele>
        <time>2013-07-29T14:14:23Z</time>
      </trkpt>
      <trkpt lat="43.105600" lon="-2.942233">
        <ele>1074.0</ele>
        <time>2013-07-29T14:14:24Z</time>
      </trkpt>
      <trkpt lat="43.105617" lon="-2.942333">
        <ele>1076.0</ele>
        <time>2013-07-29T14:14:25Z</time>
      </trkpt>
      <trkpt lat="43.105667" lon="-2.942417">
        <ele>1077.0</ele>
        <time>2013-07-29T14:14:26Z</time>
      </trkpt>
      <trkpt lat="43.105717" lon="-2.942467">
        <ele>1078.0</ele>
        <time>2013-07-29T14:14:27Z</time>
      </trkpt>
      <trkpt lat="43.105783" lon="-2.942500">
        <ele>1079.0</ele>
        <time>2013-07-29T14:14:28Z</time>
      </trkpt>
      <trkpt lat="43.105850" lon="-2.942517">
        <ele>1080.0</ele>
        <time>2013-07-29T14:14:29Z</time>
      </trkpt>
      <trkpt lat="43.105917" lon="-2.942500">
        <ele>1082.0</ele>
        <time>2013-07-29T14:14:30Z</time>
      </trkpt>
      <trkpt lat="43.105967" lon="-2.942450">
        <ele>1083.0</ele>
        <time>2013-07-29T14:14:31Z</time>
      </trkpt>
      <trkpt lat="43.105983" lon="-2.942367">
        <ele>1084.0</ele>
        <time>2013-07-29T14:14:32Z</time>
      </trkpt>
      <trkpt lat="43.106000" lon="-2.942283">
        <ele>1086.0</ele>
        <time>2013-07-29T14:14:33Z</time>
      </trkpt>
      <trkpt lat="43.106000" lon="-2.942183">
        <ele>1090.0</ele>
        <time>2013-07-29T14:14:34Z</time>
      </trkpt>
      <trkpt lat="43.105983" lon="-2.942117">
        <ele>1092.0</ele>
        <time>2013-07-29T14:14:35Z</time>
      </trkpt>
      <trkpt lat="43.105950" lon="-2.942033">
        <ele>1095.0</ele>
        <time>2013-07-29T14:14:36Z</time>
      </trkpt>
      <trkpt lat="43.105917" lon="-2.941933">
        <ele>1098.0</ele>
        <time>2013-07-29T14:14:37Z</time>
      </trkpt>
      <trkpt lat="43.105850" lon="-2.941833">
        <ele>1100.0</ele>
        <time>2013-07-29T14:14:38Z</time>
      </trkpt>
      <trkpt lat="43.105783" lon="-2.941767">
        <ele>1103.0</ele>
        <time>2013-07-29T14:14:39Z</time>
      </trkpt>
      <trkpt lat="43.105700" lon="-2.941717">
        <ele>1106.0</ele>
        <time>2013-07-29T14:14:40Z</time>
      </trkpt>
      <trkpt lat="43.105617" lon="-2.941683">
        <ele>1109.0</ele>
        <time>2013-07-29T14:14:41Z</time>
      </trkpt>
      <trkpt lat="43.105517" lon="-2.941667">
        <ele>1111.0</ele>
        <time>2013-07-29T14:14:42Z</time>
      </trkpt>
      <trkpt lat="43.105417" lon="-2.941683">
        <ele>1114.0</ele>
        <time>2013-07-29T14:14:43Z</time>
      </trkpt>
      <trkpt lat="43.105317" lon="-2.941717">
        <ele>1117.0</ele>
        <time>2013-07-29T14:14:44Z</time>
      </trkpt>
      <trkpt lat="43.105233" lon="-2.941783">
        <ele>1119.0</ele>
        <time>2013-07-29T14:14:45Z</time>
      </trkpt>
      <trkpt lat="43.105167" lon="-2.941883">
        <ele>1121.0</ele>
        <time>2013-07-29T14:14:46Z</time>
      </trkpt>
      <trkpt lat="43.105133" lon="-2.942017">
        <ele>1122.0</ele>
        <time>2013-07-29T14:14:47Z</time>
      </trkpt>
      <trkpt lat="43.105100" lon="-2.942150">
        <ele>1124.0</ele>
        <time>2013-07-29T14:14:48Z</time>
      </trkpt>
      <trkpt lat="43.105067" lon="-2.942267">
        <ele>1125.0</ele>
        <time>2013-07-29T14:14:49Z</time>
      </trkpt>
      <trkpt lat="43.105067" lon="-2.942400">
        <ele>1127.0</ele>
        <time>2013-07-29T14:14:50Z</time>
      </trkpt>
      <trkpt lat="43.105083" lon="-2.942500">
        <ele>1127.0</ele>
        <time>2013-07-29T14:14:51Z</time>
      </trkpt>
      <trkpt lat="43.105117" lon="-2.942600">
        <ele>1128.0</ele>
        <time>2013-07-29T14:14:52Z</time>
      </trkpt>
      <trkpt lat="43.105150" lon="-2.942667">
        <ele>1129.0</ele>
        <time>2013-07-29T14:14:53Z</time>
      </trkpt>
      <trkpt lat="43.105217" lon="-2.942717">
        <ele>1131.0</ele>
        <time>2013-07-29T14:14:54Z</time>
      </trkpt>
      <trkpt lat="43.105283" lon="-2.942733">
        <ele>1131.0</ele>
        <time>2013-07-29T14:14:55Z</time>
      </trkpt>
      <trkpt lat="43.105333" lon="-2.942750">
        <ele>1132.0</ele>
        <time>2013-07-29T14:14:56Z</time>
      </trkpt>
      <trkpt lat="43.105400" lon="-2.942767">
        <ele>1133.0</ele>
        <time>2013-07-29T14:14:57Z</time>
      </trkpt>
      <trkpt lat="43.105467" lon="-2.942767">
        <ele>1134.0</ele>
        <time>2013-07-29T14:14:58Z</time>
      </trkpt>
      <trkpt lat="43.105517" lon="-2.942767">
        <ele>1134.0</ele>
        <time>2013-07-29T14:14:59Z</time>
      </trkpt>
      <trkpt lat="43.105567" lon="-2.942750">
        <ele>1136.0</ele>
        <time>2013-07-29T14:15:00Z</time>
      </trkpt>
      <trkpt lat="43.105617" lon="-2.942750">
        <ele>1138.0</ele>
        <time>2013-07-29T14:15:01Z</time>
      </trkpt>
      <trkpt lat="43.105667" lon="-2.942733">
        <ele>1139.0</ele>
        <time>2013-07-29T14:15:02Z</time>
      </trkpt>
      <trkpt lat="43.105700" lon="-2.942683">
        <ele>1141.0</ele>
        <time>2013-07-29T14:15:03Z</time>
      </trkpt>
      <trkpt lat="43.105733" lon="-2.942633">
        <ele>1142.0</ele>
        <time>2013-07-29T14:15:04Z</time>
      </trkpt>
      <trkpt lat="43.105733" lon="-2.942550">
        <ele>1143.0</ele>
        <time>2013-07-29T14:15:05Z</time>
      </trkpt>
      <trkpt lat="43.105717" lon="-2.942483">
        <ele>1144.0</ele>
        <time>2013-07-29T14:15:06Z</time>
      </trkpt>
      <trkpt lat="43.105700" lon="-2.942433">
        <ele>1145.0</ele>
        <time>2013-07-29T14:15:07Z</time>
      </trkpt>
      <trkpt lat="43.105700" lon="-2.942367">
        <ele>1147.0</ele>
        <time>2013-07-29T14:15:08Z</time>
      </trkpt>
      <trkpt lat="43.105683" lon="-2.942283">
        <ele>1148.0</ele>
        <time>2013-07-29T14:15:09Z</time>
      </trkpt>
      <trkpt lat="43.105667" lon="-2.942200">
        <ele>1148.0</ele>
        <time>2013-07-29T14:15:10Z</time>
      </trkpt>
      <trkpt lat="43.105617" lon="-2.942133">
        <ele>1149.0</ele>
        <time>2013-07-29T14:15:11Z</time>
      </trkpt>
      <trkpt lat="43.105550" lon="-2.942083">
        <ele>1150.0</ele>
        <time>2013-07-29T14:15:12Z</time>
      </trkpt>
      <trkpt lat="43.105450" lon="-2.942050">
        <ele>1151.0</ele>
        <time>2013-07-29T14:15:13Z</time>
      </trkpt>
      <trkpt lat="43.105350" lon="-2.942067">
        <ele>1151.0</ele>
        <time>2013-07-29T14:15:14Z</time>
      </trkpt>
      <trkpt lat="43.105250" lon="-2.942117">
        <ele>1151.0</ele>
        <time>2013-07-29T14:15:15Z</time>
      </trkpt>
      <trkpt lat="43.105167" lon="-2.942200">
        <ele>1153.0</ele>
        <time>2013-07-29T14:15:16Z</time>
      </trkpt>
      <trkpt lat="43.105100" lon="-2.942283">
        <ele>1155.0</ele>
        <time>2013-07-29T14:15:17Z</time>
      </trkpt>
      <trkpt lat="43.105050" lon="-2.942400">
        <ele>1157.0</ele>
        <time>2013-07-29T14:15:18Z</time>
      </trkpt>
      <trkpt lat="43.105000" lon="-2.942517">
        <ele>1159.0</ele>
        <time>2013-07-29T14:15:19Z</time>
      </trkpt>
      <trkpt lat="43.104967" lon="-2.942617">
        <ele>1160.0</ele>
        <time>2013-07-29T14:15:20Z</time>
      </trkpt>
      <trkpt lat="43.104933" lon="-2.942683">
        <ele>1164.0</ele>
        <time>2013-07-29T14:15:21Z</time>
      </trkpt>
      <trkpt lat="43.104900" lon="-2.942717">
        <ele>1167.0</ele>
        <time>2013-07-29T14:15:22Z</time>
      </trkpt>
      <trkpt lat="43.104850" lon="-2.942767">
        <ele>1168.0</ele>
        <time>2013-07-29T14:15:23Z</time>
      </trkpt>
      <trkpt lat="43.104833" lon="-2.942817">
        <ele>1168.0</ele>
        <time>2013-07-29T14:15:24Z</time>
      </trkpt>
      <trkpt lat="43.104800" lon="-2.942933">
        <ele>1168.0</ele>
        <time>2013-07-29T14:15:25Z</time>
      </trkpt>
      <trkpt lat="43.104783" lon="-2.943067">
        <ele>1168.0</ele>
        <time>2013-07-29T14:15:26Z</time>
      </trkpt>
      <trkpt lat="43.104767" lon="-2.943167">
        <ele>1168.0</ele>
        <time>2013-07-29T14:15:27Z</time>
      </trkpt>
      <trkpt lat="43.104750" lon="-2.943250">
        <ele>1170.0</ele>
        <time>2013-07-29T14:15:28Z</time>
      </trkpt>
      <trkpt lat="43.104733" lon="-2.943317">
        <ele>1170.0</ele>
        <time>2013-07-29T14:15:29Z</time>
      </trkpt>
      <trkpt lat="43.104700" lon="-2.943433">
        <ele>1170.0</ele>
        <time>2013-07-29T14:15:30Z</time>
      </trkpt>
      <trkpt lat="43.104683" lon="-2.943567">
        <ele>1168.0</ele>
        <time>2013-07-29T14:15:31Z</time>
      </trkpt>
      <trkpt lat="43.104700" lon="-2.943700">
        <ele>1167.0</ele>
        <time>2013-07-29T14:15:32Z</time>
      </trkpt>
      <trkpt lat="43.104733" lon="-2.943800">
        <ele>1166.0</ele>
        <time>2013-07-29T14:15:33Z</time>
      </trkpt>
      <trkpt lat="43.104767" lon="-2.943867">
        <ele>1167.0</ele>
        <time>2013-07-29T14:15:34Z</time>
      </trkpt>
      <trkpt lat="43.104817" lon="-2.943900">
        <ele>1169.0</ele>
        <time>2013-07-29T14:15:35Z</time>
      </trkpt>
      <trkpt lat="43.104850" lon="-2.943917">
        <ele>1171.0</ele>
        <time>2013-07-29T14:15:36Z</time>
      </trkpt>
      <trkpt lat="43.104900" lon="-2.943917">
        <ele>1171.0</ele>
        <time>2013-07-29T14:15:37Z</time>
      </trkpt>
      <trkpt lat="43.104950" lon="-2.943900">
        <ele>1170.0</ele>
        <time>2013-07-29T14:15:38Z</time>
      </trkpt>
      <trkpt lat="43.105000" lon="-2.943867">
        <ele>1169.0</ele>
        <time>2013-07-29T14:15:39Z</time>
      </trkpt>
      <trkpt lat="43.105083" lon="-2.943767">
        <ele>1170.0</ele>
        <time>2013-07-29T14:15:41Z</time>
      </trkpt>
      <trkpt lat="43.105117" lon="-2.943733">
        <ele>1170.0</ele>
        <time>2013-07-29T14:15:42Z</time>
      </trkpt>
      <trkpt lat="43.105150" lon="-2.943667">
        <ele>1171.0</ele>
        <time>2013-07-29T14:15:43Z</time>
      </trkpt>
      <trkpt lat="43.105183" lon="-2.943617">
        <ele>1171.0</ele>
        <time>2013-07-29T14:15:44Z</time>
      </trkpt>
      <trkpt lat="43.105217" lon="-2.943450">
        <ele>1171.0</ele>
        <time>2013-07-29T14:15:46Z</time>
      </trkpt>
      <trkpt lat="43.105217" lon="-2.943333">
        <ele>1171.0</ele>
        <time>2013-07-29T14:15:48Z</time>
      </trkpt>
      <trkpt lat="43.105217" lon="-2.943267">
        <ele>1171.0</ele>
        <time>2013-07-29T14:15:49Z</time>
      </trkpt>
      <trkpt lat="43.105183" lon="-2.943100">
        <ele>1169.0</ele>
        <time>2013-07-29T14:15:51Z</time>
      </trkpt>
      <trkpt lat="43.105167" lon="-2.943000">
        <ele>1169.0</ele>
        <time>2013-07-29T14:15:52Z</time>
      </trkpt>
      <trkpt lat="43.105150" lon="-2.942933">
        <ele>1168.0</ele>
        <time>2013-07-29T14:15:53Z</time>
      </trkpt>
      <trkpt lat="43.105117" lon="-2.942867">
        <ele>1168.0</ele>
        <time>2013-07-29T14:15:54Z</time>
      </trkpt>
      <trkpt lat="43.105083" lon="-2.942783">
        <ele>1168.0</ele>
        <time>2013-07-29T14:15:55Z</time>
      </trkpt>
      <trkpt lat="43.105067" lon="-2.942717">
        <ele>1167.0</ele>
        <time>2013-07-29T14:15:56Z</time>
      </trkpt>
      <trkpt lat="43.105050" lon="-2.942633">
        <ele>1166.0</ele>
        <time>2013-07-29T14:15:57Z</time>
      </trkpt>
      <trkpt lat="43.105033" lon="-2.942550">
        <ele>1165.0</ele>
        <time>2013-07-29T14:15:58Z</time>
      </trkpt>
      <trkpt lat="43.105017" lon="-2.942467">
        <ele>1164.0</ele>
        <time>2013-07-29T14:15:59Z</time>
      </trkpt>
      <trkpt lat="43.105000" lon="-2.942383">
        <ele>1163.0</ele>
        <time>2013-07-29T14:16:00Z</time>
      </trkpt>
      <trkpt lat="43.104967" lon="-2.942317">
        <ele>1163.0</ele>
        <time>2013-07-29T14:16:01Z</time>
      </trkpt>
      <trkpt lat="43.104933" lon="-2.942233">
        <ele>1163.0</ele>
        <time>2013-07-29T14:16:02Z</time>
      </trkpt>
      <trkpt lat="43.104900" lon="-2.942150">
        <ele>1163.0</ele>
        <time>2013-07-29T14:16:03Z</time>
      </trkpt>
      <trkpt lat="43.104867" lon="-2.942083">
        <ele>1163.0</ele>
        <time>2013-07-29T14:16:04Z</time>
      </trkpt>
      <trkpt lat="43.104817" lon="-2.942000">
        <ele>1163.0</ele>
        <time>2013-07-29T14:16:05Z</time>
      </trkpt>
      <trkpt lat="43.104767" lon="-2.941917">
        <ele>1164.0</ele>
        <time>2013-07-29T14:16:06Z</time>
      </trkpt>
      <trkpt lat="43.104733" lon="-2.941833">
        <ele>1165.0</ele>
        <time>2013-07-29T14:16:07Z</time>
      </trkpt>
      <trkpt lat="43.104683" lon="-2.941767">
        <ele>1167.0</ele>
        <time>2013-07-29T14:16:08Z</time>
      </trkpt>
      <trkpt lat="43.104650" lon="-2.941717">
        <ele>1168.0</ele>
        <time>2013-07-29T14:16:09Z</time>
      </trkpt>
      <trkpt lat="43.104600" lon="-2.941650">
        <ele>1169.0</ele>
        <time>2013-07-29T14:16:10Z</time>
      </trkpt>
      <trkpt lat="43.104533" lon="-2.941583">
        <ele>1169.0</ele>
        <time>2013-07-29T14:16:11Z</time>
      </trkpt>
      <trkpt lat="43.104467" lon="-2.941517">
        <ele>1170.0</ele>
        <time>2013-07-29T14:16:12Z</time>
      </trkpt>
      <trkpt lat="43.104417" lon="-2.941450">
        <ele>1171.0</ele>
        <time>2013-07-29T14:16:13Z</time>
      </trkpt>
      <trkpt lat="43.104367" lon="-2.941350">
        <ele>1173.0</ele>
        <time>2013-07-29T14:16:14Z</time>
      </trkpt>
      <trkpt lat="43.104333" lon="-2.941267">
        <ele>1176.0</ele>
        <time>2013-07-29T14:16:15Z</time>
      </trkpt>
      <trkpt lat="43.104283" lon="-2.941200">
        <ele>1179.0</ele>
        <time>2013-07-29T14:16:16Z</time>
      </trkpt>
      <trkpt lat="43.104250" lon="-2.941117">
        <ele>1181.0</ele>
        <time>2013-07-29T14:16:17Z</time>
      </trkpt>
      <trkpt lat="43.104150" lon="-2.940933">
        <ele>1185.0</ele>
        <time>2013-07-29T14:16:19Z</time>
      </trkpt>
      <trkpt lat="43.104050" lon="-2.940850">
        <ele>1187.0</ele>
        <time>2013-07-29T14:16:20Z</time>
      </trkpt>
      <trkpt lat="43.103817" lon="-2.940900">
        <ele>1190.0</ele>
        <time>2013-07-29T14:16:22Z</time>
      </trkpt>
      <trkpt lat="43.103717" lon="-2.941000">
        <ele>1191.0</ele>
        <time>2013-07-29T14:16:23Z</time>
      </trkpt>
      <trkpt lat="43.103650" lon="-2.941117">
        <ele>1194.0</ele>
        <time>2013-07-29T14:16:24Z</time>
      </trkpt>
      <trkpt lat="43.103600" lon="-2.941250">
        <ele>1197.0</ele>
        <time>2013-07-29T14:16:25Z</time>
      </trkpt>
      <trkpt lat="43.103583" lon="-2.941367">
        <ele>1201.0</ele>
        <time>2013-07-29T14:16:26Z</time>
      </trkpt>
      <trkpt lat="43.103583" lon="-2.941500">
        <ele>1204.0</ele>
        <time>2013-07-29T14:16:27Z</time>
      </trkpt>
      <trkpt lat="43.103600" lon="-2.941633">
        <ele>1206.0</ele>
        <time>2013-07-29T14:16:28Z</time>
      </trkpt>
      <trkpt lat="43.103633" lon="-2.941750">
        <ele>1208.0</ele>
        <time>2013-07-29T14:16:29Z</time>
      </trkpt>
      <trkpt lat="43.103667" lon="-2.941850">
        <ele>1210.0</ele>
        <time>2013-07-29T14:16:30Z</time>
      </trkpt>
      <trkpt lat="43.103700" lon="-2.941950">
        <ele>1213.0</ele>
        <time>2013-07-29T14:16:31Z</time>
      </trkpt>
      <trkpt lat="43.103733" lon="-2.942017">
        <ele>1216.0</ele>
        <time>2013-07-29T14:16:32Z</time>
      </trkpt>
      <trkpt lat="43.103783" lon="-2.942067">
        <ele>1218.0</ele>
        <time>2013-07-29T14:16:33Z</time>
      </trkpt>
      <trkpt lat="43.103817" lon="-2.942133">
        <ele>1219.0</ele>
        <time>2013-07-29T14:16:34Z</time>
      </trkpt>
      <trkpt lat="43.103883" lon="-2.942183">
        <ele>1219.0</ele>
        <time>2013-07-29T14:16:35Z</time>
      </trkpt>
      <trkpt lat="43.103967" lon="-2.942217">
        <ele>1219.0</ele>
        <time>2013-07-29T14:16:36Z</time>
      </trkpt>
      <trkpt lat="43.104033" lon="-2.942200">
        <ele>1220.0</ele>
        <time>2013-07-29T14:16:37Z</time>
      </trkpt>
      <trkpt lat="43.104100" lon="-2.942150">
        <ele>1221.0</ele>
        <time>2013-07-29T14:16:38Z</time>
      </trkpt>
      <trkpt lat="43.104133" lon="-2.942100">
        <ele>1222.0</ele>
        <time>2013-07-29T14:16:39Z</time>
      </trkpt>
      <trkpt lat="43.104150" lon="-2.942017">
        <ele>1223.0</ele>
        <time>2013-07-29T14:16:40Z</time>
      </trkpt>
      <trkpt lat="43.104133" lon="-2.941817">
        <ele>1226.0</ele>
        <time>2013-07-29T14:16:42Z</time>
      </trkpt>
      <trkpt lat="43.104100" lon="-2.941717">
        <ele>1228.0</ele>
        <time>2013-07-29T14:16:43Z</time>
      </trkpt>
      <trkpt lat="43.103967" lon="-2.941550">
        <ele>1231.0</ele>
        <time>2013-07-29T14:16:45Z</time>
      </trkpt>
      <trkpt lat="43.103867" lon="-2.941500">
        <ele>1232.0</ele>
        <time>2013-07-29T14:16:46Z</time>
      </trkpt>
      <trkpt lat="43.103767" lon="-2.941500">
        <ele>1234.0</ele>
        <time>2013-07-29T14:16:47Z</time>
      </trkpt>
      <trkpt lat="43.103667" lon="-2.941533">
        <ele>1236.0</ele>
        <time>2013-07-29T14:16:48Z</time>
      </trkpt>
      <trkpt lat="43.103567" lon="-2.941617">
        <ele>1238.0</ele>
        <time>2013-07-29T14:16:49Z</time>
      </trkpt>
      <trkpt lat="43.103483" lon="-2.941700">
        <ele>1240.0</ele>
        <time>2013-07-29T14:16:50Z</time>
      </trkpt>
      <trkpt lat="43.103400" lon="-2.941800">
        <ele>1242.0</ele>
        <time>2013-07-29T14:16:51Z</time>
      </trkpt>
      <trkpt lat="43.103333" lon="-2.941900">
        <ele>1246.0</ele>
        <time>2013-07-29T14:16:52Z</time>
      </trkpt>
      <trkpt lat="43.103283" lon="-2.942017">
        <ele>1250.0</ele>
        <time>2013-07-29T14:16:53Z</time>
      </trkpt>
      <trkpt lat="43.103267" lon="-2.942133">
        <ele>1253.0</ele>
        <time>2013-07-29T14:16:54Z</time>
      </trkpt>
      <trkpt lat="43.103267" lon="-2.942250">
        <ele>1255.0</ele>
        <time>2013-07-29T14:16:55Z</time>
      </trkpt>
      <trkpt lat="43.103300" lon="-2.942350">
        <ele>1257.0</ele>
        <time>2013-07-29T14:16:56Z</time>
      </trkpt>
      <trkpt lat="43.103333" lon="-2.942450">
        <ele>1259.0</ele>
        <time>2013-07-29T14:16:57Z</time>
      </trkpt>
      <trkpt lat="43.103367" lon="-2.942550">
        <ele>1261.0</ele>
        <time>2013-07-29T14:16:58Z</time>
      </trkpt>
      <trkpt lat="43.103417" lon="-2.942633">
        <ele>1262.0</ele>
        <time>2013-07-29T14:16:59Z</time>
      </trkpt>
      <trkpt lat="43.103467" lon="-2.942683">
        <ele>1263.0</ele>
        <time>2013-07-29T14:17:00Z</time>
      </trkpt>
      <trkpt lat="43.103517" lon="-2.942733">
        <ele>1264.0</ele>
        <time>2013-07-29T14:17:01Z</time>
      </trkpt>
      <trkpt lat="43.103567" lon="-2.942783">
        <ele>1264.0</ele>
        <time>2013-07-29T14:17:02Z</time>
      </trkpt>
      <trkpt lat="43.103650" lon="-2.942833">
        <ele>1263.0</ele>
        <time>2013-07-29T14:17:03Z</time>
      </trkpt>
      <trkpt lat="43.103733" lon="-2.942833">
        <ele>1261.0</ele>
        <time>2013-07-29T14:17:04Z</time>
      </trkpt>
      <trkpt lat="43.103800" lon="-2.942833">
        <ele>1260.0</ele>
        <time>2013-07-29T14:17:05Z</time>
      </trkpt>
      <trkpt lat="43.103867" lon="-2.942800">
        <ele>1261.0</ele>
        <time>2013-07-29T14:17:06Z</time>
      </trkpt>
      <trkpt lat="43.103900" lon="-2.942750">
        <ele>1261.0</ele>
        <time>2013-07-29T14:17:07Z</time>
      </trkpt>
      <trkpt lat="43.103917" lon="-2.942683">
        <ele>1261.0</ele>
        <time>2013-07-29T14:17:08Z</time>
      </trkpt>
      <trkpt lat="43.103950" lon="-2.942617">
        <ele>1262.0</ele>
        <time>2013-07-29T14:17:09Z</time>
      </trkpt>
      <trkpt lat="43.103967" lon="-2.942533">
        <ele>1262.0</ele>
        <time>2013-07-29T14:17:10Z</time>
      </trkpt>
      <trkpt lat="43.103983" lon="-2.942317">
        <ele>1263.0</ele>
        <time>2013-07-29T14:17:12Z</time>
      </trkpt>
      <trkpt lat="43.103967" lon="-2.942217">
        <ele>1264.0</ele>
        <time>2013-07-29T14:17:13Z</time>
      </trkpt>
      <trkpt lat="43.103933" lon="-2.942117">
        <ele>1265.0</ele>
        <time>2013-07-29T14:17:14Z</time>
      </trkpt>
      <trkpt lat="43.103900" lon="-2.942033">
        <ele>1268.0</ele>
        <time>2013-07-29T14:17:15Z</time>
      </trkpt>
      <trkpt lat="43.103867" lon="-2.941950">
        <ele>1270.0</ele>
        <time>2013-07-29T14:17:16Z</time>
      </trkpt>
      <trkpt lat="43.103833" lon="-2.941867">
        <ele>1272.0</ele>
        <time>2013-07-29T14:17:17Z</time>
      </trkpt>
      <trkpt lat="43.103783" lon="-2.941783">
        <ele>1274.0</ele>
        <time>2013-07-29T14:17:18Z</time>
      </trkpt>
      <trkpt lat="43.103717" lon="-2.941717">
        <ele>1276.0</ele>
        <time>2013-07-29T14:17:19Z</time>
      </trkpt>
      <trkpt lat="43.103617" lon="-2.941683">
        <ele>1276.0</ele>
        <time>2013-07-29T14:17:20Z</time>
      </trkpt>
      <trkpt lat="43.103517" lon="-2.941667">
        <ele>1277.0</ele>
        <time>2013-07-29T14:17:21Z</time>
      </trkpt>
      <trkpt lat="43.103417" lon="-2.941683">
        <ele>1278.0</ele>
        <time>2013-07-29T14:17:22Z</time>
      </trkpt>
      <trkpt lat="43.103350" lon="-2.941733">
        <ele>1280.0</ele>
        <time>2013-07-29T14:17:23Z</time>
      </trkpt>
      <trkpt lat="43.103300" lon="-2.941817">
        <ele>1283.0</ele>
        <time>2013-07-29T14:17:24Z</time>
      </trkpt>
      <trkpt lat="43.103267" lon="-2.941917">
        <ele>1284.0</ele>
        <time>2013-07-29T14:17:25Z</time>
      </trkpt>
      <trkpt lat="43.103217" lon="-2.942033">
        <ele>1285.0</ele>
        <time>2013-07-29T14:17:26Z</time>
      </trkpt>
      <trkpt lat="43.103200" lon="-2.942283">
        <ele>1288.0</ele>
        <time>2013-07-29T14:17:28Z</time>
      </trkpt>
      <trkpt lat="43.103217" lon="-2.942383">
        <ele>1290.0</ele>
        <time>2013-07-29T14:17:29Z</time>
      </trkpt>
      <trkpt lat="43.103250" lon="-2.942450">
        <ele>1292.0</ele>
        <time>2013-07-29T14:17:30Z</time>
      </trkpt>
      <trkpt lat="43.103317" lon="-2.942500">
        <ele>1295.0</ele>
        <time>2013-07-29T14:17:31Z</time>
      </trkpt>
      <trkpt lat="43.103367" lon="-2.942533">
        <ele>1296.0</ele>
        <time>2013-07-29T14:17:32Z</time>
      </trkpt>
      <trkpt lat="43.103433" lon="-2.942550">
        <ele>1298.0</ele>
        <time>2013-07-29T14:17:33Z</time>
      </trkpt>
      <trkpt lat="43.103483" lon="-2.942533">
        <ele>1300.0</ele>
        <time>2013-07-29T14:17:34Z</time>
      </trkpt>
      <trkpt lat="43.103633" lon="-2.942367">
        <ele>1304.0</ele>
        <time>2013-07-29T14:17:37Z</time>
      </trkpt>
      <trkpt lat="43.103667" lon="-2.942283">
        <ele>1305.0</ele>
        <time>2013-07-29T14:17:38Z</time>
      </trkpt>
      <trkpt lat="43.103700" lon="-2.942200">
        <ele>1307.0</ele>
        <time>2013-07-29T14:17:39Z</time>
      </trkpt>
      <trkpt lat="43.103717" lon="-2.942117">
        <ele>1308.0</ele>
        <time>2013-07-29T14:17:40Z</time>
      </trkpt>
      <trkpt lat="43.103700" lon="-2.942017">
        <ele>1310.0</ele>
        <time>2013-07-29T14:17:41Z</time>
      </trkpt>
      <trkpt lat="43.103700" lon="-2.941917">
        <ele>1311.0</ele>
        <time>2013-07-29T14:17:42Z</time>
      </trkpt>
      <trkpt lat="43.103650" lon="-2.941817">
        <ele>1312.0</ele>
        <time>2013-07-29T14:17:43Z</time>
      </trkpt>
      <trkpt lat="43.103600" lon="-2.941733">
        <ele>1314.0</ele>
        <time>2013-07-29T14:17:44Z</time>
      </trkpt>
      <trkpt lat="43.103517" lon="-2.941667">
        <ele>1315.0</ele>
        <time>2013-07-29T14:17:45Z</time>
      </trkpt>
      <trkpt lat="43.103433" lon="-2.941600">
        <ele>1316.0</ele>
        <time>2013-07-29T14:17:46Z</time>
      </trkpt>
      <trkpt lat="43.103317" lon="-2.941567">
        <ele>1317.0</ele>
        <time>2013-07-29T14:17:47Z</time>
      </trkpt>
      <trkpt lat="43.103217" lon="-2.941567">
        <ele>1319.0</ele>
        <time>2013-07-29T14:17:48Z</time>
      </trkpt>
      <trkpt lat="43.103117" lon="-2.941600">
        <ele>1321.0</ele>
        <time>2013-07-29T14:17:49Z</time>
      </trkpt>
      <trkpt lat="43.103033" lon="-2.941650">
        <ele>1324.0</ele>
        <time>2013-07-29T14:17:50Z</time>
      </trkpt>
      <trkpt lat="43.102967" lon="-2.941733">
        <ele>1326.0</ele>
        <time>2013-07-29T14:17:51Z</time>
      </trkpt>
      <trkpt lat="43.102900" lon="-2.941833">
        <ele>1328.0</ele>
        <time>2013-07-29T14:17:52Z</time>
      </trkpt>
      <trkpt lat="43.102867" lon="-2.941950">
        <ele>1330.0</ele>
        <time>2013-07-29T14:17:53Z</time>
      </trkpt>
      <trkpt lat="43.102817" lon="-2.942083">
        <ele>1332.0</ele>
        <time>2013-07-29T14:17:54Z</time>
      </trkpt>
      <trkpt lat="43.102800" lon="-2.942217">
        <ele>1334.0</ele>
        <time>2013-07-29T14:17:55Z</time>
      </trkpt>
      <trkpt lat="43.102800" lon="-2.942333">
        <ele>1337.0</ele>
        <time>2013-07-29T14:17:56Z</time>
      </trkpt>
      <trkpt lat="43.102817" lon="-2.942433">
        <ele>1339.0</ele>
        <time>2013-07-29T14:17:57Z</time>
      </trkpt>
      <trkpt lat="43.102850" lon="-2.942517">
        <ele>1341.0</ele>
        <time>2013-07-29T14:17:58Z</time>
      </trkpt>
      <trkpt lat="43.102900" lon="-2.942583">
        <ele>1343.0</ele>
        <time>2013-07-29T14:17:59Z</time>
      </trkpt>
      <trkpt lat="43.102950" lon="-2.942633">
        <ele>1345.0</ele>
        <time>2013-07-29T14:18:00Z</time>
      </trkpt>
      <trkpt lat="43.103017" lon="-2.942667">
        <ele>1347.0</ele>
        <time>2013-07-29T14:18:01Z</time>
      </trkpt>
      <trkpt lat="43.103083" lon="-2.942667">
        <ele>1349.0</ele>
        <time>2013-07-29T14:18:02Z</time>
      </trkpt>
      <trkpt lat="43.103133" lon="-2.942633">
        <ele>1351.0</ele>
        <time>2013-07-29T14:18:03Z</time>
      </trkpt>
      <trkpt lat="43.103200" lon="-2.942550">
        <ele>1352.0</ele>
        <time>2013-07-29T14:18:04Z</time>
      </trkpt>
      <trkpt lat="43.103250" lon="-2.942467">
        <ele>1352.0</ele>
        <time>2013-07-29T14:18:05Z</time>
      </trkpt>
      <trkpt lat="43.103283" lon="-2.942367">
        <ele>1352.0</ele>
        <time>2013-07-29T14:18:06Z</time>
      </trkpt>
      <trkpt lat="43.103283" lon="-2.942267">
        <ele>1353.0</ele>
        <time>2013-07-29T14:18:07Z</time>
      </trkpt>
      <trkpt lat="43.103283" lon="-2.942150">
        <ele>1353.0</ele>
        <time>2013-07-29T14:18:08Z</time>
      </trkpt>
      <trkpt lat="43.103233" lon="-2.942050">
        <ele>1353.0</ele>
        <time>2013-07-29T14:18:09Z</time>
      </trkpt>
      <trkpt lat="43.103167" lon="-2.941933">
        <ele>1353.0</ele>
        <time>2013-07-29T14:18:10Z</time>
      </trkpt>
      <trkpt lat="43.103083" lon="-2.941850">
        <ele>1354.0</ele>
        <time>2013-07-29T14:18:11Z</time>
      </trkpt>
      <trkpt lat="43.103000" lon="-2.941800">
        <ele>1356.0</ele>
        <time>2013-07-29T14:18:12Z</time>
      </trkpt>
      <trkpt lat="43.102900" lon="-2.941783">
        <ele>1356.0</ele>
        <time>2013-07-29T14:18:13Z</time>
      </trkpt>
      <trkpt lat="43.102800" lon="-2.941783">
        <ele>1358.0</ele>
        <time>2013-07-29T14:18:14Z</time>
      </trkpt>
      <trkpt lat="43.102683" lon="-2.941817">
        <ele>1359.0</ele>
        <time>2013-07-29T14:18:15Z</time>
      </trkpt>
      <trkpt lat="43.102583" lon="-2.941867">
        <ele>1361.0</ele>
        <time>2013-07-29T14:18:16Z</time>
      </trkpt>
      <trkpt lat="43.102517" lon="-2.941933">
        <ele>1363.0</ele>
        <time>2013-07-29T14:18:17Z</time>
      </trkpt>
      <trkpt lat="43.102450" lon="-2.942033">
        <ele>1365.0</ele>
        <time>2013-07-29T14:18:18Z</time>
      </trkpt>
      <trkpt lat="43.102417" lon="-2.942150">
        <ele>1366.0</ele>
        <time>2013-07-29T14:18:19Z</time>
      </trkpt>
      <trkpt lat="43.102383" lon="-2.942267">
        <ele>1367.0</ele>
        <time>2013-07-29T14:18:20Z</time>
      </trkpt>
      <trkpt lat="43.102383" lon="-2.942383">
        <ele>1369.0</ele>
        <time>2013-07-29T14:18:21Z</time>
      </trkpt>
      <trkpt lat="43.102400" lon="-2.942467">
        <ele>1371.0</ele>
        <time>2013-07-29T14:18:22Z</time>
      </trkpt>
      <trkpt lat="43.102450" lon="-2.942533">
        <ele>1372.0</ele>
        <time>2013-07-29T14:18:23Z</time>
      </trkpt>
      <trkpt lat="43.102500" lon="-2.942567">
        <ele>1374.0</ele>
        <time>2013-07-29T14:18:24Z</time>
      </trkpt>
      <trkpt lat="43.102550" lon="-2.942600">
        <ele>1375.0</ele>
        <time>2013-07-29T14:18:25Z</time>
      </trkpt>
      <trkpt lat="43.102617" lon="-2.942583">
        <ele>1376.0</ele>
        <time>2013-07-29T14:18:26Z</time>
      </trkpt>
      <trkpt lat="43.102667" lon="-2.942550">
        <ele>1377.0</ele>
        <time>2013-07-29T14:18:27Z</time>
      </trkpt>
      <trkpt lat="43.102700" lon="-2.942483">
        <ele>1378.0</ele>
        <time>2013-07-29T14:18:28Z</time>
      </trkpt>
      <trkpt lat="43.102733" lon="-2.942367">
        <ele>1379.0</ele>
        <time>2013-07-29T14:18:29Z</time>
      </trkpt>
      <trkpt lat="43.102733" lon="-2.942250">
        <ele>1380.0</ele>
        <time>2013-07-29T14:18:30Z</time>
      </trkpt>
      <trkpt lat="43.102733" lon="-2.942133">
        <ele>1381.0</ele>
        <time>2013-07-29T14:18:31Z</time>
      </trkpt>
      <trkpt lat="43.102700" lon="-2.942033">
        <ele>1382.0</ele>
        <time>2013-07-29T14:18:32Z</time>
      </trkpt>
      <trkpt lat="43.102650" lon="-2.941933">
        <ele>1384.0</ele>
        <time>2013-07-29T14:18:33Z</time>
      </trkpt>
      <trkpt lat="43.102583" lon="-2.941850">
        <ele>1385.0</ele>
        <time>2013-07-29T14:18:34Z</time>
      </trkpt>
      <trkpt lat="43.102533" lon="-2.941767">
        <ele>1387.0</ele>
        <time>2013-07-29T14:18:35Z</time>
      </trkpt>
      <trkpt lat="43.102450" lon="-2.941683">
        <ele>1388.0</ele>
        <time>2013-07-29T14:18:36Z</time>
      </trkpt>
      <trkpt lat="43.102367" lon="-2.941583">
        <ele>1386.0</ele>
        <time>2013-07-29T14:18:37Z</time>
      </trkpt>
      <trkpt lat="43.102267" lon="-2.941500">
        <ele>1387.0</ele>
        <time>2013-07-29T14:18:38Z</time>
      </trkpt>
      <trkpt lat="43.102167" lon="-2.941450">
        <ele>1388.0</ele>
        <time>2013-07-29T14:18:39Z</time>
      </trkpt>
      <trkpt lat="43.102050" lon="-2.941450">
        <ele>1390.0</ele>
        <time>2013-07-29T14:18:40Z</time>
      </trkpt>
      <trkpt lat="43.101950" lon="-2.941467">
        <ele>1393.0</ele>
        <time>2013-07-29T14:18:41Z</time>
      </trkpt>
      <trkpt lat="43.101850" lon="-2.941483">
        <ele>1396.0</ele>
        <time>2013-07-29T14:18:42Z</time>
      </trkpt>
      <trkpt lat="43.101767" lon="-2.941533">
        <ele>1399.0</ele>
        <time>2013-07-29T14:18:43Z</time>
      </trkpt>
      <trkpt lat="43.101700" lon="-2.941600">
        <ele>1402.0</ele>
        <time>2013-07-29T14:18:44Z</time>
      </trkpt>
      <trkpt lat="43.101650" lon="-2.941683">
        <ele>1404.0</ele>
        <time>2013-07-29T14:18:45Z</time>
      </trkpt>
      <trkpt lat="43.101617" lon="-2.941800">
        <ele>1407.0</ele>
        <time>2013-07-29T14:18:46Z</time>
      </trkpt>
      <trkpt lat="43.101617" lon="-2.941900">
        <ele>1408.0</ele>
        <time>2013-07-29T14:18:47Z</time>
      </trkpt>
      <trkpt lat="43.101633" lon="-2.941983">
        <ele>1410.0</ele>
        <time>2013-07-29T14:18:48Z</time>
      </trkpt>
      <trkpt lat="43.101667" lon="-2.942067">
        <ele>1411.0</ele>
        <time>2013-07-29T14:18:49Z</time>
      </trkpt>
      <trkpt lat="43.101733" lon="-2.942133">
        <ele>1412.0</ele>
        <time>2013-07-29T14:18:50Z</time>
      </trkpt>
      <trkpt lat="43.101783" lon="-2.942167">
        <ele>1413.0</ele>
        <time>2013-07-29T14:18:51Z</time>
      </trkpt>
      <trkpt lat="43.101850" lon="-2.942150">
        <ele>1414.0</ele>
        <time>2013-07-29T14:18:52Z</time>
      </trkpt>
      <trkpt lat="43.101900" lon="-2.942083">
        <ele>1414.0</ele>
        <time>2013-07-29T14:18:53Z</time>
      </trkpt>
      <trkpt lat="43.101950" lon="-2.942000">
        <ele>1415.0</ele>
        <time>2013-07-29T14:18:54Z</time>
      </trkpt>
      <trkpt lat="43.101983" lon="-2.941883">
        <ele>1416.0</ele>
        <time>2013-07-29T14:18:55Z</time>
      </trkpt>
      <trkpt lat="43.102000" lon="-2.941783">
        <ele>1417.0</ele>
        <time>2013-07-29T14:18:56Z</time>
      </trkpt>
      <trkpt lat="43.102000" lon="-2.941667">
        <ele>1418.0</ele>
        <time>2013-07-29T14:18:57Z</time>
      </trkpt>
      <trkpt lat="43.102000" lon="-2.941533">
        <ele>1420.0</ele>
        <time>2013-07-29T14:18:58Z</time>
      </trkpt>
      <trkpt lat="43.101983" lon="-2.941400">
        <ele>1422.0</ele>
        <time>2013-07-29T14:18:59Z</time>
      </trkpt>
      <trkpt lat="43.101950" lon="-2.941283">
        <ele>1424.0</ele>
        <time>2013-07-29T14:19:00Z</time>
      </trkpt>
      <trkpt lat="43.101883" lon="-2.941167">
        <ele>1426.0</ele>
        <time>2013-07-29T14:19:01Z</time>
      </trkpt>
      <trkpt lat="43.101817" lon="-2.941067">
        <ele>1428.0</ele>
        <time>2013-07-29T14:19:02Z</time>
      </trkpt>
      <trkpt lat="43.101733" lon="-2.940983">
        <ele>1430.0</ele>
        <time>2013-07-29T14:19:03Z</time>
      </trkpt>
      <trkpt lat="43.101633" lon="-2.940933">
        <ele>1431.0</ele>
        <time>2013-07-29T14:19:04Z</time>
      </trkpt>
      <trkpt lat="43.101517" lon="-2.940917">
        <ele>1433.0</ele>
        <time>2013-07-29T14:19:05Z</time>
      </trkpt>
      <trkpt lat="43.101433" lon="-2.940950">
        <ele>1436.0</ele>
        <time>2013-07-29T14:19:06Z</time>
      </trkpt>
      <trkpt lat="43.101350" lon="-2.941000">
        <ele>1438.0</ele>
        <time>2013-07-29T14:19:07Z</time>
      </trkpt>
      <trkpt lat="43.101283" lon="-2.941050">
        <ele>1441.0</ele>
        <time>2013-07-29T14:19:08Z</time>
      </trkpt>
      <trkpt lat="43.101233" lon="-2.941117">
        <ele>1443.0</ele>
        <time>2013-07-29T14:19:09Z</time>
      </trkpt>
      <trkpt lat="43.101200" lon="-2.941200">
        <ele>1445.0</ele>
        <time>2013-07-29T14:19:10Z</time>
      </trkpt>
      <trkpt lat="43.101183" lon="-2.941283">
        <ele>1447.0</ele>
        <time>2013-07-29T14:19:11Z</time>
      </trkpt>
      <trkpt lat="43.101183" lon="-2.941367">
        <ele>1448.0</ele>
        <time>2013-07-29T14:19:12Z</time>
      </trkpt>
      <trkpt lat="43.101217" lon="-2.941450">
        <ele>1450.0</ele>
        <time>2013-07-29T14:19:13Z</time>
      </trkpt>
      <trkpt lat="43.101250" lon="-2.941517">
        <ele>1451.0</ele>
        <time>2013-07-29T14:19:14Z</time>
      </trkpt>
      <trkpt lat="43.101283" lon="-2.941567">
        <ele>1452.0</ele>
        <time>2013-07-29T14:19:15Z</time>
      </trkpt>
      <trkpt lat="43.101317" lon="-2.941600">
        <ele>1449.0</ele>
        <time>2013-07-29T14:19:16Z</time>
      </trkpt>
      <trkpt lat="43.101383" lon="-2.941617">
        <ele>1450.0</ele>
        <time>2013-07-29T14:19:17Z</time>
      </trkpt>
      <trkpt lat="43.101433" lon="-2.941600">
        <ele>1451.0</ele>
        <time>2013-07-29T14:19:18Z</time>
      </trkpt>
      <trkpt lat="43.101500" lon="-2.941567">
        <ele>1452.0</ele>
        <time>2013-07-29T14:19:19Z</time>
      </trkpt>
      <trkpt lat="43.101550" lon="-2.941483">
        <ele>1453.0</ele>
        <time>2013-07-29T14:19:20Z</time>
      </trkpt>
      <trkpt lat="43.101600" lon="-2.941383">
        <ele>1454.0</ele>
        <time>2013-07-29T14:19:21Z</time>
      </trkpt>
      <trkpt lat="43.101633" lon="-2.941267">
        <ele>1456.0</ele>
        <time>2013-07-29T14:19:22Z</time>
      </trkpt>
      <trkpt lat="43.101667" lon="-2.941150">
        <ele>1457.0</ele>
        <time>2013-07-29T14:19:23Z</time>
      </trkpt>
      <trkpt lat="43.101700" lon="-2.941033">
        <ele>1460.0</ele>
        <time>2013-07-29T14:19:24Z</time>
      </trkpt>
      <trkpt lat="43.101700" lon="-2.940917">
        <ele>1462.0</ele>
        <time>2013-07-29T14:19:25Z</time>
      </trkpt>
      <trkpt lat="43.101683" lon="-2.940800">
        <ele>1464.0</ele>
        <time>2013-07-29T14:19:26Z</time>
      </trkpt>
      <trkpt lat="43.101650" lon="-2.940683">
        <ele>1465.0</ele>
        <time>2013-07-29T14:19:27Z</time>
      </trkpt>
      <trkpt lat="43.101600" lon="-2.940550">
        <ele>1466.0</ele>
        <time>2013-07-29T14:19:28Z</time>
      </trkpt>
      <trkpt lat="43.101550" lon="-2.940433">
        <ele>1467.0</ele>
        <time>2013-07-29T14:19:29Z</time>
      </trkpt>
      <trkpt lat="43.101500" lon="-2.940333">
        <ele>1468.0</ele>
        <time>2013-07-29T14:19:30Z</time>
      </trkpt>
      <trkpt lat="43.101433" lon="-2.940250">
        <ele>1470.0</ele>
        <time>2013-07-29T14:19:31Z</time>
      </trkpt>
      <trkpt lat="43.101350" lon="-2.940183">
        <ele>1471.0</ele>
        <time>2013-07-29T14:19:32Z</time>
      </trkpt>
      <trkpt lat="43.101250" lon="-2.940133">
        <ele>1470.0</ele>
        <time>2013-07-29T14:19:33Z</time>
      </trkpt>
      <trkpt lat="43.101150" lon="-2.940117">
        <ele>1471.0</ele>
        <time>2013-07-29T14:19:34Z</time>
      </trkpt>
      <trkpt lat="43.101067" lon="-2.940117">
        <ele>1472.0</ele>
        <time>2013-07-29T14:19:35Z</time>
      </trkpt>
      <trkpt lat="43.101000" lon="-2.940133">
        <ele>1473.0</ele>
        <time>2013-07-29T14:19:36Z</time>
      </trkpt>
      <trkpt lat="43.100950" lon="-2.940183">
        <ele>1474.0</ele>
        <time>2013-07-29T14:19:37Z</time>
      </trkpt>
      <trkpt lat="43.100917" lon="-2.940250">
        <ele>1474.0</ele>
        <time>2013-07-29T14:19:38Z</time>
      </trkpt>
      <trkpt lat="43.100867" lon="-2.940333">
        <ele>1474.0</ele>
        <time>2013-07-29T14:19:39Z</time>
      </trkpt>
      <trkpt lat="43.100850" lon="-2.940433">
        <ele>1475.0</ele>
        <time>2013-07-29T14:19:40Z</time>
      </trkpt>
      <trkpt lat="43.100817" lon="-2.940517">
        <ele>1475.0</ele>
        <time>2013-07-29T14:19:41Z</time>
      </trkpt>
      <trkpt lat="43.100817" lon="-2.940600">
        <ele>1475.0</ele>
        <time>2013-07-29T14:19:42Z</time>
      </trkpt>
      <trkpt lat="43.100817" lon="-2.940683">
        <ele>1475.0</ele>
        <time>2013-07-29T14:19:43Z</time>
      </trkpt>
      <trkpt lat="43.100817" lon="-2.940783">
        <ele>1475.0</ele>
        <time>2013-07-29T14:19:44Z</time>
      </trkpt>
      <trkpt lat="43.100833" lon="-2.940867">
        <ele>1475.0</ele>
        <time>2013-07-29T14:19:45Z</time>
      </trkpt>
      <trkpt lat="43.100850" lon="-2.940967">
        <ele>1476.0</ele>
        <time>2013-07-29T14:19:46Z</time>
      </trkpt>
      <trkpt lat="43.100883" lon="-2.941050">
        <ele>1477.0</ele>
        <time>2013-07-29T14:19:47Z</time>
      </trkpt>
      <trkpt lat="43.100917" lon="-2.941117">
        <ele>1477.0</ele>
        <time>2013-07-29T14:19:48Z</time>
      </trkpt>
      <trkpt lat="43.100967" lon="-2.941150">
        <ele>1478.0</ele>
        <time>2013-07-29T14:19:49Z</time>
      </trkpt>
      <trkpt lat="43.101050" lon="-2.941167">
        <ele>1479.0</ele>
        <time>2013-07-29T14:19:50Z</time>
      </trkpt>
      <trkpt lat="43.101150" lon="-2.941150">
        <ele>1480.0</ele>
        <time>2013-07-29T14:19:51Z</time>
      </trkpt>
      <trkpt lat="43.101250" lon="-2.941117">
        <ele>1483.0</ele>
        <time>2013-07-29T14:19:52Z</time>
      </trkpt>
      <trkpt lat="43.101317" lon="-2.941050">
        <ele>1487.0</ele>
        <time>2013-07-29T14:19:53Z</time>
      </trkpt>
      <trkpt lat="43.101383" lon="-2.941000">
        <ele>1491.0</ele>
        <time>2013-07-29T14:19:54Z</time>
      </trkpt>
      <trkpt lat="43.101433" lon="-2.940933">
        <ele>1494.0</ele>
        <time>2013-07-29T14:19:55Z</time>
      </trkpt>
      <trkpt lat="43.101483" lon="-2.940850">
        <ele>1496.0</ele>
        <time>2013-07-29T14:19:56Z</time>
      </trkpt>
      <trkpt lat="43.101533" lon="-2.940750">
        <ele>1498.0</ele>
        <time>2013-07-29T14:19:57Z</time>
      </trkpt>
      <trkpt lat="43.101550" lon="-2.940633">
        <ele>1500.0</ele>
        <time>2013-07-29T14:19:58Z</time>
      </trkpt>
      <trkpt lat="43.101550" lon="-2.940483">
        <ele>1501.0</ele>
        <time>2013-07-29T14:19:59Z</time>
      </trkpt>
      <trkpt lat="43.101533" lon="-2.940350">
        <ele>1501.0</ele>
        <time>2013-07-29T14:20:00Z</time>
      </trkpt>
      <trkpt lat="43.101500" lon="-2.940233">
        <ele>1503.0</ele>
        <time>2013-07-29T14:20:01Z</time>
      </trkpt>
      <trkpt lat="43.101450" lon="-2.940133">
        <ele>1504.0</ele>
        <time>2013-07-29T14:20:02Z</time>
      </trkpt>
      <trkpt lat="43.101400" lon="-2.940033">
        <ele>1504.0</ele>
        <time>2013-07-29T14:20:03Z</time>
      </trkpt>
      <trkpt lat="43.101317" lon="-2.939950">
        <ele>1503.0</ele>
        <time>2013-07-29T14:20:04Z</time>
      </trkpt>
      <trkpt lat="43.101217" lon="-2.939900">
        <ele>1503.0</ele>
        <time>2013-07-29T14:20:05Z</time>
      </trkpt>
      <trkpt lat="43.101117" lon="-2.939867">
        <ele>1502.0</ele>
        <time>2013-07-29T14:20:06Z</time>
      </trkpt>
      <trkpt lat="43.101017" lon="-2.939883">
        <ele>1502.0</ele>
        <time>2013-07-29T14:20:07Z</time>
      </trkpt>
      <trkpt lat="43.100933" lon="-2.939917">
        <ele>1502.0</ele>
        <time>2013-07-29T14:20:08Z</time>
      </trkpt>
      <trkpt lat="43.100867" lon="-2.939967">
        <ele>1503.0</ele>
        <time>2013-07-29T14:20:09Z</time>
      </trkpt>
      <trkpt lat="43.100817" lon="-2.940050">
        <ele>1503.0</ele>
        <time>2013-07-29T14:20:10Z</time>
      </trkpt>
      <trkpt lat="43.100800" lon="-2.940150">
        <ele>1502.0</ele>
        <time>2013-07-29T14:20:11Z</time>
      </trkpt>
      <trkpt lat="43.100800" lon="-2.940250">
        <ele>1502.0</ele>
        <time>2013-07-29T14:20:12Z</time>
      </trkpt>
      <trkpt lat="43.100800" lon="-2.940333">
        <ele>1503.0</ele>
        <time>2013-07-29T14:20:13Z</time>
      </trkpt>
      <trkpt lat="43.100833" lon="-2.940433">
        <ele>1504.0</ele>
        <time>2013-07-29T14:20:14Z</time>
      </trkpt>
      <trkpt lat="43.100883" lon="-2.940500">
        <ele>1506.0</ele>
        <time>2013-07-29T14:20:15Z</time>
      </trkpt>
      <trkpt lat="43.100917" lon="-2.940567">
        <ele>1508.0</ele>
        <time>2013-07-29T14:20:16Z</time>
      </trkpt>
      <trkpt lat="43.100967" lon="-2.940633">
        <ele>1509.0</ele>
        <time>2013-07-29T14:20:17Z</time>
      </trkpt>
      <trkpt lat="43.101033" lon="-2.940700">
        <ele>1510.0</ele>
        <time>2013-07-29T14:20:18Z</time>
      </trkpt>
      <trkpt lat="43.101100" lon="-2.940767">
        <ele>1510.0</ele>
        <time>2013-07-29T14:20:19Z</time>
      </trkpt>
      <trkpt lat="43.101183" lon="-2.940833">
        <ele>1511.0</ele>
        <time>2013-07-29T14:20:20Z</time>
      </trkpt>
      <trkpt lat="43.101267" lon="-2.940850">
        <ele>1513.0</ele>
        <time>2013-07-29T14:20:21Z</time>
      </trkpt>
      <trkpt lat="43.101350" lon="-2.940833">
        <ele>1515.0</ele>
        <time>2013-07-29T14:20:22Z</time>
      </trkpt>
      <trkpt lat="43.101417" lon="-2.940800">
        <ele>1518.0</ele>
        <time>2013-07-29T14:20:23Z</time>
      </trkpt>
      <trkpt lat="43.101483" lon="-2.940767">
        <ele>1519.0</ele>
        <time>2013-07-29T14:20:24Z</time>
      </trkpt>
      <trkpt lat="43.101550" lon="-2.940733">
        <ele>1520.0</ele>
        <time>2013-07-29T14:20:25Z</time>
      </trkpt>
      <trkpt lat="43.101617" lon="-2.940683">
        <ele>1520.0</ele>
        <time>2013-07-29T14:20:26Z</time>
      </trkpt>
      <trkpt lat="43.101667" lon="-2.940600">
        <ele>1521.0</ele>
        <time>2013-07-29T14:20:27Z</time>
      </trkpt>
      <trkpt lat="43.101717" lon="-2.940517">
        <ele>1522.0</ele>
        <time>2013-07-29T14:20:28Z</time>
      </trkpt>
      <trkpt lat="43.101717" lon="-2.940267">
        <ele>1523.0</ele>
        <time>2013-07-29T14:20:30Z</time>
      </trkpt>
      <trkpt lat="43.101717" lon="-2.940150">
        <ele>1523.0</ele>
        <time>2013-07-29T14:20:31Z</time>
      </trkpt>
      <trkpt lat="43.101683" lon="-2.940050">
        <ele>1523.0</ele>
        <time>2013-07-29T14:20:32Z</time>
      </trkpt>
      <trkpt lat="43.101633" lon="-2.939950">
        <ele>1523.0</ele>
        <time>2013-07-29T14:20:33Z</time>
      </trkpt>
      <trkpt lat="43.101550" lon="-2.939883">
        <ele>1522.0</ele>
        <time>2013-07-29T14:20:34Z</time>
      </trkpt>
      <trkpt lat="43.101467" lon="-2.939833">
        <ele>1521.0</ele>
        <time>2013-07-29T14:20:35Z</time>
      </trkpt>
      <trkpt lat="43.101383" lon="-2.939833">
        <ele>1521.0</ele>
        <time>2013-07-29T14:20:36Z</time>
      </trkpt>
      <trkpt lat="43.101350" lon="-2.939850">
        <ele>1521.0</ele>
        <time>2013-07-29T14:20:37Z</time>
      </trkpt>
      <trkpt lat="43.101300" lon="-2.939883">
        <ele>1521.0</ele>
        <time>2013-07-29T14:20:38Z</time>
      </trkpt>
      <trkpt lat="43.101267" lon="-2.939933">
        <ele>1521.0</ele>
        <time>2013-07-29T14:20:39Z</time>
      </trkpt>
      <trkpt lat="43.101217" lon="-2.940000">
        <ele>1520.0</ele>
        <time>2013-07-29T14:20:40Z</time>
      </trkpt>
      <trkpt lat="43.101183" lon="-2.940067">
        <ele>1519.0</ele>
        <time>2013-07-29T14:20:41Z</time>
      </trkpt>
      <trkpt lat="43.101167" lon="-2.940150">
        <ele>1519.0</ele>
        <time>2013-07-29T14:20:42Z</time>
      </trkpt>
      <trkpt lat="43.101167" lon="-2.940233">
        <ele>1519.0</ele>
        <time>2013-07-29T14:20:43Z</time>
      </trkpt>
      <trkpt lat="43.101167" lon="-2.940317">
        <ele>1518.0</ele>
        <time>2013-07-29T14:20:44Z</time>
      </trkpt>
      <trkpt lat="43.101183" lon="-2.940400">
        <ele>1518.0</ele>
        <time>2013-07-29T14:20:45Z</time>
      </trkpt>
      <trkpt lat="43.101217" lon="-2.940450">
        <ele>1519.0</ele>
        <time>2013-07-29T14:20:46Z</time>
      </trkpt>
      <trkpt lat="43.101250" lon="-2.940517">
        <ele>1519.0</ele>
        <time>2013-07-29T14:20:47Z</time>
      </trkpt>
      <trkpt lat="43.101283" lon="-2.940567">
        <ele>1518.0</ele>
        <time>2013-07-29T14:20:48Z</time>
      </trkpt>
      <trkpt lat="43.101333" lon="-2.940633">
        <ele>1517.0</ele>
        <time>2013-07-29T14:20:49Z</time>
      </trkpt>
      <trkpt lat="43.101400" lon="-2.940683">
        <ele>1517.0</ele>
        <time>2013-07-29T14:20:50Z</time>
      </trkpt>
      <trkpt lat="43.101467" lon="-2.940733">
        <ele>1516.0</ele>
        <time>2013-07-29T14:20:51Z</time>
      </trkpt>
      <trkpt lat="43.101533" lon="-2.940750">
        <ele>1517.0</ele>
        <time>2013-07-29T14:20:52Z</time>
      </trkpt>
      <trkpt lat="43.101600" lon="-2.940733">
        <ele>1517.0</ele>
        <time>2013-07-29T14:20:53Z</time>
      </trkpt>
      <trkpt lat="43.101650" lon="-2.940700">
        <ele>1516.0</ele>
        <time>2013-07-29T14:20:54Z</time>
      </trkpt>
      <trkpt lat="43.101717" lon="-2.940633">
        <ele>1516.0</ele>
        <time>2013-07-29T14:20:55Z</time>
      </trkpt>
      <trkpt lat="43.101783" lon="-2.940567">
        <ele>1515.0</ele>
        <time>2013-07-29T14:20:56Z</time>
      </trkpt>
      <trkpt lat="43.101867" lon="-2.940350">
        <ele>1514.0</ele>
        <time>2013-07-29T14:20:58Z</time>
      </trkpt>
      <trkpt lat="43.101883" lon="-2.940233">
        <ele>1513.0</ele>
        <time>2013-07-29T14:20:59Z</time>
      </trkpt>
      <trkpt lat="43.101867" lon="-2.940100">
        <ele>1513.0</ele>
        <time>2013-07-29T14:21:00Z</time>
      </trkpt>
      <trkpt lat="43.101817" lon="-2.939983">
        <ele>1512.0</ele>
        <time>2013-07-29T14:21:01Z</time>
      </trkpt>
      <trkpt lat="43.101767" lon="-2.939867">
        <ele>1511.0</ele>
        <time>2013-07-29T14:21:02Z</time>
      </trkpt>
      <trkpt lat="43.101700" lon="-2.939767">
        <ele>1512.0</ele>
        <time>2013-07-29T14:21:03Z</time>
      </trkpt>
      <trkpt lat="43.101617" lon="-2.939700">
        <ele>1511.0</ele>
        <time>2013-07-29T14:21:04Z</time>
      </trkpt>
      <trkpt lat="43.101533" lon="-2.939667">
        <ele>1511.0</ele>
        <time>2013-07-29T14:21:05Z</time>
      </trkpt>
      <trkpt lat="43.101450" lon="-2.939650">
        <ele>1510.0</ele>
        <time>2013-07-29T14:21:06Z</time>
      </trkpt>
      <trkpt lat="43.101367" lon="-2.939633">
        <ele>1509.0</ele>
        <time>2013-07-29T14:21:07Z</time>
      </trkpt>
      <trkpt lat="43.101267" lon="-2.939633">
        <ele>1509.0</ele>
        <time>2013-07-29T14:21:08Z</time>
      </trkpt>
      <trkpt lat="43.101200" lon="-2.939650">
        <ele>1509.0</ele>
        <time>2013-07-29T14:21:09Z</time>
      </trkpt>
      <trkpt lat="43.101117" lon="-2.939650">
        <ele>1510.0</ele>
        <time>2013-07-29T14:21:10Z</time>
      </trkpt>
      <trkpt lat="43.101050" lon="-2.939683">
        <ele>1509.0</ele>
        <time>2013-07-29T14:21:11Z</time>
      </trkpt>
      <trkpt lat="43.100983" lon="-2.939733">
        <ele>1507.0</ele>
        <time>2013-07-29T14:21:12Z</time>
      </trkpt>
      <trkpt lat="43.100917" lon="-2.939783">
        <ele>1506.0</ele>
        <time>2013-07-29T14:21:13Z</time>
      </trkpt>
      <trkpt lat="43.100850" lon="-2.939833">
        <ele>1505.0</ele>
        <time>2013-07-29T14:21:14Z</time>
      </trkpt>
      <trkpt lat="43.100783" lon="-2.939883">
        <ele>1504.0</ele>
        <time>2013-07-29T14:21:15Z</time>
      </trkpt>
      <trkpt lat="43.100717" lon="-2.939950">
        <ele>1504.0</ele>
        <time>2013-07-29T14:21:16Z</time>
      </trkpt>
      <trkpt lat="43.100650" lon="-2.940000">
        <ele>1503.0</ele>
        <time>2013-07-29T14:21:17Z</time>
      </trkpt>
      <trkpt lat="43.100600" lon="-2.940067">
        <ele>1502.0</ele>
        <time>2013-07-29T14:21:18Z</time>
      </trkpt>
      <trkpt lat="43.100533" lon="-2.940117">
        <ele>1501.0</ele>
        <time>2013-07-29T14:21:19Z</time>
      </trkpt>
      <trkpt lat="43.100467" lon="-2.940167">
        <ele>1500.0</ele>
        <time>2013-07-29T14:21:20Z</time>
      </trkpt>
      <trkpt lat="43.100417" lon="-2.940217">
        <ele>1499.0</ele>
        <time>2013-07-29T14:21:21Z</time>
      </trkpt>
      <trkpt lat="43.100350" lon="-2.940300">
        <ele>1498.0</ele>
        <time>2013-07-29T14:21:22Z</time>
      </trkpt>
      <trkpt lat="43.100300" lon="-2.940383">
        <ele>1498.0</ele>
        <time>2013-07-29T14:21:23Z</time>
      </trkpt>
      <trkpt lat="43.100250" lon="-2.940467">
        <ele>1498.0</ele>
        <time>2013-07-29T14:21:24Z</time>
      </trkpt>
      <trkpt lat="43.100217" lon="-2.940533">
        <ele>1500.0</ele>
        <time>2013-07-29T14:21:25Z</time>
      </trkpt>
      <trkpt lat="43.100183" lon="-2.940583">
        <ele>1501.0</ele>
        <time>2013-07-29T14:21:26Z</time>
      </trkpt>
      <trkpt lat="43.100150" lon="-2.940633">
        <ele>1501.0</ele>
        <time>2013-07-29T14:21:27Z</time>
      </trkpt>
      <trkpt lat="43.100117" lon="-2.940700">
        <ele>1501.0</ele>
        <time>2013-07-29T14:21:28Z</time>
      </trkpt>
      <trkpt lat="43.100067" lon="-2.940767">
        <ele>1499.0</ele>
        <time>2013-07-29T14:21:29Z</time>
      </trkpt>
      <trkpt lat="43.100017" lon="-2.940850">
        <ele>1497.0</ele>
        <time>2013-07-29T14:21:30Z</time>
      </trkpt>
      <trkpt lat="43.099950" lon="-2.940900">
        <ele>1497.0</ele>
        <time>2013-07-29T14:21:31Z</time>
      </trkpt>
      <trkpt lat="43.099900" lon="-2.940950">
        <ele>1496.0</ele>
        <time>2013-07-29T14:21:32Z</time>
      </trkpt>
      <trkpt lat="43.099850" lon="-2.941000">
        <ele>1495.0</ele>
        <time>2013-07-29T14:21:33Z</time>
      </trkpt>
      <trkpt lat="43.099800" lon="-2.941050">
        <ele>1494.0</ele>
        <time>2013-07-29T14:21:34Z</time>
      </trkpt>
      <trkpt lat="43.099733" lon="-2.941117">
        <ele>1492.0</ele>
        <time>2013-07-29T14:21:35Z</time>
      </trkpt>
      <trkpt lat="43.099667" lon="-2.941167">
        <ele>1491.0</ele>
        <time>2013-07-29T14:21:36Z</time>
      </trkpt>
      <trkpt lat="43.099500" lon="-2.941267">
        <ele>1488.0</ele>
        <time>2013-07-29T14:21:38Z</time>
      </trkpt>
      <trkpt lat="43.099433" lon="-2.941300">
        <ele>1488.0</ele>
        <time>2013-07-29T14:21:39Z</time>
      </trkpt>
      <trkpt lat="43.099367" lon="-2.941333">
        <ele>1487.0</ele>
        <time>2013-07-29T14:21:40Z</time>
      </trkpt>
      <trkpt lat="43.099317" lon="-2.941383">
        <ele>1487.0</ele>
        <time>2013-07-29T14:21:41Z</time>
      </trkpt>
      <trkpt lat="43.099267" lon="-2.941417">
        <ele>1487.0</ele>
        <time>2013-07-29T14:21:42Z</time>
      </trkpt>
      <trkpt lat="43.099217" lon="-2.941467">
        <ele>1487.0</ele>
        <time>2013-07-29T14:21:43Z</time>
      </trkpt>
      <trkpt lat="43.099167" lon="-2.941500">
        <ele>1486.0</ele>
        <time>2013-07-29T14:21:44Z</time>
      </trkpt>
      <trkpt lat="43.099117" lon="-2.941567">
        <ele>1484.0</ele>
        <time>2013-07-29T14:21:45Z</time>
      </trkpt>
      <trkpt lat="43.099067" lon="-2.941617">
        <ele>1482.0</ele>
        <time>2013-07-29T14:21:46Z</time>
      </trkpt>
      <trkpt lat="43.099017" lon="-2.941683">
        <ele>1480.0</ele>
        <time>2013-07-29T14:21:47Z</time>
      </trkpt>
      <trkpt lat="43.098950" lon="-2.941733">
        <ele>1479.0</ele>
        <time>2013-07-29T14:21:48Z</time>
      </trkpt>
      <trkpt lat="43.098900" lon="-2.941783">
        <ele>1477.0</ele>
        <time>2013-07-29T14:21:49Z</time>
      </trkpt>
      <trkpt lat="43.098850" lon="-2.941817">
        <ele>1476.0</ele>
        <time>2013-07-29T14:21:50Z</time>
      </trkpt>
      <trkpt lat="43.098800" lon="-2.941867">
        <ele>1475.0</ele>
        <time>2013-07-29T14:21:51Z</time>
      </trkpt>
      <trkpt lat="43.098750" lon="-2.941900">
        <ele>1472.0</ele>
        <time>2013-07-29T14:21:52Z</time>
      </trkpt>
      <trkpt lat="43.098700" lon="-2.941950">
        <ele>1470.0</ele>
        <time>2013-07-29T14:21:53Z</time>
      </trkpt>
      <trkpt lat="43.098650" lon="-2.942000">
        <ele>1468.0</ele>
        <time>2013-07-29T14:21:54Z</time>
      </trkpt>
      <trkpt lat="43.098600" lon="-2.942067">
        <ele>1465.0</ele>
        <time>2013-07-29T14:21:55Z</time>
      </trkpt>
      <trkpt lat="43.098550" lon="-2.942133">
        <ele>1463.0</ele>
        <time>2013-07-29T14:21:56Z</time>
      </trkpt>
      <trkpt lat="43.098500" lon="-2.942200">
        <ele>1461.0</ele>
        <time>2013-07-29T14:21:57Z</time>
      </trkpt>
      <trkpt lat="43.098450" lon="-2.942267">
        <ele>1461.0</ele>
        <time>2013-07-29T14:21:58Z</time>
      </trkpt>
      <trkpt lat="43.098417" lon="-2.942333">
        <ele>1461.0</ele>
        <time>2013-07-29T14:21:59Z</time>
      </trkpt>
      <trkpt lat="43.098367" lon="-2.942383">
        <ele>1460.0</ele>
        <time>2013-07-29T14:22:00Z</time>
      </trkpt>
      <trkpt lat="43.098317" lon="-2.942433">
        <ele>1459.0</ele>
        <time>2013-07-29T14:22:01Z</time>
      </trkpt>
      <trkpt lat="43.098267" lon="-2.942483">
        <ele>1458.0</ele>
        <time>2013-07-29T14:22:02Z</time>
      </trkpt>
      <trkpt lat="43.098217" lon="-2.942550">
        <ele>1457.0</ele>
        <time>2013-07-29T14:22:03Z</time>
      </trkpt>
      <trkpt lat="43.098167" lon="-2.942617">
        <ele>1456.0</ele>
        <time>2013-07-29T14:22:04Z</time>
      </trkpt>
      <trkpt lat="43.098133" lon="-2.942700">
        <ele>1457.0</ele>
        <time>2013-07-29T14:22:05Z</time>
      </trkpt>
      <trkpt lat="43.098100" lon="-2.942750">
        <ele>1459.0</ele>
        <time>2013-07-29T14:22:06Z</time>
      </trkpt>
      <trkpt lat="43.098067" lon="-2.942800">
        <ele>1460.0</ele>
        <time>2013-07-29T14:22:07Z</time>
      </trkpt>
      <trkpt lat="43.098017" lon="-2.942850">
        <ele>1460.0</ele>
        <time>2013-07-29T14:22:08Z</time>
      </trkpt>
      <trkpt lat="43.097983" lon="-2.942900">
        <ele>1459.0</ele>
        <time>2013-07-29T14:22:09Z</time>
      </trkpt>
      <trkpt lat="43.097950" lon="-2.942967">
        <ele>1459.0</ele>
        <time>2013-07-29T14:22:10Z</time>
      </trkpt>
      <trkpt lat="43.097917" lon="-2.943033">
        <ele>1459.0</ele>
        <time>2013-07-29T14:22:11Z</time>
      </trkpt>
      <trkpt lat="43.097883" lon="-2.943083">
        <ele>1459.0</ele>
        <time>2013-07-29T14:22:12Z</time>
      </trkpt>
      <trkpt lat="43.097850" lon="-2.943117">
        <ele>1459.0</ele>
        <time>2013-07-29T14:22:13Z</time>
      </trkpt>
      <trkpt lat="43.097817" lon="-2.943167">
        <ele>1458.0</ele>
        <time>2013-07-29T14:22:14Z</time>
      </trkpt>
      <trkpt lat="43.097783" lon="-2.943200">
        <ele>1455.0</ele>
        <time>2013-07-29T14:22:15Z</time>
      </trkpt>
      <trkpt lat="43.097750" lon="-2.943250">
        <ele>1452.0</ele>
        <time>2013-07-29T14:22:16Z</time>
      </trkpt>
      <trkpt lat="43.097700" lon="-2.943267">
        <ele>1449.0</ele>
        <time>2013-07-29T14:22:17Z</time>
      </trkpt>
      <trkpt lat="43.097633" lon="-2.943283">
        <ele>1446.0</ele>
        <time>2013-07-29T14:22:18Z</time>
      </trkpt>
      <trkpt lat="43.097583" lon="-2.943317">
        <ele>1444.0</ele>
        <time>2013-07-29T14:22:19Z</time>
      </trkpt>
      <trkpt lat="43.097517" lon="-2.943350">
        <ele>1443.0</ele>
        <time>2013-07-29T14:22:20Z</time>
      </trkpt>
      <trkpt lat="43.097467" lon="-2.943383">
        <ele>1443.0</ele>
        <time>2013-07-29T14:22:21Z</time>
      </trkpt>
      <trkpt lat="43.097433" lon="-2.943400">
        <ele>1443.0</ele>
        <time>2013-07-29T14:22:22Z</time>
      </trkpt>
      <trkpt lat="43.097383" lon="-2.943433">
        <ele>1442.0</ele>
        <time>2013-07-29T14:22:23Z</time>
      </trkpt>
      <trkpt lat="43.097317" lon="-2.943450">
        <ele>1441.0</ele>
        <time>2013-07-29T14:22:24Z</time>
      </trkpt>
      <trkpt lat="43.097250" lon="-2.943467">
        <ele>1439.0</ele>
        <time>2013-07-29T14:22:25Z</time>
      </trkpt>
      <trkpt lat="43.097200" lon="-2.943483">
        <ele>1438.0</ele>
        <time>2013-07-29T14:22:26Z</time>
      </trkpt>
      <trkpt lat="43.097150" lon="-2.943500">
        <ele>1438.0</ele>
        <time>2013-07-29T14:22:27Z</time>
      </trkpt>
      <trkpt lat="43.097100" lon="-2.943517">
        <ele>1437.0</ele>
        <time>2013-07-29T14:22:28Z</time>
      </trkpt>
      <trkpt lat="43.097050" lon="-2.943533">
        <ele>1436.0</ele>
        <time>2013-07-29T14:22:29Z</time>
      </trkpt>
      <trkpt lat="43.097000" lon="-2.943550">
        <ele>1435.0</ele>
        <time>2013-07-29T14:22:30Z</time>
      </trkpt>
      <trkpt lat="43.096950" lon="-2.943567">
        <ele>1434.0</ele>
        <time>2013-07-29T14:22:31Z</time>
      </trkpt>
      <trkpt lat="43.096883" lon="-2.943583">
        <ele>1432.0</ele>
        <time>2013-07-29T14:22:32Z</time>
      </trkpt>
      <trkpt lat="43.096833" lon="-2.943617">
        <ele>1430.0</ele>
        <time>2013-07-29T14:22:33Z</time>
      </trkpt>
      <trkpt lat="43.096767" lon="-2.943667">
        <ele>1430.0</ele>
        <time>2013-07-29T14:22:34Z</time>
      </trkpt>
      <trkpt lat="43.096717" lon="-2.943717">
        <ele>1429.0</ele>
        <time>2013-07-29T14:22:35Z</time>
      </trkpt>
      <trkpt lat="43.096667" lon="-2.943783">
        <ele>1428.0</ele>
        <time>2013-07-29T14:22:36Z</time>
      </trkpt>
      <trkpt lat="43.096633" lon="-2.943850">
        <ele>1428.0</ele>
        <time>2013-07-29T14:22:37Z</time>
      </trkpt>
      <trkpt lat="43.096617" lon="-2.943917">
        <ele>1427.0</ele>
        <time>2013-07-29T14:22:38Z</time>
      </trkpt>
      <trkpt lat="43.096583" lon="-2.943983">
        <ele>1426.0</ele>
        <time>2013-07-29T14:22:39Z</time>
      </trkpt>
      <trkpt lat="43.096550" lon="-2.944050">
        <ele>1425.0</ele>
        <time>2013-07-29T14:22:40Z</time>
      </trkpt>
      <trkpt lat="43.096500" lon="-2.944167">
        <ele>1423.0</ele>
        <time>2013-07-29T14:22:41Z</time>
      </trkpt>
      <trkpt lat="43.096450" lon="-2.944283">
        <ele>1421.0</ele>
        <time>2013-07-29T14:22:42Z</time>
      </trkpt>
      <trkpt lat="43.096400" lon="-2.944383">
        <ele>1420.0</ele>
        <time>2013-07-29T14:22:43Z</time>
      </trkpt>
      <trkpt lat="43.096350" lon="-2.944467">
        <ele>1420.0</ele>
        <time>2013-07-29T14:22:44Z</time>
      </trkpt>
      <trkpt lat="43.096300" lon="-2.944533">
        <ele>1421.0</ele>
        <time>2013-07-29T14:22:45Z</time>
      </trkpt>
      <trkpt lat="43.096267" lon="-2.944600">
        <ele>1422.0</ele>
        <time>2013-07-29T14:22:46Z</time>
      </trkpt>
      <trkpt lat="43.096200" lon="-2.944683">
        <ele>1421.0</ele>
        <time>2013-07-29T14:22:47Z</time>
      </trkpt>
      <trkpt lat="43.096133" lon="-2.944767">
        <ele>1420.0</ele>
        <time>2013-07-29T14:22:48Z</time>
      </trkpt>
      <trkpt lat="43.096067" lon="-2.944850">
        <ele>1420.0</ele>
        <time>2013-07-29T14:22:49Z</time>
      </trkpt>
      <trkpt lat="43.096000" lon="-2.944917">
        <ele>1421.0</ele>
        <time>2013-07-29T14:22:50Z</time>
      </trkpt>
      <trkpt lat="43.095933" lon="-2.944950">
        <ele>1423.0</ele>
        <time>2013-07-29T14:22:51Z</time>
      </trkpt>
      <trkpt lat="43.095883" lon="-2.945000">
        <ele>1425.0</ele>
        <time>2013-07-29T14:22:52Z</time>
      </trkpt>
      <trkpt lat="43.095817" lon="-2.945033">
        <ele>1425.0</ele>
        <time>2013-07-29T14:22:53Z</time>
      </trkpt>
      <trkpt lat="43.095750" lon="-2.945083">
        <ele>1426.0</ele>
        <time>2013-07-29T14:22:54Z</time>
      </trkpt>
      <trkpt lat="43.095683" lon="-2.945133">
        <ele>1426.0</ele>
        <time>2013-07-29T14:22:55Z</time>
      </trkpt>
      <trkpt lat="43.095617" lon="-2.945183">
        <ele>1427.0</ele>
        <time>2013-07-29T14:22:56Z</time>
      </trkpt>
      <trkpt lat="43.095483" lon="-2.945267">
        <ele>1429.0</ele>
        <time>2013-07-29T14:22:58Z</time>
      </trkpt>
      <trkpt lat="43.095433" lon="-2.945300">
        <ele>1430.0</ele>
        <time>2013-07-29T14:22:59Z</time>
      </trkpt>
      <trkpt lat="43.095350" lon="-2.945350">
        <ele>1430.0</ele>
        <time>2013-07-29T14:23:00Z</time>
      </trkpt>
      <trkpt lat="43.095283" lon="-2.945383">
        <ele>1429.0</ele>
        <time>2013-07-29T14:23:01Z</time>
      </trkpt>
      <trkpt lat="43.095217" lon="-2.945417">
        <ele>1430.0</ele>
        <time>2013-07-29T14:23:02Z</time>
      </trkpt>
      <trkpt lat="43.095150" lon="-2.945467">
        <ele>1430.0</ele>
        <time>2013-07-29T14:23:03Z</time>
      </trkpt>
      <trkpt lat="43.095083" lon="-2.945500">
        <ele>1431.0</ele>
        <time>2013-07-29T14:23:04Z</time>
      </trkpt>
      <trkpt lat="43.095017" lon="-2.945533">
        <ele>1432.0</ele>
        <time>2013-07-29T14:23:05Z</time>
      </trkpt>
      <trkpt lat="43.094950" lon="-2.945550">
        <ele>1432.0</ele>
        <time>2013-07-29T14:23:06Z</time>
      </trkpt>
      <trkpt lat="43.094883" lon="-2.945550">
        <ele>1432.0</ele>
        <time>2013-07-29T14:23:07Z</time>
      </trkpt>
      <trkpt lat="43.094800" lon="-2.945550">
        <ele>1431.0</ele>
        <time>2013-07-29T14:23:08Z</time>
      </trkpt>
      <trkpt lat="43.094717" lon="-2.945550">
        <ele>1431.0</ele>
        <time>2013-07-29T14:23:09Z</time>
      </trkpt>
      <trkpt lat="43.094650" lon="-2.945533">
        <ele>1431.0</ele>
        <time>2013-07-29T14:23:10Z</time>
      </trkpt>
      <trkpt lat="43.094567" lon="-2.945533">
        <ele>1431.0</ele>
        <time>2013-07-29T14:23:11Z</time>
      </trkpt>
      <trkpt lat="43.094483" lon="-2.945517">
        <ele>1432.0</ele>
        <time>2013-07-29T14:23:12Z</time>
      </trkpt>
      <trkpt lat="43.094417" lon="-2.945517">
        <ele>1432.0</ele>
        <time>2013-07-29T14:23:13Z</time>
      </trkpt>
      <trkpt lat="43.094333" lon="-2.945533">
        <ele>1433.0</ele>
        <time>2013-07-29T14:23:14Z</time>
      </trkpt>
      <trkpt lat="43.094267" lon="-2.945550">
        <ele>1435.0</ele>
        <time>2013-07-29T14:23:15Z</time>
      </trkpt>
      <trkpt lat="43.094200" lon="-2.945583">
        <ele>1435.0</ele>
        <time>2013-07-29T14:23:16Z</time>
      </trkpt>
      <trkpt lat="43.094133" lon="-2.945617">
        <ele>1436.0</ele>
        <time>2013-07-29T14:23:17Z</time>
      </trkpt>
      <trkpt lat="43.094050" lon="-2.945633">
        <ele>1437.0</ele>
        <time>2013-07-29T14:23:18Z</time>
      </trkpt>
      <trkpt lat="43.093983" lon="-2.945650">
        <ele>1439.0</ele>
        <time>2013-07-29T14:23:19Z</time>
      </trkpt>
      <trkpt lat="43.093933" lon="-2.945650">
        <ele>1440.0</ele>
        <time>2013-07-29T14:23:20Z</time>
      </trkpt>
      <trkpt lat="43.093900" lon="-2.945650">
        <ele>1440.0</ele>
        <time>2013-07-29T14:23:21Z</time>
      </trkpt>
      <trkpt lat="43.093850" lon="-2.945650">
        <ele>1439.0</ele>
        <time>2013-07-29T14:23:22Z</time>
      </trkpt>
      <trkpt lat="43.093800" lon="-2.945667">
        <ele>1437.0</ele>
        <time>2013-07-29T14:23:23Z</time>
      </trkpt>
      <trkpt lat="43.093733" lon="-2.945700">
        <ele>1436.0</ele>
        <time>2013-07-29T14:23:24Z</time>
      </trkpt>
      <trkpt lat="43.093667" lon="-2.945733">
        <ele>1435.0</ele>
        <time>2013-07-29T14:23:25Z</time>
      </trkpt>
      <trkpt lat="43.093600" lon="-2.945783">
        <ele>1435.0</ele>
        <time>2013-07-29T14:23:26Z</time>
      </trkpt>
      <trkpt lat="43.093567" lon="-2.945800">
        <ele>1437.0</ele>
        <time>2013-07-29T14:23:27Z</time>
      </trkpt>
      <trkpt lat="43.093533" lon="-2.945833">
        <ele>1438.0</ele>
        <time>2013-07-29T14:23:28Z</time>
      </trkpt>
      <trkpt lat="43.093483" lon="-2.945867">
        <ele>1437.0</ele>
        <time>2013-07-29T14:23:29Z</time>
      </trkpt>
      <trkpt lat="43.093450" lon="-2.945933">
        <ele>1436.0</ele>
        <time>2013-07-29T14:23:30Z</time>
      </trkpt>
      <trkpt lat="43.093400" lon="-2.946017">
        <ele>1434.0</ele>
        <time>2013-07-29T14:23:31Z</time>
      </trkpt>
      <trkpt lat="43.093367" lon="-2.946100">
        <ele>1434.0</ele>
        <time>2013-07-29T14:23:32Z</time>
      </trkpt>
      <trkpt lat="43.093350" lon="-2.946167">
        <ele>1434.0</ele>
        <time>2013-07-29T14:23:33Z</time>
      </trkpt>
      <trkpt lat="43.093383" lon="-2.946233">
        <ele>1434.0</ele>
        <time>2013-07-29T14:23:34Z</time>
      </trkpt>
      <trkpt lat="43.093417" lon="-2.946300">
        <ele>1433.0</ele>
        <time>2013-07-29T14:23:35Z</time>
      </trkpt>
      <trkpt lat="43.093467" lon="-2.946367">
        <ele>1431.0</ele>
        <time>2013-07-29T14:23:36Z</time>
      </trkpt>
      <trkpt lat="43.093533" lon="-2.946450">
        <ele>1429.0</ele>
        <time>2013-07-29T14:23:37Z</time>
      </trkpt>
      <trkpt lat="43.093583" lon="-2.946533">
        <ele>1427.0</ele>
        <time>2013-07-29T14:23:38Z</time>
      </trkpt>
      <trkpt lat="43.093650" lon="-2.946600">
        <ele>1426.0</ele>
        <time>2013-07-29T14:23:39Z</time>
      </trkpt>
      <trkpt lat="43.093700" lon="-2.946667">
        <ele>1424.0</ele>
        <time>2013-07-29T14:23:40Z</time>
      </trkpt>
      <trkpt lat="43.093717" lon="-2.946750">
        <ele>1423.0</ele>
        <time>2013-07-29T14:23:41Z</time>
      </trkpt>
      <trkpt lat="43.093717" lon="-2.946867">
        <ele>1421.0</ele>
        <time>2013-07-29T14:23:42Z</time>
      </trkpt>
      <trkpt lat="43.093700" lon="-2.946967">
        <ele>1420.0</ele>
        <time>2013-07-29T14:23:43Z</time>
      </trkpt>
      <trkpt lat="43.093667" lon="-2.947033">
        <ele>1419.0</ele>
        <time>2013-07-29T14:23:44Z</time>
      </trkpt>
      <trkpt lat="43.093650" lon="-2.947100">
        <ele>1420.0</ele>
        <time>2013-07-29T14:23:45Z</time>
      </trkpt>
      <trkpt lat="43.093617" lon="-2.947150">
        <ele>1419.0</ele>
        <time>2013-07-29T14:23:46Z</time>
      </trkpt>
      <trkpt lat="43.093583" lon="-2.947217">
        <ele>1418.0</ele>
        <time>2013-07-29T14:23:47Z</time>
      </trkpt>
      <trkpt lat="43.093533" lon="-2.947283">
        <ele>1416.0</ele>
        <time>2013-07-29T14:23:48Z</time>
      </trkpt>
      <trkpt lat="43.093483" lon="-2.947350">
        <ele>1415.0</ele>
        <time>2013-07-29T14:23:49Z</time>
      </trkpt>
      <trkpt lat="43.093417" lon="-2.947417">
        <ele>1414.0</ele>
        <time>2013-07-29T14:23:50Z</time>
      </trkpt>
      <trkpt lat="43.093367" lon="-2.947467">
        <ele>1413.0</ele>
        <time>2013-07-29T14:23:51Z</time>
      </trkpt>
      <trkpt lat="43.093300" lon="-2.947500">
        <ele>1412.0</ele>
        <time>2013-07-29T14:23:52Z</time>
      </trkpt>
      <trkpt lat="43.093233" lon="-2.947517">
        <ele>1411.0</ele>
        <time>2013-07-29T14:23:53Z</time>
      </trkpt>
      <trkpt lat="43.093150" lon="-2.947550">
        <ele>1409.0</ele>
        <time>2013-07-29T14:23:54Z</time>
      </trkpt>
      <trkpt lat="43.093067" lon="-2.947583">
        <ele>1407.0</ele>
        <time>2013-07-29T14:23:55Z</time>
      </trkpt>
      <trkpt lat="43.093000" lon="-2.947633">
        <ele>1405.0</ele>
        <time>2013-07-29T14:23:56Z</time>
      </trkpt>
      <trkpt lat="43.092933" lon="-2.947667">
        <ele>1405.0</ele>
        <time>2013-07-29T14:23:57Z</time>
      </trkpt>
      <trkpt lat="43.092867" lon="-2.947700">
        <ele>1404.0</ele>
        <time>2013-07-29T14:23:58Z</time>
      </trkpt>
      <trkpt lat="43.092800" lon="-2.947717">
        <ele>1402.0</ele>
        <time>2013-07-29T14:23:59Z</time>
      </trkpt>
      <trkpt lat="43.092733" lon="-2.947733">
        <ele>1399.0</ele>
        <time>2013-07-29T14:24:00Z</time>
      </trkpt>
      <trkpt lat="43.092667" lon="-2.947767">
        <ele>1396.0</ele>
        <time>2013-07-29T14:24:01Z</time>
      </trkpt>
      <trkpt lat="43.092583" lon="-2.947800">
        <ele>1393.0</ele>
        <time>2013-07-29T14:24:02Z</time>
      </trkpt>
      <trkpt lat="43.092500" lon="-2.947850">
        <ele>1391.0</ele>
        <time>2013-07-29T14:24:03Z</time>
      </trkpt>
      <trkpt lat="43.092433" lon="-2.947883">
        <ele>1391.0</ele>
        <time>2013-07-29T14:24:04Z</time>
      </trkpt>
      <trkpt lat="43.092367" lon="-2.947900">
        <ele>1390.0</ele>
        <time>2013-07-29T14:24:05Z</time>
      </trkpt>
      <trkpt lat="43.092283" lon="-2.947917">
        <ele>1389.0</ele>
        <time>2013-07-29T14:24:06Z</time>
      </trkpt>
      <trkpt lat="43.092217" lon="-2.947933">
        <ele>1387.0</ele>
        <time>2013-07-29T14:24:07Z</time>
      </trkpt>
      <trkpt lat="43.092133" lon="-2.947950">
        <ele>1384.0</ele>
        <time>2013-07-29T14:24:08Z</time>
      </trkpt>
      <trkpt lat="43.092050" lon="-2.948000">
        <ele>1382.0</ele>
        <time>2013-07-29T14:24:09Z</time>
      </trkpt>
      <trkpt lat="43.091967" lon="-2.948017">
        <ele>1380.0</ele>
        <time>2013-07-29T14:24:10Z</time>
      </trkpt>
      <trkpt lat="43.091883" lon="-2.948033">
        <ele>1378.0</ele>
        <time>2013-07-29T14:24:11Z</time>
      </trkpt>
      <trkpt lat="43.091817" lon="-2.948017">
        <ele>1377.0</ele>
        <time>2013-07-29T14:24:12Z</time>
      </trkpt>
      <trkpt lat="43.091750" lon="-2.947983">
        <ele>1376.0</ele>
        <time>2013-07-29T14:24:13Z</time>
      </trkpt>
      <trkpt lat="43.091700" lon="-2.947950">
        <ele>1376.0</ele>
        <time>2013-07-29T14:24:14Z</time>
      </trkpt>
      <trkpt lat="43.091650" lon="-2.947933">
        <ele>1373.0</ele>
        <time>2013-07-29T14:24:15Z</time>
      </trkpt>
      <trkpt lat="43.091600" lon="-2.947917">
        <ele>1370.0</ele>
        <time>2013-07-29T14:24:16Z</time>
      </trkpt>
      <trkpt lat="43.091533" lon="-2.947917">
        <ele>1366.0</ele>
        <time>2013-07-29T14:24:17Z</time>
      </trkpt>
      <trkpt lat="43.091467" lon="-2.947917">
        <ele>1363.0</ele>
        <time>2013-07-29T14:24:18Z</time>
      </trkpt>
      <trkpt lat="43.091400" lon="-2.947917">
        <ele>1359.0</ele>
        <time>2013-07-29T14:24:19Z</time>
      </trkpt>
      <trkpt lat="43.091333" lon="-2.947900">
        <ele>1355.0</ele>
        <time>2013-07-29T14:24:20Z</time>
      </trkpt>
      <trkpt lat="43.091267" lon="-2.947883">
        <ele>1351.0</ele>
        <time>2013-07-29T14:24:21Z</time>
      </trkpt>
      <trkpt lat="43.091200" lon="-2.947883">
        <ele>1348.0</ele>
        <time>2013-07-29T14:24:22Z</time>
      </trkpt>
      <trkpt lat="43.091133" lon="-2.947883">
        <ele>1345.0</ele>
        <time>2013-07-29T14:24:23Z</time>
      </trkpt>
      <trkpt lat="43.091083" lon="-2.947883">
        <ele>1341.0</ele>
        <time>2013-07-29T14:24:24Z</time>
      </trkpt>
      <trkpt lat="43.091017" lon="-2.947883">
        <ele>1338.0</ele>
        <time>2013-07-29T14:24:25Z</time>
      </trkpt>
      <trkpt lat="43.090933" lon="-2.947883">
        <ele>1334.0</ele>
        <time>2013-07-29T14:24:26Z</time>
      </trkpt>
      <trkpt lat="43.090850" lon="-2.947883">
        <ele>1329.0</ele>
        <time>2013-07-29T14:24:27Z</time>
      </trkpt>
      <trkpt lat="43.090767" lon="-2.947883">
        <ele>1326.0</ele>
        <time>2013-07-29T14:24:28Z</time>
      </trkpt>
      <trkpt lat="43.090683" lon="-2.947850">
        <ele>1325.0</ele>
        <time>2013-07-29T14:24:29Z</time>
      </trkpt>
      <trkpt lat="43.090617" lon="-2.947817">
        <ele>1325.0</ele>
        <time>2013-07-29T14:24:30Z</time>
      </trkpt>
      <trkpt lat="43.090567" lon="-2.947800">
        <ele>1323.0</ele>
        <time>2013-07-29T14:24:31Z</time>
      </trkpt>
      <trkpt lat="43.090500" lon="-2.947783">
        <ele>1321.0</ele>
        <time>2013-07-29T14:24:32Z</time>
      </trkpt>
      <trkpt lat="43.090417" lon="-2.947783">
        <ele>1318.0</ele>
        <time>2013-07-29T14:24:33Z</time>
      </trkpt>
      <trkpt lat="43.090317" lon="-2.947767">
        <ele>1314.0</ele>
        <time>2013-07-29T14:24:34Z</time>
      </trkpt>
      <trkpt lat="43.090217" lon="-2.947767">
        <ele>1312.0</ele>
        <time>2013-07-29T14:24:35Z</time>
      </trkpt>
      <trkpt lat="43.090133" lon="-2.947767">
        <ele>1311.0</ele>
        <time>2013-07-29T14:24:36Z</time>
      </trkpt>
      <trkpt lat="43.090067" lon="-2.947767">
        <ele>1311.0</ele>
        <time>2013-07-29T14:24:37Z</time>
      </trkpt>
      <trkpt lat="43.090000" lon="-2.947767">
        <ele>1310.0</ele>
        <time>2013-07-29T14:24:38Z</time>
      </trkpt>
      <trkpt lat="43.089950" lon="-2.947767">
        <ele>1308.0</ele>
        <time>2013-07-29T14:24:39Z</time>
      </trkpt>
      <trkpt lat="43.089867" lon="-2.947767">
        <ele>1305.0</ele>
        <time>2013-07-29T14:24:40Z</time>
      </trkpt>
      <trkpt lat="43.089783" lon="-2.947767">
        <ele>1301.0</ele>
        <time>2013-07-29T14:24:41Z</time>
      </trkpt>
      <trkpt lat="43.089700" lon="-2.947800">
        <ele>1297.0</ele>
        <time>2013-07-29T14:24:42Z</time>
      </trkpt>
      <trkpt lat="43.089617" lon="-2.947833">
        <ele>1293.0</ele>
        <time>2013-07-29T14:24:43Z</time>
      </trkpt>
      <trkpt lat="43.089517" lon="-2.947883">
        <ele>1291.0</ele>
        <time>2013-07-29T14:24:44Z</time>
      </trkpt>
      <trkpt lat="43.089433" lon="-2.947933">
        <ele>1289.0</ele>
        <time>2013-07-29T14:24:45Z</time>
      </trkpt>
      <trkpt lat="43.089350" lon="-2.948000">
        <ele>1288.0</ele>
        <time>2013-07-29T14:24:46Z</time>
      </trkpt>
      <trkpt lat="43.089283" lon="-2.948067">
        <ele>1288.0</ele>
        <time>2013-07-29T14:24:47Z</time>
      </trkpt>
      <trkpt lat="43.089217" lon="-2.948133">
        <ele>1288.0</ele>
        <time>2013-07-29T14:24:48Z</time>
      </trkpt>
      <trkpt lat="43.089150" lon="-2.948183">
        <ele>1289.0</ele>
        <time>2013-07-29T14:24:49Z</time>
      </trkpt>
      <trkpt lat="43.089067" lon="-2.948250">
        <ele>1288.0</ele>
        <time>2013-07-29T14:24:50Z</time>
      </trkpt>
      <trkpt lat="43.088967" lon="-2.948300">
        <ele>1289.0</ele>
        <time>2013-07-29T14:24:51Z</time>
      </trkpt>
      <trkpt lat="43.088883" lon="-2.948350">
        <ele>1291.0</ele>
        <time>2013-07-29T14:24:52Z</time>
      </trkpt>
      <trkpt lat="43.088833" lon="-2.948400">
        <ele>1293.0</ele>
        <time>2013-07-29T14:24:53Z</time>
      </trkpt>
      <trkpt lat="43.088767" lon="-2.948467">
        <ele>1295.0</ele>
        <time>2013-07-29T14:24:54Z</time>
      </trkpt>
      <trkpt lat="43.088700" lon="-2.948533">
        <ele>1296.0</ele>
        <time>2013-07-29T14:24:55Z</time>
      </trkpt>
      <trkpt lat="43.088633" lon="-2.948600">
        <ele>1297.0</ele>
        <time>2013-07-29T14:24:56Z</time>
      </trkpt>
      <trkpt lat="43.088567" lon="-2.948650">
        <ele>1297.0</ele>
        <time>2013-07-29T14:24:57Z</time>
      </trkpt>
      <trkpt lat="43.088483" lon="-2.948700">
        <ele>1297.0</ele>
        <time>2013-07-29T14:24:58Z</time>
      </trkpt>
      <trkpt lat="43.088433" lon="-2.948750">
        <ele>1298.0</ele>
        <time>2013-07-29T14:24:59Z</time>
      </trkpt>
      <trkpt lat="43.088367" lon="-2.948800">
        <ele>1298.0</ele>
        <time>2013-07-29T14:25:00Z</time>
      </trkpt>
      <trkpt lat="43.088300" lon="-2.948850">
        <ele>1299.0</ele>
        <time>2013-07-29T14:25:01Z</time>
      </trkpt>
      <trkpt lat="43.088250" lon="-2.948883">
        <ele>1299.0</ele>
        <time>2013-07-29T14:25:02Z</time>
      </trkpt>
      <trkpt lat="43.088200" lon="-2.948917">
        <ele>1298.0</ele>
        <time>2013-07-29T14:25:03Z</time>
      </trkpt>
      <trkpt lat="43.088117" lon="-2.948967">
        <ele>1296.0</ele>
        <time>2013-07-29T14:25:04Z</time>
      </trkpt>
      <trkpt lat="43.088050" lon="-2.949017">
        <ele>1294.0</ele>
        <time>2013-07-29T14:25:05Z</time>
      </trkpt>
      <trkpt lat="43.087967" lon="-2.949067">
        <ele>1292.0</ele>
        <time>2013-07-29T14:25:06Z</time>
      </trkpt>
      <trkpt lat="43.087883" lon="-2.949117">
        <ele>1291.0</ele>
        <time>2013-07-29T14:25:07Z</time>
      </trkpt>
      <trkpt lat="43.087800" lon="-2.949167">
        <ele>1289.0</ele>
        <time>2013-07-29T14:25:08Z</time>
      </trkpt>
      <trkpt lat="43.087717" lon="-2.949217">
        <ele>1287.0</ele>
        <time>2013-07-29T14:25:09Z</time>
      </trkpt>
      <trkpt lat="43.087633" lon="-2.949267">
        <ele>1286.0</ele>
        <time>2013-07-29T14:25:10Z</time>
      </trkpt>
      <trkpt lat="43.087567" lon="-2.949317">
        <ele>1285.0</ele>
        <time>2013-07-29T14:25:11Z</time>
      </trkpt>
      <trkpt lat="43.087500" lon="-2.949367">
        <ele>1283.0</ele>
        <time>2013-07-29T14:25:12Z</time>
      </trkpt>
      <trkpt lat="43.087417" lon="-2.949400">
        <ele>1281.0</ele>
        <time>2013-07-29T14:25:13Z</time>
      </trkpt>
      <trkpt lat="43.087350" lon="-2.949433">
        <ele>1278.0</ele>
        <time>2013-07-29T14:25:14Z</time>
      </trkpt>
      <trkpt lat="43.087250" lon="-2.949483">
        <ele>1275.0</ele>
        <time>2013-07-29T14:25:15Z</time>
      </trkpt>
      <trkpt lat="43.087150" lon="-2.949517">
        <ele>1272.0</ele>
        <time>2013-07-29T14:25:16Z</time>
      </trkpt>
      <trkpt lat="43.087067" lon="-2.949567">
        <ele>1270.0</ele>
        <time>2013-07-29T14:25:17Z</time>
      </trkpt>
      <trkpt lat="43.086983" lon="-2.949600">
        <ele>1268.0</ele>
        <time>2013-07-29T14:25:18Z</time>
      </trkpt>
      <trkpt lat="43.086933" lon="-2.949650">
        <ele>1266.0</ele>
        <time>2013-07-29T14:25:19Z</time>
      </trkpt>
      <trkpt lat="43.086867" lon="-2.949700">
        <ele>1264.0</ele>
        <time>2013-07-29T14:25:20Z</time>
      </trkpt>
      <trkpt lat="43.086817" lon="-2.949767">
        <ele>1261.0</ele>
        <time>2013-07-29T14:25:21Z</time>
      </trkpt>
      <trkpt lat="43.086750" lon="-2.949850">
        <ele>1258.0</ele>
        <time>2013-07-29T14:25:22Z</time>
      </trkpt>
      <trkpt lat="43.086700" lon="-2.949900">
        <ele>1255.0</ele>
        <time>2013-07-29T14:25:23Z</time>
      </trkpt>
      <trkpt lat="43.086650" lon="-2.949950">
        <ele>1252.0</ele>
        <time>2013-07-29T14:25:24Z</time>
      </trkpt>
      <trkpt lat="43.086583" lon="-2.949983">
        <ele>1248.0</ele>
        <time>2013-07-29T14:25:25Z</time>
      </trkpt>
      <trkpt lat="43.086500" lon="-2.950017">
        <ele>1243.0</ele>
        <time>2013-07-29T14:25:26Z</time>
      </trkpt>
      <trkpt lat="43.086400" lon="-2.950050">
        <ele>1237.0</ele>
        <time>2013-07-29T14:25:27Z</time>
      </trkpt>
      <trkpt lat="43.086317" lon="-2.950083">
        <ele>1233.0</ele>
        <time>2013-07-29T14:25:28Z</time>
      </trkpt>
      <trkpt lat="43.086233" lon="-2.950083">
        <ele>1230.0</ele>
        <time>2013-07-29T14:25:29Z</time>
      </trkpt>
      <trkpt lat="43.086150" lon="-2.950100">
        <ele>1228.0</ele>
        <time>2013-07-29T14:25:30Z</time>
      </trkpt>
      <trkpt lat="43.086067" lon="-2.950117">
        <ele>1225.0</ele>
        <time>2013-07-29T14:25:31Z</time>
      </trkpt>
      <trkpt lat="43.085983" lon="-2.950150">
        <ele>1221.0</ele>
        <time>2013-07-29T14:25:32Z</time>
      </trkpt>
      <trkpt lat="43.085883" lon="-2.950183">
        <ele>1218.0</ele>
        <time>2013-07-29T14:25:33Z</time>
      </trkpt>
      <trkpt lat="43.085800" lon="-2.950217">
        <ele>1215.0</ele>
        <time>2013-07-29T14:25:34Z</time>
      </trkpt>
      <trkpt lat="43.085733" lon="-2.950250">
        <ele>1213.0</ele>
        <time>2013-07-29T14:25:35Z</time>
      </trkpt>
      <trkpt lat="43.085667" lon="-2.950267">
        <ele>1212.0</ele>
        <time>2013-07-29T14:25:36Z</time>
      </trkpt>
      <trkpt lat="43.085600" lon="-2.950300">
        <ele>1210.0</ele>
        <time>2013-07-29T14:25:37Z</time>
      </trkpt>
      <trkpt lat="43.085517" lon="-2.950333">
        <ele>1207.0</ele>
        <time>2013-07-29T14:25:38Z</time>
      </trkpt>
      <trkpt lat="43.085433" lon="-2.950350">
        <ele>1202.0</ele>
        <time>2013-07-29T14:25:39Z</time>
      </trkpt>
      <trkpt lat="43.085367" lon="-2.950383">
        <ele>1199.0</ele>
        <time>2013-07-29T14:25:40Z</time>
      </trkpt>
      <trkpt lat="43.085283" lon="-2.950417">
        <ele>1195.0</ele>
        <time>2013-07-29T14:25:41Z</time>
      </trkpt>
      <trkpt lat="43.085200" lon="-2.950450">
        <ele>1191.0</ele>
        <time>2013-07-29T14:25:42Z</time>
      </trkpt>
      <trkpt lat="43.085117" lon="-2.950500">
        <ele>1187.0</ele>
        <time>2013-07-29T14:25:43Z</time>
      </trkpt>
      <trkpt lat="43.085033" lon="-2.950550">
        <ele>1183.0</ele>
        <time>2013-07-29T14:25:44Z</time>
      </trkpt>
      <trkpt lat="43.084950" lon="-2.950600">
        <ele>1180.0</ele>
        <time>2013-07-29T14:25:45Z</time>
      </trkpt>
      <trkpt lat="43.084883" lon="-2.950650">
        <ele>1177.0</ele>
        <time>2013-07-29T14:25:46Z</time>
      </trkpt>
      <trkpt lat="43.084817" lon="-2.950700">
        <ele>1175.0</ele>
        <time>2013-07-29T14:25:47Z</time>
      </trkpt>
      <trkpt lat="43.084733" lon="-2.950750">
        <ele>1172.0</ele>
        <time>2013-07-29T14:25:48Z</time>
      </trkpt>
      <trkpt lat="43.084650" lon="-2.950800">
        <ele>1168.0</ele>
        <time>2013-07-29T14:25:49Z</time>
      </trkpt>
      <trkpt lat="43.084583" lon="-2.950850">
        <ele>1165.0</ele>
        <time>2013-07-29T14:25:50Z</time>
      </trkpt>
      <trkpt lat="43.084517" lon="-2.950883">
        <ele>1163.0</ele>
        <time>2013-07-29T14:25:51Z</time>
      </trkpt>
      <trkpt lat="43.084467" lon="-2.950917">
        <ele>1162.0</ele>
        <time>2013-07-29T14:25:52Z</time>
      </trkpt>
      <trkpt lat="43.084400" lon="-2.950950">
        <ele>1160.0</ele>
        <time>2013-07-29T14:25:53Z</time>
      </trkpt>
      <trkpt lat="43.084333" lon="-2.951000">
        <ele>1158.0</ele>
        <time>2013-07-29T14:25:54Z</time>
      </trkpt>
      <trkpt lat="43.084250" lon="-2.951033">
        <ele>1155.0</ele>
        <time>2013-07-29T14:25:55Z</time>
      </trkpt>
      <trkpt lat="43.084133" lon="-2.951083">
        <ele>1152.0</ele>
        <time>2013-07-29T14:25:57Z</time>
      </trkpt>
      <trkpt lat="43.084000" lon="-2.951150">
        <ele>1148.0</ele>
        <time>2013-07-29T14:25:59Z</time>
      </trkpt>
      <trkpt lat="43.083933" lon="-2.951183">
        <ele>1144.0</ele>
        <time>2013-07-29T14:26:00Z</time>
      </trkpt>
      <trkpt lat="43.083867" lon="-2.951233">
        <ele>1141.0</ele>
        <time>2013-07-29T14:26:01Z</time>
      </trkpt>
      <trkpt lat="43.083800" lon="-2.951283">
        <ele>1137.0</ele>
        <time>2013-07-29T14:26:02Z</time>
      </trkpt>
      <trkpt lat="43.083733" lon="-2.951333">
        <ele>1134.0</ele>
        <time>2013-07-29T14:26:03Z</time>
      </trkpt>
      <trkpt lat="43.083667" lon="-2.951383">
        <ele>1131.0</ele>
        <time>2013-07-29T14:26:04Z</time>
      </trkpt>
      <trkpt lat="43.083600" lon="-2.951433">
        <ele>1128.0</ele>
        <time>2013-07-29T14:26:05Z</time>
      </trkpt>
      <trkpt lat="43.083533" lon="-2.951483">
        <ele>1125.0</ele>
        <time>2013-07-29T14:26:06Z</time>
      </trkpt>
      <trkpt lat="43.083467" lon="-2.951550">
        <ele>1122.0</ele>
        <time>2013-07-29T14:26:07Z</time>
      </trkpt>
      <trkpt lat="43.083383" lon="-2.951617">
        <ele>1120.0</ele>
        <time>2013-07-29T14:26:08Z</time>
      </trkpt>
      <trkpt lat="43.083317" lon="-2.951683">
        <ele>1118.0</ele>
        <time>2013-07-29T14:26:09Z</time>
      </trkpt>
      <trkpt lat="43.083233" lon="-2.951750">
        <ele>1115.0</ele>
        <time>2013-07-29T14:26:10Z</time>
      </trkpt>
      <trkpt lat="43.083167" lon="-2.951800">
        <ele>1113.0</ele>
        <time>2013-07-29T14:26:11Z</time>
      </trkpt>
      <trkpt lat="43.083017" lon="-2.951917">
        <ele>1110.0</ele>
        <time>2013-07-29T14:26:13Z</time>
      </trkpt>
      <trkpt lat="43.082950" lon="-2.951983">
        <ele>1108.0</ele>
        <time>2013-07-29T14:26:14Z</time>
      </trkpt>
      <trkpt lat="43.082883" lon="-2.952050">
        <ele>1106.0</ele>
        <time>2013-07-29T14:26:15Z</time>
      </trkpt>
      <trkpt lat="43.082833" lon="-2.952117">
        <ele>1105.0</ele>
        <time>2013-07-29T14:26:16Z</time>
      </trkpt>
      <trkpt lat="43.082767" lon="-2.952167">
        <ele>1103.0</ele>
        <time>2013-07-29T14:26:17Z</time>
      </trkpt>
      <trkpt lat="43.082700" lon="-2.952217">
        <ele>1100.0</ele>
        <time>2013-07-29T14:26:18Z</time>
      </trkpt>
      <trkpt lat="43.082633" lon="-2.952283">
        <ele>1097.0</ele>
        <time>2013-07-29T14:26:19Z</time>
      </trkpt>
      <trkpt lat="43.082550" lon="-2.952350">
        <ele>1095.0</ele>
        <time>2013-07-29T14:26:20Z</time>
      </trkpt>
      <trkpt lat="43.082500" lon="-2.952417">
        <ele>1093.0</ele>
        <time>2013-07-29T14:26:21Z</time>
      </trkpt>
      <trkpt lat="43.082433" lon="-2.952467">
        <ele>1092.0</ele>
        <time>2013-07-29T14:26:22Z</time>
      </trkpt>
      <trkpt lat="43.082367" lon="-2.952533">
        <ele>1090.0</ele>
        <time>2013-07-29T14:26:23Z</time>
      </trkpt>
      <trkpt lat="43.082217" lon="-2.952667">
        <ele>1084.0</ele>
        <time>2013-07-29T14:26:25Z</time>
      </trkpt>
      <trkpt lat="43.082133" lon="-2.952733">
        <ele>1082.0</ele>
        <time>2013-07-29T14:26:26Z</time>
      </trkpt>
      <trkpt lat="43.082067" lon="-2.952800">
        <ele>1081.0</ele>
        <time>2013-07-29T14:26:27Z</time>
      </trkpt>
      <trkpt lat="43.082000" lon="-2.952850">
        <ele>1080.0</ele>
        <time>2013-07-29T14:26:28Z</time>
      </trkpt>
      <trkpt lat="43.081933" lon="-2.952917">
        <ele>1078.0</ele>
        <time>2013-07-29T14:26:29Z</time>
      </trkpt>
      <trkpt lat="43.081867" lon="-2.953000">
        <ele>1076.0</ele>
        <time>2013-07-29T14:26:30Z</time>
      </trkpt>
      <trkpt lat="43.081767" lon="-2.953067">
        <ele>1073.0</ele>
        <time>2013-07-29T14:26:31Z</time>
      </trkpt>
      <trkpt lat="43.081683" lon="-2.953133">
        <ele>1070.0</ele>
        <time>2013-07-29T14:26:32Z</time>
      </trkpt>
      <trkpt lat="43.081600" lon="-2.953183">
        <ele>1069.0</ele>
        <time>2013-07-29T14:26:33Z</time>
      </trkpt>
      <trkpt lat="43.081533" lon="-2.953250">
        <ele>1069.0</ele>
        <time>2013-07-29T14:26:34Z</time>
      </trkpt>
      <trkpt lat="43.081467" lon="-2.953300">
        <ele>1068.0</ele>
        <time>2013-07-29T14:26:35Z</time>
      </trkpt>
      <trkpt lat="43.081383" lon="-2.953350">
        <ele>1067.0</ele>
        <time>2013-07-29T14:26:36Z</time>
      </trkpt>
      <trkpt lat="43.081283" lon="-2.953417">
        <ele>1065.0</ele>
        <time>2013-07-29T14:26:37Z</time>
      </trkpt>
      <trkpt lat="43.081200" lon="-2.953500">
        <ele>1063.0</ele>
        <time>2013-07-29T14:26:38Z</time>
      </trkpt>
      <trkpt lat="43.081100" lon="-2.953567">
        <ele>1063.0</ele>
        <time>2013-07-29T14:26:39Z</time>
      </trkpt>
      <trkpt lat="43.080950" lon="-2.953683">
        <ele>1064.0</ele>
        <time>2013-07-29T14:26:41Z</time>
      </trkpt>
      <trkpt lat="43.080867" lon="-2.953750">
        <ele>1065.0</ele>
        <time>2013-07-29T14:26:42Z</time>
      </trkpt>
      <trkpt lat="43.080783" lon="-2.953800">
        <ele>1065.0</ele>
        <time>2013-07-29T14:26:43Z</time>
      </trkpt>
      <trkpt lat="43.080683" lon="-2.953867">
        <ele>1064.0</ele>
        <time>2013-07-29T14:26:44Z</time>
      </trkpt>
      <trkpt lat="43.080583" lon="-2.953933">
        <ele>1065.0</ele>
        <time>2013-07-29T14:26:45Z</time>
      </trkpt>
      <trkpt lat="43.080483" lon="-2.953967">
        <ele>1065.0</ele>
        <time>2013-07-29T14:26:46Z</time>
      </trkpt>
      <trkpt lat="43.080383" lon="-2.954017">
        <ele>1066.0</ele>
        <time>2013-07-29T14:26:47Z</time>
      </trkpt>
      <trkpt lat="43.080300" lon="-2.954083">
        <ele>1067.0</ele>
        <time>2013-07-29T14:26:48Z</time>
      </trkpt>
      <trkpt lat="43.080200" lon="-2.954133">
        <ele>1068.0</ele>
        <time>2013-07-29T14:26:49Z</time>
      </trkpt>
      <trkpt lat="43.080117" lon="-2.954183">
        <ele>1068.0</ele>
        <time>2013-07-29T14:26:50Z</time>
      </trkpt>
      <trkpt lat="43.080017" lon="-2.954233">
        <ele>1068.0</ele>
        <time>2013-07-29T14:26:51Z</time>
      </trkpt>
      <trkpt lat="43.079933" lon="-2.954283">
        <ele>1068.0</ele>
        <time>2013-07-29T14:26:52Z</time>
      </trkpt>
      <trkpt lat="43.079833" lon="-2.954333">
        <ele>1067.0</ele>
        <time>2013-07-29T14:26:53Z</time>
      </trkpt>
      <trkpt lat="43.079733" lon="-2.954367">
        <ele>1067.0</ele>
        <time>2013-07-29T14:26:54Z</time>
      </trkpt>
      <trkpt lat="43.079633" lon="-2.954417">
        <ele>1066.0</ele>
        <time>2013-07-29T14:26:55Z</time>
      </trkpt>
      <trkpt lat="43.079517" lon="-2.954450">
        <ele>1065.0</ele>
        <time>2013-07-29T14:26:56Z</time>
      </trkpt>
      <trkpt lat="43.079417" lon="-2.954500">
        <ele>1064.0</ele>
        <time>2013-07-29T14:26:57Z</time>
      </trkpt>
      <trkpt lat="43.079300" lon="-2.954550">
        <ele>1064.0</ele>
        <time>2013-07-29T14:26:58Z</time>
      </trkpt>
      <trkpt lat="43.079200" lon="-2.954600">
        <ele>1065.0</ele>
        <time>2013-07-29T14:26:59Z</time>
      </trkpt>
      <trkpt lat="43.079117" lon="-2.954650">
        <ele>1066.0</ele>
        <time>2013-07-29T14:27:00Z</time>
      </trkpt>
      <trkpt lat="43.079017" lon="-2.954700">
        <ele>1066.0</ele>
        <time>2013-07-29T14:27:01Z</time>
      </trkpt>
      <trkpt lat="43.078917" lon="-2.954750">
        <ele>1066.0</ele>
        <time>2013-07-29T14:27:02Z</time>
      </trkpt>
      <trkpt lat="43.078800" lon="-2.954800">
        <ele>1065.0</ele>
        <time>2013-07-29T14:27:03Z</time>
      </trkpt>
      <trkpt lat="43.078700" lon="-2.954850">
        <ele>1065.0</ele>
        <time>2013-07-29T14:27:04Z</time>
      </trkpt>
      <trkpt lat="43.078600" lon="-2.954917">
        <ele>1065.0</ele>
        <time>2013-07-29T14:27:05Z</time>
      </trkpt>
      <trkpt lat="43.078500" lon="-2.954967">
        <ele>1065.0</ele>
        <time>2013-07-29T14:27:06Z</time>
      </trkpt>
      <trkpt lat="43.078400" lon="-2.955017">
        <ele>1065.0</ele>
        <time>2013-07-29T14:27:07Z</time>
      </trkpt>
      <trkpt lat="43.078300" lon="-2.955083">
        <ele>1065.0</ele>
        <time>2013-07-29T14:27:08Z</time>
      </trkpt>
      <trkpt lat="43.078200" lon="-2.955133">
        <ele>1064.0</ele>
        <time>2013-07-29T14:27:09Z</time>
      </trkpt>
      <trkpt lat="43.078100" lon="-2.955183">
        <ele>1062.0</ele>
        <time>2013-07-29T14:27:10Z</time>
      </trkpt>
      <trkpt lat="43.078000" lon="-2.955233">
        <ele>1061.0</ele>
        <time>2013-07-29T14:27:11Z</time>
      </trkpt>
      <trkpt lat="43.077900" lon="-2.955300">
        <ele>1060.0</ele>
        <time>2013-07-29T14:27:12Z</time>
      </trkpt>
      <trkpt lat="43.077783" lon="-2.955350">
        <ele>1059.0</ele>
        <time>2013-07-29T14:27:13Z</time>
      </trkpt>
      <trkpt lat="43.077683" lon="-2.955417">
        <ele>1059.0</ele>
        <time>2013-07-29T14:27:14Z</time>
      </trkpt>
      <trkpt lat="43.077583" lon="-2.955483">
        <ele>1058.0</ele>
        <time>2013-07-29T14:27:15Z</time>
      </trkpt>
      <trkpt lat="43.077483" lon="-2.955550">
        <ele>1057.0</ele>
        <time>2013-07-29T14:27:16Z</time>
      </trkpt>
      <trkpt lat="43.077383" lon="-2.955617">
        <ele>1056.0</ele>
        <time>2013-07-29T14:27:17Z</time>
      </trkpt>
      <trkpt lat="43.077267" lon="-2.955683">
        <ele>1055.0</ele>
        <time>2013-07-29T14:27:18Z</time>
      </trkpt>
      <trkpt lat="43.077167" lon="-2.955750">
        <ele>1055.0</ele>
        <time>2013-07-29T14:27:19Z</time>
      </trkpt>
      <trkpt lat="43.077067" lon="-2.955817">
        <ele>1055.0</ele>
        <time>2013-07-29T14:27:20Z</time>
      </trkpt>
      <trkpt lat="43.076850" lon="-2.955933">
        <ele>1056.0</ele>
        <time>2013-07-29T14:27:22Z</time>
      </trkpt>
      <trkpt lat="43.076733" lon="-2.956000">
        <ele>1057.0</ele>
        <time>2013-07-29T14:27:23Z</time>
      </trkpt>
      <trkpt lat="43.076617" lon="-2.956050">
        <ele>1059.0</ele>
        <time>2013-07-29T14:27:24Z</time>
      </trkpt>
      <trkpt lat="43.076533" lon="-2.956117">
        <ele>1062.0</ele>
        <time>2013-07-29T14:27:25Z</time>
      </trkpt>
      <trkpt lat="43.076433" lon="-2.956183">
        <ele>1065.0</ele>
        <time>2013-07-29T14:27:26Z</time>
      </trkpt>
      <trkpt lat="43.076333" lon="-2.956267">
        <ele>1067.0</ele>
        <time>2013-07-29T14:27:27Z</time>
      </trkpt>
      <trkpt lat="43.076233" lon="-2.956333">
        <ele>1069.0</ele>
        <time>2013-07-29T14:27:28Z</time>
      </trkpt>
      <trkpt lat="43.076133" lon="-2.956383">
        <ele>1072.0</ele>
        <time>2013-07-29T14:27:29Z</time>
      </trkpt>
      <trkpt lat="43.076050" lon="-2.956433">
        <ele>1075.0</ele>
        <time>2013-07-29T14:27:30Z</time>
      </trkpt>
      <trkpt lat="43.075967" lon="-2.956467">
        <ele>1077.0</ele>
        <time>2013-07-29T14:27:31Z</time>
      </trkpt>
      <trkpt lat="43.075867" lon="-2.956500">
        <ele>1080.0</ele>
        <time>2013-07-29T14:27:32Z</time>
      </trkpt>
      <trkpt lat="43.075767" lon="-2.956550">
        <ele>1082.0</ele>
        <time>2013-07-29T14:27:33Z</time>
      </trkpt>
      <trkpt lat="43.075667" lon="-2.956617">
        <ele>1084.0</ele>
        <time>2013-07-29T14:27:34Z</time>
      </trkpt>
      <trkpt lat="43.075550" lon="-2.956650">
        <ele>1086.0</ele>
        <time>2013-07-29T14:27:35Z</time>
      </trkpt>
      <trkpt lat="43.075467" lon="-2.956667">
        <ele>1089.0</ele>
        <time>2013-07-29T14:27:36Z</time>
      </trkpt>
      <trkpt lat="43.075383" lon="-2.956683">
        <ele>1093.0</ele>
        <time>2013-07-29T14:27:37Z</time>
      </trkpt>
      <trkpt lat="43.075250" lon="-2.956733">
        <ele>1096.0</ele>
        <time>2013-07-29T14:27:39Z</time>
      </trkpt>
      <trkpt lat="43.075200" lon="-2.956817">
        <ele>1096.0</ele>
        <time>2013-07-29T14:27:40Z</time>
      </trkpt>
      <trkpt lat="43.075167" lon="-2.957100">
        <ele>1096.0</ele>
        <time>2013-07-29T14:27:43Z</time>
      </trkpt>
      <trkpt lat="43.075200" lon="-2.957183">
        <ele>1096.0</ele>
        <time>2013-07-29T14:27:44Z</time>
      </trkpt>
      <trkpt lat="43.075250" lon="-2.957250">
        <ele>1097.0</ele>
        <time>2013-07-29T14:27:45Z</time>
      </trkpt>
      <trkpt lat="43.075300" lon="-2.957300">
        <ele>1097.0</ele>
        <time>2013-07-29T14:27:46Z</time>
      </trkpt>
      <trkpt lat="43.075350" lon="-2.957333">
        <ele>1098.0</ele>
        <time>2013-07-29T14:27:47Z</time>
      </trkpt>
      <trkpt lat="43.075400" lon="-2.957350">
        <ele>1100.0</ele>
        <time>2013-07-29T14:27:48Z</time>
      </trkpt>
      <trkpt lat="43.075433" lon="-2.957350">
        <ele>1101.0</ele>
        <time>2013-07-29T14:27:49Z</time>
      </trkpt>
      <trkpt lat="43.075483" lon="-2.957317">
        <ele>1101.0</ele>
        <time>2013-07-29T14:27:50Z</time>
      </trkpt>
      <trkpt lat="43.075533" lon="-2.957267">
        <ele>1100.0</ele>
        <time>2013-07-29T14:27:51Z</time>
      </trkpt>
      <trkpt lat="43.075600" lon="-2.957200">
        <ele>1099.0</ele>
        <time>2013-07-29T14:27:52Z</time>
      </trkpt>
      <trkpt lat="43.075650" lon="-2.957000">
        <ele>1102.0</ele>
        <time>2013-07-29T14:27:54Z</time>
      </trkpt>
      <trkpt lat="43.075650" lon="-2.956883">
        <ele>1104.0</ele>
        <time>2013-07-29T14:27:55Z</time>
      </trkpt>
      <trkpt lat="43.075633" lon="-2.956783">
        <ele>1106.0</ele>
        <time>2013-07-29T14:27:56Z</time>
      </trkpt>
      <trkpt lat="43.075617" lon="-2.956683">
        <ele>1107.0</ele>
        <time>2013-07-29T14:27:57Z</time>
      </trkpt>
      <trkpt lat="43.075583" lon="-2.956567">
        <ele>1108.0</ele>
        <time>2013-07-29T14:27:58Z</time>
      </trkpt>
      <trkpt lat="43.075533" lon="-2.956433">
        <ele>1108.0</ele>
        <time>2013-07-29T14:27:59Z</time>
      </trkpt>
      <trkpt lat="43.075483" lon="-2.956317">
        <ele>1109.0</ele>
        <time>2013-07-29T14:28:00Z</time>
      </trkpt>
      <trkpt lat="43.075417" lon="-2.956217">
        <ele>1111.0</ele>
        <time>2013-07-29T14:28:01Z</time>
      </trkpt>
      <trkpt lat="43.075333" lon="-2.956150">
        <ele>1112.0</ele>
        <time>2013-07-29T14:28:02Z</time>
      </trkpt>
      <trkpt lat="43.075233" lon="-2.956100">
        <ele>1113.0</ele>
        <time>2013-07-29T14:28:03Z</time>
      </trkpt>
      <trkpt lat="43.075133" lon="-2.956050">
        <ele>1114.0</ele>
        <time>2013-07-29T14:28:04Z</time>
      </trkpt>
      <trkpt lat="43.075033" lon="-2.956017">
        <ele>1115.0</ele>
        <time>2013-07-29T14:28:05Z</time>
      </trkpt>
      <trkpt lat="43.074917" lon="-2.956000">
        <ele>1116.0</ele>
        <time>2013-07-29T14:28:06Z</time>
      </trkpt>
      <trkpt lat="43.074800" lon="-2.956017">
        <ele>1116.0</ele>
        <time>2013-07-29T14:28:07Z</time>
      </trkpt>
      <trkpt lat="43.074683" lon="-2.956050">
        <ele>1116.0</ele>
        <time>2013-07-29T14:28:08Z</time>
      </trkpt>
      <trkpt lat="43.074550" lon="-2.956100">
        <ele>1116.0</ele>
        <time>2013-07-29T14:28:09Z</time>
      </trkpt>
      <trkpt lat="43.074467" lon="-2.956183">
        <ele>1117.0</ele>
        <time>2013-07-29T14:28:10Z</time>
      </trkpt>
      <trkpt lat="43.074383" lon="-2.956267">
        <ele>1118.0</ele>
        <time>2013-07-29T14:28:11Z</time>
      </trkpt>
      <trkpt lat="43.074300" lon="-2.956367">
        <ele>1118.0</ele>
        <time>2013-07-29T14:28:12Z</time>
      </trkpt>
      <trkpt lat="43.074200" lon="-2.956483">
        <ele>1119.0</ele>
        <time>2013-07-29T14:28:13Z</time>
      </trkpt>
      <trkpt lat="43.074133" lon="-2.956583">
        <ele>1120.0</ele>
        <time>2013-07-29T14:28:14Z</time>
      </trkpt>
      <trkpt lat="43.074067" lon="-2.956683">
        <ele>1122.0</ele>
        <time>2013-07-29T14:28:15Z</time>
      </trkpt>
      <trkpt lat="43.074033" lon="-2.956767">
        <ele>1126.0</ele>
        <time>2013-07-29T14:28:16Z</time>
      </trkpt>
      <trkpt lat="43.074000" lon="-2.956833">
        <ele>1128.0</ele>
        <time>2013-07-29T14:28:17Z</time>
      </trkpt>
      <trkpt lat="43.073983" lon="-2.956933">
        <ele>1129.0</ele>
        <time>2013-07-29T14:28:18Z</time>
      </trkpt>
      <trkpt lat="43.073950" lon="-2.957167">
        <ele>1131.0</ele>
        <time>2013-07-29T14:28:20Z</time>
      </trkpt>
      <trkpt lat="43.073950" lon="-2.957267">
        <ele>1130.0</ele>
        <time>2013-07-29T14:28:21Z</time>
      </trkpt>
      <trkpt lat="43.073967" lon="-2.957367">
        <ele>1130.0</ele>
        <time>2013-07-29T14:28:22Z</time>
      </trkpt>
      <trkpt lat="43.073983" lon="-2.957417">
        <ele>1131.0</ele>
        <time>2013-07-29T14:28:23Z</time>
      </trkpt>
      <trkpt lat="43.074017" lon="-2.957467">
        <ele>1132.0</ele>
        <time>2013-07-29T14:28:24Z</time>
      </trkpt>
      <trkpt lat="43.074033" lon="-2.957517">
        <ele>1133.0</ele>
        <time>2013-07-29T14:28:25Z</time>
      </trkpt>
      <trkpt lat="43.074083" lon="-2.957550">
        <ele>1132.0</ele>
        <time>2013-07-29T14:28:26Z</time>
      </trkpt>
      <trkpt lat="43.074133" lon="-2.957583">
        <ele>1131.0</ele>
        <time>2013-07-29T14:28:27Z</time>
      </trkpt>
      <trkpt lat="43.074200" lon="-2.957600">
        <ele>1132.0</ele>
        <time>2013-07-29T14:28:28Z</time>
      </trkpt>
      <trkpt lat="43.074250" lon="-2.957583">
        <ele>1134.0</ele>
        <time>2013-07-29T14:28:29Z</time>
      </trkpt>
      <trkpt lat="43.074283" lon="-2.957533">
        <ele>1136.0</ele>
        <time>2013-07-29T14:28:30Z</time>
      </trkpt>
      <trkpt lat="43.074333" lon="-2.957467">
        <ele>1138.0</ele>
        <time>2013-07-29T14:28:31Z</time>
      </trkpt>
      <trkpt lat="43.074383" lon="-2.957383">
        <ele>1137.0</ele>
        <time>2013-07-29T14:28:32Z</time>
      </trkpt>
      <trkpt lat="43.074433" lon="-2.957283">
        <ele>1137.0</ele>
        <time>2013-07-29T14:28:33Z</time>
      </trkpt>
      <trkpt lat="43.074467" lon="-2.957050">
        <ele>1139.0</ele>
        <time>2013-07-29T14:28:35Z</time>
      </trkpt>
      <trkpt lat="43.074467" lon="-2.956917">
        <ele>1140.0</ele>
        <time>2013-07-29T14:28:36Z</time>
      </trkpt>
      <trkpt lat="43.074433" lon="-2.956783">
        <ele>1140.0</ele>
        <time>2013-07-29T14:28:37Z</time>
      </trkpt>
      <trkpt lat="43.074317" lon="-2.956533">
        <ele>1141.0</ele>
        <time>2013-07-29T14:28:39Z</time>
      </trkpt>
      <trkpt lat="43.074233" lon="-2.956450">
        <ele>1142.0</ele>
        <time>2013-07-29T14:28:40Z</time>
      </trkpt>
      <trkpt lat="43.074150" lon="-2.956400">
        <ele>1142.0</ele>
        <time>2013-07-29T14:28:41Z</time>
      </trkpt>
      <trkpt lat="43.074050" lon="-2.956350">
        <ele>1142.0</ele>
        <time>2013-07-29T14:28:42Z</time>
      </trkpt>
      <trkpt lat="43.073933" lon="-2.956300">
        <ele>1142.0</ele>
        <time>2013-07-29T14:28:43Z</time>
      </trkpt>
      <trkpt lat="43.073833" lon="-2.956250">
        <ele>1141.0</ele>
        <time>2013-07-29T14:28:44Z</time>
      </trkpt>
      <trkpt lat="43.073717" lon="-2.956250">
        <ele>1141.0</ele>
        <time>2013-07-29T14:28:45Z</time>
      </trkpt>
      <trkpt lat="43.073617" lon="-2.956283">
        <ele>1142.0</ele>
        <time>2013-07-29T14:28:46Z</time>
      </trkpt>
      <trkpt lat="43.073517" lon="-2.956350">
        <ele>1142.0</ele>
        <time>2013-07-29T14:28:47Z</time>
      </trkpt>
      <trkpt lat="43.073417" lon="-2.956417">
        <ele>1140.0</ele>
        <time>2013-07-29T14:28:48Z</time>
      </trkpt>
      <trkpt lat="43.073317" lon="-2.956500">
        <ele>1139.0</ele>
        <time>2013-07-29T14:28:49Z</time>
      </trkpt>
      <trkpt lat="43.073233" lon="-2.956600">
        <ele>1140.0</ele>
        <time>2013-07-29T14:28:50Z</time>
      </trkpt>
      <trkpt lat="43.073150" lon="-2.956700">
        <ele>1140.0</ele>
        <time>2013-07-29T14:28:51Z</time>
      </trkpt>
      <trkpt lat="43.073100" lon="-2.956817">
        <ele>1141.0</ele>
        <time>2013-07-29T14:28:52Z</time>
      </trkpt>
      <trkpt lat="43.073067" lon="-2.956950">
        <ele>1141.0</ele>
        <time>2013-07-29T14:28:53Z</time>
      </trkpt>
      <trkpt lat="43.073033" lon="-2.957083">
        <ele>1141.0</ele>
        <time>2013-07-29T14:28:54Z</time>
      </trkpt>
      <trkpt lat="43.073017" lon="-2.957183">
        <ele>1142.0</ele>
        <time>2013-07-29T14:28:55Z</time>
      </trkpt>
      <trkpt lat="43.073000" lon="-2.957283">
        <ele>1144.0</ele>
        <time>2013-07-29T14:28:56Z</time>
      </trkpt>
      <trkpt lat="43.073000" lon="-2.957367">
        <ele>1145.0</ele>
        <time>2013-07-29T14:28:57Z</time>
      </trkpt>
      <trkpt lat="43.072983" lon="-2.957450">
        <ele>1146.0</ele>
        <time>2013-07-29T14:28:58Z</time>
      </trkpt>
      <trkpt lat="43.073000" lon="-2.957533">
        <ele>1147.0</ele>
        <time>2013-07-29T14:28:59Z</time>
      </trkpt>
      <trkpt lat="43.073017" lon="-2.957617">
        <ele>1148.0</ele>
        <time>2013-07-29T14:29:00Z</time>
      </trkpt>
      <trkpt lat="43.073050" lon="-2.957700">
        <ele>1148.0</ele>
        <time>2013-07-29T14:29:01Z</time>
      </trkpt>
      <trkpt lat="43.073100" lon="-2.957767">
        <ele>1149.0</ele>
        <time>2013-07-29T14:29:02Z</time>
      </trkpt>
      <trkpt lat="43.073150" lon="-2.957817">
        <ele>1150.0</ele>
        <time>2013-07-29T14:29:03Z</time>
      </trkpt>
      <trkpt lat="43.073217" lon="-2.957850">
        <ele>1151.0</ele>
        <time>2013-07-29T14:29:04Z</time>
      </trkpt>
      <trkpt lat="43.073300" lon="-2.957867">
        <ele>1151.0</ele>
        <time>2013-07-29T14:29:05Z</time>
      </trkpt>
      <trkpt lat="43.073367" lon="-2.957883">
        <ele>1152.0</ele>
        <time>2013-07-29T14:29:06Z</time>
      </trkpt>
      <trkpt lat="43.073500" lon="-2.957850">
        <ele>1154.0</ele>
        <time>2013-07-29T14:29:08Z</time>
      </trkpt>
      <trkpt lat="43.073567" lon="-2.957800">
        <ele>1155.0</ele>
        <time>2013-07-29T14:29:09Z</time>
      </trkpt>
      <trkpt lat="43.073617" lon="-2.957733">
        <ele>1155.0</ele>
        <time>2013-07-29T14:29:10Z</time>
      </trkpt>
      <trkpt lat="43.073667" lon="-2.957633">
        <ele>1156.0</ele>
        <time>2013-07-29T14:29:11Z</time>
      </trkpt>
      <trkpt lat="43.073700" lon="-2.957517">
        <ele>1156.0</ele>
        <time>2013-07-29T14:29:12Z</time>
      </trkpt>
      <trkpt lat="43.073717" lon="-2.957383">
        <ele>1157.0</ele>
        <time>2013-07-29T14:29:13Z</time>
      </trkpt>
      <trkpt lat="43.073717" lon="-2.957250">
        <ele>1157.0</ele>
        <time>2013-07-29T14:29:14Z</time>
      </trkpt>
      <trkpt lat="43.073700" lon="-2.957117">
        <ele>1157.0</ele>
        <time>2013-07-29T14:29:15Z</time>
      </trkpt>
      <trkpt lat="43.073650" lon="-2.957017">
        <ele>1158.0</ele>
        <time>2013-07-29T14:29:16Z</time>
      </trkpt>
      <trkpt lat="43.073583" lon="-2.956917">
        <ele>1159.0</ele>
        <time>2013-07-29T14:29:17Z</time>
      </trkpt>
      <trkpt lat="43.073500" lon="-2.956833">
        <ele>1159.0</ele>
        <time>2013-07-29T14:29:18Z</time>
      </trkpt>
      <trkpt lat="43.073400" lon="-2.956783">
        <ele>1158.0</ele>
        <time>2013-07-29T14:29:19Z</time>
      </trkpt>
      <trkpt lat="43.073317" lon="-2.956750">
        <ele>1159.0</ele>
        <time>2013-07-29T14:29:20Z</time>
      </trkpt>
      <trkpt lat="43.073217" lon="-2.956733">
        <ele>1159.0</ele>
        <time>2013-07-29T14:29:21Z</time>
      </trkpt>
      <trkpt lat="43.073117" lon="-2.956750">
        <ele>1160.0</ele>
        <time>2013-07-29T14:29:22Z</time>
      </trkpt>
      <trkpt lat="43.073033" lon="-2.956767">
        <ele>1159.0</ele>
        <time>2013-07-29T14:29:23Z</time>
      </trkpt>
      <trkpt lat="43.072950" lon="-2.956800">
        <ele>1160.0</ele>
        <time>2013-07-29T14:29:24Z</time>
      </trkpt>
      <trkpt lat="43.072883" lon="-2.956867">
        <ele>1161.0</ele>
        <time>2013-07-29T14:29:25Z</time>
      </trkpt>
      <trkpt lat="43.072817" lon="-2.956917">
        <ele>1162.0</ele>
        <time>2013-07-29T14:29:26Z</time>
      </trkpt>
      <trkpt lat="43.072767" lon="-2.956983">
        <ele>1163.0</ele>
        <time>2013-07-29T14:29:27Z</time>
      </trkpt>
      <trkpt lat="43.072717" lon="-2.957067">
        <ele>1163.0</ele>
        <time>2013-07-29T14:29:28Z</time>
      </trkpt>
      <trkpt lat="43.072667" lon="-2.957133">
        <ele>1162.0</ele>
        <time>2013-07-29T14:29:29Z</time>
      </trkpt>
      <trkpt lat="43.072633" lon="-2.957217">
        <ele>1162.0</ele>
        <time>2013-07-29T14:29:30Z</time>
      </trkpt>
      <trkpt lat="43.072583" lon="-2.957300">
        <ele>1162.0</ele>
        <time>2013-07-29T14:29:31Z</time>
      </trkpt>
      <trkpt lat="43.072550" lon="-2.957383">
        <ele>1163.0</ele>
        <time>2013-07-29T14:29:32Z</time>
      </trkpt>
      <trkpt lat="43.072533" lon="-2.957467">
        <ele>1163.0</ele>
        <time>2013-07-29T14:29:33Z</time>
      </trkpt>
      <trkpt lat="43.072500" lon="-2.957550">
        <ele>1164.0</ele>
        <time>2013-07-29T14:29:34Z</time>
      </trkpt>
      <trkpt lat="43.072467" lon="-2.957633">
        <ele>1164.0</ele>
        <time>2013-07-29T14:29:35Z</time>
      </trkpt>
      <trkpt lat="43.072433" lon="-2.957733">
        <ele>1165.0</ele>
        <time>2013-07-29T14:29:36Z</time>
      </trkpt>
      <trkpt lat="43.072400" lon="-2.957817">
        <ele>1165.0</ele>
        <time>2013-07-29T14:29:37Z</time>
      </trkpt>
      <trkpt lat="43.072383" lon="-2.957883">
        <ele>1165.0</ele>
        <time>2013-07-29T14:29:38Z</time>
      </trkpt>
      <trkpt lat="43.072367" lon="-2.957983">
        <ele>1165.0</ele>
        <time>2013-07-29T14:29:39Z</time>
      </trkpt>
      <trkpt lat="43.072367" lon="-2.958067">
        <ele>1163.0</ele>
        <time>2013-07-29T14:29:40Z</time>
      </trkpt>
      <trkpt lat="43.072367" lon="-2.958167">
        <ele>1161.0</ele>
        <time>2013-07-29T14:29:41Z</time>
      </trkpt>
      <trkpt lat="43.072400" lon="-2.958233">
        <ele>1160.0</ele>
        <time>2013-07-29T14:29:42Z</time>
      </trkpt>
      <trkpt lat="43.072450" lon="-2.958267">
        <ele>1159.0</ele>
        <time>2013-07-29T14:29:43Z</time>
      </trkpt>
      <trkpt lat="43.072517" lon="-2.958283">
        <ele>1157.0</ele>
        <time>2013-07-29T14:29:44Z</time>
      </trkpt>
      <trkpt lat="43.072567" lon="-2.958283">
        <ele>1155.0</ele>
        <time>2013-07-29T14:29:45Z</time>
      </trkpt>
      <trkpt lat="43.072617" lon="-2.958283">
        <ele>1152.0</ele>
        <time>2013-07-29T14:29:46Z</time>
      </trkpt>
      <trkpt lat="43.072683" lon="-2.958283">
        <ele>1150.0</ele>
        <time>2013-07-29T14:29:47Z</time>
      </trkpt>
      <trkpt lat="43.072750" lon="-2.958267">
        <ele>1148.0</ele>
        <time>2013-07-29T14:29:48Z</time>
      </trkpt>
      <trkpt lat="43.072800" lon="-2.958217">
        <ele>1146.0</ele>
        <time>2013-07-29T14:29:49Z</time>
      </trkpt>
      <trkpt lat="43.072850" lon="-2.958150">
        <ele>1143.0</ele>
        <time>2013-07-29T14:29:50Z</time>
      </trkpt>
      <trkpt lat="43.072900" lon="-2.958050">
        <ele>1141.0</ele>
        <time>2013-07-29T14:29:51Z</time>
      </trkpt>
      <trkpt lat="43.072933" lon="-2.957933">
        <ele>1140.0</ele>
        <time>2013-07-29T14:29:52Z</time>
      </trkpt>
      <trkpt lat="43.072950" lon="-2.957817">
        <ele>1139.0</ele>
        <time>2013-07-29T14:29:53Z</time>
      </trkpt>
      <trkpt lat="43.072950" lon="-2.957717">
        <ele>1138.0</ele>
        <time>2013-07-29T14:29:54Z</time>
      </trkpt>
      <trkpt lat="43.072950" lon="-2.957600">
        <ele>1137.0</ele>
        <time>2013-07-29T14:29:55Z</time>
      </trkpt>
      <trkpt lat="43.072917" lon="-2.957483">
        <ele>1136.0</ele>
        <time>2013-07-29T14:29:56Z</time>
      </trkpt>
      <trkpt lat="43.072867" lon="-2.957367">
        <ele>1135.0</ele>
        <time>2013-07-29T14:29:57Z</time>
      </trkpt>
      <trkpt lat="43.072800" lon="-2.957250">
        <ele>1134.0</ele>
        <time>2013-07-29T14:29:58Z</time>
      </trkpt>
      <trkpt lat="43.072700" lon="-2.957167">
        <ele>1134.0</ele>
        <time>2013-07-29T14:29:59Z</time>
      </trkpt>
      <trkpt lat="43.072617" lon="-2.957100">
        <ele>1134.0</ele>
        <time>2013-07-29T14:30:00Z</time>
      </trkpt>
      <trkpt lat="43.072533" lon="-2.957083">
        <ele>1134.0</ele>
        <time>2013-07-29T14:30:01Z</time>
      </trkpt>
      <trkpt lat="43.072467" lon="-2.957050">
        <ele>1134.0</ele>
        <time>2013-07-29T14:30:02Z</time>
      </trkpt>
      <trkpt lat="43.072367" lon="-2.957033">
        <ele>1134.0</ele>
        <time>2013-07-29T14:30:03Z</time>
      </trkpt>
      <trkpt lat="43.072267" lon="-2.957000">
        <ele>1133.0</ele>
        <time>2013-07-29T14:30:04Z</time>
      </trkpt>
      <trkpt lat="43.072167" lon="-2.956983">
        <ele>1133.0</ele>
        <time>2013-07-29T14:30:05Z</time>
      </trkpt>
      <trkpt lat="43.072083" lon="-2.956983">
        <ele>1134.0</ele>
        <time>2013-07-29T14:30:06Z</time>
      </trkpt>
      <trkpt lat="43.072000" lon="-2.957000">
        <ele>1135.0</ele>
        <time>2013-07-29T14:30:07Z</time>
      </trkpt>
      <trkpt lat="43.071933" lon="-2.957017">
        <ele>1136.0</ele>
        <time>2013-07-29T14:30:08Z</time>
      </trkpt>
      <trkpt lat="43.071850" lon="-2.957067">
        <ele>1137.0</ele>
        <time>2013-07-29T14:30:09Z</time>
      </trkpt>
      <trkpt lat="43.071767" lon="-2.957100">
        <ele>1137.0</ele>
        <time>2013-07-29T14:30:10Z</time>
      </trkpt>
      <trkpt lat="43.071683" lon="-2.957133">
        <ele>1136.0</ele>
        <time>2013-07-29T14:30:11Z</time>
      </trkpt>
      <trkpt lat="43.071600" lon="-2.957183">
        <ele>1136.0</ele>
        <time>2013-07-29T14:30:12Z</time>
      </trkpt>
      <trkpt lat="43.071500" lon="-2.957217">
        <ele>1135.0</ele>
        <time>2013-07-29T14:30:13Z</time>
      </trkpt>
      <trkpt lat="43.071417" lon="-2.957233">
        <ele>1134.0</ele>
        <time>2013-07-29T14:30:14Z</time>
      </trkpt>
      <trkpt lat="43.071317" lon="-2.957283">
        <ele>1133.0</ele>
        <time>2013-07-29T14:30:15Z</time>
      </trkpt>
      <trkpt lat="43.071217" lon="-2.957317">
        <ele>1133.0</ele>
        <time>2013-07-29T14:30:16Z</time>
      </trkpt>
      <trkpt lat="43.071133" lon="-2.957367">
        <ele>1133.0</ele>
        <time>2013-07-29T14:30:17Z</time>
      </trkpt>
      <trkpt lat="43.071050" lon="-2.957400">
        <ele>1133.0</ele>
        <time>2013-07-29T14:30:18Z</time>
      </trkpt>
      <trkpt lat="43.070967" lon="-2.957450">
        <ele>1133.0</ele>
        <time>2013-07-29T14:30:19Z</time>
      </trkpt>
      <trkpt lat="43.070883" lon="-2.957500">
        <ele>1131.0</ele>
        <time>2013-07-29T14:30:20Z</time>
      </trkpt>
      <trkpt lat="43.070800" lon="-2.957550">
        <ele>1129.0</ele>
        <time>2013-07-29T14:30:21Z</time>
      </trkpt>
      <trkpt lat="43.070717" lon="-2.957600">
        <ele>1128.0</ele>
        <time>2013-07-29T14:30:22Z</time>
      </trkpt>
      <trkpt lat="43.070633" lon="-2.957633">
        <ele>1126.0</ele>
        <time>2013-07-29T14:30:23Z</time>
      </trkpt>
      <trkpt lat="43.070550" lon="-2.957667">
        <ele>1125.0</ele>
        <time>2013-07-29T14:30:24Z</time>
      </trkpt>
      <trkpt lat="43.070467" lon="-2.957700">
        <ele>1123.0</ele>
        <time>2013-07-29T14:30:25Z</time>
      </trkpt>
      <trkpt lat="43.070383" lon="-2.957750">
        <ele>1121.0</ele>
        <time>2013-07-29T14:30:26Z</time>
      </trkpt>
      <trkpt lat="43.070283" lon="-2.957783">
        <ele>1120.0</ele>
        <time>2013-07-29T14:30:27Z</time>
      </trkpt>
      <trkpt lat="43.070200" lon="-2.957817">
        <ele>1119.0</ele>
        <time>2013-07-29T14:30:28Z</time>
      </trkpt>
      <trkpt lat="43.070117" lon="-2.957867">
        <ele>1118.0</ele>
        <time>2013-07-29T14:30:29Z</time>
      </trkpt>
      <trkpt lat="43.070033" lon="-2.957900">
        <ele>1117.0</ele>
        <time>2013-07-29T14:30:30Z</time>
      </trkpt>
      <trkpt lat="43.069950" lon="-2.957933">
        <ele>1115.0</ele>
        <time>2013-07-29T14:30:31Z</time>
      </trkpt>
      <trkpt lat="43.069867" lon="-2.957983">
        <ele>1114.0</ele>
        <time>2013-07-29T14:30:32Z</time>
      </trkpt>
      <trkpt lat="43.069783" lon="-2.958050">
        <ele>1113.0</ele>
        <time>2013-07-29T14:30:33Z</time>
      </trkpt>
      <trkpt lat="43.069700" lon="-2.958117">
        <ele>1112.0</ele>
        <time>2013-07-29T14:30:34Z</time>
      </trkpt>
      <trkpt lat="43.069633" lon="-2.958167">
        <ele>1111.0</ele>
        <time>2013-07-29T14:30:35Z</time>
      </trkpt>
      <trkpt lat="43.069567" lon="-2.958217">
        <ele>1112.0</ele>
        <time>2013-07-29T14:30:36Z</time>
      </trkpt>
      <trkpt lat="43.069483" lon="-2.958267">
        <ele>1111.0</ele>
        <time>2013-07-29T14:30:37Z</time>
      </trkpt>
      <trkpt lat="43.069417" lon="-2.958333">
        <ele>1111.0</ele>
        <time>2013-07-29T14:30:38Z</time>
      </trkpt>
      <trkpt lat="43.069350" lon="-2.958400">
        <ele>1109.0</ele>
        <time>2013-07-29T14:30:39Z</time>
      </trkpt>
      <trkpt lat="43.069283" lon="-2.958467">
        <ele>1108.0</ele>
        <time>2013-07-29T14:30:40Z</time>
      </trkpt>
      <trkpt lat="43.069217" lon="-2.958550">
        <ele>1107.0</ele>
        <time>2013-07-29T14:30:41Z</time>
      </trkpt>
      <trkpt lat="43.069150" lon="-2.958617">
        <ele>1107.0</ele>
        <time>2013-07-29T14:30:42Z</time>
      </trkpt>
      <trkpt lat="43.069067" lon="-2.958683">
        <ele>1106.0</ele>
        <time>2013-07-29T14:30:43Z</time>
      </trkpt>
      <trkpt lat="43.069000" lon="-2.958750">
        <ele>1105.0</ele>
        <time>2013-07-29T14:30:44Z</time>
      </trkpt>
      <trkpt lat="43.068933" lon="-2.958817">
        <ele>1103.0</ele>
        <time>2013-07-29T14:30:45Z</time>
      </trkpt>
      <trkpt lat="43.068867" lon="-2.958883">
        <ele>1102.0</ele>
        <time>2013-07-29T14:30:46Z</time>
      </trkpt>
      <trkpt lat="43.068800" lon="-2.958950">
        <ele>1101.0</ele>
        <time>2013-07-29T14:30:47Z</time>
      </trkpt>
      <trkpt lat="43.068733" lon="-2.959017">
        <ele>1099.0</ele>
        <time>2013-07-29T14:30:48Z</time>
      </trkpt>
      <trkpt lat="43.068667" lon="-2.959083">
        <ele>1098.0</ele>
        <time>2013-07-29T14:30:49Z</time>
      </trkpt>
      <trkpt lat="43.068600" lon="-2.959150">
        <ele>1097.0</ele>
        <time>2013-07-29T14:30:50Z</time>
      </trkpt>
      <trkpt lat="43.068517" lon="-2.959217">
        <ele>1096.0</ele>
        <time>2013-07-29T14:30:51Z</time>
      </trkpt>
      <trkpt lat="43.068450" lon="-2.959267">
        <ele>1096.0</ele>
        <time>2013-07-29T14:30:52Z</time>
      </trkpt>
      <trkpt lat="43.068383" lon="-2.959317">
        <ele>1095.0</ele>
        <time>2013-07-29T14:30:53Z</time>
      </trkpt>
      <trkpt lat="43.068300" lon="-2.959383">
        <ele>1095.0</ele>
        <time>2013-07-29T14:30:54Z</time>
      </trkpt>
      <trkpt lat="43.068233" lon="-2.959433">
        <ele>1094.0</ele>
        <time>2013-07-29T14:30:55Z</time>
      </trkpt>
      <trkpt lat="43.068150" lon="-2.959483">
        <ele>1093.0</ele>
        <time>2013-07-29T14:30:56Z</time>
      </trkpt>
      <trkpt lat="43.068067" lon="-2.959550">
        <ele>1092.0</ele>
        <time>2013-07-29T14:30:57Z</time>
      </trkpt>
      <trkpt lat="43.067983" lon="-2.959600">
        <ele>1091.0</ele>
        <time>2013-07-29T14:30:58Z</time>
      </trkpt>
      <trkpt lat="43.067917" lon="-2.959650">
        <ele>1090.0</ele>
        <time>2013-07-29T14:30:59Z</time>
      </trkpt>
      <trkpt lat="43.067850" lon="-2.959700">
        <ele>1090.0</ele>
        <time>2013-07-29T14:31:00Z</time>
      </trkpt>
      <trkpt lat="43.067783" lon="-2.959767">
        <ele>1089.0</ele>
        <time>2013-07-29T14:31:01Z</time>
      </trkpt>
      <trkpt lat="43.067717" lon="-2.959833">
        <ele>1088.0</ele>
        <time>2013-07-29T14:31:02Z</time>
      </trkpt>
      <trkpt lat="43.067650" lon="-2.959917">
        <ele>1087.0</ele>
        <time>2013-07-29T14:31:03Z</time>
      </trkpt>
      <trkpt lat="43.067583" lon="-2.960000">
        <ele>1086.0</ele>
        <time>2013-07-29T14:31:04Z</time>
      </trkpt>
      <trkpt lat="43.067517" lon="-2.960083">
        <ele>1086.0</ele>
        <time>2013-07-29T14:31:05Z</time>
      </trkpt>
      <trkpt lat="43.067450" lon="-2.960150">
        <ele>1085.0</ele>
        <time>2013-07-29T14:31:06Z</time>
      </trkpt>
      <trkpt lat="43.067400" lon="-2.960217">
        <ele>1085.0</ele>
        <time>2013-07-29T14:31:07Z</time>
      </trkpt>
      <trkpt lat="43.067333" lon="-2.960300">
        <ele>1083.0</ele>
        <time>2013-07-29T14:31:08Z</time>
      </trkpt>
      <trkpt lat="43.067267" lon="-2.960400">
        <ele>1081.0</ele>
        <time>2013-07-29T14:31:09Z</time>
      </trkpt>
      <trkpt lat="43.067200" lon="-2.960483">
        <ele>1080.0</ele>
        <time>2013-07-29T14:31:10Z</time>
      </trkpt>
      <trkpt lat="43.067133" lon="-2.960550">
        <ele>1080.0</ele>
        <time>2013-07-29T14:31:11Z</time>
      </trkpt>
      <trkpt lat="43.067067" lon="-2.960617">
        <ele>1079.0</ele>
        <time>2013-07-29T14:31:12Z</time>
      </trkpt>
      <trkpt lat="43.067000" lon="-2.960700">
        <ele>1078.0</ele>
        <time>2013-07-29T14:31:13Z</time>
      </trkpt>
      <trkpt lat="43.066933" lon="-2.960767">
        <ele>1077.0</ele>
        <time>2013-07-29T14:31:14Z</time>
      </trkpt>
      <trkpt lat="43.066867" lon="-2.960867">
        <ele>1076.0</ele>
        <time>2013-07-29T14:31:15Z</time>
      </trkpt>
      <trkpt lat="43.066783" lon="-2.960950">
        <ele>1075.0</ele>
        <time>2013-07-29T14:31:16Z</time>
      </trkpt>
      <trkpt lat="43.066717" lon="-2.961033">
        <ele>1073.0</ele>
        <time>2013-07-29T14:31:17Z</time>
      </trkpt>
      <trkpt lat="43.066650" lon="-2.961100">
        <ele>1073.0</ele>
        <time>2013-07-29T14:31:18Z</time>
      </trkpt>
      <trkpt lat="43.066583" lon="-2.961167">
        <ele>1072.0</ele>
        <time>2013-07-29T14:31:19Z</time>
      </trkpt>
      <trkpt lat="43.066517" lon="-2.961233">
        <ele>1072.0</ele>
        <time>2013-07-29T14:31:20Z</time>
      </trkpt>
      <trkpt lat="43.066450" lon="-2.961300">
        <ele>1071.0</ele>
        <time>2013-07-29T14:31:21Z</time>
      </trkpt>
      <trkpt lat="43.066383" lon="-2.961367">
        <ele>1070.0</ele>
        <time>2013-07-29T14:31:22Z</time>
      </trkpt>
      <trkpt lat="43.066317" lon="-2.961433">
        <ele>1069.0</ele>
        <time>2013-07-29T14:31:23Z</time>
      </trkpt>
      <trkpt lat="43.066233" lon="-2.961500">
        <ele>1069.0</ele>
        <time>2013-07-29T14:31:24Z</time>
      </trkpt>
      <trkpt lat="43.066167" lon="-2.961550">
        <ele>1070.0</ele>
        <time>2013-07-29T14:31:25Z</time>
      </trkpt>
      <trkpt lat="43.066100" lon="-2.961583">
        <ele>1070.0</ele>
        <time>2013-07-29T14:31:26Z</time>
      </trkpt>
      <trkpt lat="43.066017" lon="-2.961633">
        <ele>1070.0</ele>
        <time>2013-07-29T14:31:27Z</time>
      </trkpt>
      <trkpt lat="43.065950" lon="-2.961683">
        <ele>1070.0</ele>
        <time>2013-07-29T14:31:28Z</time>
      </trkpt>
      <trkpt lat="43.065883" lon="-2.961717">
        <ele>1071.0</ele>
        <time>2013-07-29T14:31:29Z</time>
      </trkpt>
      <trkpt lat="43.065817" lon="-2.961750">
        <ele>1073.0</ele>
        <time>2013-07-29T14:31:30Z</time>
      </trkpt>
      <trkpt lat="43.065767" lon="-2.961750">
        <ele>1075.0</ele>
        <time>2013-07-29T14:31:31Z</time>
      </trkpt>
      <trkpt lat="43.065700" lon="-2.961767">
        <ele>1075.0</ele>
        <time>2013-07-29T14:31:32Z</time>
      </trkpt>
      <trkpt lat="43.065633" lon="-2.961800">
        <ele>1076.0</ele>
        <time>2013-07-29T14:31:33Z</time>
      </trkpt>
      <trkpt lat="43.065550" lon="-2.961817">
        <ele>1076.0</ele>
        <time>2013-07-29T14:31:34Z</time>
      </trkpt>
      <trkpt lat="43.065467" lon="-2.961850">
        <ele>1077.0</ele>
        <time>2013-07-29T14:31:35Z</time>
      </trkpt>
      <trkpt lat="43.065417" lon="-2.961867">
        <ele>1078.0</ele>
        <time>2013-07-29T14:31:36Z</time>
      </trkpt>
      <trkpt lat="43.065350" lon="-2.961883">
        <ele>1079.0</ele>
        <time>2013-07-29T14:31:37Z</time>
      </trkpt>
      <trkpt lat="43.065300" lon="-2.961900">
        <ele>1080.0</ele>
        <time>2013-07-29T14:31:38Z</time>
      </trkpt>
      <trkpt lat="43.065233" lon="-2.961917">
        <ele>1079.0</ele>
        <time>2013-07-29T14:31:39Z</time>
      </trkpt>
      <trkpt lat="43.065200" lon="-2.961967">
        <ele>1079.0</ele>
        <time>2013-07-29T14:31:40Z</time>
      </trkpt>
      <trkpt lat="43.065183" lon="-2.962017">
        <ele>1079.0</ele>
        <time>2013-07-29T14:31:41Z</time>
      </trkpt>
      <trkpt lat="43.065217" lon="-2.962100">
        <ele>1078.0</ele>
        <time>2013-07-29T14:31:42Z</time>
      </trkpt>
      <trkpt lat="43.065267" lon="-2.962133">
        <ele>1077.0</ele>
        <time>2013-07-29T14:31:43Z</time>
      </trkpt>
      <trkpt lat="43.065317" lon="-2.962167">
        <ele>1077.0</ele>
        <time>2013-07-29T14:31:44Z</time>
      </trkpt>
      <trkpt lat="43.065383" lon="-2.962150">
        <ele>1077.0</ele>
        <time>2013-07-29T14:31:45Z</time>
      </trkpt>
      <trkpt lat="43.065433" lon="-2.962133">
        <ele>1077.0</ele>
        <time>2013-07-29T14:31:46Z</time>
      </trkpt>
      <trkpt lat="43.065650" lon="-2.961867">
        <ele>1074.0</ele>
        <time>2013-07-29T14:31:49Z</time>
      </trkpt>
      <trkpt lat="43.065700" lon="-2.961750">
        <ele>1074.0</ele>
        <time>2013-07-29T14:31:50Z</time>
      </trkpt>
      <trkpt lat="43.065717" lon="-2.961617">
        <ele>1075.0</ele>
        <time>2013-07-29T14:31:51Z</time>
      </trkpt>
      <trkpt lat="43.065717" lon="-2.961483">
        <ele>1076.0</ele>
        <time>2013-07-29T14:31:52Z</time>
      </trkpt>
      <trkpt lat="43.065717" lon="-2.961350">
        <ele>1077.0</ele>
        <time>2013-07-29T14:31:53Z</time>
      </trkpt>
      <trkpt lat="43.065700" lon="-2.961233">
        <ele>1078.0</ele>
        <time>2013-07-29T14:31:54Z</time>
      </trkpt>
      <trkpt lat="43.065667" lon="-2.960983">
        <ele>1079.0</ele>
        <time>2013-07-29T14:31:56Z</time>
      </trkpt>
      <trkpt lat="43.065617" lon="-2.960883">
        <ele>1080.0</ele>
        <time>2013-07-29T14:31:57Z</time>
      </trkpt>
      <trkpt lat="43.065550" lon="-2.960800">
        <ele>1080.0</ele>
        <time>2013-07-29T14:31:58Z</time>
      </trkpt>
      <trkpt lat="43.065483" lon="-2.960733">
        <ele>1080.0</ele>
        <time>2013-07-29T14:31:59Z</time>
      </trkpt>
      <trkpt lat="43.065417" lon="-2.960667">
        <ele>1081.0</ele>
        <time>2013-07-29T14:32:00Z</time>
      </trkpt>
      <trkpt lat="43.065350" lon="-2.960600">
        <ele>1082.0</ele>
        <time>2013-07-29T14:32:01Z</time>
      </trkpt>
      <trkpt lat="43.065267" lon="-2.960550">
        <ele>1083.0</ele>
        <time>2013-07-29T14:32:02Z</time>
      </trkpt>
      <trkpt lat="43.065183" lon="-2.960517">
        <ele>1083.0</ele>
        <time>2013-07-29T14:32:03Z</time>
      </trkpt>
      <trkpt lat="43.065067" lon="-2.960483">
        <ele>1083.0</ele>
        <time>2013-07-29T14:32:04Z</time>
      </trkpt>
      <trkpt lat="43.064967" lon="-2.960467">
        <ele>1083.0</ele>
        <time>2013-07-29T14:32:05Z</time>
      </trkpt>
      <trkpt lat="43.064883" lon="-2.960450">
        <ele>1083.0</ele>
        <time>2013-07-29T14:32:06Z</time>
      </trkpt>
      <trkpt lat="43.064800" lon="-2.960450">
        <ele>1086.0</ele>
        <time>2013-07-29T14:32:07Z</time>
      </trkpt>
      <trkpt lat="43.064733" lon="-2.960467">
        <ele>1087.0</ele>
        <time>2013-07-29T14:32:08Z</time>
      </trkpt>
      <trkpt lat="43.064667" lon="-2.960500">
        <ele>1088.0</ele>
        <time>2013-07-29T14:32:09Z</time>
      </trkpt>
      <trkpt lat="43.064600" lon="-2.960550">
        <ele>1087.0</ele>
        <time>2013-07-29T14:32:10Z</time>
      </trkpt>
      <trkpt lat="43.064550" lon="-2.960617">
        <ele>1087.0</ele>
        <time>2013-07-29T14:32:11Z</time>
      </trkpt>
      <trkpt lat="43.064500" lon="-2.960700">
        <ele>1087.0</ele>
        <time>2013-07-29T14:32:12Z</time>
      </trkpt>
      <trkpt lat="43.064467" lon="-2.960800">
        <ele>1087.0</ele>
        <time>2013-07-29T14:32:13Z</time>
      </trkpt>
      <trkpt lat="43.064450" lon="-2.960883">
        <ele>1088.0</ele>
        <time>2013-07-29T14:32:14Z</time>
      </trkpt>
      <trkpt lat="43.064467" lon="-2.960950">
        <ele>1090.0</ele>
        <time>2013-07-29T14:32:15Z</time>
      </trkpt>
      <trkpt lat="43.064483" lon="-2.961017">
        <ele>1092.0</ele>
        <time>2013-07-29T14:32:16Z</time>
      </trkpt>
      <trkpt lat="43.064517" lon="-2.961083">
        <ele>1093.0</ele>
        <time>2013-07-29T14:32:17Z</time>
      </trkpt>
      <trkpt lat="43.064567" lon="-2.961133">
        <ele>1094.0</ele>
        <time>2013-07-29T14:32:18Z</time>
      </trkpt>
      <trkpt lat="43.064633" lon="-2.961150">
        <ele>1094.0</ele>
        <time>2013-07-29T14:32:19Z</time>
      </trkpt>
      <trkpt lat="43.064717" lon="-2.961150">
        <ele>1095.0</ele>
        <time>2013-07-29T14:32:20Z</time>
      </trkpt>
      <trkpt lat="43.064800" lon="-2.961117">
        <ele>1095.0</ele>
        <time>2013-07-29T14:32:21Z</time>
      </trkpt>
      <trkpt lat="43.064883" lon="-2.961050">
        <ele>1093.0</ele>
        <time>2013-07-29T14:32:22Z</time>
      </trkpt>
      <trkpt lat="43.064967" lon="-2.960967">
        <ele>1091.0</ele>
        <time>2013-07-29T14:32:23Z</time>
      </trkpt>
      <trkpt lat="43.065033" lon="-2.960850">
        <ele>1090.0</ele>
        <time>2013-07-29T14:32:24Z</time>
      </trkpt>
      <trkpt lat="43.065083" lon="-2.960733">
        <ele>1089.0</ele>
        <time>2013-07-29T14:32:25Z</time>
      </trkpt>
      <trkpt lat="43.065117" lon="-2.960600">
        <ele>1089.0</ele>
        <time>2013-07-29T14:32:26Z</time>
      </trkpt>
      <trkpt lat="43.065133" lon="-2.960450">
        <ele>1088.0</ele>
        <time>2013-07-29T14:32:27Z</time>
      </trkpt>
      <trkpt lat="43.065117" lon="-2.960300">
        <ele>1087.0</ele>
        <time>2013-07-29T14:32:28Z</time>
      </trkpt>
      <trkpt lat="43.065100" lon="-2.960167">
        <ele>1088.0</ele>
        <time>2013-07-29T14:32:29Z</time>
      </trkpt>
      <trkpt lat="43.065083" lon="-2.960033">
        <ele>1089.0</ele>
        <time>2013-07-29T14:32:30Z</time>
      </trkpt>
      <trkpt lat="43.065067" lon="-2.959917">
        <ele>1090.0</ele>
        <time>2013-07-29T14:32:31Z</time>
      </trkpt>
      <trkpt lat="43.065050" lon="-2.959783">
        <ele>1089.0</ele>
        <time>2013-07-29T14:32:32Z</time>
      </trkpt>
      <trkpt lat="43.065017" lon="-2.959667">
        <ele>1089.0</ele>
        <time>2013-07-29T14:32:33Z</time>
      </trkpt>
      <trkpt lat="43.064950" lon="-2.959550">
        <ele>1089.0</ele>
        <time>2013-07-29T14:32:34Z</time>
      </trkpt>
      <trkpt lat="43.064867" lon="-2.959467">
        <ele>1089.0</ele>
        <time>2013-07-29T14:32:35Z</time>
      </trkpt>
      <trkpt lat="43.064783" lon="-2.959417">
        <ele>1088.0</ele>
        <time>2013-07-29T14:32:36Z</time>
      </trkpt>
      <trkpt lat="43.064683" lon="-2.959367">
        <ele>1088.0</ele>
        <time>2013-07-29T14:32:37Z</time>
      </trkpt>
      <trkpt lat="43.064583" lon="-2.959317">
        <ele>1088.0</ele>
        <time>2013-07-29T14:32:38Z</time>
      </trkpt>
      <trkpt lat="43.064483" lon="-2.959300">
        <ele>1088.0</ele>
        <time>2013-07-29T14:32:39Z</time>
      </trkpt>
      <trkpt lat="43.064383" lon="-2.959283">
        <ele>1087.0</ele>
        <time>2013-07-29T14:32:40Z</time>
      </trkpt>
      <trkpt lat="43.064300" lon="-2.959283">
        <ele>1087.0</ele>
        <time>2013-07-29T14:32:41Z</time>
      </trkpt>
      <trkpt lat="43.064200" lon="-2.959317">
        <ele>1087.0</ele>
        <time>2013-07-29T14:32:42Z</time>
      </trkpt>
      <trkpt lat="43.064133" lon="-2.959350">
        <ele>1087.0</ele>
        <time>2013-07-29T14:32:43Z</time>
      </trkpt>
      <trkpt lat="43.064067" lon="-2.959400">
        <ele>1087.0</ele>
        <time>2013-07-29T14:32:44Z</time>
      </trkpt>
      <trkpt lat="43.063983" lon="-2.959467">
        <ele>1087.0</ele>
        <time>2013-07-29T14:32:45Z</time>
      </trkpt>
      <trkpt lat="43.063917" lon="-2.959533">
        <ele>1087.0</ele>
        <time>2013-07-29T14:32:46Z</time>
      </trkpt>
      <trkpt lat="43.063850" lon="-2.959583">
        <ele>1087.0</ele>
        <time>2013-07-29T14:32:47Z</time>
      </trkpt>
      <trkpt lat="43.063800" lon="-2.959650">
        <ele>1088.0</ele>
        <time>2013-07-29T14:32:48Z</time>
      </trkpt>
      <trkpt lat="43.063733" lon="-2.959717">
        <ele>1088.0</ele>
        <time>2013-07-29T14:32:49Z</time>
      </trkpt>
      <trkpt lat="43.063683" lon="-2.959783">
        <ele>1088.0</ele>
        <time>2013-07-29T14:32:50Z</time>
      </trkpt>
      <trkpt lat="43.063617" lon="-2.959833">
        <ele>1088.0</ele>
        <time>2013-07-29T14:32:51Z</time>
      </trkpt>
      <trkpt lat="43.063550" lon="-2.959900">
        <ele>1088.0</ele>
        <time>2013-07-29T14:32:52Z</time>
      </trkpt>
      <trkpt lat="43.063483" lon="-2.959950">
        <ele>1088.0</ele>
        <time>2013-07-29T14:32:53Z</time>
      </trkpt>
      <trkpt lat="43.063433" lon="-2.960017">
        <ele>1089.0</ele>
        <time>2013-07-29T14:32:54Z</time>
      </trkpt>
      <trkpt lat="43.063383" lon="-2.960083">
        <ele>1089.0</ele>
        <time>2013-07-29T14:32:55Z</time>
      </trkpt>
      <trkpt lat="43.063350" lon="-2.960167">
        <ele>1090.0</ele>
        <time>2013-07-29T14:32:56Z</time>
      </trkpt>
      <trkpt lat="43.063317" lon="-2.960250">
        <ele>1090.0</ele>
        <time>2013-07-29T14:32:57Z</time>
      </trkpt>
      <trkpt lat="43.063333" lon="-2.960400">
        <ele>1090.0</ele>
        <time>2013-07-29T14:32:59Z</time>
      </trkpt>
      <trkpt lat="43.063350" lon="-2.960467">
        <ele>1090.0</ele>
        <time>2013-07-29T14:33:00Z</time>
      </trkpt>
      <trkpt lat="43.063383" lon="-2.960517">
        <ele>1089.0</ele>
        <time>2013-07-29T14:33:01Z</time>
      </trkpt>
      <trkpt lat="43.063433" lon="-2.960583">
        <ele>1088.0</ele>
        <time>2013-07-29T14:33:02Z</time>
      </trkpt>
      <trkpt lat="43.063483" lon="-2.960667">
        <ele>1087.0</ele>
        <time>2013-07-29T14:33:03Z</time>
      </trkpt>
      <trkpt lat="43.063550" lon="-2.960717">
        <ele>1086.0</ele>
        <time>2013-07-29T14:33:04Z</time>
      </trkpt>
      <trkpt lat="43.063600" lon="-2.960800">
        <ele>1085.0</ele>
        <time>2013-07-29T14:33:05Z</time>
      </trkpt>
      <trkpt lat="43.063650" lon="-2.960883">
        <ele>1084.0</ele>
        <time>2013-07-29T14:33:06Z</time>
      </trkpt>
      <trkpt lat="43.063667" lon="-2.960983">
        <ele>1083.0</ele>
        <time>2013-07-29T14:33:07Z</time>
      </trkpt>
      <trkpt lat="43.063667" lon="-2.961083">
        <ele>1082.0</ele>
        <time>2013-07-29T14:33:08Z</time>
      </trkpt>
      <trkpt lat="43.063667" lon="-2.961183">
        <ele>1081.0</ele>
        <time>2013-07-29T14:33:09Z</time>
      </trkpt>
      <trkpt lat="43.063650" lon="-2.961283">
        <ele>1081.0</ele>
        <time>2013-07-29T14:33:10Z</time>
      </trkpt>
      <trkpt lat="43.063633" lon="-2.961367">
        <ele>1081.0</ele>
        <time>2013-07-29T14:33:11Z</time>
      </trkpt>
      <trkpt lat="43.063617" lon="-2.961450">
        <ele>1081.0</ele>
        <time>2013-07-29T14:33:12Z</time>
      </trkpt>
      <trkpt lat="43.063567" lon="-2.961533">
        <ele>1081.0</ele>
        <time>2013-07-29T14:33:13Z</time>
      </trkpt>
      <trkpt lat="43.063517" lon="-2.961617">
        <ele>1080.0</ele>
        <time>2013-07-29T14:33:14Z</time>
      </trkpt>
      <trkpt lat="43.063450" lon="-2.961700">
        <ele>1080.0</ele>
        <time>2013-07-29T14:33:15Z</time>
      </trkpt>
      <trkpt lat="43.063400" lon="-2.961750">
        <ele>1080.0</ele>
        <time>2013-07-29T14:33:16Z</time>
      </trkpt>
      <trkpt lat="43.063333" lon="-2.961800">
        <ele>1081.0</ele>
        <time>2013-07-29T14:33:17Z</time>
      </trkpt>
      <trkpt lat="43.063283" lon="-2.961850">
        <ele>1082.0</ele>
        <time>2013-07-29T14:33:18Z</time>
      </trkpt>
      <trkpt lat="43.063217" lon="-2.961900">
        <ele>1084.0</ele>
        <time>2013-07-29T14:33:19Z</time>
      </trkpt>
      <trkpt lat="43.063150" lon="-2.961950">
        <ele>1085.0</ele>
        <time>2013-07-29T14:33:20Z</time>
      </trkpt>
      <trkpt lat="43.063083" lon="-2.962000">
        <ele>1086.0</ele>
        <time>2013-07-29T14:33:21Z</time>
      </trkpt>
      <trkpt lat="43.063033" lon="-2.962067">
        <ele>1088.0</ele>
        <time>2013-07-29T14:33:22Z</time>
      </trkpt>
      <trkpt lat="43.063017" lon="-2.962167">
        <ele>1090.0</ele>
        <time>2013-07-29T14:33:23Z</time>
      </trkpt>
      <trkpt lat="43.063017" lon="-2.962283">
        <ele>1091.0</ele>
        <time>2013-07-29T14:33:24Z</time>
      </trkpt>
      <trkpt lat="43.063133" lon="-2.962433">
        <ele>1093.0</ele>
        <time>2013-07-29T14:33:26Z</time>
      </trkpt>
      <trkpt lat="43.063200" lon="-2.962450">
        <ele>1095.0</ele>
        <time>2013-07-29T14:33:27Z</time>
      </trkpt>
      <trkpt lat="43.063283" lon="-2.962433">
        <ele>1096.0</ele>
        <time>2013-07-29T14:33:28Z</time>
      </trkpt>
      <trkpt lat="43.063367" lon="-2.962400">
        <ele>1097.0</ele>
        <time>2013-07-29T14:33:29Z</time>
      </trkpt>
      <trkpt lat="43.063433" lon="-2.962333">
        <ele>1098.0</ele>
        <time>2013-07-29T14:33:30Z</time>
      </trkpt>
      <trkpt lat="43.063500" lon="-2.962250">
        <ele>1100.0</ele>
        <time>2013-07-29T14:33:31Z</time>
      </trkpt>
      <trkpt lat="43.063567" lon="-2.962167">
        <ele>1101.0</ele>
        <time>2013-07-29T14:33:32Z</time>
      </trkpt>
      <trkpt lat="43.063600" lon="-2.962067">
        <ele>1102.0</ele>
        <time>2013-07-29T14:33:33Z</time>
      </trkpt>
      <trkpt lat="43.063633" lon="-2.961950">
        <ele>1100.0</ele>
        <time>2013-07-29T14:33:34Z</time>
      </trkpt>
      <trkpt lat="43.063667" lon="-2.961817">
        <ele>1101.0</ele>
        <time>2013-07-29T14:33:35Z</time>
      </trkpt>
      <trkpt lat="43.063667" lon="-2.961700">
        <ele>1102.0</ele>
        <time>2013-07-29T14:33:36Z</time>
      </trkpt>
      <trkpt lat="43.063650" lon="-2.961583">
        <ele>1103.0</ele>
        <time>2013-07-29T14:33:37Z</time>
      </trkpt>
      <trkpt lat="43.063633" lon="-2.961467">
        <ele>1104.0</ele>
        <time>2013-07-29T14:33:38Z</time>
      </trkpt>
      <trkpt lat="43.063583" lon="-2.961367">
        <ele>1104.0</ele>
        <time>2013-07-29T14:33:39Z</time>
      </trkpt>
      <trkpt lat="43.063533" lon="-2.961283">
        <ele>1105.0</ele>
        <time>2013-07-29T14:33:40Z</time>
      </trkpt>
      <trkpt lat="43.063467" lon="-2.961217">
        <ele>1106.0</ele>
        <time>2013-07-29T14:33:41Z</time>
      </trkpt>
      <trkpt lat="43.063383" lon="-2.961167">
        <ele>1107.0</ele>
        <time>2013-07-29T14:33:42Z</time>
      </trkpt>
      <trkpt lat="43.063317" lon="-2.961133">
        <ele>1108.0</ele>
        <time>2013-07-29T14:33:43Z</time>
      </trkpt>
      <trkpt lat="43.063250" lon="-2.961117">
        <ele>1109.0</ele>
        <time>2013-07-29T14:33:44Z</time>
      </trkpt>
      <trkpt lat="43.063183" lon="-2.961133">
        <ele>1110.0</ele>
        <time>2013-07-29T14:33:45Z</time>
      </trkpt>
      <trkpt lat="43.063100" lon="-2.961183">
        <ele>1112.0</ele>
        <time>2013-07-29T14:33:46Z</time>
      </trkpt>
      <trkpt lat="43.063050" lon="-2.961233">
        <ele>1114.0</ele>
        <time>2013-07-29T14:33:47Z</time>
      </trkpt>
      <trkpt lat="43.063017" lon="-2.961317">
        <ele>1116.0</ele>
        <time>2013-07-29T14:33:48Z</time>
      </trkpt>
      <trkpt lat="43.063000" lon="-2.961400">
        <ele>1117.0</ele>
        <time>2013-07-29T14:33:49Z</time>
      </trkpt>
      <trkpt lat="43.062983" lon="-2.961500">
        <ele>1119.0</ele>
        <time>2013-07-29T14:33:50Z</time>
      </trkpt>
      <trkpt lat="43.063000" lon="-2.961600">
        <ele>1121.0</ele>
        <time>2013-07-29T14:33:51Z</time>
      </trkpt>
      <trkpt lat="43.063017" lon="-2.961667">
        <ele>1122.0</ele>
        <time>2013-07-29T14:33:52Z</time>
      </trkpt>
      <trkpt lat="43.063033" lon="-2.961750">
        <ele>1123.0</ele>
        <time>2013-07-29T14:33:53Z</time>
      </trkpt>
      <trkpt lat="43.063083" lon="-2.961817">
        <ele>1124.0</ele>
        <time>2013-07-29T14:33:54Z</time>
      </trkpt>
      <trkpt lat="43.063150" lon="-2.961850">
        <ele>1125.0</ele>
        <time>2013-07-29T14:33:55Z</time>
      </trkpt>
      <trkpt lat="43.063217" lon="-2.961883">
        <ele>1126.0</ele>
        <time>2013-07-29T14:33:56Z</time>
      </trkpt>
      <trkpt lat="43.063283" lon="-2.961883">
        <ele>1128.0</ele>
        <time>2013-07-29T14:33:57Z</time>
      </trkpt>
      <trkpt lat="43.063350" lon="-2.961867">
        <ele>1130.0</ele>
        <time>2013-07-29T14:33:58Z</time>
      </trkpt>
      <trkpt lat="43.063433" lon="-2.961817">
        <ele>1131.0</ele>
        <time>2013-07-29T14:33:59Z</time>
      </trkpt>
      <trkpt lat="43.063483" lon="-2.961750">
        <ele>1133.0</ele>
        <time>2013-07-29T14:34:00Z</time>
      </trkpt>
      <trkpt lat="43.063583" lon="-2.961583">
        <ele>1136.0</ele>
        <time>2013-07-29T14:34:02Z</time>
      </trkpt>
      <trkpt lat="43.063600" lon="-2.961467">
        <ele>1137.0</ele>
        <time>2013-07-29T14:34:03Z</time>
      </trkpt>
      <trkpt lat="43.063600" lon="-2.961333">
        <ele>1137.0</ele>
        <time>2013-07-29T14:34:04Z</time>
      </trkpt>
      <trkpt lat="43.063600" lon="-2.961200">
        <ele>1137.0</ele>
        <time>2013-07-29T14:34:05Z</time>
      </trkpt>
      <trkpt lat="43.063567" lon="-2.961083">
        <ele>1138.0</ele>
        <time>2013-07-29T14:34:06Z</time>
      </trkpt>
      <trkpt lat="43.063533" lon="-2.960983">
        <ele>1139.0</ele>
        <time>2013-07-29T14:34:07Z</time>
      </trkpt>
      <trkpt lat="43.063467" lon="-2.960883">
        <ele>1140.0</ele>
        <time>2013-07-29T14:34:08Z</time>
      </trkpt>
      <trkpt lat="43.063400" lon="-2.960833">
        <ele>1140.0</ele>
        <time>2013-07-29T14:34:09Z</time>
      </trkpt>
      <trkpt lat="43.063333" lon="-2.960783">
        <ele>1141.0</ele>
        <time>2013-07-29T14:34:10Z</time>
      </trkpt>
      <trkpt lat="43.063250" lon="-2.960783">
        <ele>1141.0</ele>
        <time>2013-07-29T14:34:11Z</time>
      </trkpt>
      <trkpt lat="43.063167" lon="-2.960800">
        <ele>1141.0</ele>
        <time>2013-07-29T14:34:12Z</time>
      </trkpt>
      <trkpt lat="43.063100" lon="-2.960850">
        <ele>1143.0</ele>
        <time>2013-07-29T14:34:13Z</time>
      </trkpt>
      <trkpt lat="43.063067" lon="-2.960917">
        <ele>1145.0</ele>
        <time>2013-07-29T14:34:14Z</time>
      </trkpt>
      <trkpt lat="43.063050" lon="-2.961000">
        <ele>1147.0</ele>
        <time>2013-07-29T14:34:15Z</time>
      </trkpt>
      <trkpt lat="43.063033" lon="-2.961083">
        <ele>1148.0</ele>
        <time>2013-07-29T14:34:16Z</time>
      </trkpt>
      <trkpt lat="43.063050" lon="-2.961167">
        <ele>1148.0</ele>
        <time>2013-07-29T14:34:17Z</time>
      </trkpt>
      <trkpt lat="43.063067" lon="-2.961267">
        <ele>1149.0</ele>
        <time>2013-07-29T14:34:18Z</time>
      </trkpt>
      <trkpt lat="43.063083" lon="-2.961333">
        <ele>1150.0</ele>
        <time>2013-07-29T14:34:19Z</time>
      </trkpt>
      <trkpt lat="43.063133" lon="-2.961383">
        <ele>1152.0</ele>
        <time>2013-07-29T14:34:20Z</time>
      </trkpt>
      <trkpt lat="43.063200" lon="-2.961433">
        <ele>1152.0</ele>
        <time>2013-07-29T14:34:21Z</time>
      </trkpt>
      <trkpt lat="43.063267" lon="-2.961450">
        <ele>1153.0</ele>
        <time>2013-07-29T14:34:22Z</time>
      </trkpt>
      <trkpt lat="43.063333" lon="-2.961450">
        <ele>1154.0</ele>
        <time>2013-07-29T14:34:23Z</time>
      </trkpt>
      <trkpt lat="43.063383" lon="-2.961433">
        <ele>1155.0</ele>
        <time>2013-07-29T14:34:24Z</time>
      </trkpt>
      <trkpt lat="43.063450" lon="-2.961383">
        <ele>1156.0</ele>
        <time>2013-07-29T14:34:25Z</time>
      </trkpt>
      <trkpt lat="43.063483" lon="-2.961300">
        <ele>1157.0</ele>
        <time>2013-07-29T14:34:26Z</time>
      </trkpt>
      <trkpt lat="43.063517" lon="-2.961217">
        <ele>1157.0</ele>
        <time>2013-07-29T14:34:27Z</time>
      </trkpt>
      <trkpt lat="43.063533" lon="-2.961100">
        <ele>1158.0</ele>
        <time>2013-07-29T14:34:28Z</time>
      </trkpt>
      <trkpt lat="43.063550" lon="-2.960983">
        <ele>1158.0</ele>
        <time>2013-07-29T14:34:29Z</time>
      </trkpt>
      <trkpt lat="43.063567" lon="-2.960850">
        <ele>1158.0</ele>
        <time>2013-07-29T14:34:30Z</time>
      </trkpt>
      <trkpt lat="43.063550" lon="-2.960717">
        <ele>1158.0</ele>
        <time>2013-07-29T14:34:31Z</time>
      </trkpt>
      <trkpt lat="43.063517" lon="-2.960600">
        <ele>1158.0</ele>
        <time>2013-07-29T14:34:32Z</time>
      </trkpt>
      <trkpt lat="43.063483" lon="-2.960500">
        <ele>1159.0</ele>
        <time>2013-07-29T14:34:33Z</time>
      </trkpt>
      <trkpt lat="43.063433" lon="-2.960417">
        <ele>1160.0</ele>
        <time>2013-07-29T14:34:34Z</time>
      </trkpt>
      <trkpt lat="43.063367" lon="-2.960350">
        <ele>1160.0</ele>
        <time>2013-07-29T14:34:35Z</time>
      </trkpt>
      <trkpt lat="43.063300" lon="-2.960317">
        <ele>1160.0</ele>
        <time>2013-07-29T14:34:36Z</time>
      </trkpt>
      <trkpt lat="43.063217" lon="-2.960317">
        <ele>1160.0</ele>
        <time>2013-07-29T14:34:37Z</time>
      </trkpt>
      <trkpt lat="43.063150" lon="-2.960333">
        <ele>1161.0</ele>
        <time>2013-07-29T14:34:38Z</time>
      </trkpt>
      <trkpt lat="43.063083" lon="-2.960367">
        <ele>1163.0</ele>
        <time>2013-07-29T14:34:39Z</time>
      </trkpt>
      <trkpt lat="43.063033" lon="-2.960417">
        <ele>1164.0</ele>
        <time>2013-07-29T14:34:40Z</time>
      </trkpt>
      <trkpt lat="43.062967" lon="-2.960467">
        <ele>1164.0</ele>
        <time>2013-07-29T14:34:41Z</time>
      </trkpt>
      <trkpt lat="43.062933" lon="-2.960517">
        <ele>1165.0</ele>
        <time>2013-07-29T14:34:42Z</time>
      </trkpt>
      <trkpt lat="43.062900" lon="-2.960583">
        <ele>1166.0</ele>
        <time>2013-07-29T14:34:43Z</time>
      </trkpt>
      <trkpt lat="43.062867" lon="-2.960667">
        <ele>1166.0</ele>
        <time>2013-07-29T14:34:44Z</time>
      </trkpt>
      <trkpt lat="43.062850" lon="-2.960767">
        <ele>1166.0</ele>
        <time>2013-07-29T14:34:45Z</time>
      </trkpt>
      <trkpt lat="43.062867" lon="-2.960867">
        <ele>1167.0</ele>
        <time>2013-07-29T14:34:46Z</time>
      </trkpt>
      <trkpt lat="43.062883" lon="-2.960950">
        <ele>1169.0</ele>
        <time>2013-07-29T14:34:47Z</time>
      </trkpt>
      <trkpt lat="43.062900" lon="-2.961017">
        <ele>1171.0</ele>
        <time>2013-07-29T14:34:48Z</time>
      </trkpt>
      <trkpt lat="43.062933" lon="-2.961083">
        <ele>1172.0</ele>
        <time>2013-07-29T14:34:49Z</time>
      </trkpt>
      <trkpt lat="43.062967" lon="-2.961133">
        <ele>1173.0</ele>
        <time>2013-07-29T14:34:50Z</time>
      </trkpt>
      <trkpt lat="43.063017" lon="-2.961167">
        <ele>1174.0</ele>
        <time>2013-07-29T14:34:51Z</time>
      </trkpt>
      <trkpt lat="43.063067" lon="-2.961217">
        <ele>1174.0</ele>
        <time>2013-07-29T14:34:52Z</time>
      </trkpt>
      <trkpt lat="43.063133" lon="-2.961233">
        <ele>1174.0</ele>
        <time>2013-07-29T14:34:53Z</time>
      </trkpt>
      <trkpt lat="43.063200" lon="-2.961233">
        <ele>1174.0</ele>
        <time>2013-07-29T14:34:54Z</time>
      </trkpt>
      <trkpt lat="43.063267" lon="-2.961217">
        <ele>1174.0</ele>
        <time>2013-07-29T14:34:55Z</time>
      </trkpt>
      <trkpt lat="43.063350" lon="-2.961200">
        <ele>1174.0</ele>
        <time>2013-07-29T14:34:56Z</time>
      </trkpt>
      <trkpt lat="43.063400" lon="-2.961150">
        <ele>1174.0</ele>
        <time>2013-07-29T14:34:57Z</time>
      </trkpt>
      <trkpt lat="43.063450" lon="-2.961083">
        <ele>1173.0</ele>
        <time>2013-07-29T14:34:58Z</time>
      </trkpt>
      <trkpt lat="43.063500" lon="-2.961017">
        <ele>1173.0</ele>
        <time>2013-07-29T14:34:59Z</time>
      </trkpt>
      <trkpt lat="43.063533" lon="-2.960917">
        <ele>1173.0</ele>
        <time>2013-07-29T14:35:00Z</time>
      </trkpt>
      <trkpt lat="43.063550" lon="-2.960817">
        <ele>1173.0</ele>
        <time>2013-07-29T14:35:01Z</time>
      </trkpt>
      <trkpt lat="43.063567" lon="-2.960700">
        <ele>1173.0</ele>
        <time>2013-07-29T14:35:02Z</time>
      </trkpt>
      <trkpt lat="43.063567" lon="-2.960583">
        <ele>1173.0</ele>
        <time>2013-07-29T14:35:03Z</time>
      </trkpt>
      <trkpt lat="43.063567" lon="-2.960467">
        <ele>1174.0</ele>
        <time>2013-07-29T14:35:04Z</time>
      </trkpt>
      <trkpt lat="43.063533" lon="-2.960350">
        <ele>1174.0</ele>
        <time>2013-07-29T14:35:05Z</time>
      </trkpt>
      <trkpt lat="43.063500" lon="-2.960250">
        <ele>1175.0</ele>
        <time>2013-07-29T14:35:06Z</time>
      </trkpt>
      <trkpt lat="43.063467" lon="-2.960150">
        <ele>1175.0</ele>
        <time>2013-07-29T14:35:07Z</time>
      </trkpt>
      <trkpt lat="43.063400" lon="-2.960067">
        <ele>1175.0</ele>
        <time>2013-07-29T14:35:08Z</time>
      </trkpt>
      <trkpt lat="43.063333" lon="-2.959983">
        <ele>1174.0</ele>
        <time>2013-07-29T14:35:09Z</time>
      </trkpt>
      <trkpt lat="43.063267" lon="-2.959933">
        <ele>1174.0</ele>
        <time>2013-07-29T14:35:10Z</time>
      </trkpt>
      <trkpt lat="43.063183" lon="-2.959883">
        <ele>1175.0</ele>
        <time>2013-07-29T14:35:11Z</time>
      </trkpt>
      <trkpt lat="43.063117" lon="-2.959833">
        <ele>1175.0</ele>
        <time>2013-07-29T14:35:12Z</time>
      </trkpt>
      <trkpt lat="43.063033" lon="-2.959800">
        <ele>1175.0</ele>
        <time>2013-07-29T14:35:13Z</time>
      </trkpt>
      <trkpt lat="43.062950" lon="-2.959767">
        <ele>1175.0</ele>
        <time>2013-07-29T14:35:14Z</time>
      </trkpt>
      <trkpt lat="43.062867" lon="-2.959733">
        <ele>1176.0</ele>
        <time>2013-07-29T14:35:15Z</time>
      </trkpt>
      <trkpt lat="43.062783" lon="-2.959700">
        <ele>1176.0</ele>
        <time>2013-07-29T14:35:16Z</time>
      </trkpt>
      <trkpt lat="43.062700" lon="-2.959700">
        <ele>1176.0</ele>
        <time>2013-07-29T14:35:17Z</time>
      </trkpt>
      <trkpt lat="43.062633" lon="-2.959700">
        <ele>1177.0</ele>
        <time>2013-07-29T14:35:18Z</time>
      </trkpt>
      <trkpt lat="43.062567" lon="-2.959717">
        <ele>1177.0</ele>
        <time>2013-07-29T14:35:19Z</time>
      </trkpt>
      <trkpt lat="43.062500" lon="-2.959767">
        <ele>1177.0</ele>
        <time>2013-07-29T14:35:20Z</time>
      </trkpt>
      <trkpt lat="43.062450" lon="-2.959850">
        <ele>1176.0</ele>
        <time>2013-07-29T14:35:21Z</time>
      </trkpt>
      <trkpt lat="43.062417" lon="-2.959950">
        <ele>1175.0</ele>
        <time>2013-07-29T14:35:22Z</time>
      </trkpt>
      <trkpt lat="43.062417" lon="-2.960050">
        <ele>1175.0</ele>
        <time>2013-07-29T14:35:23Z</time>
      </trkpt>
      <trkpt lat="43.062433" lon="-2.960133">
        <ele>1176.0</ele>
        <time>2013-07-29T14:35:24Z</time>
      </trkpt>
      <trkpt lat="43.062467" lon="-2.960217">
        <ele>1177.0</ele>
        <time>2013-07-29T14:35:25Z</time>
      </trkpt>
      <trkpt lat="43.062500" lon="-2.960283">
        <ele>1177.0</ele>
        <time>2013-07-29T14:35:26Z</time>
      </trkpt>
      <trkpt lat="43.062550" lon="-2.960333">
        <ele>1177.0</ele>
        <time>2013-07-29T14:35:27Z</time>
      </trkpt>
      <trkpt lat="43.062617" lon="-2.960367">
        <ele>1178.0</ele>
        <time>2013-07-29T14:35:28Z</time>
      </trkpt>
      <trkpt lat="43.062683" lon="-2.960383">
        <ele>1178.0</ele>
        <time>2013-07-29T14:35:29Z</time>
      </trkpt>
      <trkpt lat="43.062767" lon="-2.960383">
        <ele>1178.0</ele>
        <time>2013-07-29T14:35:30Z</time>
      </trkpt>
      <trkpt lat="43.062833" lon="-2.960350">
        <ele>1180.0</ele>
        <time>2013-07-29T14:35:31Z</time>
      </trkpt>
      <trkpt lat="43.062900" lon="-2.960300">
        <ele>1181.0</ele>
        <time>2013-07-29T14:35:32Z</time>
      </trkpt>
      <trkpt lat="43.062933" lon="-2.960233">
        <ele>1182.0</ele>
        <time>2013-07-29T14:35:33Z</time>
      </trkpt>
      <trkpt lat="43.062983" lon="-2.960150">
        <ele>1183.0</ele>
        <time>2013-07-29T14:35:34Z</time>
      </trkpt>
      <trkpt lat="43.063033" lon="-2.960067">
        <ele>1183.0</ele>
        <time>2013-07-29T14:35:35Z</time>
      </trkpt>
      <trkpt lat="43.063067" lon="-2.959967">
        <ele>1184.0</ele>
        <time>2013-07-29T14:35:36Z</time>
      </trkpt>
      <trkpt lat="43.063083" lon="-2.959867">
        <ele>1184.0</ele>
        <time>2013-07-29T14:35:37Z</time>
      </trkpt>
      <trkpt lat="43.063083" lon="-2.959750">
        <ele>1185.0</ele>
        <time>2013-07-29T14:35:38Z</time>
      </trkpt>
      <trkpt lat="43.063067" lon="-2.959650">
        <ele>1186.0</ele>
        <time>2013-07-29T14:35:39Z</time>
      </trkpt>
      <trkpt lat="43.063050" lon="-2.959550">
        <ele>1186.0</ele>
        <time>2013-07-29T14:35:40Z</time>
      </trkpt>
      <trkpt lat="43.063000" lon="-2.959450">
        <ele>1187.0</ele>
        <time>2013-07-29T14:35:41Z</time>
      </trkpt>
      <trkpt lat="43.062950" lon="-2.959350">
        <ele>1187.0</ele>
        <time>2013-07-29T14:35:42Z</time>
      </trkpt>
      <trkpt lat="43.062883" lon="-2.959267">
        <ele>1187.0</ele>
        <time>2013-07-29T14:35:43Z</time>
      </trkpt>
      <trkpt lat="43.062817" lon="-2.959183">
        <ele>1188.0</ele>
        <time>2013-07-29T14:35:44Z</time>
      </trkpt>
      <trkpt lat="43.062750" lon="-2.959133">
        <ele>1188.0</ele>
        <time>2013-07-29T14:35:45Z</time>
      </trkpt>
      <trkpt lat="43.062667" lon="-2.959083">
        <ele>1188.0</ele>
        <time>2013-07-29T14:35:46Z</time>
      </trkpt>
      <trkpt lat="43.062583" lon="-2.959050">
        <ele>1188.0</ele>
        <time>2013-07-29T14:35:47Z</time>
      </trkpt>
      <trkpt lat="43.062500" lon="-2.959017">
        <ele>1188.0</ele>
        <time>2013-07-29T14:35:48Z</time>
      </trkpt>
      <trkpt lat="43.062417" lon="-2.959017">
        <ele>1188.0</ele>
        <time>2013-07-29T14:35:49Z</time>
      </trkpt>
      <trkpt lat="43.062350" lon="-2.959017">
        <ele>1189.0</ele>
        <time>2013-07-29T14:35:50Z</time>
      </trkpt>
      <trkpt lat="43.062283" lon="-2.959050">
        <ele>1189.0</ele>
        <time>2013-07-29T14:35:51Z</time>
      </trkpt>
      <trkpt lat="43.062200" lon="-2.959100">
        <ele>1188.0</ele>
        <time>2013-07-29T14:35:52Z</time>
      </trkpt>
      <trkpt lat="43.062150" lon="-2.959183">
        <ele>1186.0</ele>
        <time>2013-07-29T14:35:53Z</time>
      </trkpt>
      <trkpt lat="43.062133" lon="-2.959267">
        <ele>1186.0</ele>
        <time>2013-07-29T14:35:54Z</time>
      </trkpt>
      <trkpt lat="43.062117" lon="-2.959367">
        <ele>1185.0</ele>
        <time>2013-07-29T14:35:55Z</time>
      </trkpt>
      <trkpt lat="43.062117" lon="-2.959467">
        <ele>1185.0</ele>
        <time>2013-07-29T14:35:56Z</time>
      </trkpt>
      <trkpt lat="43.062133" lon="-2.959567">
        <ele>1184.0</ele>
        <time>2013-07-29T14:35:57Z</time>
      </trkpt>
      <trkpt lat="43.062150" lon="-2.959667">
        <ele>1184.0</ele>
        <time>2013-07-29T14:35:58Z</time>
      </trkpt>
      <trkpt lat="43.062183" lon="-2.959750">
        <ele>1183.0</ele>
        <time>2013-07-29T14:35:59Z</time>
      </trkpt>
      <trkpt lat="43.062250" lon="-2.959817">
        <ele>1182.0</ele>
        <time>2013-07-29T14:36:00Z</time>
      </trkpt>
      <trkpt lat="43.062317" lon="-2.959867">
        <ele>1182.0</ele>
        <time>2013-07-29T14:36:01Z</time>
      </trkpt>
      <trkpt lat="43.062400" lon="-2.959883">
        <ele>1182.0</ele>
        <time>2013-07-29T14:36:02Z</time>
      </trkpt>
      <trkpt lat="43.062483" lon="-2.959883">
        <ele>1182.0</ele>
        <time>2013-07-29T14:36:03Z</time>
      </trkpt>
      <trkpt lat="43.062550" lon="-2.959883">
        <ele>1183.0</ele>
        <time>2013-07-29T14:36:04Z</time>
      </trkpt>
      <trkpt lat="43.062617" lon="-2.959850">
        <ele>1183.0</ele>
        <time>2013-07-29T14:36:05Z</time>
      </trkpt>
      <trkpt lat="43.062683" lon="-2.959817">
        <ele>1183.0</ele>
        <time>2013-07-29T14:36:06Z</time>
      </trkpt>
      <trkpt lat="43.062750" lon="-2.959767">
        <ele>1184.0</ele>
        <time>2013-07-29T14:36:07Z</time>
      </trkpt>
      <trkpt lat="43.062800" lon="-2.959683">
        <ele>1185.0</ele>
        <time>2013-07-29T14:36:08Z</time>
      </trkpt>
      <trkpt lat="43.062817" lon="-2.959617">
        <ele>1187.0</ele>
        <time>2013-07-29T14:36:09Z</time>
      </trkpt>
      <trkpt lat="43.062833" lon="-2.959533">
        <ele>1187.0</ele>
        <time>2013-07-29T14:36:10Z</time>
      </trkpt>
      <trkpt lat="43.062867" lon="-2.959433">
        <ele>1188.0</ele>
        <time>2013-07-29T14:36:11Z</time>
      </trkpt>
      <trkpt lat="43.062883" lon="-2.959333">
        <ele>1188.0</ele>
        <time>2013-07-29T14:36:12Z</time>
      </trkpt>
      <trkpt lat="43.062883" lon="-2.959217">
        <ele>1188.0</ele>
        <time>2013-07-29T14:36:13Z</time>
      </trkpt>
      <trkpt lat="43.062867" lon="-2.959083">
        <ele>1188.0</ele>
        <time>2013-07-29T14:36:14Z</time>
      </trkpt>
      <trkpt lat="43.062850" lon="-2.958967">
        <ele>1188.0</ele>
        <time>2013-07-29T14:36:15Z</time>
      </trkpt>
      <trkpt lat="43.062800" lon="-2.958850">
        <ele>1188.0</ele>
        <time>2013-07-29T14:36:16Z</time>
      </trkpt>
      <trkpt lat="43.062750" lon="-2.958750">
        <ele>1188.0</ele>
        <time>2013-07-29T14:36:17Z</time>
      </trkpt>
      <trkpt lat="43.062700" lon="-2.958650">
        <ele>1188.0</ele>
        <time>2013-07-29T14:36:18Z</time>
      </trkpt>
      <trkpt lat="43.062633" lon="-2.958550">
        <ele>1187.0</ele>
        <time>2013-07-29T14:36:19Z</time>
      </trkpt>
      <trkpt lat="43.062550" lon="-2.958450">
        <ele>1186.0</ele>
        <time>2013-07-29T14:36:20Z</time>
      </trkpt>
      <trkpt lat="43.062467" lon="-2.958383">
        <ele>1186.0</ele>
        <time>2013-07-29T14:36:21Z</time>
      </trkpt>
      <trkpt lat="43.062383" lon="-2.958317">
        <ele>1186.0</ele>
        <time>2013-07-29T14:36:22Z</time>
      </trkpt>
      <trkpt lat="43.062300" lon="-2.958267">
        <ele>1185.0</ele>
        <time>2013-07-29T14:36:23Z</time>
      </trkpt>
      <trkpt lat="43.062233" lon="-2.958217">
        <ele>1185.0</ele>
        <time>2013-07-29T14:36:24Z</time>
      </trkpt>
      <trkpt lat="43.062150" lon="-2.958183">
        <ele>1184.0</ele>
        <time>2013-07-29T14:36:25Z</time>
      </trkpt>
      <trkpt lat="43.062050" lon="-2.958150">
        <ele>1183.0</ele>
        <time>2013-07-29T14:36:26Z</time>
      </trkpt>
      <trkpt lat="43.061967" lon="-2.958133">
        <ele>1182.0</ele>
        <time>2013-07-29T14:36:27Z</time>
      </trkpt>
      <trkpt lat="43.061867" lon="-2.958100">
        <ele>1181.0</ele>
        <time>2013-07-29T14:36:28Z</time>
      </trkpt>
      <trkpt lat="43.061783" lon="-2.958083">
        <ele>1180.0</ele>
        <time>2013-07-29T14:36:29Z</time>
      </trkpt>
      <trkpt lat="43.061700" lon="-2.958067">
        <ele>1179.0</ele>
        <time>2013-07-29T14:36:30Z</time>
      </trkpt>
      <trkpt lat="43.061617" lon="-2.958050">
        <ele>1178.0</ele>
        <time>2013-07-29T14:36:31Z</time>
      </trkpt>
      <trkpt lat="43.061517" lon="-2.958033">
        <ele>1176.0</ele>
        <time>2013-07-29T14:36:32Z</time>
      </trkpt>
      <trkpt lat="43.061417" lon="-2.958033">
        <ele>1174.0</ele>
        <time>2013-07-29T14:36:33Z</time>
      </trkpt>
      <trkpt lat="43.061317" lon="-2.958050">
        <ele>1173.0</ele>
        <time>2013-07-29T14:36:34Z</time>
      </trkpt>
      <trkpt lat="43.061233" lon="-2.958067">
        <ele>1172.0</ele>
        <time>2013-07-29T14:36:35Z</time>
      </trkpt>
      <trkpt lat="43.061133" lon="-2.958083">
        <ele>1171.0</ele>
        <time>2013-07-29T14:36:36Z</time>
      </trkpt>
      <trkpt lat="43.061033" lon="-2.958117">
        <ele>1169.0</ele>
        <time>2013-07-29T14:36:37Z</time>
      </trkpt>
      <trkpt lat="43.060950" lon="-2.958150">
        <ele>1166.0</ele>
        <time>2013-07-29T14:36:38Z</time>
      </trkpt>
      <trkpt lat="43.060850" lon="-2.958183">
        <ele>1164.0</ele>
        <time>2013-07-29T14:36:39Z</time>
      </trkpt>
      <trkpt lat="43.060767" lon="-2.958200">
        <ele>1162.0</ele>
        <time>2013-07-29T14:36:40Z</time>
      </trkpt>
      <trkpt lat="43.060667" lon="-2.958217">
        <ele>1161.0</ele>
        <time>2013-07-29T14:36:41Z</time>
      </trkpt>
      <trkpt lat="43.060567" lon="-2.958250">
        <ele>1160.0</ele>
        <time>2013-07-29T14:36:42Z</time>
      </trkpt>
      <trkpt lat="43.060483" lon="-2.958267">
        <ele>1159.0</ele>
        <time>2013-07-29T14:36:43Z</time>
      </trkpt>
      <trkpt lat="43.060383" lon="-2.958300">
        <ele>1158.0</ele>
        <time>2013-07-29T14:36:44Z</time>
      </trkpt>
      <trkpt lat="43.060300" lon="-2.958317">
        <ele>1157.0</ele>
        <time>2013-07-29T14:36:45Z</time>
      </trkpt>
      <trkpt lat="43.060217" lon="-2.958333">
        <ele>1157.0</ele>
        <time>2013-07-29T14:36:46Z</time>
      </trkpt>
      <trkpt lat="43.060133" lon="-2.958367">
        <ele>1156.0</ele>
        <time>2013-07-29T14:36:47Z</time>
      </trkpt>
      <trkpt lat="43.060033" lon="-2.958400">
        <ele>1154.0</ele>
        <time>2013-07-29T14:36:48Z</time>
      </trkpt>
      <trkpt lat="43.059950" lon="-2.958433">
        <ele>1153.0</ele>
        <time>2013-07-29T14:36:49Z</time>
      </trkpt>
      <trkpt lat="43.059850" lon="-2.958467">
        <ele>1152.0</ele>
        <time>2013-07-29T14:36:50Z</time>
      </trkpt>
      <trkpt lat="43.059750" lon="-2.958483">
        <ele>1152.0</ele>
        <time>2013-07-29T14:36:51Z</time>
      </trkpt>
      <trkpt lat="43.059650" lon="-2.958517">
        <ele>1152.0</ele>
        <time>2013-07-29T14:36:52Z</time>
      </trkpt>
      <trkpt lat="43.059567" lon="-2.958550">
        <ele>1152.0</ele>
        <time>2013-07-29T14:36:53Z</time>
      </trkpt>
      <trkpt lat="43.059483" lon="-2.958567">
        <ele>1152.0</ele>
        <time>2013-07-29T14:36:54Z</time>
      </trkpt>
      <trkpt lat="43.059383" lon="-2.958583">
        <ele>1151.0</ele>
        <time>2013-07-29T14:36:55Z</time>
      </trkpt>
      <trkpt lat="43.059283" lon="-2.958617">
        <ele>1149.0</ele>
        <time>2013-07-29T14:36:56Z</time>
      </trkpt>
      <trkpt lat="43.059183" lon="-2.958650">
        <ele>1148.0</ele>
        <time>2013-07-29T14:36:57Z</time>
      </trkpt>
      <trkpt lat="43.059100" lon="-2.958700">
        <ele>1148.0</ele>
        <time>2013-07-29T14:36:58Z</time>
      </trkpt>
      <trkpt lat="43.059000" lon="-2.958750">
        <ele>1148.0</ele>
        <time>2013-07-29T14:36:59Z</time>
      </trkpt>
      <trkpt lat="43.058933" lon="-2.958783">
        <ele>1147.0</ele>
        <time>2013-07-29T14:37:00Z</time>
      </trkpt>
      <trkpt lat="43.058850" lon="-2.958833">
        <ele>1147.0</ele>
        <time>2013-07-29T14:37:01Z</time>
      </trkpt>
      <trkpt lat="43.058783" lon="-2.958900">
        <ele>1145.0</ele>
        <time>2013-07-29T14:37:02Z</time>
      </trkpt>
      <trkpt lat="43.058700" lon="-2.958950">
        <ele>1142.0</ele>
        <time>2013-07-29T14:37:03Z</time>
      </trkpt>
      <trkpt lat="43.058583" lon="-2.959017">
        <ele>1140.0</ele>
        <time>2013-07-29T14:37:04Z</time>
      </trkpt>
      <trkpt lat="43.058450" lon="-2.959050">
        <ele>1137.0</ele>
        <time>2013-07-29T14:37:05Z</time>
      </trkpt>
      <trkpt lat="43.058350" lon="-2.959083">
        <ele>1137.0</ele>
        <time>2013-07-29T14:37:06Z</time>
      </trkpt>
      <trkpt lat="43.058267" lon="-2.959117">
        <ele>1139.0</ele>
        <time>2013-07-29T14:37:07Z</time>
      </trkpt>
      <trkpt lat="43.058183" lon="-2.959133">
        <ele>1140.0</ele>
        <time>2013-07-29T14:37:08Z</time>
      </trkpt>
      <trkpt lat="43.058100" lon="-2.959167">
        <ele>1140.0</ele>
        <time>2013-07-29T14:37:09Z</time>
      </trkpt>
      <trkpt lat="43.058017" lon="-2.959217">
        <ele>1139.0</ele>
        <time>2013-07-29T14:37:10Z</time>
      </trkpt>
      <trkpt lat="43.057917" lon="-2.959250">
        <ele>1136.0</ele>
        <time>2013-07-29T14:37:11Z</time>
      </trkpt>
      <trkpt lat="43.057817" lon="-2.959300">
        <ele>1134.0</ele>
        <time>2013-07-29T14:37:12Z</time>
      </trkpt>
      <trkpt lat="43.057717" lon="-2.959350">
        <ele>1133.0</ele>
        <time>2013-07-29T14:37:13Z</time>
      </trkpt>
      <trkpt lat="43.057633" lon="-2.959383">
        <ele>1132.0</ele>
        <time>2013-07-29T14:37:14Z</time>
      </trkpt>
      <trkpt lat="43.057533" lon="-2.959433">
        <ele>1132.0</ele>
        <time>2013-07-29T14:37:15Z</time>
      </trkpt>
      <trkpt lat="43.057450" lon="-2.959467">
        <ele>1132.0</ele>
        <time>2013-07-29T14:37:16Z</time>
      </trkpt>
      <trkpt lat="43.057367" lon="-2.959533">
        <ele>1132.0</ele>
        <time>2013-07-29T14:37:17Z</time>
      </trkpt>
      <trkpt lat="43.057283" lon="-2.959600">
        <ele>1131.0</ele>
        <time>2013-07-29T14:37:18Z</time>
      </trkpt>
      <trkpt lat="43.057200" lon="-2.959667">
        <ele>1129.0</ele>
        <time>2013-07-29T14:37:19Z</time>
      </trkpt>
      <trkpt lat="43.057100" lon="-2.959733">
        <ele>1128.0</ele>
        <time>2013-07-29T14:37:20Z</time>
      </trkpt>
      <trkpt lat="43.057017" lon="-2.959800">
        <ele>1127.0</ele>
        <time>2013-07-29T14:37:21Z</time>
      </trkpt>
      <trkpt lat="43.056933" lon="-2.959850">
        <ele>1127.0</ele>
        <time>2013-07-29T14:37:22Z</time>
      </trkpt>
      <trkpt lat="43.056867" lon="-2.959900">
        <ele>1125.0</ele>
        <time>2013-07-29T14:37:23Z</time>
      </trkpt>
      <trkpt lat="43.056767" lon="-2.959950">
        <ele>1123.0</ele>
        <time>2013-07-29T14:37:24Z</time>
      </trkpt>
      <trkpt lat="43.056667" lon="-2.960017">
        <ele>1119.0</ele>
        <time>2013-07-29T14:37:25Z</time>
      </trkpt>
      <trkpt lat="43.056567" lon="-2.960067">
        <ele>1116.0</ele>
        <time>2013-07-29T14:37:26Z</time>
      </trkpt>
      <trkpt lat="43.056467" lon="-2.960117">
        <ele>1115.0</ele>
        <time>2013-07-29T14:37:27Z</time>
      </trkpt>
      <trkpt lat="43.056383" lon="-2.960150">
        <ele>1115.0</ele>
        <time>2013-07-29T14:37:28Z</time>
      </trkpt>
      <trkpt lat="43.056317" lon="-2.960200">
        <ele>1115.0</ele>
        <time>2013-07-29T14:37:29Z</time>
      </trkpt>
      <trkpt lat="43.056233" lon="-2.960233">
        <ele>1113.0</ele>
        <time>2013-07-29T14:37:30Z</time>
      </trkpt>
      <trkpt lat="43.056133" lon="-2.960267">
        <ele>1111.0</ele>
        <time>2013-07-29T14:37:31Z</time>
      </trkpt>
      <trkpt lat="43.056017" lon="-2.960317">
        <ele>1109.0</ele>
        <time>2013-07-29T14:37:32Z</time>
      </trkpt>
      <trkpt lat="43.055917" lon="-2.960367">
        <ele>1109.0</ele>
        <time>2013-07-29T14:37:33Z</time>
      </trkpt>
      <trkpt lat="43.055817" lon="-2.960417">
        <ele>1109.0</ele>
        <time>2013-07-29T14:37:34Z</time>
      </trkpt>
      <trkpt lat="43.055717" lon="-2.960433">
        <ele>1110.0</ele>
        <time>2013-07-29T14:37:35Z</time>
      </trkpt>
      <trkpt lat="43.055650" lon="-2.960467">
        <ele>1111.0</ele>
        <time>2013-07-29T14:37:36Z</time>
      </trkpt>
      <trkpt lat="43.055567" lon="-2.960500">
        <ele>1111.0</ele>
        <time>2013-07-29T14:37:37Z</time>
      </trkpt>
      <trkpt lat="43.055467" lon="-2.960533">
        <ele>1110.0</ele>
        <time>2013-07-29T14:37:38Z</time>
      </trkpt>
      <trkpt lat="43.055350" lon="-2.960583">
        <ele>1109.0</ele>
        <time>2013-07-29T14:37:39Z</time>
      </trkpt>
      <trkpt lat="43.055217" lon="-2.960633">
        <ele>1107.0</ele>
        <time>2013-07-29T14:37:40Z</time>
      </trkpt>
      <trkpt lat="43.055100" lon="-2.960667">
        <ele>1108.0</ele>
        <time>2013-07-29T14:37:41Z</time>
      </trkpt>
      <trkpt lat="43.055000" lon="-2.960700">
        <ele>1109.0</ele>
        <time>2013-07-29T14:37:42Z</time>
      </trkpt>
      <trkpt lat="43.054917" lon="-2.960733">
        <ele>1112.0</ele>
        <time>2013-07-29T14:37:43Z</time>
      </trkpt>
      <trkpt lat="43.054833" lon="-2.960767">
        <ele>1112.0</ele>
        <time>2013-07-29T14:37:44Z</time>
      </trkpt>
      <trkpt lat="43.054733" lon="-2.960800">
        <ele>1112.0</ele>
        <time>2013-07-29T14:37:45Z</time>
      </trkpt>
      <trkpt lat="43.054617" lon="-2.960850">
        <ele>1110.0</ele>
        <time>2013-07-29T14:37:46Z</time>
      </trkpt>
      <trkpt lat="43.054500" lon="-2.960900">
        <ele>1109.0</ele>
        <time>2013-07-29T14:37:47Z</time>
      </trkpt>
      <trkpt lat="43.054367" lon="-2.960950">
        <ele>1109.0</ele>
        <time>2013-07-29T14:37:48Z</time>
      </trkpt>
      <trkpt lat="43.054267" lon="-2.960983">
        <ele>1111.0</ele>
        <time>2013-07-29T14:37:49Z</time>
      </trkpt>
      <trkpt lat="43.054167" lon="-2.961033">
        <ele>1113.0</ele>
        <time>2013-07-29T14:37:50Z</time>
      </trkpt>
      <trkpt lat="43.054083" lon="-2.961067">
        <ele>1114.0</ele>
        <time>2013-07-29T14:37:51Z</time>
      </trkpt>
      <trkpt lat="43.053967" lon="-2.961117">
        <ele>1113.0</ele>
        <time>2013-07-29T14:37:52Z</time>
      </trkpt>
      <trkpt lat="43.053850" lon="-2.961167">
        <ele>1112.0</ele>
        <time>2013-07-29T14:37:53Z</time>
      </trkpt>
      <trkpt lat="43.053733" lon="-2.961217">
        <ele>1111.0</ele>
        <time>2013-07-29T14:37:54Z</time>
      </trkpt>
      <trkpt lat="43.053617" lon="-2.961233">
        <ele>1111.0</ele>
        <time>2013-07-29T14:37:55Z</time>
      </trkpt>
      <trkpt lat="43.053517" lon="-2.961250">
        <ele>1111.0</ele>
        <time>2013-07-29T14:37:56Z</time>
      </trkpt>
      <trkpt lat="43.053400" lon="-2.961283">
        <ele>1112.0</ele>
        <time>2013-07-29T14:37:57Z</time>
      </trkpt>
      <trkpt lat="43.053300" lon="-2.961300">
        <ele>1112.0</ele>
        <time>2013-07-29T14:37:58Z</time>
      </trkpt>
      <trkpt lat="43.053183" lon="-2.961333">
        <ele>1112.0</ele>
        <time>2013-07-29T14:37:59Z</time>
      </trkpt>
      <trkpt lat="43.053083" lon="-2.961367">
        <ele>1113.0</ele>
        <time>2013-07-29T14:38:00Z</time>
      </trkpt>
      <trkpt lat="43.052983" lon="-2.961383">
        <ele>1114.0</ele>
        <time>2013-07-29T14:38:01Z</time>
      </trkpt>
      <trkpt lat="43.052883" lon="-2.961400">
        <ele>1115.0</ele>
        <time>2013-07-29T14:38:02Z</time>
      </trkpt>
      <trkpt lat="43.052783" lon="-2.961417">
        <ele>1116.0</ele>
        <time>2013-07-29T14:38:03Z</time>
      </trkpt>
      <trkpt lat="43.052683" lon="-2.961433">
        <ele>1116.0</ele>
        <time>2013-07-29T14:38:04Z</time>
      </trkpt>
      <trkpt lat="43.052567" lon="-2.961450">
        <ele>1116.0</ele>
        <time>2013-07-29T14:38:05Z</time>
      </trkpt>
      <trkpt lat="43.052467" lon="-2.961483">
        <ele>1117.0</ele>
        <time>2013-07-29T14:38:06Z</time>
      </trkpt>
      <trkpt lat="43.052367" lon="-2.961533">
        <ele>1118.0</ele>
        <time>2013-07-29T14:38:07Z</time>
      </trkpt>
      <trkpt lat="43.052300" lon="-2.961617">
        <ele>1119.0</ele>
        <time>2013-07-29T14:38:08Z</time>
      </trkpt>
      <trkpt lat="43.052250" lon="-2.961717">
        <ele>1119.0</ele>
        <time>2013-07-29T14:38:09Z</time>
      </trkpt>
      <trkpt lat="43.052200" lon="-2.961817">
        <ele>1119.0</ele>
        <time>2013-07-29T14:38:10Z</time>
      </trkpt>
      <trkpt lat="43.052150" lon="-2.961933">
        <ele>1119.0</ele>
        <time>2013-07-29T14:38:11Z</time>
      </trkpt>
      <trkpt lat="43.052117" lon="-2.962033">
        <ele>1120.0</ele>
        <time>2013-07-29T14:38:12Z</time>
      </trkpt>
      <trkpt lat="43.052100" lon="-2.962133">
        <ele>1121.0</ele>
        <time>2013-07-29T14:38:13Z</time>
      </trkpt>
      <trkpt lat="43.052100" lon="-2.962217">
        <ele>1121.0</ele>
        <time>2013-07-29T14:38:14Z</time>
      </trkpt>
      <trkpt lat="43.052117" lon="-2.962283">
        <ele>1122.0</ele>
        <time>2013-07-29T14:38:15Z</time>
      </trkpt>
      <trkpt lat="43.052150" lon="-2.962333">
        <ele>1123.0</ele>
        <time>2013-07-29T14:38:16Z</time>
      </trkpt>
      <trkpt lat="43.052183" lon="-2.962383">
        <ele>1124.0</ele>
        <time>2013-07-29T14:38:17Z</time>
      </trkpt>
      <trkpt lat="43.052217" lon="-2.962433">
        <ele>1125.0</ele>
        <time>2013-07-29T14:38:18Z</time>
      </trkpt>
      <trkpt lat="43.052250" lon="-2.962450">
        <ele>1127.0</ele>
        <time>2013-07-29T14:38:19Z</time>
      </trkpt>
      <trkpt lat="43.052300" lon="-2.962450">
        <ele>1127.0</ele>
        <time>2013-07-29T14:38:20Z</time>
      </trkpt>
      <trkpt lat="43.052383" lon="-2.962433">
        <ele>1128.0</ele>
        <time>2013-07-29T14:38:21Z</time>
      </trkpt>
      <trkpt lat="43.052450" lon="-2.962383">
        <ele>1128.0</ele>
        <time>2013-07-29T14:38:22Z</time>
      </trkpt>
      <trkpt lat="43.052500" lon="-2.962317">
        <ele>1128.0</ele>
        <time>2013-07-29T14:38:23Z</time>
      </trkpt>
      <trkpt lat="43.052533" lon="-2.962233">
        <ele>1130.0</ele>
        <time>2013-07-29T14:38:24Z</time>
      </trkpt>
      <trkpt lat="43.052550" lon="-2.962150">
        <ele>1132.0</ele>
        <time>2013-07-29T14:38:25Z</time>
      </trkpt>
      <trkpt lat="43.052567" lon="-2.962050">
        <ele>1134.0</ele>
        <time>2013-07-29T14:38:26Z</time>
      </trkpt>
      <trkpt lat="43.052567" lon="-2.961933">
        <ele>1135.0</ele>
        <time>2013-07-29T14:38:27Z</time>
      </trkpt>
      <trkpt lat="43.052567" lon="-2.961817">
        <ele>1136.0</ele>
        <time>2013-07-29T14:38:28Z</time>
      </trkpt>
      <trkpt lat="43.052567" lon="-2.961683">
        <ele>1137.0</ele>
        <time>2013-07-29T14:38:29Z</time>
      </trkpt>
      <trkpt lat="43.052567" lon="-2.961567">
        <ele>1138.0</ele>
        <time>2013-07-29T14:38:30Z</time>
      </trkpt>
      <trkpt lat="43.052550" lon="-2.961467">
        <ele>1139.0</ele>
        <time>2013-07-29T14:38:31Z</time>
      </trkpt>
      <trkpt lat="43.052533" lon="-2.961367">
        <ele>1141.0</ele>
        <time>2013-07-29T14:38:32Z</time>
      </trkpt>
      <trkpt lat="43.052500" lon="-2.961267">
        <ele>1139.0</ele>
        <time>2013-07-29T14:38:33Z</time>
      </trkpt>
      <trkpt lat="43.052467" lon="-2.961150">
        <ele>1137.0</ele>
        <time>2013-07-29T14:38:34Z</time>
      </trkpt>
      <trkpt lat="43.052417" lon="-2.961033">
        <ele>1136.0</ele>
        <time>2013-07-29T14:38:35Z</time>
      </trkpt>
      <trkpt lat="43.052350" lon="-2.960917">
        <ele>1135.0</ele>
        <time>2013-07-29T14:38:36Z</time>
      </trkpt>
      <trkpt lat="43.052283" lon="-2.960817">
        <ele>1135.0</ele>
        <time>2013-07-29T14:38:37Z</time>
      </trkpt>
      <trkpt lat="43.052217" lon="-2.960717">
        <ele>1135.0</ele>
        <time>2013-07-29T14:38:38Z</time>
      </trkpt>
      <trkpt lat="43.052150" lon="-2.960633">
        <ele>1135.0</ele>
        <time>2013-07-29T14:38:39Z</time>
      </trkpt>
      <trkpt lat="43.052067" lon="-2.960550">
        <ele>1134.0</ele>
        <time>2013-07-29T14:38:40Z</time>
      </trkpt>
      <trkpt lat="43.051967" lon="-2.960450">
        <ele>1133.0</ele>
        <time>2013-07-29T14:38:41Z</time>
      </trkpt>
      <trkpt lat="43.051867" lon="-2.960367">
        <ele>1132.0</ele>
        <time>2013-07-29T14:38:42Z</time>
      </trkpt>
      <trkpt lat="43.051750" lon="-2.960300">
        <ele>1131.0</ele>
        <time>2013-07-29T14:38:43Z</time>
      </trkpt>
      <trkpt lat="43.051650" lon="-2.960250">
        <ele>1131.0</ele>
        <time>2013-07-29T14:38:44Z</time>
      </trkpt>
      <trkpt lat="43.051550" lon="-2.960200">
        <ele>1131.0</ele>
        <time>2013-07-29T14:38:45Z</time>
      </trkpt>
      <trkpt lat="43.051433" lon="-2.960150">
        <ele>1131.0</ele>
        <time>2013-07-29T14:38:46Z</time>
      </trkpt>
      <trkpt lat="43.051333" lon="-2.960100">
        <ele>1130.0</ele>
        <time>2013-07-29T14:38:47Z</time>
      </trkpt>
      <trkpt lat="43.051217" lon="-2.960050">
        <ele>1130.0</ele>
        <time>2013-07-29T14:38:48Z</time>
      </trkpt>
      <trkpt lat="43.051100" lon="-2.960000">
        <ele>1129.0</ele>
        <time>2013-07-29T14:38:49Z</time>
      </trkpt>
      <trkpt lat="43.050983" lon="-2.959967">
        <ele>1129.0</ele>
        <time>2013-07-29T14:38:50Z</time>
      </trkpt>
      <trkpt lat="43.050883" lon="-2.959917">
        <ele>1128.0</ele>
        <time>2013-07-29T14:38:51Z</time>
      </trkpt>
      <trkpt lat="43.050767" lon="-2.959883">
        <ele>1128.0</ele>
        <time>2013-07-29T14:38:52Z</time>
      </trkpt>
      <trkpt lat="43.050667" lon="-2.959850">
        <ele>1128.0</ele>
        <time>2013-07-29T14:38:53Z</time>
      </trkpt>
      <trkpt lat="43.050550" lon="-2.959800">
        <ele>1129.0</ele>
        <time>2013-07-29T14:38:54Z</time>
      </trkpt>
      <trkpt lat="43.050433" lon="-2.959767">
        <ele>1130.0</ele>
        <time>2013-07-29T14:38:55Z</time>
      </trkpt>
      <trkpt lat="43.050333" lon="-2.959750">
        <ele>1130.0</ele>
        <time>2013-07-29T14:38:56Z</time>
      </trkpt>
      <trkpt lat="43.050233" lon="-2.959717">
        <ele>1131.0</ele>
        <time>2013-07-29T14:38:57Z</time>
      </trkpt>
      <trkpt lat="43.050150" lon="-2.959700">
        <ele>1132.0</ele>
        <time>2013-07-29T14:38:58Z</time>
      </trkpt>
      <trkpt lat="43.050050" lon="-2.959683">
        <ele>1132.0</ele>
        <time>2013-07-29T14:38:59Z</time>
      </trkpt>
      <trkpt lat="43.049967" lon="-2.959683">
        <ele>1132.0</ele>
        <time>2013-07-29T14:39:00Z</time>
      </trkpt>
      <trkpt lat="43.049867" lon="-2.959683">
        <ele>1132.0</ele>
        <time>2013-07-29T14:39:01Z</time>
      </trkpt>
      <trkpt lat="43.049783" lon="-2.959683">
        <ele>1133.0</ele>
        <time>2013-07-29T14:39:02Z</time>
      </trkpt>
      <trkpt lat="43.049700" lon="-2.959683">
        <ele>1133.0</ele>
        <time>2013-07-29T14:39:03Z</time>
      </trkpt>
      <trkpt lat="43.049633" lon="-2.959667">
        <ele>1133.0</ele>
        <time>2013-07-29T14:39:04Z</time>
      </trkpt>
      <trkpt lat="43.049533" lon="-2.959667">
        <ele>1133.0</ele>
        <time>2013-07-29T14:39:05Z</time>
      </trkpt>
      <trkpt lat="43.049450" lon="-2.959683">
        <ele>1131.0</ele>
        <time>2013-07-29T14:39:06Z</time>
      </trkpt>
      <trkpt lat="43.049333" lon="-2.959683">
        <ele>1130.0</ele>
        <time>2013-07-29T14:39:07Z</time>
      </trkpt>
      <trkpt lat="43.049233" lon="-2.959700">
        <ele>1130.0</ele>
        <time>2013-07-29T14:39:08Z</time>
      </trkpt>
      <trkpt lat="43.049150" lon="-2.959700">
        <ele>1131.0</ele>
        <time>2013-07-29T14:39:09Z</time>
      </trkpt>
      <trkpt lat="43.049067" lon="-2.959717">
        <ele>1131.0</ele>
        <time>2013-07-29T14:39:10Z</time>
      </trkpt>
      <trkpt lat="43.048983" lon="-2.959733">
        <ele>1132.0</ele>
        <time>2013-07-29T14:39:11Z</time>
      </trkpt>
      <trkpt lat="43.048917" lon="-2.959733">
        <ele>1132.0</ele>
        <time>2013-07-29T14:39:12Z</time>
      </trkpt>
      <trkpt lat="43.048833" lon="-2.959767">
        <ele>1132.0</ele>
        <time>2013-07-29T14:39:13Z</time>
      </trkpt>
      <trkpt lat="43.048750" lon="-2.959800">
        <ele>1132.0</ele>
        <time>2013-07-29T14:39:14Z</time>
      </trkpt>
      <trkpt lat="43.048683" lon="-2.959850">
        <ele>1132.0</ele>
        <time>2013-07-29T14:39:15Z</time>
      </trkpt>
      <trkpt lat="43.048650" lon="-2.959917">
        <ele>1132.0</ele>
        <time>2013-07-29T14:39:16Z</time>
      </trkpt>
      <trkpt lat="43.048617" lon="-2.960067">
        <ele>1132.0</ele>
        <time>2013-07-29T14:39:18Z</time>
      </trkpt>
      <trkpt lat="43.048617" lon="-2.960150">
        <ele>1132.0</ele>
        <time>2013-07-29T14:39:19Z</time>
      </trkpt>
      <trkpt lat="43.048650" lon="-2.960233">
        <ele>1132.0</ele>
        <time>2013-07-29T14:39:20Z</time>
      </trkpt>
      <trkpt lat="43.048667" lon="-2.960300">
        <ele>1132.0</ele>
        <time>2013-07-29T14:39:21Z</time>
      </trkpt>
      <trkpt lat="43.048700" lon="-2.960367">
        <ele>1132.0</ele>
        <time>2013-07-29T14:39:22Z</time>
      </trkpt>
      <trkpt lat="43.048733" lon="-2.960417">
        <ele>1132.0</ele>
        <time>2013-07-29T14:39:23Z</time>
      </trkpt>
      <trkpt lat="43.048783" lon="-2.960467">
        <ele>1132.0</ele>
        <time>2013-07-29T14:39:24Z</time>
      </trkpt>
      <trkpt lat="43.048817" lon="-2.960500">
        <ele>1132.0</ele>
        <time>2013-07-29T14:39:25Z</time>
      </trkpt>
      <trkpt lat="43.048867" lon="-2.960550">
        <ele>1131.0</ele>
        <time>2013-07-29T14:39:26Z</time>
      </trkpt>
      <trkpt lat="43.048900" lon="-2.960583">
        <ele>1131.0</ele>
        <time>2013-07-29T14:39:27Z</time>
      </trkpt>
      <trkpt lat="43.048950" lon="-2.960650">
        <ele>1129.0</ele>
        <time>2013-07-29T14:39:29Z</time>
      </trkpt>
      <trkpt lat="43.049000" lon="-2.960717">
        <ele>1127.0</ele>
        <time>2013-07-29T14:39:30Z</time>
      </trkpt>
      <trkpt lat="43.049017" lon="-2.960783">
        <ele>1127.0</ele>
        <time>2013-07-29T14:39:31Z</time>
      </trkpt>
      <trkpt lat="43.049017" lon="-2.960867">
        <ele>1126.0</ele>
        <time>2013-07-29T14:39:32Z</time>
      </trkpt>
      <trkpt lat="43.048983" lon="-2.960950">
        <ele>1125.0</ele>
        <time>2013-07-29T14:39:33Z</time>
      </trkpt>
      <trkpt lat="43.048950" lon="-2.961033">
        <ele>1124.0</ele>
        <time>2013-07-29T14:39:34Z</time>
      </trkpt>
      <trkpt lat="43.048883" lon="-2.961117">
        <ele>1123.0</ele>
        <time>2013-07-29T14:39:35Z</time>
      </trkpt>
      <trkpt lat="43.048817" lon="-2.961167">
        <ele>1123.0</ele>
        <time>2013-07-29T14:39:36Z</time>
      </trkpt>
      <trkpt lat="43.048767" lon="-2.961233">
        <ele>1124.0</ele>
        <time>2013-07-29T14:39:37Z</time>
      </trkpt>
      <trkpt lat="43.048700" lon="-2.961300">
        <ele>1124.0</ele>
        <time>2013-07-29T14:39:38Z</time>
      </trkpt>
      <trkpt lat="43.048617" lon="-2.961350">
        <ele>1123.0</ele>
        <time>2013-07-29T14:39:39Z</time>
      </trkpt>
      <trkpt lat="43.048533" lon="-2.961383">
        <ele>1123.0</ele>
        <time>2013-07-29T14:39:40Z</time>
      </trkpt>
      <trkpt lat="43.048450" lon="-2.961417">
        <ele>1123.0</ele>
        <time>2013-07-29T14:39:41Z</time>
      </trkpt>
      <trkpt lat="43.048350" lon="-2.961433">
        <ele>1122.0</ele>
        <time>2013-07-29T14:39:42Z</time>
      </trkpt>
      <trkpt lat="43.048250" lon="-2.961433">
        <ele>1121.0</ele>
        <time>2013-07-29T14:39:43Z</time>
      </trkpt>
      <trkpt lat="43.048150" lon="-2.961450">
        <ele>1120.0</ele>
        <time>2013-07-29T14:39:44Z</time>
      </trkpt>
      <trkpt lat="43.048067" lon="-2.961450">
        <ele>1120.0</ele>
        <time>2013-07-29T14:39:45Z</time>
      </trkpt>
      <trkpt lat="43.047967" lon="-2.961450">
        <ele>1119.0</ele>
        <time>2013-07-29T14:39:46Z</time>
      </trkpt>
      <trkpt lat="43.047883" lon="-2.961467">
        <ele>1119.0</ele>
        <time>2013-07-29T14:39:47Z</time>
      </trkpt>
      <trkpt lat="43.047783" lon="-2.961483">
        <ele>1118.0</ele>
        <time>2013-07-29T14:39:48Z</time>
      </trkpt>
      <trkpt lat="43.047683" lon="-2.961500">
        <ele>1117.0</ele>
        <time>2013-07-29T14:39:49Z</time>
      </trkpt>
      <trkpt lat="43.047600" lon="-2.961550">
        <ele>1117.0</ele>
        <time>2013-07-29T14:39:50Z</time>
      </trkpt>
      <trkpt lat="43.047500" lon="-2.961600">
        <ele>1119.0</ele>
        <time>2013-07-29T14:39:51Z</time>
      </trkpt>
      <trkpt lat="43.047417" lon="-2.961667">
        <ele>1121.0</ele>
        <time>2013-07-29T14:39:52Z</time>
      </trkpt>
      <trkpt lat="43.047333" lon="-2.961717">
        <ele>1124.0</ele>
        <time>2013-07-29T14:39:53Z</time>
      </trkpt>
      <trkpt lat="43.047250" lon="-2.961783">
        <ele>1126.0</ele>
        <time>2013-07-29T14:39:54Z</time>
      </trkpt>
      <trkpt lat="43.047150" lon="-2.961850">
        <ele>1128.0</ele>
        <time>2013-07-29T14:39:55Z</time>
      </trkpt>
      <trkpt lat="43.047067" lon="-2.961900">
        <ele>1132.0</ele>
        <time>2013-07-29T14:39:56Z</time>
      </trkpt>
      <trkpt lat="43.047000" lon="-2.961950">
        <ele>1137.0</ele>
        <time>2013-07-29T14:39:57Z</time>
      </trkpt>
      <trkpt lat="43.046950" lon="-2.962000">
        <ele>1142.0</ele>
        <time>2013-07-29T14:39:58Z</time>
      </trkpt>
      <trkpt lat="43.046883" lon="-2.962033">
        <ele>1146.0</ele>
        <time>2013-07-29T14:39:59Z</time>
      </trkpt>
      <trkpt lat="43.046833" lon="-2.962083">
        <ele>1148.0</ele>
        <time>2013-07-29T14:40:00Z</time>
      </trkpt>
      <trkpt lat="43.046750" lon="-2.962150">
        <ele>1150.0</ele>
        <time>2013-07-29T14:40:01Z</time>
      </trkpt>
      <trkpt lat="43.046667" lon="-2.962233">
        <ele>1152.0</ele>
        <time>2013-07-29T14:40:02Z</time>
      </trkpt>
      <trkpt lat="43.046583" lon="-2.962317">
        <ele>1155.0</ele>
        <time>2013-07-29T14:40:03Z</time>
      </trkpt>
      <trkpt lat="43.046533" lon="-2.962417">
        <ele>1159.0</ele>
        <time>2013-07-29T14:40:04Z</time>
      </trkpt>
      <trkpt lat="43.046500" lon="-2.962533">
        <ele>1162.0</ele>
        <time>2013-07-29T14:40:05Z</time>
      </trkpt>
      <trkpt lat="43.046467" lon="-2.962650">
        <ele>1165.0</ele>
        <time>2013-07-29T14:40:06Z</time>
      </trkpt>
      <trkpt lat="43.046467" lon="-2.962783">
        <ele>1167.0</ele>
        <time>2013-07-29T14:40:07Z</time>
      </trkpt>
      <trkpt lat="43.046467" lon="-2.962917">
        <ele>1169.0</ele>
        <time>2013-07-29T14:40:08Z</time>
      </trkpt>
      <trkpt lat="43.046483" lon="-2.963050">
        <ele>1172.0</ele>
        <time>2013-07-29T14:40:09Z</time>
      </trkpt>
      <trkpt lat="43.046533" lon="-2.963167">
        <ele>1174.0</ele>
        <time>2013-07-29T14:40:10Z</time>
      </trkpt>
      <trkpt lat="43.046600" lon="-2.963250">
        <ele>1177.0</ele>
        <time>2013-07-29T14:40:11Z</time>
      </trkpt>
      <trkpt lat="43.046717" lon="-2.963333">
        <ele>1184.0</ele>
        <time>2013-07-29T14:40:13Z</time>
      </trkpt>
      <trkpt lat="43.046750" lon="-2.963333">
        <ele>1187.0</ele>
        <time>2013-07-29T14:40:14Z</time>
      </trkpt>
      <trkpt lat="43.046800" lon="-2.963333">
        <ele>1190.0</ele>
        <time>2013-07-29T14:40:15Z</time>
      </trkpt>
      <trkpt lat="43.046867" lon="-2.963317">
        <ele>1191.0</ele>
        <time>2013-07-29T14:40:16Z</time>
      </trkpt>
      <trkpt lat="43.046917" lon="-2.963283">
        <ele>1193.0</ele>
        <time>2013-07-29T14:40:17Z</time>
      </trkpt>
      <trkpt lat="43.046967" lon="-2.963250">
        <ele>1195.0</ele>
        <time>2013-07-29T14:40:18Z</time>
      </trkpt>
      <trkpt lat="43.047017" lon="-2.963183">
        <ele>1197.0</ele>
        <time>2013-07-29T14:40:19Z</time>
      </trkpt>
      <trkpt lat="43.047033" lon="-2.963133">
        <ele>1198.0</ele>
        <time>2013-07-29T14:40:20Z</time>
      </trkpt>
      <trkpt lat="43.047050" lon="-2.962983">
        <ele>1200.0</ele>
        <time>2013-07-29T14:40:22Z</time>
      </trkpt>
      <trkpt lat="43.047050" lon="-2.962883">
        <ele>1200.0</ele>
        <time>2013-07-29T14:40:23Z</time>
      </trkpt>
      <trkpt lat="43.047050" lon="-2.962783">
        <ele>1200.0</ele>
        <time>2013-07-29T14:40:24Z</time>
      </trkpt>
      <trkpt lat="43.047050" lon="-2.962700">
        <ele>1199.0</ele>
        <time>2013-07-29T14:40:25Z</time>
      </trkpt>
      <trkpt lat="43.047033" lon="-2.962600">
        <ele>1199.0</ele>
        <time>2013-07-29T14:40:26Z</time>
      </trkpt>
      <trkpt lat="43.047000" lon="-2.962500">
        <ele>1198.0</ele>
        <time>2013-07-29T14:40:27Z</time>
      </trkpt>
      <trkpt lat="43.046950" lon="-2.962383">
        <ele>1198.0</ele>
        <time>2013-07-29T14:40:28Z</time>
      </trkpt>
      <trkpt lat="43.046883" lon="-2.962300">
        <ele>1198.0</ele>
        <time>2013-07-29T14:40:29Z</time>
      </trkpt>
      <trkpt lat="43.046800" lon="-2.962217">
        <ele>1199.0</ele>
        <time>2013-07-29T14:40:30Z</time>
      </trkpt>
      <trkpt lat="43.046733" lon="-2.962167">
        <ele>1202.0</ele>
        <time>2013-07-29T14:40:31Z</time>
      </trkpt>
      <trkpt lat="43.046683" lon="-2.962117">
        <ele>1205.0</ele>
        <time>2013-07-29T14:40:32Z</time>
      </trkpt>
      <trkpt lat="43.046633" lon="-2.962100">
        <ele>1209.0</ele>
        <time>2013-07-29T14:40:33Z</time>
      </trkpt>
      <trkpt lat="43.046567" lon="-2.962067">
        <ele>1211.0</ele>
        <time>2013-07-29T14:40:34Z</time>
      </trkpt>
      <trkpt lat="43.046500" lon="-2.962017">
        <ele>1212.0</ele>
        <time>2013-07-29T14:40:35Z</time>
      </trkpt>
      <trkpt lat="43.046417" lon="-2.961967">
        <ele>1213.0</ele>
        <time>2013-07-29T14:40:36Z</time>
      </trkpt>
      <trkpt lat="43.046333" lon="-2.961917">
        <ele>1215.0</ele>
        <time>2013-07-29T14:40:37Z</time>
      </trkpt>
      <trkpt lat="43.046250" lon="-2.961900">
        <ele>1217.0</ele>
        <time>2013-07-29T14:40:38Z</time>
      </trkpt>
      <trkpt lat="43.046183" lon="-2.961900">
        <ele>1220.0</ele>
        <time>2013-07-29T14:40:39Z</time>
      </trkpt>
      <trkpt lat="43.046117" lon="-2.961900">
        <ele>1223.0</ele>
        <time>2013-07-29T14:40:40Z</time>
      </trkpt>
      <trkpt lat="43.046050" lon="-2.961917">
        <ele>1225.0</ele>
        <time>2013-07-29T14:40:41Z</time>
      </trkpt>
      <trkpt lat="43.045983" lon="-2.961967">
        <ele>1227.0</ele>
        <time>2013-07-29T14:40:42Z</time>
      </trkpt>
      <trkpt lat="43.045900" lon="-2.962033">
        <ele>1230.0</ele>
        <time>2013-07-29T14:40:43Z</time>
      </trkpt>
      <trkpt lat="43.045833" lon="-2.962117">
        <ele>1232.0</ele>
        <time>2013-07-29T14:40:44Z</time>
      </trkpt>
      <trkpt lat="43.045800" lon="-2.962233">
        <ele>1235.0</ele>
        <time>2013-07-29T14:40:45Z</time>
      </trkpt>
      <trkpt lat="43.045767" lon="-2.962350">
        <ele>1238.0</ele>
        <time>2013-07-29T14:40:46Z</time>
      </trkpt>
      <trkpt lat="43.045750" lon="-2.962483">
        <ele>1240.0</ele>
        <time>2013-07-29T14:40:47Z</time>
      </trkpt>
      <trkpt lat="43.045733" lon="-2.962617">
        <ele>1242.0</ele>
        <time>2013-07-29T14:40:48Z</time>
      </trkpt>
      <trkpt lat="43.045750" lon="-2.962750">
        <ele>1243.0</ele>
        <time>2013-07-29T14:40:49Z</time>
      </trkpt>
      <trkpt lat="43.045783" lon="-2.962867">
        <ele>1245.0</ele>
        <time>2013-07-29T14:40:50Z</time>
      </trkpt>
      <trkpt lat="43.045833" lon="-2.962983">
        <ele>1247.0</ele>
        <time>2013-07-29T14:40:51Z</time>
      </trkpt>
      <trkpt lat="43.045883" lon="-2.963067">
        <ele>1249.0</ele>
        <time>2013-07-29T14:40:52Z</time>
      </trkpt>
      <trkpt lat="43.045967" lon="-2.963150">
        <ele>1251.0</ele>
        <time>2013-07-29T14:40:53Z</time>
      </trkpt>
      <trkpt lat="43.046033" lon="-2.963217">
        <ele>1253.0</ele>
        <time>2013-07-29T14:40:54Z</time>
      </trkpt>
      <trkpt lat="43.046117" lon="-2.963267">
        <ele>1256.0</ele>
        <time>2013-07-29T14:40:55Z</time>
      </trkpt>
      <trkpt lat="43.046183" lon="-2.963300">
        <ele>1259.0</ele>
        <time>2013-07-29T14:40:56Z</time>
      </trkpt>
      <trkpt lat="43.046233" lon="-2.963317">
        <ele>1262.0</ele>
        <time>2013-07-29T14:40:57Z</time>
      </trkpt>
      <trkpt lat="43.046317" lon="-2.963317">
        <ele>1264.0</ele>
        <time>2013-07-29T14:40:58Z</time>
      </trkpt>
      <trkpt lat="43.046400" lon="-2.963283">
        <ele>1265.0</ele>
        <time>2013-07-29T14:40:59Z</time>
      </trkpt>
      <trkpt lat="43.046450" lon="-2.963250">
        <ele>1267.0</ele>
        <time>2013-07-29T14:41:00Z</time>
      </trkpt>
      <trkpt lat="43.046517" lon="-2.963200">
        <ele>1269.0</ele>
        <time>2013-07-29T14:41:01Z</time>
      </trkpt>
      <trkpt lat="43.046533" lon="-2.963167">
        <ele>1272.0</ele>
        <time>2013-07-29T14:41:02Z</time>
      </trkpt>
      <trkpt lat="43.046567" lon="-2.963117">
        <ele>1274.0</ele>
        <time>2013-07-29T14:41:03Z</time>
      </trkpt>
      <trkpt lat="43.046583" lon="-2.963033">
        <ele>1275.0</ele>
        <time>2013-07-29T14:41:04Z</time>
      </trkpt>
      <trkpt lat="43.046617" lon="-2.962950">
        <ele>1275.0</ele>
        <time>2013-07-29T14:41:05Z</time>
      </trkpt>
      <trkpt lat="43.046617" lon="-2.962867">
        <ele>1275.0</ele>
        <time>2013-07-29T14:41:06Z</time>
      </trkpt>
      <trkpt lat="43.046617" lon="-2.962783">
        <ele>1276.0</ele>
        <time>2013-07-29T14:41:07Z</time>
      </trkpt>
      <trkpt lat="43.046600" lon="-2.962700">
        <ele>1276.0</ele>
        <time>2013-07-29T14:41:08Z</time>
      </trkpt>
      <trkpt lat="43.046567" lon="-2.962600">
        <ele>1275.0</ele>
        <time>2013-07-29T14:41:09Z</time>
      </trkpt>
      <trkpt lat="43.046550" lon="-2.962483">
        <ele>1274.0</ele>
        <time>2013-07-29T14:41:10Z</time>
      </trkpt>
      <trkpt lat="43.046517" lon="-2.962350">
        <ele>1272.0</ele>
        <time>2013-07-29T14:41:11Z</time>
      </trkpt>
      <trkpt lat="43.046467" lon="-2.962233">
        <ele>1272.0</ele>
        <time>2013-07-29T14:41:12Z</time>
      </trkpt>
      <trkpt lat="43.046417" lon="-2.962133">
        <ele>1273.0</ele>
        <time>2013-07-29T14:41:13Z</time>
      </trkpt>
      <trkpt lat="43.046350" lon="-2.962033">
        <ele>1275.0</ele>
        <time>2013-07-29T14:41:14Z</time>
      </trkpt>
      <trkpt lat="43.046283" lon="-2.961967">
        <ele>1277.0</ele>
        <time>2013-07-29T14:41:15Z</time>
      </trkpt>
      <trkpt lat="43.046217" lon="-2.961900">
        <ele>1278.0</ele>
        <time>2013-07-29T14:41:16Z</time>
      </trkpt>
      <trkpt lat="43.046150" lon="-2.961850">
        <ele>1279.0</ele>
        <time>2013-07-29T14:41:17Z</time>
      </trkpt>
      <trkpt lat="43.046050" lon="-2.961850">
        <ele>1280.0</ele>
        <time>2013-07-29T14:41:18Z</time>
      </trkpt>
      <trkpt lat="43.045950" lon="-2.961867">
        <ele>1281.0</ele>
        <time>2013-07-29T14:41:19Z</time>
      </trkpt>
      <trkpt lat="43.045850" lon="-2.961900">
        <ele>1282.0</ele>
        <time>2013-07-29T14:41:20Z</time>
      </trkpt>
      <trkpt lat="43.045767" lon="-2.961933">
        <ele>1285.0</ele>
        <time>2013-07-29T14:41:21Z</time>
      </trkpt>
      <trkpt lat="43.045683" lon="-2.961983">
        <ele>1288.0</ele>
        <time>2013-07-29T14:41:22Z</time>
      </trkpt>
      <trkpt lat="43.045617" lon="-2.962017">
        <ele>1291.0</ele>
        <time>2013-07-29T14:41:23Z</time>
      </trkpt>
      <trkpt lat="43.045550" lon="-2.962067">
        <ele>1292.0</ele>
        <time>2013-07-29T14:41:24Z</time>
      </trkpt>
      <trkpt lat="43.045467" lon="-2.962133">
        <ele>1294.0</ele>
        <time>2013-07-29T14:41:25Z</time>
      </trkpt>
      <trkpt lat="43.045383" lon="-2.962217">
        <ele>1295.0</ele>
        <time>2013-07-29T14:41:26Z</time>
      </trkpt>
      <trkpt lat="43.045317" lon="-2.962317">
        <ele>1299.0</ele>
        <time>2013-07-29T14:41:27Z</time>
      </trkpt>
      <trkpt lat="43.045250" lon="-2.962383">
        <ele>1304.0</ele>
        <time>2013-07-29T14:41:28Z</time>
      </trkpt>
      <trkpt lat="43.045183" lon="-2.962467">
        <ele>1309.0</ele>
        <time>2013-07-29T14:41:29Z</time>
      </trkpt>
      <trkpt lat="43.045117" lon="-2.962533">
        <ele>1314.0</ele>
        <time>2013-07-29T14:41:30Z</time>
      </trkpt>
      <trkpt lat="43.045050" lon="-2.962600">
        <ele>1317.0</ele>
        <time>2013-07-29T14:41:31Z</time>
      </trkpt>
      <trkpt lat="43.044983" lon="-2.962683">
        <ele>1319.0</ele>
        <time>2013-07-29T14:41:32Z</time>
      </trkpt>
      <trkpt lat="43.044917" lon="-2.962783">
        <ele>1322.0</ele>
        <time>2013-07-29T14:41:33Z</time>
      </trkpt>
      <trkpt lat="43.044883" lon="-2.962883">
        <ele>1325.0</ele>
        <time>2013-07-29T14:41:34Z</time>
      </trkpt>
      <trkpt lat="43.044867" lon="-2.963000">
        <ele>1327.0</ele>
        <time>2013-07-29T14:41:35Z</time>
      </trkpt>
      <trkpt lat="43.044850" lon="-2.963117">
        <ele>1330.0</ele>
        <time>2013-07-29T14:41:36Z</time>
      </trkpt>
      <trkpt lat="43.044850" lon="-2.963233">
        <ele>1333.0</ele>
        <time>2013-07-29T14:41:37Z</time>
      </trkpt>
      <trkpt lat="43.044850" lon="-2.963350">
        <ele>1335.0</ele>
        <time>2013-07-29T14:41:38Z</time>
      </trkpt>
      <trkpt lat="43.044867" lon="-2.963450">
        <ele>1338.0</ele>
        <time>2013-07-29T14:41:39Z</time>
      </trkpt>
      <trkpt lat="43.044900" lon="-2.963550">
        <ele>1340.0</ele>
        <time>2013-07-29T14:41:40Z</time>
      </trkpt>
      <trkpt lat="43.044950" lon="-2.963650">
        <ele>1343.0</ele>
        <time>2013-07-29T14:41:41Z</time>
      </trkpt>
      <trkpt lat="43.045000" lon="-2.963733">
        <ele>1345.0</ele>
        <time>2013-07-29T14:41:42Z</time>
      </trkpt>
      <trkpt lat="43.045050" lon="-2.963817">
        <ele>1348.0</ele>
        <time>2013-07-29T14:41:43Z</time>
      </trkpt>
      <trkpt lat="43.045117" lon="-2.963883">
        <ele>1350.0</ele>
        <time>2013-07-29T14:41:44Z</time>
      </trkpt>
      <trkpt lat="43.045183" lon="-2.963933">
        <ele>1353.0</ele>
        <time>2013-07-29T14:41:45Z</time>
      </trkpt>
      <trkpt lat="43.045267" lon="-2.963983">
        <ele>1356.0</ele>
        <time>2013-07-29T14:41:46Z</time>
      </trkpt>
      <trkpt lat="43.045350" lon="-2.964000">
        <ele>1359.0</ele>
        <time>2013-07-29T14:41:47Z</time>
      </trkpt>
      <trkpt lat="43.045417" lon="-2.964033">
        <ele>1362.0</ele>
        <time>2013-07-29T14:41:48Z</time>
      </trkpt>
      <trkpt lat="43.045500" lon="-2.964033">
        <ele>1364.0</ele>
        <time>2013-07-29T14:41:49Z</time>
      </trkpt>
      <trkpt lat="43.045583" lon="-2.964000">
        <ele>1367.0</ele>
        <time>2013-07-29T14:41:50Z</time>
      </trkpt>
      <trkpt lat="43.045650" lon="-2.963983">
        <ele>1371.0</ele>
        <time>2013-07-29T14:41:51Z</time>
      </trkpt>
      <trkpt lat="43.045683" lon="-2.963950">
        <ele>1375.0</ele>
        <time>2013-07-29T14:41:52Z</time>
      </trkpt>
      <trkpt lat="43.045733" lon="-2.963917">
        <ele>1379.0</ele>
        <time>2013-07-29T14:41:53Z</time>
      </trkpt>
      <trkpt lat="43.045767" lon="-2.963883">
        <ele>1381.0</ele>
        <time>2013-07-29T14:41:54Z</time>
      </trkpt>
      <trkpt lat="43.045817" lon="-2.963817">
        <ele>1383.0</ele>
        <time>2013-07-29T14:41:55Z</time>
      </trkpt>
      <trkpt lat="43.045850" lon="-2.963717">
        <ele>1385.0</ele>
        <time>2013-07-29T14:41:56Z</time>
      </trkpt>
      <trkpt lat="43.045900" lon="-2.963633">
        <ele>1387.0</ele>
        <time>2013-07-29T14:41:57Z</time>
      </trkpt>
      <trkpt lat="43.045933" lon="-2.963467">
        <ele>1381.0</ele>
        <time>2013-07-29T14:41:59Z</time>
      </trkpt>
      <trkpt lat="43.045933" lon="-2.963400">
        <ele>1381.0</ele>
        <time>2013-07-29T14:42:00Z</time>
      </trkpt>
      <trkpt lat="43.045933" lon="-2.963317">
        <ele>1381.0</ele>
        <time>2013-07-29T14:42:01Z</time>
      </trkpt>
      <trkpt lat="43.045933" lon="-2.963233">
        <ele>1380.0</ele>
        <time>2013-07-29T14:42:02Z</time>
      </trkpt>
      <trkpt lat="43.045933" lon="-2.963133">
        <ele>1379.0</ele>
        <time>2013-07-29T14:42:03Z</time>
      </trkpt>
      <trkpt lat="43.045917" lon="-2.963050">
        <ele>1378.0</ele>
        <time>2013-07-29T14:42:04Z</time>
      </trkpt>
      <trkpt lat="43.045883" lon="-2.962950">
        <ele>1376.0</ele>
        <time>2013-07-29T14:42:05Z</time>
      </trkpt>
      <trkpt lat="43.045817" lon="-2.962867">
        <ele>1375.0</ele>
        <time>2013-07-29T14:42:06Z</time>
      </trkpt>
      <trkpt lat="43.045733" lon="-2.962800">
        <ele>1373.0</ele>
        <time>2013-07-29T14:42:07Z</time>
      </trkpt>
      <trkpt lat="43.045667" lon="-2.962717">
        <ele>1373.0</ele>
        <time>2013-07-29T14:42:08Z</time>
      </trkpt>
      <trkpt lat="43.045600" lon="-2.962650">
        <ele>1373.0</ele>
        <time>2013-07-29T14:42:09Z</time>
      </trkpt>
      <trkpt lat="43.045533" lon="-2.962567">
        <ele>1375.0</ele>
        <time>2013-07-29T14:42:10Z</time>
      </trkpt>
      <trkpt lat="43.045467" lon="-2.962500">
        <ele>1376.0</ele>
        <time>2013-07-29T14:42:11Z</time>
      </trkpt>
      <trkpt lat="43.045400" lon="-2.962450">
        <ele>1379.0</ele>
        <time>2013-07-29T14:42:12Z</time>
      </trkpt>
      <trkpt lat="43.045350" lon="-2.962400">
        <ele>1383.0</ele>
        <time>2013-07-29T14:42:13Z</time>
      </trkpt>
      <trkpt lat="43.045317" lon="-2.962367">
        <ele>1386.0</ele>
        <time>2013-07-29T14:42:14Z</time>
      </trkpt>
      <trkpt lat="43.045267" lon="-2.962300">
        <ele>1388.0</ele>
        <time>2013-07-29T14:42:15Z</time>
      </trkpt>
      <trkpt lat="43.045200" lon="-2.962233">
        <ele>1389.0</ele>
        <time>2013-07-29T14:42:16Z</time>
      </trkpt>
      <trkpt lat="43.045133" lon="-2.962150">
        <ele>1389.0</ele>
        <time>2013-07-29T14:42:17Z</time>
      </trkpt>
      <trkpt lat="43.045050" lon="-2.962083">
        <ele>1390.0</ele>
        <time>2013-07-29T14:42:18Z</time>
      </trkpt>
      <trkpt lat="43.044983" lon="-2.962000">
        <ele>1392.0</ele>
        <time>2013-07-29T14:42:19Z</time>
      </trkpt>
      <trkpt lat="43.044900" lon="-2.961950">
        <ele>1394.0</ele>
        <time>2013-07-29T14:42:20Z</time>
      </trkpt>
      <trkpt lat="43.044817" lon="-2.961900">
        <ele>1397.0</ele>
        <time>2013-07-29T14:42:21Z</time>
      </trkpt>
      <trkpt lat="43.044733" lon="-2.961867">
        <ele>1399.0</ele>
        <time>2013-07-29T14:42:22Z</time>
      </trkpt>
      <trkpt lat="43.044633" lon="-2.961867">
        <ele>1401.0</ele>
        <time>2013-07-29T14:42:23Z</time>
      </trkpt>
      <trkpt lat="43.044550" lon="-2.961883">
        <ele>1403.0</ele>
        <time>2013-07-29T14:42:24Z</time>
      </trkpt>
      <trkpt lat="43.044450" lon="-2.961900">
        <ele>1406.0</ele>
        <time>2013-07-29T14:42:25Z</time>
      </trkpt>
      <trkpt lat="43.044367" lon="-2.961950">
        <ele>1409.0</ele>
        <time>2013-07-29T14:42:26Z</time>
      </trkpt>
      <trkpt lat="43.044300" lon="-2.962017">
        <ele>1412.0</ele>
        <time>2013-07-29T14:42:27Z</time>
      </trkpt>
      <trkpt lat="43.044233" lon="-2.962100">
        <ele>1414.0</ele>
        <time>2013-07-29T14:42:28Z</time>
      </trkpt>
      <trkpt lat="43.044167" lon="-2.962200">
        <ele>1417.0</ele>
        <time>2013-07-29T14:42:29Z</time>
      </trkpt>
      <trkpt lat="43.044133" lon="-2.962317">
        <ele>1420.0</ele>
        <time>2013-07-29T14:42:30Z</time>
      </trkpt>
      <trkpt lat="43.044100" lon="-2.962417">
        <ele>1423.0</ele>
        <time>2013-07-29T14:42:31Z</time>
      </trkpt>
      <trkpt lat="43.044083" lon="-2.962533">
        <ele>1426.0</ele>
        <time>2013-07-29T14:42:32Z</time>
      </trkpt>
      <trkpt lat="43.044067" lon="-2.962633">
        <ele>1429.0</ele>
        <time>2013-07-29T14:42:33Z</time>
      </trkpt>
      <trkpt lat="43.044083" lon="-2.962733">
        <ele>1432.0</ele>
        <time>2013-07-29T14:42:34Z</time>
      </trkpt>
      <trkpt lat="43.044100" lon="-2.962850">
        <ele>1434.0</ele>
        <time>2013-07-29T14:42:35Z</time>
      </trkpt>
      <trkpt lat="43.044117" lon="-2.962983">
        <ele>1436.0</ele>
        <time>2013-07-29T14:42:36Z</time>
      </trkpt>
      <trkpt lat="43.044150" lon="-2.963083">
        <ele>1439.0</ele>
        <time>2013-07-29T14:42:37Z</time>
      </trkpt>
      <trkpt lat="43.044183" lon="-2.963167">
        <ele>1441.0</ele>
        <time>2013-07-29T14:42:38Z</time>
      </trkpt>
      <trkpt lat="43.044233" lon="-2.963250">
        <ele>1443.0</ele>
        <time>2013-07-29T14:42:39Z</time>
      </trkpt>
      <trkpt lat="43.044283" lon="-2.963317">
        <ele>1446.0</ele>
        <time>2013-07-29T14:42:40Z</time>
      </trkpt>
      <trkpt lat="43.044350" lon="-2.963367">
        <ele>1447.0</ele>
        <time>2013-07-29T14:42:41Z</time>
      </trkpt>
      <trkpt lat="43.044417" lon="-2.963433">
        <ele>1449.0</ele>
        <time>2013-07-29T14:42:42Z</time>
      </trkpt>
      <trkpt lat="43.044483" lon="-2.963467">
        <ele>1451.0</ele>
        <time>2013-07-29T14:42:43Z</time>
      </trkpt>
      <trkpt lat="43.044567" lon="-2.963483">
        <ele>1453.0</ele>
        <time>2013-07-29T14:42:44Z</time>
      </trkpt>
      <trkpt lat="43.044733" lon="-2.963450">
        <ele>1457.0</ele>
        <time>2013-07-29T14:42:46Z</time>
      </trkpt>
      <trkpt lat="43.044800" lon="-2.963400">
        <ele>1459.0</ele>
        <time>2013-07-29T14:42:47Z</time>
      </trkpt>
      <trkpt lat="43.044867" lon="-2.963350">
        <ele>1461.0</ele>
        <time>2013-07-29T14:42:48Z</time>
      </trkpt>
      <trkpt lat="43.044950" lon="-2.963200">
        <ele>1465.0</ele>
        <time>2013-07-29T14:42:50Z</time>
      </trkpt>
      <trkpt lat="43.044983" lon="-2.963117">
        <ele>1467.0</ele>
        <time>2013-07-29T14:42:51Z</time>
      </trkpt>
      <trkpt lat="43.045017" lon="-2.963033">
        <ele>1470.0</ele>
        <time>2013-07-29T14:42:52Z</time>
      </trkpt>
      <trkpt lat="43.045017" lon="-2.962933">
        <ele>1471.0</ele>
        <time>2013-07-29T14:42:53Z</time>
      </trkpt>
      <trkpt lat="43.045000" lon="-2.962833">
        <ele>1473.0</ele>
        <time>2013-07-29T14:42:54Z</time>
      </trkpt>
      <trkpt lat="43.044983" lon="-2.962750">
        <ele>1476.0</ele>
        <time>2013-07-29T14:42:55Z</time>
      </trkpt>
      <trkpt lat="43.044933" lon="-2.962683">
        <ele>1478.0</ele>
        <time>2013-07-29T14:42:56Z</time>
      </trkpt>
      <trkpt lat="43.044900" lon="-2.962617">
        <ele>1480.0</ele>
        <time>2013-07-29T14:42:57Z</time>
      </trkpt>
      <trkpt lat="43.044850" lon="-2.962567">
        <ele>1480.0</ele>
        <time>2013-07-29T14:42:58Z</time>
      </trkpt>
      <trkpt lat="43.044800" lon="-2.962500">
        <ele>1479.0</ele>
        <time>2013-07-29T14:42:59Z</time>
      </trkpt>
      <trkpt lat="43.044717" lon="-2.962433">
        <ele>1478.0</ele>
        <time>2013-07-29T14:43:00Z</time>
      </trkpt>
      <trkpt lat="43.044633" lon="-2.962367">
        <ele>1477.0</ele>
        <time>2013-07-29T14:43:01Z</time>
      </trkpt>
      <trkpt lat="43.044550" lon="-2.962300">
        <ele>1477.0</ele>
        <time>2013-07-29T14:43:02Z</time>
      </trkpt>
      <trkpt lat="43.044450" lon="-2.962250">
        <ele>1478.0</ele>
        <time>2013-07-29T14:43:03Z</time>
      </trkpt>
      <trkpt lat="43.044350" lon="-2.962217">
        <ele>1479.0</ele>
        <time>2013-07-29T14:43:04Z</time>
      </trkpt>
      <trkpt lat="43.044267" lon="-2.962183">
        <ele>1480.0</ele>
        <time>2013-07-29T14:43:05Z</time>
      </trkpt>
      <trkpt lat="43.044167" lon="-2.962183">
        <ele>1482.0</ele>
        <time>2013-07-29T14:43:06Z</time>
      </trkpt>
      <trkpt lat="43.044067" lon="-2.962167">
        <ele>1483.0</ele>
        <time>2013-07-29T14:43:07Z</time>
      </trkpt>
      <trkpt lat="43.043983" lon="-2.962167">
        <ele>1485.0</ele>
        <time>2013-07-29T14:43:08Z</time>
      </trkpt>
      <trkpt lat="43.043883" lon="-2.962200">
        <ele>1487.0</ele>
        <time>2013-07-29T14:43:09Z</time>
      </trkpt>
      <trkpt lat="43.043783" lon="-2.962233">
        <ele>1489.0</ele>
        <time>2013-07-29T14:43:10Z</time>
      </trkpt>
      <trkpt lat="43.043700" lon="-2.962300">
        <ele>1491.0</ele>
        <time>2013-07-29T14:43:11Z</time>
      </trkpt>
      <trkpt lat="43.043633" lon="-2.962383">
        <ele>1494.0</ele>
        <time>2013-07-29T14:43:12Z</time>
      </trkpt>
      <trkpt lat="43.043567" lon="-2.962483">
        <ele>1496.0</ele>
        <time>2013-07-29T14:43:13Z</time>
      </trkpt>
      <trkpt lat="43.043517" lon="-2.962583">
        <ele>1498.0</ele>
        <time>2013-07-29T14:43:14Z</time>
      </trkpt>
      <trkpt lat="43.043483" lon="-2.962700">
        <ele>1500.0</ele>
        <time>2013-07-29T14:43:15Z</time>
      </trkpt>
      <trkpt lat="43.043450" lon="-2.962800">
        <ele>1503.0</ele>
        <time>2013-07-29T14:43:16Z</time>
      </trkpt>
      <trkpt lat="43.043417" lon="-2.962900">
        <ele>1506.0</ele>
        <time>2013-07-29T14:43:17Z</time>
      </trkpt>
      <trkpt lat="43.043383" lon="-2.963017">
        <ele>1509.0</ele>
        <time>2013-07-29T14:43:18Z</time>
      </trkpt>
      <trkpt lat="43.043367" lon="-2.963133">
        <ele>1511.0</ele>
        <time>2013-07-29T14:43:19Z</time>
      </trkpt>
      <trkpt lat="43.043367" lon="-2.963267">
        <ele>1513.0</ele>
        <time>2013-07-29T14:43:20Z</time>
      </trkpt>
      <trkpt lat="43.043367" lon="-2.963383">
        <ele>1516.0</ele>
        <time>2013-07-29T14:43:21Z</time>
      </trkpt>
      <trkpt lat="43.043367" lon="-2.963517">
        <ele>1518.0</ele>
        <time>2013-07-29T14:43:22Z</time>
      </trkpt>
      <trkpt lat="43.043383" lon="-2.963633">
        <ele>1520.0</ele>
        <time>2013-07-29T14:43:23Z</time>
      </trkpt>
      <trkpt lat="43.043417" lon="-2.963733">
        <ele>1523.0</ele>
        <time>2013-07-29T14:43:24Z</time>
      </trkpt>
      <trkpt lat="43.043450" lon="-2.963833">
        <ele>1525.0</ele>
        <time>2013-07-29T14:43:25Z</time>
      </trkpt>
      <trkpt lat="43.043500" lon="-2.963917">
        <ele>1527.0</ele>
        <time>2013-07-29T14:43:26Z</time>
      </trkpt>
      <trkpt lat="43.043550" lon="-2.964000">
        <ele>1530.0</ele>
        <time>2013-07-29T14:43:27Z</time>
      </trkpt>
      <trkpt lat="43.043600" lon="-2.964083">
        <ele>1533.0</ele>
        <time>2013-07-29T14:43:28Z</time>
      </trkpt>
      <trkpt lat="43.043667" lon="-2.964133">
        <ele>1536.0</ele>
        <time>2013-07-29T14:43:29Z</time>
      </trkpt>
      <trkpt lat="43.043733" lon="-2.964183">
        <ele>1538.0</ele>
        <time>2013-07-29T14:43:30Z</time>
      </trkpt>
      <trkpt lat="43.043817" lon="-2.964233">
        <ele>1540.0</ele>
        <time>2013-07-29T14:43:31Z</time>
      </trkpt>
      <trkpt lat="43.043900" lon="-2.964267">
        <ele>1543.0</ele>
        <time>2013-07-29T14:43:32Z</time>
      </trkpt>
      <trkpt lat="43.043967" lon="-2.964300">
        <ele>1545.0</ele>
        <time>2013-07-29T14:43:33Z</time>
      </trkpt>
      <trkpt lat="43.044050" lon="-2.964300">
        <ele>1547.0</ele>
        <time>2013-07-29T14:43:34Z</time>
      </trkpt>
      <trkpt lat="43.044117" lon="-2.964283">
        <ele>1549.0</ele>
        <time>2013-07-29T14:43:35Z</time>
      </trkpt>
      <trkpt lat="43.044183" lon="-2.964250">
        <ele>1550.0</ele>
        <time>2013-07-29T14:43:36Z</time>
      </trkpt>
      <trkpt lat="43.044250" lon="-2.964217">
        <ele>1552.0</ele>
        <time>2013-07-29T14:43:37Z</time>
      </trkpt>
      <trkpt lat="43.044317" lon="-2.964183">
        <ele>1554.0</ele>
        <time>2013-07-29T14:43:38Z</time>
      </trkpt>
      <trkpt lat="43.044367" lon="-2.964133">
        <ele>1556.0</ele>
        <time>2013-07-29T14:43:39Z</time>
      </trkpt>
      <trkpt lat="43.044417" lon="-2.964067">
        <ele>1558.0</ele>
        <time>2013-07-29T14:43:40Z</time>
      </trkpt>
      <trkpt lat="43.044467" lon="-2.963983">
        <ele>1560.0</ele>
        <time>2013-07-29T14:43:41Z</time>
      </trkpt>
      <trkpt lat="43.044533" lon="-2.963817">
        <ele>1564.0</ele>
        <time>2013-07-29T14:43:43Z</time>
      </trkpt>
      <trkpt lat="43.044550" lon="-2.963717">
        <ele>1567.0</ele>
        <time>2013-07-29T14:43:44Z</time>
      </trkpt>
      <trkpt lat="43.044567" lon="-2.963617">
        <ele>1568.0</ele>
        <time>2013-07-29T14:43:45Z</time>
      </trkpt>
      <trkpt lat="43.044567" lon="-2.963517">
        <ele>1570.0</ele>
        <time>2013-07-29T14:43:46Z</time>
      </trkpt>
      <trkpt lat="43.044550" lon="-2.963400">
        <ele>1571.0</ele>
        <time>2013-07-29T14:43:47Z</time>
      </trkpt>
      <trkpt lat="43.044533" lon="-2.963300">
        <ele>1573.0</ele>
        <time>2013-07-29T14:43:48Z</time>
      </trkpt>
      <trkpt lat="43.044500" lon="-2.963200">
        <ele>1574.0</ele>
        <time>2013-07-29T14:43:49Z</time>
      </trkpt>
      <trkpt lat="43.044450" lon="-2.963117">
        <ele>1575.0</ele>
        <time>2013-07-29T14:43:50Z</time>
      </trkpt>
      <trkpt lat="43.044383" lon="-2.963050">
        <ele>1577.0</ele>
        <time>2013-07-29T14:43:51Z</time>
      </trkpt>
      <trkpt lat="43.044317" lon="-2.962983">
        <ele>1578.0</ele>
        <time>2013-07-29T14:43:52Z</time>
      </trkpt>
      <trkpt lat="43.044250" lon="-2.962933">
        <ele>1580.0</ele>
        <time>2013-07-29T14:43:53Z</time>
      </trkpt>
      <trkpt lat="43.044183" lon="-2.962900">
        <ele>1581.0</ele>
        <time>2013-07-29T14:43:54Z</time>
      </trkpt>
      <trkpt lat="43.044100" lon="-2.962833">
        <ele>1582.0</ele>
        <time>2013-07-29T14:43:55Z</time>
      </trkpt>
      <trkpt lat="43.044017" lon="-2.962783">
        <ele>1583.0</ele>
        <time>2013-07-29T14:43:56Z</time>
      </trkpt>
      <trkpt lat="43.043933" lon="-2.962750">
        <ele>1584.0</ele>
        <time>2013-07-29T14:43:57Z</time>
      </trkpt>
      <trkpt lat="43.043833" lon="-2.962750">
        <ele>1586.0</ele>
        <time>2013-07-29T14:43:58Z</time>
      </trkpt>
      <trkpt lat="43.043750" lon="-2.962783">
        <ele>1587.0</ele>
        <time>2013-07-29T14:43:59Z</time>
      </trkpt>
      <trkpt lat="43.043667" lon="-2.962817">
        <ele>1589.0</ele>
        <time>2013-07-29T14:44:00Z</time>
      </trkpt>
      <trkpt lat="43.043583" lon="-2.962867">
        <ele>1591.0</ele>
        <time>2013-07-29T14:44:01Z</time>
      </trkpt>
      <trkpt lat="43.043500" lon="-2.962950">
        <ele>1593.0</ele>
        <time>2013-07-29T14:44:02Z</time>
      </trkpt>
      <trkpt lat="43.043433" lon="-2.963033">
        <ele>1594.0</ele>
        <time>2013-07-29T14:44:03Z</time>
      </trkpt>
      <trkpt lat="43.043367" lon="-2.963150">
        <ele>1596.0</ele>
        <time>2013-07-29T14:44:04Z</time>
      </trkpt>
      <trkpt lat="43.043333" lon="-2.963250">
        <ele>1599.0</ele>
        <time>2013-07-29T14:44:05Z</time>
      </trkpt>
      <trkpt lat="43.043300" lon="-2.963350">
        <ele>1601.0</ele>
        <time>2013-07-29T14:44:06Z</time>
      </trkpt>
      <trkpt lat="43.043283" lon="-2.963483">
        <ele>1604.0</ele>
        <time>2013-07-29T14:44:07Z</time>
      </trkpt>
      <trkpt lat="43.043267" lon="-2.963600">
        <ele>1606.0</ele>
        <time>2013-07-29T14:44:08Z</time>
      </trkpt>
      <trkpt lat="43.043267" lon="-2.963717">
        <ele>1608.0</ele>
        <time>2013-07-29T14:44:09Z</time>
      </trkpt>
      <trkpt lat="43.043267" lon="-2.963933">
        <ele>1608.0</ele>
        <time>2013-07-29T14:44:11Z</time>
      </trkpt>
      <trkpt lat="43.043283" lon="-2.964083">
        <ele>1609.0</ele>
        <time>2013-07-29T14:44:12Z</time>
      </trkpt>
      <trkpt lat="43.043317" lon="-2.964200">
        <ele>1610.0</ele>
        <time>2013-07-29T14:44:13Z</time>
      </trkpt>
      <trkpt lat="43.043350" lon="-2.964317">
        <ele>1611.0</ele>
        <time>2013-07-29T14:44:14Z</time>
      </trkpt>
      <trkpt lat="43.043400" lon="-2.964400">
        <ele>1613.0</ele>
        <time>2013-07-29T14:44:15Z</time>
      </trkpt>
      <trkpt lat="43.043433" lon="-2.964467">
        <ele>1615.0</ele>
        <time>2013-07-29T14:44:16Z</time>
      </trkpt>
      <trkpt lat="43.043500" lon="-2.964517">
        <ele>1618.0</ele>
        <time>2013-07-29T14:44:17Z</time>
      </trkpt>
      <trkpt lat="43.043550" lon="-2.964583">
        <ele>1620.0</ele>
        <time>2013-07-29T14:44:18Z</time>
      </trkpt>
      <trkpt lat="43.043617" lon="-2.964650">
        <ele>1623.0</ele>
        <time>2013-07-29T14:44:19Z</time>
      </trkpt>
      <trkpt lat="43.043683" lon="-2.964700">
        <ele>1625.0</ele>
        <time>2013-07-29T14:44:20Z</time>
      </trkpt>
      <trkpt lat="43.043783" lon="-2.964750">
        <ele>1627.0</ele>
        <time>2013-07-29T14:44:21Z</time>
      </trkpt>
      <trkpt lat="43.043850" lon="-2.964767">
        <ele>1631.0</ele>
        <time>2013-07-29T14:44:22Z</time>
      </trkpt>
      <trkpt lat="43.043933" lon="-2.964750">
        <ele>1635.0</ele>
        <time>2013-07-29T14:44:23Z</time>
      </trkpt>
      <trkpt lat="43.044000" lon="-2.964733">
        <ele>1638.0</ele>
        <time>2013-07-29T14:44:24Z</time>
      </trkpt>
      <trkpt lat="43.044067" lon="-2.964700">
        <ele>1641.0</ele>
        <time>2013-07-29T14:44:25Z</time>
      </trkpt>
      <trkpt lat="43.044150" lon="-2.964650">
        <ele>1644.0</ele>
        <time>2013-07-29T14:44:26Z</time>
      </trkpt>
      <trkpt lat="43.044217" lon="-2.964583">
        <ele>1647.0</ele>
        <time>2013-07-29T14:44:27Z</time>
      </trkpt>
      <trkpt lat="43.044267" lon="-2.964517">
        <ele>1650.0</ele>
        <time>2013-07-29T14:44:28Z</time>
      </trkpt>
      <trkpt lat="43.044300" lon="-2.964433">
        <ele>1654.0</ele>
        <time>2013-07-29T14:44:29Z</time>
      </trkpt>
      <trkpt lat="43.044333" lon="-2.964367">
        <ele>1657.0</ele>
        <time>2013-07-29T14:44:30Z</time>
      </trkpt>
      <trkpt lat="43.044367" lon="-2.964267">
        <ele>1660.0</ele>
        <time>2013-07-29T14:44:31Z</time>
      </trkpt>
      <trkpt lat="43.044367" lon="-2.964150">
        <ele>1662.0</ele>
        <time>2013-07-29T14:44:32Z</time>
      </trkpt>
      <trkpt lat="43.044383" lon="-2.964050">
        <ele>1664.0</ele>
        <time>2013-07-29T14:44:33Z</time>
      </trkpt>
      <trkpt lat="43.044367" lon="-2.963933">
        <ele>1667.0</ele>
        <time>2013-07-29T14:44:34Z</time>
      </trkpt>
      <trkpt lat="43.044333" lon="-2.963850">
        <ele>1670.0</ele>
        <time>2013-07-29T14:44:35Z</time>
      </trkpt>
      <trkpt lat="43.044283" lon="-2.963783">
        <ele>1672.0</ele>
        <time>2013-07-29T14:44:36Z</time>
      </trkpt>
      <trkpt lat="43.044217" lon="-2.963717">
        <ele>1673.0</ele>
        <time>2013-07-29T14:44:37Z</time>
      </trkpt>
      <trkpt lat="43.044167" lon="-2.963650">
        <ele>1675.0</ele>
        <time>2013-07-29T14:44:38Z</time>
      </trkpt>
      <trkpt lat="43.044083" lon="-2.963567">
        <ele>1677.0</ele>
        <time>2013-07-29T14:44:39Z</time>
      </trkpt>
      <trkpt lat="43.044017" lon="-2.963517">
        <ele>1680.0</ele>
        <time>2013-07-29T14:44:40Z</time>
      </trkpt>
      <trkpt lat="43.043933" lon="-2.963483">
        <ele>1682.0</ele>
        <time>2013-07-29T14:44:41Z</time>
      </trkpt>
      <trkpt lat="43.043867" lon="-2.963467">
        <ele>1685.0</ele>
        <time>2013-07-29T14:44:42Z</time>
      </trkpt>
      <trkpt lat="43.043783" lon="-2.963450">
        <ele>1687.0</ele>
        <time>2013-07-29T14:44:43Z</time>
      </trkpt>
      <trkpt lat="43.043700" lon="-2.963450">
        <ele>1688.0</ele>
        <time>2013-07-29T14:44:44Z</time>
      </trkpt>
      <trkpt lat="43.043617" lon="-2.963450">
        <ele>1690.0</ele>
        <time>2013-07-29T14:44:45Z</time>
      </trkpt>
      <trkpt lat="43.043533" lon="-2.963467">
        <ele>1692.0</ele>
        <time>2013-07-29T14:44:46Z</time>
      </trkpt>
      <trkpt lat="43.043450" lon="-2.963483">
        <ele>1693.0</ele>
        <time>2013-07-29T14:44:47Z</time>
      </trkpt>
      <trkpt lat="43.043367" lon="-2.963533">
        <ele>1695.0</ele>
        <time>2013-07-29T14:44:48Z</time>
      </trkpt>
      <trkpt lat="43.043283" lon="-2.963583">
        <ele>1696.0</ele>
        <time>2013-07-29T14:44:49Z</time>
      </trkpt>
      <trkpt lat="43.043217" lon="-2.963650">
        <ele>1698.0</ele>
        <time>2013-07-29T14:44:50Z</time>
      </trkpt>
      <trkpt lat="43.043133" lon="-2.963717">
        <ele>1699.0</ele>
        <time>2013-07-29T14:44:51Z</time>
      </trkpt>
      <trkpt lat="43.043083" lon="-2.963800">
        <ele>1700.0</ele>
        <time>2013-07-29T14:44:52Z</time>
      </trkpt>
      <trkpt lat="43.043017" lon="-2.963917">
        <ele>1701.0</ele>
        <time>2013-07-29T14:44:53Z</time>
      </trkpt>
      <trkpt lat="43.042967" lon="-2.964033">
        <ele>1701.0</ele>
        <time>2013-07-29T14:44:54Z</time>
      </trkpt>
      <trkpt lat="43.042950" lon="-2.964150">
        <ele>1703.0</ele>
        <time>2013-07-29T14:44:55Z</time>
      </trkpt>
      <trkpt lat="43.042933" lon="-2.964250">
        <ele>1705.0</ele>
        <time>2013-07-29T14:44:56Z</time>
      </trkpt>
      <trkpt lat="43.042933" lon="-2.964333">
        <ele>1707.0</ele>
        <time>2013-07-29T14:44:57Z</time>
      </trkpt>
      <trkpt lat="43.042933" lon="-2.964433">
        <ele>1708.0</ele>
        <time>2013-07-29T14:44:58Z</time>
      </trkpt>
      <trkpt lat="43.042950" lon="-2.964550">
        <ele>1709.0</ele>
        <time>2013-07-29T14:44:59Z</time>
      </trkpt>
      <trkpt lat="43.043000" lon="-2.964650">
        <ele>1710.0</ele>
        <time>2013-07-29T14:45:00Z</time>
      </trkpt>
      <trkpt lat="43.043050" lon="-2.964750">
        <ele>1711.0</ele>
        <time>2013-07-29T14:45:01Z</time>
      </trkpt>
      <trkpt lat="43.043100" lon="-2.964833">
        <ele>1712.0</ele>
        <time>2013-07-29T14:45:02Z</time>
      </trkpt>
      <trkpt lat="43.043150" lon="-2.964900">
        <ele>1714.0</ele>
        <time>2013-07-29T14:45:03Z</time>
      </trkpt>
      <trkpt lat="43.043217" lon="-2.964950">
        <ele>1717.0</ele>
        <time>2013-07-29T14:45:04Z</time>
      </trkpt>
      <trkpt lat="43.043283" lon="-2.965000">
        <ele>1720.0</ele>
        <time>2013-07-29T14:45:05Z</time>
      </trkpt>
      <trkpt lat="43.043367" lon="-2.965033">
        <ele>1720.0</ele>
        <time>2013-07-29T14:45:06Z</time>
      </trkpt>
      <trkpt lat="43.043467" lon="-2.965050">
        <ele>1721.0</ele>
        <time>2013-07-29T14:45:07Z</time>
      </trkpt>
      <trkpt lat="43.043550" lon="-2.965050">
        <ele>1723.0</ele>
        <time>2013-07-29T14:45:08Z</time>
      </trkpt>
      <trkpt lat="43.043650" lon="-2.965033">
        <ele>1725.0</ele>
        <time>2013-07-29T14:45:09Z</time>
      </trkpt>
      <trkpt lat="43.043717" lon="-2.965000">
        <ele>1728.0</ele>
        <time>2013-07-29T14:45:10Z</time>
      </trkpt>
      <trkpt lat="43.043783" lon="-2.964967">
        <ele>1731.0</ele>
        <time>2013-07-29T14:45:11Z</time>
      </trkpt>
      <trkpt lat="43.043833" lon="-2.964917">
        <ele>1734.0</ele>
        <time>2013-07-29T14:45:12Z</time>
      </trkpt>
      <trkpt lat="43.043867" lon="-2.964833">
        <ele>1735.0</ele>
        <time>2013-07-29T14:45:13Z</time>
      </trkpt>
      <trkpt lat="43.043983" lon="-2.964533">
        <ele>1741.0</ele>
        <time>2013-07-29T14:45:16Z</time>
      </trkpt>
      <trkpt lat="43.043983" lon="-2.964433">
        <ele>1743.0</ele>
        <time>2013-07-29T14:45:17Z</time>
      </trkpt>
      <trkpt lat="43.043983" lon="-2.964333">
        <ele>1746.0</ele>
        <time>2013-07-29T14:45:18Z</time>
      </trkpt>
      <trkpt lat="43.043967" lon="-2.964233">
        <ele>1748.0</ele>
        <time>2013-07-29T14:45:19Z</time>
      </trkpt>
      <trkpt lat="43.043933" lon="-2.964150">
        <ele>1750.0</ele>
        <time>2013-07-29T14:45:20Z</time>
      </trkpt>
      <trkpt lat="43.043900" lon="-2.964067">
        <ele>1753.0</ele>
        <time>2013-07-29T14:45:21Z</time>
      </trkpt>
      <trkpt lat="43.043850" lon="-2.963983">
        <ele>1755.0</ele>
        <time>2013-07-29T14:45:22Z</time>
      </trkpt>
      <trkpt lat="43.043800" lon="-2.963917">
        <ele>1758.0</ele>
        <time>2013-07-29T14:45:23Z</time>
      </trkpt>
      <trkpt lat="43.043717" lon="-2.963867">
        <ele>1760.0</ele>
        <time>2013-07-29T14:45:24Z</time>
      </trkpt>
      <trkpt lat="43.043650" lon="-2.963833">
        <ele>1762.0</ele>
        <time>2013-07-29T14:45:25Z</time>
      </trkpt>
      <trkpt lat="43.043567" lon="-2.963817">
        <ele>1764.0</ele>
        <time>2013-07-29T14:45:26Z</time>
      </trkpt>
      <trkpt lat="43.043483" lon="-2.963817">
        <ele>1767.0</ele>
        <time>2013-07-29T14:45:27Z</time>
      </trkpt>
      <trkpt lat="43.043417" lon="-2.963850">
        <ele>1769.0</ele>
        <time>2013-07-29T14:45:28Z</time>
      </trkpt>
      <trkpt lat="43.043333" lon="-2.963900">
        <ele>1771.0</ele>
        <time>2013-07-29T14:45:29Z</time>
      </trkpt>
      <trkpt lat="43.043283" lon="-2.963983">
        <ele>1772.0</ele>
        <time>2013-07-29T14:45:30Z</time>
      </trkpt>
      <trkpt lat="43.043217" lon="-2.964067">
        <ele>1772.0</ele>
        <time>2013-07-29T14:45:31Z</time>
      </trkpt>
      <trkpt lat="43.043167" lon="-2.964167">
        <ele>1773.0</ele>
        <time>2013-07-29T14:45:32Z</time>
      </trkpt>
      <trkpt lat="43.043117" lon="-2.964250">
        <ele>1774.0</ele>
        <time>2013-07-29T14:45:33Z</time>
      </trkpt>
      <trkpt lat="43.043083" lon="-2.964367">
        <ele>1775.0</ele>
        <time>2013-07-29T14:45:34Z</time>
      </trkpt>
      <trkpt lat="43.043067" lon="-2.964467">
        <ele>1775.0</ele>
        <time>2013-07-29T14:45:35Z</time>
      </trkpt>
      <trkpt lat="43.043067" lon="-2.964600">
        <ele>1776.0</ele>
        <time>2013-07-29T14:45:36Z</time>
      </trkpt>
      <trkpt lat="43.043083" lon="-2.964717">
        <ele>1777.0</ele>
        <time>2013-07-29T14:45:37Z</time>
      </trkpt>
      <trkpt lat="43.043117" lon="-2.964817">
        <ele>1777.0</ele>
        <time>2013-07-29T14:45:38Z</time>
      </trkpt>
      <trkpt lat="43.043150" lon="-2.964917">
        <ele>1778.0</ele>
        <time>2013-07-29T14:45:39Z</time>
      </trkpt>
      <trkpt lat="43.043200" lon="-2.965017">
        <ele>1779.0</ele>
        <time>2013-07-29T14:45:40Z</time>
      </trkpt>
      <trkpt lat="43.043250" lon="-2.965100">
        <ele>1780.0</ele>
        <time>2013-07-29T14:45:41Z</time>
      </trkpt>
      <trkpt lat="43.043300" lon="-2.965167">
        <ele>1781.0</ele>
        <time>2013-07-29T14:45:42Z</time>
      </trkpt>
      <trkpt lat="43.043367" lon="-2.965233">
        <ele>1782.0</ele>
        <time>2013-07-29T14:45:43Z</time>
      </trkpt>
      <trkpt lat="43.043433" lon="-2.965283">
        <ele>1784.0</ele>
        <time>2013-07-29T14:45:44Z</time>
      </trkpt>
      <trkpt lat="43.043517" lon="-2.965317">
        <ele>1784.0</ele>
        <time>2013-07-29T14:45:45Z</time>
      </trkpt>
      <trkpt lat="43.043583" lon="-2.965333">
        <ele>1785.0</ele>
        <time>2013-07-29T14:45:46Z</time>
      </trkpt>
      <trkpt lat="43.043683" lon="-2.965350">
        <ele>1786.0</ele>
        <time>2013-07-29T14:45:47Z</time>
      </trkpt>
      <trkpt lat="43.043767" lon="-2.965367">
        <ele>1788.0</ele>
        <time>2013-07-29T14:45:48Z</time>
      </trkpt>
      <trkpt lat="43.043850" lon="-2.965367">
        <ele>1790.0</ele>
        <time>2013-07-29T14:45:49Z</time>
      </trkpt>
      <trkpt lat="43.043917" lon="-2.965350">
        <ele>1792.0</ele>
        <time>2013-07-29T14:45:50Z</time>
      </trkpt>
      <trkpt lat="43.044000" lon="-2.965317">
        <ele>1793.0</ele>
        <time>2013-07-29T14:45:51Z</time>
      </trkpt>
      <trkpt lat="43.044067" lon="-2.965267">
        <ele>1794.0</ele>
        <time>2013-07-29T14:45:52Z</time>
      </trkpt>
      <trkpt lat="43.044150" lon="-2.965217">
        <ele>1795.0</ele>
        <time>2013-07-29T14:45:53Z</time>
      </trkpt>
      <trkpt lat="43.044217" lon="-2.965133">
        <ele>1795.0</ele>
        <time>2013-07-29T14:45:54Z</time>
      </trkpt>
      <trkpt lat="43.044317" lon="-2.964967">
        <ele>1797.0</ele>
        <time>2013-07-29T14:45:56Z</time>
      </trkpt>
      <trkpt lat="43.044367" lon="-2.964867">
        <ele>1798.0</ele>
        <time>2013-07-29T14:45:57Z</time>
      </trkpt>
      <trkpt lat="43.044400" lon="-2.964767">
        <ele>1798.0</ele>
        <time>2013-07-29T14:45:58Z</time>
      </trkpt>
      <trkpt lat="43.044417" lon="-2.964667">
        <ele>1799.0</ele>
        <time>2013-07-29T14:45:59Z</time>
      </trkpt>
      <trkpt lat="43.044433" lon="-2.964550">
        <ele>1798.0</ele>
        <time>2013-07-29T14:46:00Z</time>
      </trkpt>
      <trkpt lat="43.044450" lon="-2.964450">
        <ele>1799.0</ele>
        <time>2013-07-29T14:46:01Z</time>
      </trkpt>
      <trkpt lat="43.044433" lon="-2.964250">
        <ele>1801.0</ele>
        <time>2013-07-29T14:46:03Z</time>
      </trkpt>
      <trkpt lat="43.044417" lon="-2.964150">
        <ele>1802.0</ele>
        <time>2013-07-29T14:46:04Z</time>
      </trkpt>
      <trkpt lat="43.044383" lon="-2.964050">
        <ele>1803.0</ele>
        <time>2013-07-29T14:46:05Z</time>
      </trkpt>
      <trkpt lat="43.044267" lon="-2.963883">
        <ele>1807.0</ele>
        <time>2013-07-29T14:46:07Z</time>
      </trkpt>
      <trkpt lat="43.044183" lon="-2.963850">
        <ele>1808.0</ele>
        <time>2013-07-29T14:46:08Z</time>
      </trkpt>
      <trkpt lat="43.044117" lon="-2.963833">
        <ele>1810.0</ele>
        <time>2013-07-29T14:46:09Z</time>
      </trkpt>
      <trkpt lat="43.044033" lon="-2.963833">
        <ele>1811.0</ele>
        <time>2013-07-29T14:46:10Z</time>
      </trkpt>
      <trkpt lat="43.043967" lon="-2.963833">
        <ele>1813.0</ele>
        <time>2013-07-29T14:46:11Z</time>
      </trkpt>
      <trkpt lat="43.043900" lon="-2.963867">
        <ele>1814.0</ele>
        <time>2013-07-29T14:46:12Z</time>
      </trkpt>
      <trkpt lat="43.043833" lon="-2.963917">
        <ele>1816.0</ele>
        <time>2013-07-29T14:46:13Z</time>
      </trkpt>
      <trkpt lat="43.043783" lon="-2.963983">
        <ele>1818.0</ele>
        <time>2013-07-29T14:46:14Z</time>
      </trkpt>
      <trkpt lat="43.043750" lon="-2.964067">
        <ele>1819.0</ele>
        <time>2013-07-29T14:46:15Z</time>
      </trkpt>
      <trkpt lat="43.043733" lon="-2.964167">
        <ele>1820.0</ele>
        <time>2013-07-29T14:46:16Z</time>
      </trkpt>
      <trkpt lat="43.043700" lon="-2.964267">
        <ele>1821.0</ele>
        <time>2013-07-29T14:46:17Z</time>
      </trkpt>
      <trkpt lat="43.043700" lon="-2.964367">
        <ele>1823.0</ele>
        <time>2013-07-29T14:46:18Z</time>
      </trkpt>
      <trkpt lat="43.043700" lon="-2.964467">
        <ele>1824.0</ele>
        <time>2013-07-29T14:46:19Z</time>
      </trkpt>
      <trkpt lat="43.043700" lon="-2.964583">
        <ele>1826.0</ele>
        <time>2013-07-29T14:46:20Z</time>
      </trkpt>
      <trkpt lat="43.043733" lon="-2.964683">
        <ele>1827.0</ele>
        <time>2013-07-29T14:46:21Z</time>
      </trkpt>
      <trkpt lat="43.043767" lon="-2.964783">
        <ele>1829.0</ele>
        <time>2013-07-29T14:46:22Z</time>
      </trkpt>
      <trkpt lat="43.043800" lon="-2.964883">
        <ele>1830.0</ele>
        <time>2013-07-29T14:46:23Z</time>
      </trkpt>
      <trkpt lat="43.043850" lon="-2.964983">
        <ele>1831.0</ele>
        <time>2013-07-29T14:46:24Z</time>
      </trkpt>
      <trkpt lat="43.043917" lon="-2.965083">
        <ele>1832.0</ele>
        <time>2013-07-29T14:46:25Z</time>
      </trkpt>
      <trkpt lat="43.043967" lon="-2.965133">
        <ele>1833.0</ele>
        <time>2013-07-29T14:46:26Z</time>
      </trkpt>
      <trkpt lat="43.044050" lon="-2.965200">
        <ele>1829.0</ele>
        <time>2013-07-29T14:46:27Z</time>
      </trkpt>
      <trkpt lat="43.044133" lon="-2.965283">
        <ele>1829.0</ele>
        <time>2013-07-29T14:46:28Z</time>
      </trkpt>
      <trkpt lat="43.044233" lon="-2.965350">
        <ele>1830.0</ele>
        <time>2013-07-29T14:46:29Z</time>
      </trkpt>
      <trkpt lat="43.044350" lon="-2.965400">
        <ele>1831.0</ele>
        <time>2013-07-29T14:46:30Z</time>
      </trkpt>
      <trkpt lat="43.044433" lon="-2.965417">
        <ele>1833.0</ele>
        <time>2013-07-29T14:46:31Z</time>
      </trkpt>
      <trkpt lat="43.044517" lon="-2.965433">
        <ele>1836.0</ele>
        <time>2013-07-29T14:46:32Z</time>
      </trkpt>
      <trkpt lat="43.044583" lon="-2.965450">
        <ele>1838.0</ele>
        <time>2013-07-29T14:46:33Z</time>
      </trkpt>
      <trkpt lat="43.044667" lon="-2.965483">
        <ele>1840.0</ele>
        <time>2013-07-29T14:46:34Z</time>
      </trkpt>
      <trkpt lat="43.044767" lon="-2.965500">
        <ele>1841.0</ele>
        <time>2013-07-29T14:46:35Z</time>
      </trkpt>
      <trkpt lat="43.044867" lon="-2.965483">
        <ele>1841.0</ele>
        <time>2013-07-29T14:46:36Z</time>
      </trkpt>
      <trkpt lat="43.044950" lon="-2.965467">
        <ele>1843.0</ele>
        <time>2013-07-29T14:46:37Z</time>
      </trkpt>
      <trkpt lat="43.045017" lon="-2.965417">
        <ele>1844.0</ele>
        <time>2013-07-29T14:46:38Z</time>
      </trkpt>
      <trkpt lat="43.045167" lon="-2.965267">
        <ele>1847.0</ele>
        <time>2013-07-29T14:46:40Z</time>
      </trkpt>
      <trkpt lat="43.045233" lon="-2.965183">
        <ele>1848.0</ele>
        <time>2013-07-29T14:46:41Z</time>
      </trkpt>
      <trkpt lat="43.045283" lon="-2.965083">
        <ele>1849.0</ele>
        <time>2013-07-29T14:46:42Z</time>
      </trkpt>
      <trkpt lat="43.045333" lon="-2.964967">
        <ele>1850.0</ele>
        <time>2013-07-29T14:46:43Z</time>
      </trkpt>
      <trkpt lat="43.045383" lon="-2.964833">
        <ele>1852.0</ele>
        <time>2013-07-29T14:46:44Z</time>
      </trkpt>
      <trkpt lat="43.045400" lon="-2.964717">
        <ele>1853.0</ele>
        <time>2013-07-29T14:46:45Z</time>
      </trkpt>
      <trkpt lat="43.045417" lon="-2.964583">
        <ele>1853.0</ele>
        <time>2013-07-29T14:46:46Z</time>
      </trkpt>
      <trkpt lat="43.045433" lon="-2.964467">
        <ele>1853.0</ele>
        <time>2013-07-29T14:46:47Z</time>
      </trkpt>
      <trkpt lat="43.045450" lon="-2.964367">
        <ele>1854.0</ele>
        <time>2013-07-29T14:46:48Z</time>
      </trkpt>
      <trkpt lat="43.045450" lon="-2.964267">
        <ele>1854.0</ele>
        <time>2013-07-29T14:46:49Z</time>
      </trkpt>
      <trkpt lat="43.045450" lon="-2.964167">
        <ele>1853.0</ele>
        <time>2013-07-29T14:46:50Z</time>
      </trkpt>
      <trkpt lat="43.045433" lon="-2.964050">
        <ele>1850.0</ele>
        <time>2013-07-29T14:46:51Z</time>
      </trkpt>
      <trkpt lat="43.045400" lon="-2.963933">
        <ele>1848.0</ele>
        <time>2013-07-29T14:46:52Z</time>
      </trkpt>
      <trkpt lat="43.045350" lon="-2.963817">
        <ele>1847.0</ele>
        <time>2013-07-29T14:46:53Z</time>
      </trkpt>
      <trkpt lat="43.045283" lon="-2.963700">
        <ele>1846.0</ele>
        <time>2013-07-29T14:46:54Z</time>
      </trkpt>
      <trkpt lat="43.045200" lon="-2.963617">
        <ele>1846.0</ele>
        <time>2013-07-29T14:46:55Z</time>
      </trkpt>
      <trkpt lat="43.045133" lon="-2.963533">
        <ele>1846.0</ele>
        <time>2013-07-29T14:46:56Z</time>
      </trkpt>
      <trkpt lat="43.045050" lon="-2.963500">
        <ele>1847.0</ele>
        <time>2013-07-29T14:46:57Z</time>
      </trkpt>
      <trkpt lat="43.044983" lon="-2.963450">
        <ele>1847.0</ele>
        <time>2013-07-29T14:46:58Z</time>
      </trkpt>
      <trkpt lat="43.044900" lon="-2.963433">
        <ele>1848.0</ele>
        <time>2013-07-29T14:46:59Z</time>
      </trkpt>
      <trkpt lat="43.044833" lon="-2.963417">
        <ele>1847.0</ele>
        <time>2013-07-29T14:47:00Z</time>
      </trkpt>
      <trkpt lat="43.044733" lon="-2.963417">
        <ele>1848.0</ele>
        <time>2013-07-29T14:47:01Z</time>
      </trkpt>
      <trkpt lat="43.044667" lon="-2.963450">
        <ele>1848.0</ele>
        <time>2013-07-29T14:47:02Z</time>
      </trkpt>
      <trkpt lat="43.044583" lon="-2.963467">
        <ele>1850.0</ele>
        <time>2013-07-29T14:47:03Z</time>
      </trkpt>
      <trkpt lat="43.044517" lon="-2.963483">
        <ele>1852.0</ele>
        <time>2013-07-29T14:47:04Z</time>
      </trkpt>
      <trkpt lat="43.044467" lon="-2.963517">
        <ele>1854.0</ele>
        <time>2013-07-29T14:47:05Z</time>
      </trkpt>
      <trkpt lat="43.044417" lon="-2.963567">
        <ele>1855.0</ele>
        <time>2013-07-29T14:47:06Z</time>
      </trkpt>
      <trkpt lat="43.044350" lon="-2.963617">
        <ele>1854.0</ele>
        <time>2013-07-29T14:47:07Z</time>
      </trkpt>
      <trkpt lat="43.044300" lon="-2.963683">
        <ele>1853.0</ele>
        <time>2013-07-29T14:47:08Z</time>
      </trkpt>
      <trkpt lat="43.044250" lon="-2.963767">
        <ele>1853.0</ele>
        <time>2013-07-29T14:47:09Z</time>
      </trkpt>
      <trkpt lat="43.044200" lon="-2.963833">
        <ele>1853.0</ele>
        <time>2013-07-29T14:47:10Z</time>
      </trkpt>
      <trkpt lat="43.044167" lon="-2.963917">
        <ele>1854.0</ele>
        <time>2013-07-29T14:47:11Z</time>
      </trkpt>
      <trkpt lat="43.044133" lon="-2.963967">
        <ele>1855.0</ele>
        <time>2013-07-29T14:47:12Z</time>
      </trkpt>
      <trkpt lat="43.044083" lon="-2.964033">
        <ele>1855.0</ele>
        <time>2013-07-29T14:47:13Z</time>
      </trkpt>
      <trkpt lat="43.044050" lon="-2.964117">
        <ele>1855.0</ele>
        <time>2013-07-29T14:47:14Z</time>
      </trkpt>
      <trkpt lat="43.044000" lon="-2.964183">
        <ele>1854.0</ele>
        <time>2013-07-29T14:47:15Z</time>
      </trkpt>
      <trkpt lat="43.043967" lon="-2.964283">
        <ele>1854.0</ele>
        <time>2013-07-29T14:47:16Z</time>
      </trkpt>
      <trkpt lat="43.043933" lon="-2.964367">
        <ele>1855.0</ele>
        <time>2013-07-29T14:47:17Z</time>
      </trkpt>
      <trkpt lat="43.043883" lon="-2.964433">
        <ele>1855.0</ele>
        <time>2013-07-29T14:47:18Z</time>
      </trkpt>
      <trkpt lat="43.043833" lon="-2.964500">
        <ele>1855.0</ele>
        <time>2013-07-29T14:47:19Z</time>
      </trkpt>
      <trkpt lat="43.043783" lon="-2.964550">
        <ele>1856.0</ele>
        <time>2013-07-29T14:47:20Z</time>
      </trkpt>
      <trkpt lat="43.043733" lon="-2.964617">
        <ele>1856.0</ele>
        <time>2013-07-29T14:47:21Z</time>
      </trkpt>
      <trkpt lat="43.043683" lon="-2.964683">
        <ele>1857.0</ele>
        <time>2013-07-29T14:47:22Z</time>
      </trkpt>
      <trkpt lat="43.043633" lon="-2.964733">
        <ele>1857.0</ele>
        <time>2013-07-29T14:47:23Z</time>
      </trkpt>
      <trkpt lat="43.043583" lon="-2.964800">
        <ele>1858.0</ele>
        <time>2013-07-29T14:47:24Z</time>
      </trkpt>
      <trkpt lat="43.043533" lon="-2.964850">
        <ele>1858.0</ele>
        <time>2013-07-29T14:47:25Z</time>
      </trkpt>
      <trkpt lat="43.043500" lon="-2.964917">
        <ele>1858.0</ele>
        <time>2013-07-29T14:47:26Z</time>
      </trkpt>
      <trkpt lat="43.043450" lon="-2.964967">
        <ele>1858.0</ele>
        <time>2013-07-29T14:47:27Z</time>
      </trkpt>
      <trkpt lat="43.043417" lon="-2.965033">
        <ele>1857.0</ele>
        <time>2013-07-29T14:47:28Z</time>
      </trkpt>
      <trkpt lat="43.043367" lon="-2.965100">
        <ele>1855.0</ele>
        <time>2013-07-29T14:47:29Z</time>
      </trkpt>
      <trkpt lat="43.043300" lon="-2.965167">
        <ele>1854.0</ele>
        <time>2013-07-29T14:47:30Z</time>
      </trkpt>
      <trkpt lat="43.043250" lon="-2.965217">
        <ele>1853.0</ele>
        <time>2013-07-29T14:47:31Z</time>
      </trkpt>
      <trkpt lat="43.043217" lon="-2.965267">
        <ele>1852.0</ele>
        <time>2013-07-29T14:47:32Z</time>
      </trkpt>
      <trkpt lat="43.043167" lon="-2.965300">
        <ele>1851.0</ele>
        <time>2013-07-29T14:47:33Z</time>
      </trkpt>
      <trkpt lat="43.043117" lon="-2.965350">
        <ele>1849.0</ele>
        <time>2013-07-29T14:47:34Z</time>
      </trkpt>
      <trkpt lat="43.043067" lon="-2.965400">
        <ele>1846.0</ele>
        <time>2013-07-29T14:47:35Z</time>
      </trkpt>
      <trkpt lat="43.043017" lon="-2.965483">
        <ele>1843.0</ele>
        <time>2013-07-29T14:47:36Z</time>
      </trkpt>
      <trkpt lat="43.042967" lon="-2.965550">
        <ele>1841.0</ele>
        <time>2013-07-29T14:47:37Z</time>
      </trkpt>
      <trkpt lat="43.042933" lon="-2.965600">
        <ele>1840.0</ele>
        <time>2013-07-29T14:47:38Z</time>
      </trkpt>
      <trkpt lat="43.042900" lon="-2.965650">
        <ele>1839.0</ele>
        <time>2013-07-29T14:47:39Z</time>
      </trkpt>
      <trkpt lat="43.042850" lon="-2.965683">
        <ele>1838.0</ele>
        <time>2013-07-29T14:47:40Z</time>
      </trkpt>
      <trkpt lat="43.042817" lon="-2.965733">
        <ele>1835.0</ele>
        <time>2013-07-29T14:47:41Z</time>
      </trkpt>
      <trkpt lat="43.042750" lon="-2.965783">
        <ele>1832.0</ele>
        <time>2013-07-29T14:47:42Z</time>
      </trkpt>
      <trkpt lat="43.042700" lon="-2.965833">
        <ele>1829.0</ele>
        <time>2013-07-29T14:47:43Z</time>
      </trkpt>
      <trkpt lat="43.042650" lon="-2.965883">
        <ele>1827.0</ele>
        <time>2013-07-29T14:47:44Z</time>
      </trkpt>
      <trkpt lat="43.042600" lon="-2.965917">
        <ele>1825.0</ele>
        <time>2013-07-29T14:47:45Z</time>
      </trkpt>
      <trkpt lat="43.042533" lon="-2.965933">
        <ele>1824.0</ele>
        <time>2013-07-29T14:47:46Z</time>
      </trkpt>
      <trkpt lat="43.042483" lon="-2.965967">
        <ele>1822.0</ele>
        <time>2013-07-29T14:47:47Z</time>
      </trkpt>
      <trkpt lat="43.042433" lon="-2.966000">
        <ele>1819.0</ele>
        <time>2013-07-29T14:47:48Z</time>
      </trkpt>
      <trkpt lat="43.042367" lon="-2.966050">
        <ele>1816.0</ele>
        <time>2013-07-29T14:47:49Z</time>
      </trkpt>
      <trkpt lat="43.042300" lon="-2.966100">
        <ele>1813.0</ele>
        <time>2013-07-29T14:47:50Z</time>
      </trkpt>
      <trkpt lat="43.042250" lon="-2.966150">
        <ele>1811.0</ele>
        <time>2013-07-29T14:47:51Z</time>
      </trkpt>
      <trkpt lat="43.042200" lon="-2.966217">
        <ele>1809.0</ele>
        <time>2013-07-29T14:47:52Z</time>
      </trkpt>
      <trkpt lat="43.042150" lon="-2.966267">
        <ele>1808.0</ele>
        <time>2013-07-29T14:47:53Z</time>
      </trkpt>
      <trkpt lat="43.042100" lon="-2.966333">
        <ele>1806.0</ele>
        <time>2013-07-29T14:47:54Z</time>
      </trkpt>
      <trkpt lat="43.042050" lon="-2.966383">
        <ele>1804.0</ele>
        <time>2013-07-29T14:47:55Z</time>
      </trkpt>
      <trkpt lat="43.041983" lon="-2.966467">
        <ele>1802.0</ele>
        <time>2013-07-29T14:47:56Z</time>
      </trkpt>
      <trkpt lat="43.041933" lon="-2.966533">
        <ele>1800.0</ele>
        <time>2013-07-29T14:47:57Z</time>
      </trkpt>
      <trkpt lat="43.041883" lon="-2.966583">
        <ele>1799.0</ele>
        <time>2013-07-29T14:47:58Z</time>
      </trkpt>
      <trkpt lat="43.041833" lon="-2.966650">
        <ele>1797.0</ele>
        <time>2013-07-29T14:47:59Z</time>
      </trkpt>
      <trkpt lat="43.041783" lon="-2.966700">
        <ele>1795.0</ele>
        <time>2013-07-29T14:48:00Z</time>
      </trkpt>
      <trkpt lat="43.041733" lon="-2.966767">
        <ele>1793.0</ele>
        <time>2013-07-29T14:48:01Z</time>
      </trkpt>
      <trkpt lat="43.041667" lon="-2.966817">
        <ele>1791.0</ele>
        <time>2013-07-29T14:48:02Z</time>
      </trkpt>
      <trkpt lat="43.041617" lon="-2.966900">
        <ele>1789.0</ele>
        <time>2013-07-29T14:48:03Z</time>
      </trkpt>
      <trkpt lat="43.041550" lon="-2.966967">
        <ele>1787.0</ele>
        <time>2013-07-29T14:48:04Z</time>
      </trkpt>
      <trkpt lat="43.041500" lon="-2.967050">
        <ele>1785.0</ele>
        <time>2013-07-29T14:48:05Z</time>
      </trkpt>
      <trkpt lat="43.041450" lon="-2.967117">
        <ele>1783.0</ele>
        <time>2013-07-29T14:48:06Z</time>
      </trkpt>
      <trkpt lat="43.041383" lon="-2.967167">
        <ele>1781.0</ele>
        <time>2013-07-29T14:48:07Z</time>
      </trkpt>
      <trkpt lat="43.041333" lon="-2.967233">
        <ele>1779.0</ele>
        <time>2013-07-29T14:48:08Z</time>
      </trkpt>
      <trkpt lat="43.041283" lon="-2.967283">
        <ele>1777.0</ele>
        <time>2013-07-29T14:48:09Z</time>
      </trkpt>
      <trkpt lat="43.041217" lon="-2.967350">
        <ele>1775.0</ele>
        <time>2013-07-29T14:48:10Z</time>
      </trkpt>
      <trkpt lat="43.041150" lon="-2.967417">
        <ele>1773.0</ele>
        <time>2013-07-29T14:48:11Z</time>
      </trkpt>
      <trkpt lat="43.041100" lon="-2.967483">
        <ele>1771.0</ele>
        <time>2013-07-29T14:48:12Z</time>
      </trkpt>
      <trkpt lat="43.041033" lon="-2.967533">
        <ele>1770.0</ele>
        <time>2013-07-29T14:48:13Z</time>
      </trkpt>
      <trkpt lat="43.040983" lon="-2.967583">
        <ele>1769.0</ele>
        <time>2013-07-29T14:48:14Z</time>
      </trkpt>
      <trkpt lat="43.040933" lon="-2.967633">
        <ele>1767.0</ele>
        <time>2013-07-29T14:48:15Z</time>
      </trkpt>
      <trkpt lat="43.040850" lon="-2.967667">
        <ele>1764.0</ele>
        <time>2013-07-29T14:48:16Z</time>
      </trkpt>
      <trkpt lat="43.040783" lon="-2.967733">
        <ele>1762.0</ele>
        <time>2013-07-29T14:48:17Z</time>
      </trkpt>
      <trkpt lat="43.040733" lon="-2.967800">
        <ele>1760.0</ele>
        <time>2013-07-29T14:48:18Z</time>
      </trkpt>
      <trkpt lat="43.040683" lon="-2.967883">
        <ele>1759.0</ele>
        <time>2013-07-29T14:48:19Z</time>
      </trkpt>
      <trkpt lat="43.040633" lon="-2.967950">
        <ele>1758.0</ele>
        <time>2013-07-29T14:48:20Z</time>
      </trkpt>
      <trkpt lat="43.040567" lon="-2.968000">
        <ele>1757.0</ele>
        <time>2013-07-29T14:48:21Z</time>
      </trkpt>
      <trkpt lat="43.040517" lon="-2.968067">
        <ele>1755.0</ele>
        <time>2013-07-29T14:48:22Z</time>
      </trkpt>
      <trkpt lat="43.040450" lon="-2.968150">
        <ele>1752.0</ele>
        <time>2013-07-29T14:48:23Z</time>
      </trkpt>
      <trkpt lat="43.040383" lon="-2.968217">
        <ele>1750.0</ele>
        <time>2013-07-29T14:48:24Z</time>
      </trkpt>
      <trkpt lat="43.040333" lon="-2.968283">
        <ele>1749.0</ele>
        <time>2013-07-29T14:48:25Z</time>
      </trkpt>
      <trkpt lat="43.040283" lon="-2.968350">
        <ele>1748.0</ele>
        <time>2013-07-29T14:48:26Z</time>
      </trkpt>
      <trkpt lat="43.040217" lon="-2.968417">
        <ele>1746.0</ele>
        <time>2013-07-29T14:48:27Z</time>
      </trkpt>
      <trkpt lat="43.040167" lon="-2.968483">
        <ele>1745.0</ele>
        <time>2013-07-29T14:48:28Z</time>
      </trkpt>
      <trkpt lat="43.040083" lon="-2.968550">
        <ele>1743.0</ele>
        <time>2013-07-29T14:48:29Z</time>
      </trkpt>
      <trkpt lat="43.040017" lon="-2.968617">
        <ele>1742.0</ele>
        <time>2013-07-29T14:48:30Z</time>
      </trkpt>
      <trkpt lat="43.039967" lon="-2.968667">
        <ele>1741.0</ele>
        <time>2013-07-29T14:48:31Z</time>
      </trkpt>
      <trkpt lat="43.039917" lon="-2.968717">
        <ele>1740.0</ele>
        <time>2013-07-29T14:48:32Z</time>
      </trkpt>
      <trkpt lat="43.039850" lon="-2.968767">
        <ele>1738.0</ele>
        <time>2013-07-29T14:48:33Z</time>
      </trkpt>
      <trkpt lat="43.039783" lon="-2.968817">
        <ele>1736.0</ele>
        <time>2013-07-29T14:48:34Z</time>
      </trkpt>
      <trkpt lat="43.039717" lon="-2.968883">
        <ele>1732.0</ele>
        <time>2013-07-29T14:48:35Z</time>
      </trkpt>
      <trkpt lat="43.039650" lon="-2.968950">
        <ele>1730.0</ele>
        <time>2013-07-29T14:48:36Z</time>
      </trkpt>
      <trkpt lat="43.039583" lon="-2.969017">
        <ele>1728.0</ele>
        <time>2013-07-29T14:48:37Z</time>
      </trkpt>
      <trkpt lat="43.039533" lon="-2.969067">
        <ele>1727.0</ele>
        <time>2013-07-29T14:48:38Z</time>
      </trkpt>
      <trkpt lat="43.039417" lon="-2.969217">
        <ele>1724.0</ele>
        <time>2013-07-29T14:48:40Z</time>
      </trkpt>
      <trkpt lat="43.039367" lon="-2.969300">
        <ele>1722.0</ele>
        <time>2013-07-29T14:48:41Z</time>
      </trkpt>
      <trkpt lat="43.039317" lon="-2.969383">
        <ele>1720.0</ele>
        <time>2013-07-29T14:48:42Z</time>
      </trkpt>
      <trkpt lat="43.039250" lon="-2.969467">
        <ele>1718.0</ele>
        <time>2013-07-29T14:48:43Z</time>
      </trkpt>
      <trkpt lat="43.039200" lon="-2.969533">
        <ele>1717.0</ele>
        <time>2013-07-29T14:48:44Z</time>
      </trkpt>
      <trkpt lat="43.039150" lon="-2.969583">
        <ele>1716.0</ele>
        <time>2013-07-29T14:48:45Z</time>
      </trkpt>
      <trkpt lat="43.039117" lon="-2.969633">
        <ele>1716.0</ele>
        <time>2013-07-29T14:48:46Z</time>
      </trkpt>
      <trkpt lat="43.039067" lon="-2.969700">
        <ele>1714.0</ele>
        <time>2013-07-29T14:48:47Z</time>
      </trkpt>
      <trkpt lat="43.039017" lon="-2.969767">
        <ele>1712.0</ele>
        <time>2013-07-29T14:48:48Z</time>
      </trkpt>
      <trkpt lat="43.038950" lon="-2.969850">
        <ele>1709.0</ele>
        <time>2013-07-29T14:48:49Z</time>
      </trkpt>
      <trkpt lat="43.038883" lon="-2.969917">
        <ele>1706.0</ele>
        <time>2013-07-29T14:48:50Z</time>
      </trkpt>
      <trkpt lat="43.038833" lon="-2.969983">
        <ele>1705.0</ele>
        <time>2013-07-29T14:48:51Z</time>
      </trkpt>
      <trkpt lat="43.038767" lon="-2.970050">
        <ele>1703.0</ele>
        <time>2013-07-29T14:48:52Z</time>
      </trkpt>
      <trkpt lat="43.038583" lon="-2.970250">
        <ele>1698.0</ele>
        <time>2013-07-29T14:48:55Z</time>
      </trkpt>
      <trkpt lat="43.038517" lon="-2.970300">
        <ele>1696.0</ele>
        <time>2013-07-29T14:48:56Z</time>
      </trkpt>
      <trkpt lat="43.038467" lon="-2.970367">
        <ele>1694.0</ele>
        <time>2013-07-29T14:48:57Z</time>
      </trkpt>
      <trkpt lat="43.038400" lon="-2.970433">
        <ele>1691.0</ele>
        <time>2013-07-29T14:48:58Z</time>
      </trkpt>
      <trkpt lat="43.038333" lon="-2.970500">
        <ele>1689.0</ele>
        <time>2013-07-29T14:48:59Z</time>
      </trkpt>
      <trkpt lat="43.038267" lon="-2.970583">
        <ele>1687.0</ele>
        <time>2013-07-29T14:49:00Z</time>
      </trkpt>
      <trkpt lat="43.038217" lon="-2.970667">
        <ele>1685.0</ele>
        <time>2013-07-29T14:49:01Z</time>
      </trkpt>
      <trkpt lat="43.038167" lon="-2.970733">
        <ele>1682.0</ele>
        <time>2013-07-29T14:49:02Z</time>
      </trkpt>
      <trkpt lat="43.038117" lon="-2.970817">
        <ele>1680.0</ele>
        <time>2013-07-29T14:49:03Z</time>
      </trkpt>
      <trkpt lat="43.038067" lon="-2.970900">
        <ele>1679.0</ele>
        <time>2013-07-29T14:49:04Z</time>
      </trkpt>
      <trkpt lat="43.038033" lon="-2.970967">
        <ele>1677.0</ele>
        <time>2013-07-29T14:49:05Z</time>
      </trkpt>
      <trkpt lat="43.037983" lon="-2.971033">
        <ele>1676.0</ele>
        <time>2013-07-29T14:49:06Z</time>
      </trkpt>
      <trkpt lat="43.037950" lon="-2.971100">
        <ele>1673.0</ele>
        <time>2013-07-29T14:49:07Z</time>
      </trkpt>
      <trkpt lat="43.037900" lon="-2.971183">
        <ele>1670.0</ele>
        <time>2013-07-29T14:49:08Z</time>
      </trkpt>
      <trkpt lat="43.037850" lon="-2.971267">
        <ele>1667.0</ele>
        <time>2013-07-29T14:49:09Z</time>
      </trkpt>
      <trkpt lat="43.037800" lon="-2.971333">
        <ele>1665.0</ele>
        <time>2013-07-29T14:49:10Z</time>
      </trkpt>
      <trkpt lat="43.037767" lon="-2.971383">
        <ele>1664.0</ele>
        <time>2013-07-29T14:49:11Z</time>
      </trkpt>
      <trkpt lat="43.037717" lon="-2.971417">
        <ele>1664.0</ele>
        <time>2013-07-29T14:49:12Z</time>
      </trkpt>
      <trkpt lat="43.037683" lon="-2.971450">
        <ele>1662.0</ele>
        <time>2013-07-29T14:49:13Z</time>
      </trkpt>
      <trkpt lat="43.037617" lon="-2.971483">
        <ele>1659.0</ele>
        <time>2013-07-29T14:49:14Z</time>
      </trkpt>
      <trkpt lat="43.037550" lon="-2.971550">
        <ele>1657.0</ele>
        <time>2013-07-29T14:49:15Z</time>
      </trkpt>
      <trkpt lat="43.037483" lon="-2.971617">
        <ele>1655.0</ele>
        <time>2013-07-29T14:49:16Z</time>
      </trkpt>
      <trkpt lat="43.037433" lon="-2.971700">
        <ele>1653.0</ele>
        <time>2013-07-29T14:49:17Z</time>
      </trkpt>
      <trkpt lat="43.037400" lon="-2.971767">
        <ele>1653.0</ele>
        <time>2013-07-29T14:49:18Z</time>
      </trkpt>
      <trkpt lat="43.037350" lon="-2.971850">
        <ele>1652.0</ele>
        <time>2013-07-29T14:49:19Z</time>
      </trkpt>
      <trkpt lat="43.037317" lon="-2.971933">
        <ele>1651.0</ele>
        <time>2013-07-29T14:49:20Z</time>
      </trkpt>
      <trkpt lat="43.037267" lon="-2.972017">
        <ele>1650.0</ele>
        <time>2013-07-29T14:49:21Z</time>
      </trkpt>
      <trkpt lat="43.037233" lon="-2.972100">
        <ele>1649.0</ele>
        <time>2013-07-29T14:49:22Z</time>
      </trkpt>
      <trkpt lat="43.037167" lon="-2.972250">
        <ele>1648.0</ele>
        <time>2013-07-29T14:49:24Z</time>
      </trkpt>
      <trkpt lat="43.037133" lon="-2.972333">
        <ele>1647.0</ele>
        <time>2013-07-29T14:49:25Z</time>
      </trkpt>
      <trkpt lat="43.037100" lon="-2.972417">
        <ele>1645.0</ele>
        <time>2013-07-29T14:49:26Z</time>
      </trkpt>
      <trkpt lat="43.037050" lon="-2.972517">
        <ele>1644.0</ele>
        <time>2013-07-29T14:49:27Z</time>
      </trkpt>
      <trkpt lat="43.037017" lon="-2.972600">
        <ele>1642.0</ele>
        <time>2013-07-29T14:49:28Z</time>
      </trkpt>
      <trkpt lat="43.036983" lon="-2.972700">
        <ele>1641.0</ele>
        <time>2013-07-29T14:49:29Z</time>
      </trkpt>
      <trkpt lat="43.036950" lon="-2.972783">
        <ele>1640.0</ele>
        <time>2013-07-29T14:49:30Z</time>
      </trkpt>
      <trkpt lat="43.036917" lon="-2.972883">
        <ele>1639.0</ele>
        <time>2013-07-29T14:49:31Z</time>
      </trkpt>
      <trkpt lat="43.036900" lon="-2.972983">
        <ele>1638.0</ele>
        <time>2013-07-29T14:49:32Z</time>
      </trkpt>
      <trkpt lat="43.036867" lon="-2.973083">
        <ele>1636.0</ele>
        <time>2013-07-29T14:49:33Z</time>
      </trkpt>
      <trkpt lat="43.036833" lon="-2.973183">
        <ele>1635.0</ele>
        <time>2013-07-29T14:49:34Z</time>
      </trkpt>
      <trkpt lat="43.036817" lon="-2.973283">
        <ele>1634.0</ele>
        <time>2013-07-29T14:49:35Z</time>
      </trkpt>
      <trkpt lat="43.036783" lon="-2.973400">
        <ele>1632.0</ele>
        <time>2013-07-29T14:49:36Z</time>
      </trkpt>
      <trkpt lat="43.036750" lon="-2.973483">
        <ele>1631.0</ele>
        <time>2013-07-29T14:49:37Z</time>
      </trkpt>
      <trkpt lat="43.036733" lon="-2.973567">
        <ele>1630.0</ele>
        <time>2013-07-29T14:49:38Z</time>
      </trkpt>
      <trkpt lat="43.036700" lon="-2.973667">
        <ele>1628.0</ele>
        <time>2013-07-29T14:49:39Z</time>
      </trkpt>
      <trkpt lat="43.036683" lon="-2.973767">
        <ele>1626.0</ele>
        <time>2013-07-29T14:49:40Z</time>
      </trkpt>
      <trkpt lat="43.036650" lon="-2.973850">
        <ele>1624.0</ele>
        <time>2013-07-29T14:49:41Z</time>
      </trkpt>
      <trkpt lat="43.036617" lon="-2.973983">
        <ele>1624.0</ele>
        <time>2013-07-29T14:49:43Z</time>
      </trkpt>
      <trkpt lat="43.036600" lon="-2.974033">
        <ele>1623.0</ele>
        <time>2013-07-29T14:49:44Z</time>
      </trkpt>
      <trkpt lat="43.036583" lon="-2.974100">
        <ele>1623.0</ele>
        <time>2013-07-29T14:49:45Z</time>
      </trkpt>
      <trkpt lat="43.036567" lon="-2.974167">
        <ele>1621.0</ele>
        <time>2013-07-29T14:49:46Z</time>
      </trkpt>
      <trkpt lat="43.036550" lon="-2.974233">
        <ele>1620.0</ele>
        <time>2013-07-29T14:49:47Z</time>
      </trkpt>
      <trkpt lat="43.036533" lon="-2.974317">
        <ele>1618.0</ele>
        <time>2013-07-29T14:49:48Z</time>
      </trkpt>
      <trkpt lat="43.036517" lon="-2.974400">
        <ele>1616.0</ele>
        <time>2013-07-29T14:49:49Z</time>
      </trkpt>
      <trkpt lat="43.036483" lon="-2.974467">
        <ele>1614.0</ele>
        <time>2013-07-29T14:49:50Z</time>
      </trkpt>
      <trkpt lat="43.036467" lon="-2.974533">
        <ele>1612.0</ele>
        <time>2013-07-29T14:49:51Z</time>
      </trkpt>
      <trkpt lat="43.036467" lon="-2.974600">
        <ele>1610.0</ele>
        <time>2013-07-29T14:49:52Z</time>
      </trkpt>
      <trkpt lat="43.036450" lon="-2.974667">
        <ele>1608.0</ele>
        <time>2013-07-29T14:49:53Z</time>
      </trkpt>
      <trkpt lat="43.036433" lon="-2.974733">
        <ele>1604.0</ele>
        <time>2013-07-29T14:49:54Z</time>
      </trkpt>
      <trkpt lat="43.036400" lon="-2.974817">
        <ele>1602.0</ele>
        <time>2013-07-29T14:49:55Z</time>
      </trkpt>
      <trkpt lat="43.036367" lon="-2.974900">
        <ele>1599.0</ele>
        <time>2013-07-29T14:49:56Z</time>
      </trkpt>
      <trkpt lat="43.036350" lon="-2.974967">
        <ele>1598.0</ele>
        <time>2013-07-29T14:49:57Z</time>
      </trkpt>
      <trkpt lat="43.036333" lon="-2.975033">
        <ele>1597.0</ele>
        <time>2013-07-29T14:49:58Z</time>
      </trkpt>
      <trkpt lat="43.036333" lon="-2.975100">
        <ele>1596.0</ele>
        <time>2013-07-29T14:49:59Z</time>
      </trkpt>
      <trkpt lat="43.036317" lon="-2.975167">
        <ele>1595.0</ele>
        <time>2013-07-29T14:50:00Z</time>
      </trkpt>
      <trkpt lat="43.036300" lon="-2.975250">
        <ele>1593.0</ele>
        <time>2013-07-29T14:50:01Z</time>
      </trkpt>
      <trkpt lat="43.036283" lon="-2.975333">
        <ele>1590.0</ele>
        <time>2013-07-29T14:50:02Z</time>
      </trkpt>
      <trkpt lat="43.036267" lon="-2.975400">
        <ele>1589.0</ele>
        <time>2013-07-29T14:50:03Z</time>
      </trkpt>
      <trkpt lat="43.036250" lon="-2.975467">
        <ele>1587.0</ele>
        <time>2013-07-29T14:50:04Z</time>
      </trkpt>
      <trkpt lat="43.036233" lon="-2.975533">
        <ele>1587.0</ele>
        <time>2013-07-29T14:50:05Z</time>
      </trkpt>
      <trkpt lat="43.036233" lon="-2.975583">
        <ele>1586.0</ele>
        <time>2013-07-29T14:50:06Z</time>
      </trkpt>
      <trkpt lat="43.036217" lon="-2.975650">
        <ele>1585.0</ele>
        <time>2013-07-29T14:50:07Z</time>
      </trkpt>
      <trkpt lat="43.036217" lon="-2.975717">
        <ele>1584.0</ele>
        <time>2013-07-29T14:50:08Z</time>
      </trkpt>
      <trkpt lat="43.036200" lon="-2.975800">
        <ele>1582.0</ele>
        <time>2013-07-29T14:50:09Z</time>
      </trkpt>
      <trkpt lat="43.036183" lon="-2.975883">
        <ele>1579.0</ele>
        <time>2013-07-29T14:50:10Z</time>
      </trkpt>
      <trkpt lat="43.036167" lon="-2.975950">
        <ele>1578.0</ele>
        <time>2013-07-29T14:50:11Z</time>
      </trkpt>
      <trkpt lat="43.036150" lon="-2.976000">
        <ele>1578.0</ele>
        <time>2013-07-29T14:50:12Z</time>
      </trkpt>
      <trkpt lat="43.036150" lon="-2.976067">
        <ele>1576.0</ele>
        <time>2013-07-29T14:50:13Z</time>
      </trkpt>
      <trkpt lat="43.036150" lon="-2.976133">
        <ele>1575.0</ele>
        <time>2013-07-29T14:50:14Z</time>
      </trkpt>
      <trkpt lat="43.036133" lon="-2.976217">
        <ele>1573.0</ele>
        <time>2013-07-29T14:50:15Z</time>
      </trkpt>
      <trkpt lat="43.036133" lon="-2.976317">
        <ele>1569.0</ele>
        <time>2013-07-29T14:50:16Z</time>
      </trkpt>
      <trkpt lat="43.036117" lon="-2.976400">
        <ele>1567.0</ele>
        <time>2013-07-29T14:50:17Z</time>
      </trkpt>
      <trkpt lat="43.036117" lon="-2.976500">
        <ele>1565.0</ele>
        <time>2013-07-29T14:50:18Z</time>
      </trkpt>
      <trkpt lat="43.036117" lon="-2.976583">
        <ele>1563.0</ele>
        <time>2013-07-29T14:50:19Z</time>
      </trkpt>
      <trkpt lat="43.036117" lon="-2.976667">
        <ele>1561.0</ele>
        <time>2013-07-29T14:50:20Z</time>
      </trkpt>
      <trkpt lat="43.036117" lon="-2.976750">
        <ele>1559.0</ele>
        <time>2013-07-29T14:50:21Z</time>
      </trkpt>
      <trkpt lat="43.036100" lon="-2.976850">
        <ele>1556.0</ele>
        <time>2013-07-29T14:50:22Z</time>
      </trkpt>
      <trkpt lat="43.036083" lon="-2.976933">
        <ele>1554.0</ele>
        <time>2013-07-29T14:50:23Z</time>
      </trkpt>
      <trkpt lat="43.036067" lon="-2.977017">
        <ele>1552.0</ele>
        <time>2013-07-29T14:50:24Z</time>
      </trkpt>
      <trkpt lat="43.036050" lon="-2.977100">
        <ele>1551.0</ele>
        <time>2013-07-29T14:50:25Z</time>
      </trkpt>
      <trkpt lat="43.036050" lon="-2.977167">
        <ele>1549.0</ele>
        <time>2013-07-29T14:50:26Z</time>
      </trkpt>
      <trkpt lat="43.036033" lon="-2.977250">
        <ele>1547.0</ele>
        <time>2013-07-29T14:50:27Z</time>
      </trkpt>
      <trkpt lat="43.036033" lon="-2.977350">
        <ele>1545.0</ele>
        <time>2013-07-29T14:50:28Z</time>
      </trkpt>
      <trkpt lat="43.036017" lon="-2.977433">
        <ele>1542.0</ele>
        <time>2013-07-29T14:50:29Z</time>
      </trkpt>
      <trkpt lat="43.035983" lon="-2.977533">
        <ele>1540.0</ele>
        <time>2013-07-29T14:50:30Z</time>
      </trkpt>
      <trkpt lat="43.035967" lon="-2.977617">
        <ele>1539.0</ele>
        <time>2013-07-29T14:50:31Z</time>
      </trkpt>
      <trkpt lat="43.035967" lon="-2.977683">
        <ele>1537.0</ele>
        <time>2013-07-29T14:50:32Z</time>
      </trkpt>
      <trkpt lat="43.035950" lon="-2.977767">
        <ele>1536.0</ele>
        <time>2013-07-29T14:50:33Z</time>
      </trkpt>
      <trkpt lat="43.035933" lon="-2.977850">
        <ele>1534.0</ele>
        <time>2013-07-29T14:50:34Z</time>
      </trkpt>
      <trkpt lat="43.035917" lon="-2.977950">
        <ele>1532.0</ele>
        <time>2013-07-29T14:50:35Z</time>
      </trkpt>
      <trkpt lat="43.035900" lon="-2.978033">
        <ele>1530.0</ele>
        <time>2013-07-29T14:50:36Z</time>
      </trkpt>
      <trkpt lat="43.035883" lon="-2.978100">
        <ele>1529.0</ele>
        <time>2013-07-29T14:50:37Z</time>
      </trkpt>
      <trkpt lat="43.035850" lon="-2.978183">
        <ele>1527.0</ele>
        <time>2013-07-29T14:50:38Z</time>
      </trkpt>
      <trkpt lat="43.035850" lon="-2.978267">
        <ele>1526.0</ele>
        <time>2013-07-29T14:50:39Z</time>
      </trkpt>
      <trkpt lat="43.035850" lon="-2.978367">
        <ele>1525.0</ele>
        <time>2013-07-29T14:50:40Z</time>
      </trkpt>
      <trkpt lat="43.035883" lon="-2.978467">
        <ele>1523.0</ele>
        <time>2013-07-29T14:50:41Z</time>
      </trkpt>
      <trkpt lat="43.035950" lon="-2.978567">
        <ele>1521.0</ele>
        <time>2013-07-29T14:50:42Z</time>
      </trkpt>
      <trkpt lat="43.036050" lon="-2.978617">
        <ele>1519.0</ele>
        <time>2013-07-29T14:50:43Z</time>
      </trkpt>
      <trkpt lat="43.036150" lon="-2.978617">
        <ele>1518.0</ele>
        <time>2013-07-29T14:50:44Z</time>
      </trkpt>
      <trkpt lat="43.036400" lon="-2.978450">
        <ele>1511.0</ele>
        <time>2013-07-29T14:50:47Z</time>
      </trkpt>
      <trkpt lat="43.036500" lon="-2.978100">
        <ele>1501.0</ele>
        <time>2013-07-29T14:50:50Z</time>
      </trkpt>
      <trkpt lat="43.036483" lon="-2.977983">
        <ele>1498.0</ele>
        <time>2013-07-29T14:50:51Z</time>
      </trkpt>
      <trkpt lat="43.036433" lon="-2.977883">
        <ele>1495.0</ele>
        <time>2013-07-29T14:50:52Z</time>
      </trkpt>
      <trkpt lat="43.036383" lon="-2.977833">
        <ele>1494.0</ele>
        <time>2013-07-29T14:50:53Z</time>
      </trkpt>
      <trkpt lat="43.036317" lon="-2.977783">
        <ele>1492.0</ele>
        <time>2013-07-29T14:50:54Z</time>
      </trkpt>
      <trkpt lat="43.036267" lon="-2.977783">
        <ele>1491.0</ele>
        <time>2013-07-29T14:50:55Z</time>
      </trkpt>
      <trkpt lat="43.036217" lon="-2.977783">
        <ele>1489.0</ele>
        <time>2013-07-29T14:50:56Z</time>
      </trkpt>
      <trkpt lat="43.036167" lon="-2.977800">
        <ele>1487.0</ele>
        <time>2013-07-29T14:50:57Z</time>
      </trkpt>
      <trkpt lat="43.036100" lon="-2.977817">
        <ele>1486.0</ele>
        <time>2013-07-29T14:50:58Z</time>
      </trkpt>
      <trkpt lat="43.036050" lon="-2.977867">
        <ele>1484.0</ele>
        <time>2013-07-29T14:50:59Z</time>
      </trkpt>
      <trkpt lat="43.035983" lon="-2.977917">
        <ele>1484.0</ele>
        <time>2013-07-29T14:51:00Z</time>
      </trkpt>
      <trkpt lat="43.035950" lon="-2.977983">
        <ele>1483.0</ele>
        <time>2013-07-29T14:51:01Z</time>
      </trkpt>
      <trkpt lat="43.035900" lon="-2.978050">
        <ele>1483.0</ele>
        <time>2013-07-29T14:51:02Z</time>
      </trkpt>
      <trkpt lat="43.035867" lon="-2.978117">
        <ele>1482.0</ele>
        <time>2013-07-29T14:51:03Z</time>
      </trkpt>
      <trkpt lat="43.035833" lon="-2.978183">
        <ele>1481.0</ele>
        <time>2013-07-29T14:51:04Z</time>
      </trkpt>
      <trkpt lat="43.035783" lon="-2.978250">
        <ele>1480.0</ele>
        <time>2013-07-29T14:51:05Z</time>
      </trkpt>
      <trkpt lat="43.035750" lon="-2.978317">
        <ele>1479.0</ele>
        <time>2013-07-29T14:51:06Z</time>
      </trkpt>
      <trkpt lat="43.035717" lon="-2.978400">
        <ele>1478.0</ele>
        <time>2013-07-29T14:51:07Z</time>
      </trkpt>
      <trkpt lat="43.035683" lon="-2.978483">
        <ele>1478.0</ele>
        <time>2013-07-29T14:51:08Z</time>
      </trkpt>
      <trkpt lat="43.035650" lon="-2.978550">
        <ele>1477.0</ele>
        <time>2013-07-29T14:51:09Z</time>
      </trkpt>
      <trkpt lat="43.035633" lon="-2.978633">
        <ele>1476.0</ele>
        <time>2013-07-29T14:51:10Z</time>
      </trkpt>
      <trkpt lat="43.035617" lon="-2.978733">
        <ele>1475.0</ele>
        <time>2013-07-29T14:51:11Z</time>
      </trkpt>
      <trkpt lat="43.035600" lon="-2.978817">
        <ele>1474.0</ele>
        <time>2013-07-29T14:51:12Z</time>
      </trkpt>
      <trkpt lat="43.035583" lon="-2.978917">
        <ele>1474.0</ele>
        <time>2013-07-29T14:51:13Z</time>
      </trkpt>
      <trkpt lat="43.035567" lon="-2.979017">
        <ele>1473.0</ele>
        <time>2013-07-29T14:51:14Z</time>
      </trkpt>
      <trkpt lat="43.035550" lon="-2.979100">
        <ele>1472.0</ele>
        <time>2013-07-29T14:51:15Z</time>
      </trkpt>
      <trkpt lat="43.035533" lon="-2.979200">
        <ele>1471.0</ele>
        <time>2013-07-29T14:51:16Z</time>
      </trkpt>
      <trkpt lat="43.035517" lon="-2.979300">
        <ele>1470.0</ele>
        <time>2013-07-29T14:51:17Z</time>
      </trkpt>
      <trkpt lat="43.035483" lon="-2.979383">
        <ele>1469.0</ele>
        <time>2013-07-29T14:51:18Z</time>
      </trkpt>
      <trkpt lat="43.035467" lon="-2.979483">
        <ele>1468.0</ele>
        <time>2013-07-29T14:51:19Z</time>
      </trkpt>
      <trkpt lat="43.035433" lon="-2.979583">
        <ele>1467.0</ele>
        <time>2013-07-29T14:51:20Z</time>
      </trkpt>
      <trkpt lat="43.035417" lon="-2.979667">
        <ele>1467.0</ele>
        <time>2013-07-29T14:51:21Z</time>
      </trkpt>
      <trkpt lat="43.035383" lon="-2.979750">
        <ele>1466.0</ele>
        <time>2013-07-29T14:51:22Z</time>
      </trkpt>
      <trkpt lat="43.035367" lon="-2.979833">
        <ele>1465.0</ele>
        <time>2013-07-29T14:51:23Z</time>
      </trkpt>
      <trkpt lat="43.035333" lon="-2.979917">
        <ele>1464.0</ele>
        <time>2013-07-29T14:51:24Z</time>
      </trkpt>
      <trkpt lat="43.035300" lon="-2.980000">
        <ele>1463.0</ele>
        <time>2013-07-29T14:51:25Z</time>
      </trkpt>
      <trkpt lat="43.035283" lon="-2.980083">
        <ele>1462.0</ele>
        <time>2013-07-29T14:51:26Z</time>
      </trkpt>
      <trkpt lat="43.035250" lon="-2.980167">
        <ele>1460.0</ele>
        <time>2013-07-29T14:51:27Z</time>
      </trkpt>
      <trkpt lat="43.035233" lon="-2.980250">
        <ele>1459.0</ele>
        <time>2013-07-29T14:51:28Z</time>
      </trkpt>
      <trkpt lat="43.035200" lon="-2.980350">
        <ele>1457.0</ele>
        <time>2013-07-29T14:51:29Z</time>
      </trkpt>
      <trkpt lat="43.035183" lon="-2.980433">
        <ele>1455.0</ele>
        <time>2013-07-29T14:51:30Z</time>
      </trkpt>
      <trkpt lat="43.035167" lon="-2.980517">
        <ele>1454.0</ele>
        <time>2013-07-29T14:51:31Z</time>
      </trkpt>
      <trkpt lat="43.035150" lon="-2.980600">
        <ele>1452.0</ele>
        <time>2013-07-29T14:51:32Z</time>
      </trkpt>
      <trkpt lat="43.035133" lon="-2.980700">
        <ele>1450.0</ele>
        <time>2013-07-29T14:51:33Z</time>
      </trkpt>
      <trkpt lat="43.035117" lon="-2.980800">
        <ele>1447.0</ele>
        <time>2013-07-29T14:51:34Z</time>
      </trkpt>
      <trkpt lat="43.035100" lon="-2.980900">
        <ele>1445.0</ele>
        <time>2013-07-29T14:51:35Z</time>
      </trkpt>
      <trkpt lat="43.035083" lon="-2.981000">
        <ele>1443.0</ele>
        <time>2013-07-29T14:51:36Z</time>
      </trkpt>
      <trkpt lat="43.035067" lon="-2.981083">
        <ele>1442.0</ele>
        <time>2013-07-29T14:51:37Z</time>
      </trkpt>
      <trkpt lat="43.035050" lon="-2.981183">
        <ele>1441.0</ele>
        <time>2013-07-29T14:51:38Z</time>
      </trkpt>
      <trkpt lat="43.035033" lon="-2.981283">
        <ele>1439.0</ele>
        <time>2013-07-29T14:51:39Z</time>
      </trkpt>
      <trkpt lat="43.035017" lon="-2.981417">
        <ele>1438.0</ele>
        <time>2013-07-29T14:51:40Z</time>
      </trkpt>
      <trkpt lat="43.035000" lon="-2.981533">
        <ele>1436.0</ele>
        <time>2013-07-29T14:51:41Z</time>
      </trkpt>
      <trkpt lat="43.034983" lon="-2.981650">
        <ele>1435.0</ele>
        <time>2013-07-29T14:51:42Z</time>
      </trkpt>
      <trkpt lat="43.034967" lon="-2.981750">
        <ele>1434.0</ele>
        <time>2013-07-29T14:51:43Z</time>
      </trkpt>
      <trkpt lat="43.034950" lon="-2.981850">
        <ele>1432.0</ele>
        <time>2013-07-29T14:51:44Z</time>
      </trkpt>
      <trkpt lat="43.034917" lon="-2.981967">
        <ele>1429.0</ele>
        <time>2013-07-29T14:51:45Z</time>
      </trkpt>
      <trkpt lat="43.034900" lon="-2.982083">
        <ele>1426.0</ele>
        <time>2013-07-29T14:51:46Z</time>
      </trkpt>
      <trkpt lat="43.034883" lon="-2.982200">
        <ele>1424.0</ele>
        <time>2013-07-29T14:51:47Z</time>
      </trkpt>
      <trkpt lat="43.034850" lon="-2.982283">
        <ele>1423.0</ele>
        <time>2013-07-29T14:51:48Z</time>
      </trkpt>
      <trkpt lat="43.034833" lon="-2.982383">
        <ele>1422.0</ele>
        <time>2013-07-29T14:51:49Z</time>
      </trkpt>
      <trkpt lat="43.034817" lon="-2.982467">
        <ele>1420.0</ele>
        <time>2013-07-29T14:51:50Z</time>
      </trkpt>
      <trkpt lat="43.034783" lon="-2.982567">
        <ele>1417.0</ele>
        <time>2013-07-29T14:51:51Z</time>
      </trkpt>
      <trkpt lat="43.034767" lon="-2.982683">
        <ele>1414.0</ele>
        <time>2013-07-29T14:51:52Z</time>
      </trkpt>
      <trkpt lat="43.034733" lon="-2.982783">
        <ele>1412.0</ele>
        <time>2013-07-29T14:51:53Z</time>
      </trkpt>
      <trkpt lat="43.034700" lon="-2.982883">
        <ele>1409.0</ele>
        <time>2013-07-29T14:51:54Z</time>
      </trkpt>
      <trkpt lat="43.034683" lon="-2.982967">
        <ele>1408.0</ele>
        <time>2013-07-29T14:51:55Z</time>
      </trkpt>
      <trkpt lat="43.034650" lon="-2.983067">
        <ele>1405.0</ele>
        <time>2013-07-29T14:51:56Z</time>
      </trkpt>
      <trkpt lat="43.034633" lon="-2.983167">
        <ele>1403.0</ele>
        <time>2013-07-29T14:51:57Z</time>
      </trkpt>
      <trkpt lat="43.034600" lon="-2.983267">
        <ele>1400.0</ele>
        <time>2013-07-29T14:51:58Z</time>
      </trkpt>
      <trkpt lat="43.034583" lon="-2.983383">
        <ele>1397.0</ele>
        <time>2013-07-29T14:51:59Z</time>
      </trkpt>
      <trkpt lat="43.034567" lon="-2.983500">
        <ele>1394.0</ele>
        <time>2013-07-29T14:52:00Z</time>
      </trkpt>
      <trkpt lat="43.034550" lon="-2.983617">
        <ele>1391.0</ele>
        <time>2013-07-29T14:52:01Z</time>
      </trkpt>
      <trkpt lat="43.034517" lon="-2.983733">
        <ele>1389.0</ele>
        <time>2013-07-29T14:52:02Z</time>
      </trkpt>
      <trkpt lat="43.034483" lon="-2.983833">
        <ele>1387.0</ele>
        <time>2013-07-29T14:52:03Z</time>
      </trkpt>
      <trkpt lat="43.034450" lon="-2.983917">
        <ele>1385.0</ele>
        <time>2013-07-29T14:52:04Z</time>
      </trkpt>
      <trkpt lat="43.034433" lon="-2.984017">
        <ele>1383.0</ele>
        <time>2013-07-29T14:52:05Z</time>
      </trkpt>
      <trkpt lat="43.034400" lon="-2.984100">
        <ele>1380.0</ele>
        <time>2013-07-29T14:52:06Z</time>
      </trkpt>
      <trkpt lat="43.034383" lon="-2.984200">
        <ele>1377.0</ele>
        <time>2013-07-29T14:52:07Z</time>
      </trkpt>
      <trkpt lat="43.034367" lon="-2.984317">
        <ele>1375.0</ele>
        <time>2013-07-29T14:52:08Z</time>
      </trkpt>
      <trkpt lat="43.034367" lon="-2.984400">
        <ele>1373.0</ele>
        <time>2013-07-29T14:52:09Z</time>
      </trkpt>
      <trkpt lat="43.034350" lon="-2.984500">
        <ele>1371.0</ele>
        <time>2013-07-29T14:52:10Z</time>
      </trkpt>
      <trkpt lat="43.034333" lon="-2.984583">
        <ele>1369.0</ele>
        <time>2013-07-29T14:52:11Z</time>
      </trkpt>
      <trkpt lat="43.034317" lon="-2.984683">
        <ele>1368.0</ele>
        <time>2013-07-29T14:52:12Z</time>
      </trkpt>
      <trkpt lat="43.034300" lon="-2.984800">
        <ele>1366.0</ele>
        <time>2013-07-29T14:52:13Z</time>
      </trkpt>
      <trkpt lat="43.034283" lon="-2.984900">
        <ele>1364.0</ele>
        <time>2013-07-29T14:52:14Z</time>
      </trkpt>
      <trkpt lat="43.034250" lon="-2.985017">
        <ele>1363.0</ele>
        <time>2013-07-29T14:52:15Z</time>
      </trkpt>
      <trkpt lat="43.034233" lon="-2.985150">
        <ele>1362.0</ele>
        <time>2013-07-29T14:52:16Z</time>
      </trkpt>
      <trkpt lat="43.034217" lon="-2.985250">
        <ele>1362.0</ele>
        <time>2013-07-29T14:52:17Z</time>
      </trkpt>
      <trkpt lat="43.034200" lon="-2.985350">
        <ele>1362.0</ele>
        <time>2013-07-29T14:52:18Z</time>
      </trkpt>
      <trkpt lat="43.034183" lon="-2.985433">
        <ele>1361.0</ele>
        <time>2013-07-29T14:52:19Z</time>
      </trkpt>
      <trkpt lat="43.034167" lon="-2.985533">
        <ele>1360.0</ele>
        <time>2013-07-29T14:52:20Z</time>
      </trkpt>
      <trkpt lat="43.034133" lon="-2.985650">
        <ele>1358.0</ele>
        <time>2013-07-29T14:52:21Z</time>
      </trkpt>
      <trkpt lat="43.034100" lon="-2.985783">
        <ele>1356.0</ele>
        <time>2013-07-29T14:52:22Z</time>
      </trkpt>
      <trkpt lat="43.034083" lon="-2.985900">
        <ele>1356.0</ele>
        <time>2013-07-29T14:52:23Z</time>
      </trkpt>
      <trkpt lat="43.034050" lon="-2.985983">
        <ele>1356.0</ele>
        <time>2013-07-29T14:52:24Z</time>
      </trkpt>
      <trkpt lat="43.034033" lon="-2.986067">
        <ele>1355.0</ele>
        <time>2013-07-29T14:52:25Z</time>
      </trkpt>
      <trkpt lat="43.034000" lon="-2.986167">
        <ele>1355.0</ele>
        <time>2013-07-29T14:52:26Z</time>
      </trkpt>
      <trkpt lat="43.033983" lon="-2.986267">
        <ele>1353.0</ele>
        <time>2013-07-29T14:52:27Z</time>
      </trkpt>
      <trkpt lat="43.033950" lon="-2.986383">
        <ele>1351.0</ele>
        <time>2013-07-29T14:52:28Z</time>
      </trkpt>
      <trkpt lat="43.033917" lon="-2.986500">
        <ele>1349.0</ele>
        <time>2013-07-29T14:52:29Z</time>
      </trkpt>
      <trkpt lat="43.033900" lon="-2.986600">
        <ele>1347.0</ele>
        <time>2013-07-29T14:52:30Z</time>
      </trkpt>
      <trkpt lat="43.033867" lon="-2.986700">
        <ele>1346.0</ele>
        <time>2013-07-29T14:52:31Z</time>
      </trkpt>
      <trkpt lat="43.033833" lon="-2.986800">
        <ele>1344.0</ele>
        <time>2013-07-29T14:52:32Z</time>
      </trkpt>
      <trkpt lat="43.033800" lon="-2.986900">
        <ele>1342.0</ele>
        <time>2013-07-29T14:52:33Z</time>
      </trkpt>
      <trkpt lat="43.033767" lon="-2.987000">
        <ele>1340.0</ele>
        <time>2013-07-29T14:52:34Z</time>
      </trkpt>
      <trkpt lat="43.033733" lon="-2.987117">
        <ele>1338.0</ele>
        <time>2013-07-29T14:52:35Z</time>
      </trkpt>
      <trkpt lat="43.033717" lon="-2.987233">
        <ele>1336.0</ele>
        <time>2013-07-29T14:52:36Z</time>
      </trkpt>
      <trkpt lat="43.033683" lon="-2.987333">
        <ele>1335.0</ele>
        <time>2013-07-29T14:52:37Z</time>
      </trkpt>
      <trkpt lat="43.033650" lon="-2.987417">
        <ele>1334.0</ele>
        <time>2013-07-29T14:52:38Z</time>
      </trkpt>
      <trkpt lat="43.033617" lon="-2.987517">
        <ele>1333.0</ele>
        <time>2013-07-29T14:52:39Z</time>
      </trkpt>
      <trkpt lat="43.033583" lon="-2.987617">
        <ele>1332.0</ele>
        <time>2013-07-29T14:52:40Z</time>
      </trkpt>
      <trkpt lat="43.033550" lon="-2.987717">
        <ele>1331.0</ele>
        <time>2013-07-29T14:52:41Z</time>
      </trkpt>
      <trkpt lat="43.033517" lon="-2.987817">
        <ele>1330.0</ele>
        <time>2013-07-29T14:52:42Z</time>
      </trkpt>
      <trkpt lat="43.033483" lon="-2.987917">
        <ele>1330.0</ele>
        <time>2013-07-29T14:52:43Z</time>
      </trkpt>
      <trkpt lat="43.033450" lon="-2.988017">
        <ele>1330.0</ele>
        <time>2013-07-29T14:52:44Z</time>
      </trkpt>
      <trkpt lat="43.033417" lon="-2.988117">
        <ele>1331.0</ele>
        <time>2013-07-29T14:52:45Z</time>
      </trkpt>
      <trkpt lat="43.033383" lon="-2.988217">
        <ele>1330.0</ele>
        <time>2013-07-29T14:52:46Z</time>
      </trkpt>
      <trkpt lat="43.033333" lon="-2.988317">
        <ele>1330.0</ele>
        <time>2013-07-29T14:52:47Z</time>
      </trkpt>
      <trkpt lat="43.033300" lon="-2.988417">
        <ele>1330.0</ele>
        <time>2013-07-29T14:52:48Z</time>
      </trkpt>
      <trkpt lat="43.033250" lon="-2.988517">
        <ele>1330.0</ele>
        <time>2013-07-29T14:52:49Z</time>
      </trkpt>
      <trkpt lat="43.033217" lon="-2.988600">
        <ele>1330.0</ele>
        <time>2013-07-29T14:52:50Z</time>
      </trkpt>
      <trkpt lat="43.033183" lon="-2.988683">
        <ele>1330.0</ele>
        <time>2013-07-29T14:52:51Z</time>
      </trkpt>
      <trkpt lat="43.033150" lon="-2.988783">
        <ele>1330.0</ele>
        <time>2013-07-29T14:52:52Z</time>
      </trkpt>
      <trkpt lat="43.033117" lon="-2.988900">
        <ele>1330.0</ele>
        <time>2013-07-29T14:52:53Z</time>
      </trkpt>
      <trkpt lat="43.033100" lon="-2.989000">
        <ele>1330.0</ele>
        <time>2013-07-29T14:52:54Z</time>
      </trkpt>
      <trkpt lat="43.033067" lon="-2.989117">
        <ele>1330.0</ele>
        <time>2013-07-29T14:52:55Z</time>
      </trkpt>
      <trkpt lat="43.033033" lon="-2.989217">
        <ele>1330.0</ele>
        <time>2013-07-29T14:52:56Z</time>
      </trkpt>
      <trkpt lat="43.033000" lon="-2.989300">
        <ele>1331.0</ele>
        <time>2013-07-29T14:52:57Z</time>
      </trkpt>
      <trkpt lat="43.032967" lon="-2.989400">
        <ele>1331.0</ele>
        <time>2013-07-29T14:52:58Z</time>
      </trkpt>
      <trkpt lat="43.032933" lon="-2.989517">
        <ele>1331.0</ele>
        <time>2013-07-29T14:52:59Z</time>
      </trkpt>
      <trkpt lat="43.032900" lon="-2.989617">
        <ele>1331.0</ele>
        <time>2013-07-29T14:53:00Z</time>
      </trkpt>
      <trkpt lat="43.032867" lon="-2.989750">
        <ele>1331.0</ele>
        <time>2013-07-29T14:53:01Z</time>
      </trkpt>
      <trkpt lat="43.032817" lon="-2.989867">
        <ele>1331.0</ele>
        <time>2013-07-29T14:53:02Z</time>
      </trkpt>
      <trkpt lat="43.032783" lon="-2.989967">
        <ele>1332.0</ele>
        <time>2013-07-29T14:53:03Z</time>
      </trkpt>
      <trkpt lat="43.032733" lon="-2.990067">
        <ele>1332.0</ele>
        <time>2013-07-29T14:53:04Z</time>
      </trkpt>
      <trkpt lat="43.032683" lon="-2.990183">
        <ele>1332.0</ele>
        <time>2013-07-29T14:53:05Z</time>
      </trkpt>
      <trkpt lat="43.032633" lon="-2.990283">
        <ele>1331.0</ele>
        <time>2013-07-29T14:53:06Z</time>
      </trkpt>
      <trkpt lat="43.032583" lon="-2.990383">
        <ele>1331.0</ele>
        <time>2013-07-29T14:53:07Z</time>
      </trkpt>
      <trkpt lat="43.032550" lon="-2.990483">
        <ele>1331.0</ele>
        <time>2013-07-29T14:53:08Z</time>
      </trkpt>
      <trkpt lat="43.032500" lon="-2.990583">
        <ele>1330.0</ele>
        <time>2013-07-29T14:53:09Z</time>
      </trkpt>
      <trkpt lat="43.032467" lon="-2.990683">
        <ele>1330.0</ele>
        <time>2013-07-29T14:53:10Z</time>
      </trkpt>
      <trkpt lat="43.032417" lon="-2.990783">
        <ele>1329.0</ele>
        <time>2013-07-29T14:53:11Z</time>
      </trkpt>
      <trkpt lat="43.032367" lon="-2.990883">
        <ele>1328.0</ele>
        <time>2013-07-29T14:53:12Z</time>
      </trkpt>
      <trkpt lat="43.032333" lon="-2.991000">
        <ele>1328.0</ele>
        <time>2013-07-29T14:53:13Z</time>
      </trkpt>
      <trkpt lat="43.032283" lon="-2.991100">
        <ele>1327.0</ele>
        <time>2013-07-29T14:53:14Z</time>
      </trkpt>
      <trkpt lat="43.032233" lon="-2.991217">
        <ele>1326.0</ele>
        <time>2013-07-29T14:53:15Z</time>
      </trkpt>
      <trkpt lat="43.032200" lon="-2.991317">
        <ele>1326.0</ele>
        <time>2013-07-29T14:53:16Z</time>
      </trkpt>
      <trkpt lat="43.032133" lon="-2.991433">
        <ele>1325.0</ele>
        <time>2013-07-29T14:53:17Z</time>
      </trkpt>
      <trkpt lat="43.032083" lon="-2.991533">
        <ele>1324.0</ele>
        <time>2013-07-29T14:53:18Z</time>
      </trkpt>
      <trkpt lat="43.032033" lon="-2.991650">
        <ele>1323.0</ele>
        <time>2013-07-29T14:53:19Z</time>
      </trkpt>
      <trkpt lat="43.031983" lon="-2.991767">
        <ele>1322.0</ele>
        <time>2013-07-29T14:53:20Z</time>
      </trkpt>
      <trkpt lat="43.031933" lon="-2.991883">
        <ele>1321.0</ele>
        <time>2013-07-29T14:53:21Z</time>
      </trkpt>
      <trkpt lat="43.031900" lon="-2.992000">
        <ele>1320.0</ele>
        <time>2013-07-29T14:53:22Z</time>
      </trkpt>
      <trkpt lat="43.031867" lon="-2.992117">
        <ele>1320.0</ele>
        <time>2013-07-29T14:53:23Z</time>
      </trkpt>
      <trkpt lat="43.031850" lon="-2.992233">
        <ele>1319.0</ele>
        <time>2013-07-29T14:53:24Z</time>
      </trkpt>
      <trkpt lat="43.031817" lon="-2.992333">
        <ele>1319.0</ele>
        <time>2013-07-29T14:53:25Z</time>
      </trkpt>
      <trkpt lat="43.031800" lon="-2.992450">
        <ele>1318.0</ele>
        <time>2013-07-29T14:53:26Z</time>
      </trkpt>
      <trkpt lat="43.031767" lon="-2.992550">
        <ele>1318.0</ele>
        <time>2013-07-29T14:53:27Z</time>
      </trkpt>
      <trkpt lat="43.031750" lon="-2.992667">
        <ele>1318.0</ele>
        <time>2013-07-29T14:53:28Z</time>
      </trkpt>
      <trkpt lat="43.031717" lon="-2.992783">
        <ele>1317.0</ele>
        <time>2013-07-29T14:53:29Z</time>
      </trkpt>
      <trkpt lat="43.031683" lon="-2.992900">
        <ele>1317.0</ele>
        <time>2013-07-29T14:53:30Z</time>
      </trkpt>
      <trkpt lat="43.031650" lon="-2.993033">
        <ele>1317.0</ele>
        <time>2013-07-29T14:53:31Z</time>
      </trkpt>
      <trkpt lat="43.031617" lon="-2.993150">
        <ele>1316.0</ele>
        <time>2013-07-29T14:53:32Z</time>
      </trkpt>
      <trkpt lat="43.031583" lon="-2.993267">
        <ele>1316.0</ele>
        <time>2013-07-29T14:53:33Z</time>
      </trkpt>
      <trkpt lat="43.031550" lon="-2.993383">
        <ele>1317.0</ele>
        <time>2013-07-29T14:53:34Z</time>
      </trkpt>
      <trkpt lat="43.031517" lon="-2.993500">
        <ele>1317.0</ele>
        <time>2013-07-29T14:53:35Z</time>
      </trkpt>
      <trkpt lat="43.031500" lon="-2.993617">
        <ele>1317.0</ele>
        <time>2013-07-29T14:53:36Z</time>
      </trkpt>
      <trkpt lat="43.031467" lon="-2.993733">
        <ele>1316.0</ele>
        <time>2013-07-29T14:53:37Z</time>
      </trkpt>
      <trkpt lat="43.031450" lon="-2.993867">
        <ele>1315.0</ele>
        <time>2013-07-29T14:53:38Z</time>
      </trkpt>
      <trkpt lat="43.031433" lon="-2.993967">
        <ele>1313.0</ele>
        <time>2013-07-29T14:53:39Z</time>
      </trkpt>
      <trkpt lat="43.031417" lon="-2.994083">
        <ele>1312.0</ele>
        <time>2013-07-29T14:53:40Z</time>
      </trkpt>
      <trkpt lat="43.031383" lon="-2.994217">
        <ele>1310.0</ele>
        <time>2013-07-29T14:53:41Z</time>
      </trkpt>
      <trkpt lat="43.031367" lon="-2.994333">
        <ele>1309.0</ele>
        <time>2013-07-29T14:53:42Z</time>
      </trkpt>
      <trkpt lat="43.031333" lon="-2.994467">
        <ele>1307.0</ele>
        <time>2013-07-29T14:53:43Z</time>
      </trkpt>
      <trkpt lat="43.031317" lon="-2.994617">
        <ele>1306.0</ele>
        <time>2013-07-29T14:53:44Z</time>
      </trkpt>
      <trkpt lat="43.031300" lon="-2.994750">
        <ele>1304.0</ele>
        <time>2013-07-29T14:53:45Z</time>
      </trkpt>
      <trkpt lat="43.031283" lon="-2.994883">
        <ele>1303.0</ele>
        <time>2013-07-29T14:53:46Z</time>
      </trkpt>
      <trkpt lat="43.031267" lon="-2.995000">
        <ele>1302.0</ele>
        <time>2013-07-29T14:53:47Z</time>
      </trkpt>
      <trkpt lat="43.031250" lon="-2.995100">
        <ele>1302.0</ele>
        <time>2013-07-29T14:53:48Z</time>
      </trkpt>
      <trkpt lat="43.031233" lon="-2.995233">
        <ele>1301.0</ele>
        <time>2013-07-29T14:53:49Z</time>
      </trkpt>
      <trkpt lat="43.031217" lon="-2.995367">
        <ele>1303.0</ele>
        <time>2013-07-29T14:53:50Z</time>
      </trkpt>
      <trkpt lat="43.031217" lon="-2.995500">
        <ele>1302.0</ele>
        <time>2013-07-29T14:53:51Z</time>
      </trkpt>
      <trkpt lat="43.031200" lon="-2.995650">
        <ele>1301.0</ele>
        <time>2013-07-29T14:53:52Z</time>
      </trkpt>
      <trkpt lat="43.031200" lon="-2.995767">
        <ele>1300.0</ele>
        <time>2013-07-29T14:53:53Z</time>
      </trkpt>
      <trkpt lat="43.031200" lon="-2.995883">
        <ele>1299.0</ele>
        <time>2013-07-29T14:53:54Z</time>
      </trkpt>
      <trkpt lat="43.031200" lon="-2.995983">
        <ele>1298.0</ele>
        <time>2013-07-29T14:53:55Z</time>
      </trkpt>
      <trkpt lat="43.031183" lon="-2.996100">
        <ele>1297.0</ele>
        <time>2013-07-29T14:53:56Z</time>
      </trkpt>
      <trkpt lat="43.031167" lon="-2.996217">
        <ele>1296.0</ele>
        <time>2013-07-29T14:53:57Z</time>
      </trkpt>
      <trkpt lat="43.031150" lon="-2.996333">
        <ele>1297.0</ele>
        <time>2013-07-29T14:53:58Z</time>
      </trkpt>
      <trkpt lat="43.031133" lon="-2.996450">
        <ele>1295.0</ele>
        <time>2013-07-29T14:53:59Z</time>
      </trkpt>
      <trkpt lat="43.031133" lon="-2.996583">
        <ele>1294.0</ele>
        <time>2013-07-29T14:54:00Z</time>
      </trkpt>
      <trkpt lat="43.031133" lon="-2.996717">
        <ele>1293.0</ele>
        <time>2013-07-29T14:54:01Z</time>
      </trkpt>
      <trkpt lat="43.031117" lon="-2.996850">
        <ele>1291.0</ele>
        <time>2013-07-29T14:54:02Z</time>
      </trkpt>
      <trkpt lat="43.031100" lon="-2.996950">
        <ele>1289.0</ele>
        <time>2013-07-29T14:54:03Z</time>
      </trkpt>
      <trkpt lat="43.031083" lon="-2.997067">
        <ele>1286.0</ele>
        <time>2013-07-29T14:54:04Z</time>
      </trkpt>
      <trkpt lat="43.031067" lon="-2.997183">
        <ele>1284.0</ele>
        <time>2013-07-29T14:54:05Z</time>
      </trkpt>
      <trkpt lat="43.031067" lon="-2.997283">
        <ele>1281.0</ele>
        <time>2013-07-29T14:54:06Z</time>
      </trkpt>
      <trkpt lat="43.031050" lon="-2.997417">
        <ele>1278.0</ele>
        <time>2013-07-29T14:54:07Z</time>
      </trkpt>
      <trkpt lat="43.031033" lon="-2.997533">
        <ele>1276.0</ele>
        <time>2013-07-29T14:54:08Z</time>
      </trkpt>
      <trkpt lat="43.031033" lon="-2.997650">
        <ele>1272.0</ele>
        <time>2013-07-29T14:54:09Z</time>
      </trkpt>
      <trkpt lat="43.031017" lon="-2.997767">
        <ele>1269.0</ele>
        <time>2013-07-29T14:54:10Z</time>
      </trkpt>
      <trkpt lat="43.031000" lon="-2.997883">
        <ele>1266.0</ele>
        <time>2013-07-29T14:54:11Z</time>
      </trkpt>
      <trkpt lat="43.031000" lon="-2.998000">
        <ele>1263.0</ele>
        <time>2013-07-29T14:54:12Z</time>
      </trkpt>
      <trkpt lat="43.030983" lon="-2.998117">
        <ele>1260.0</ele>
        <time>2013-07-29T14:54:13Z</time>
      </trkpt>
      <trkpt lat="43.030967" lon="-2.998217">
        <ele>1258.0</ele>
        <time>2013-07-29T14:54:14Z</time>
      </trkpt>
      <trkpt lat="43.030967" lon="-2.998333">
        <ele>1255.0</ele>
        <time>2013-07-29T14:54:15Z</time>
      </trkpt>
      <trkpt lat="43.030950" lon="-2.998450">
        <ele>1252.0</ele>
        <time>2013-07-29T14:54:16Z</time>
      </trkpt>
      <trkpt lat="43.030950" lon="-2.998583">
        <ele>1250.0</ele>
        <time>2013-07-29T14:54:17Z</time>
      </trkpt>
      <trkpt lat="43.030917" lon="-2.998817">
        <ele>1244.0</ele>
        <time>2013-07-29T14:54:19Z</time>
      </trkpt>
      <trkpt lat="43.030900" lon="-2.998933">
        <ele>1242.0</ele>
        <time>2013-07-29T14:54:20Z</time>
      </trkpt>
      <trkpt lat="43.030883" lon="-2.999167">
        <ele>1238.0</ele>
        <time>2013-07-29T14:54:22Z</time>
      </trkpt>
      <trkpt lat="43.030883" lon="-2.999283">
        <ele>1236.0</ele>
        <time>2013-07-29T14:54:23Z</time>
      </trkpt>
      <trkpt lat="43.030850" lon="-2.999533">
        <ele>1231.0</ele>
        <time>2013-07-29T14:54:25Z</time>
      </trkpt>
      <trkpt lat="43.030850" lon="-2.999667">
        <ele>1228.0</ele>
        <time>2013-07-29T14:54:26Z</time>
      </trkpt>
      <trkpt lat="43.030833" lon="-2.999783">
        <ele>1226.0</ele>
        <time>2013-07-29T14:54:27Z</time>
      </trkpt>
      <trkpt lat="43.030817" lon="-2.999900">
        <ele>1224.0</ele>
        <time>2013-07-29T14:54:28Z</time>
      </trkpt>
      <trkpt lat="43.030817" lon="-3.000017">
        <ele>1221.0</ele>
        <time>2013-07-29T14:54:29Z</time>
      </trkpt>
      <trkpt lat="43.030800" lon="-3.000150">
        <ele>1218.0</ele>
        <time>2013-07-29T14:54:30Z</time>
      </trkpt>
      <trkpt lat="43.030783" lon="-3.000267">
        <ele>1216.0</ele>
        <time>2013-07-29T14:54:31Z</time>
      </trkpt>
      <trkpt lat="43.030783" lon="-3.000400">
        <ele>1212.0</ele>
        <time>2013-07-29T14:54:32Z</time>
      </trkpt>
      <trkpt lat="43.030767" lon="-3.000517">
        <ele>1209.0</ele>
        <time>2013-07-29T14:54:33Z</time>
      </trkpt>
      <trkpt lat="43.030750" lon="-3.000617">
        <ele>1206.0</ele>
        <time>2013-07-29T14:54:34Z</time>
      </trkpt>
      <trkpt lat="43.030733" lon="-3.000733">
        <ele>1204.0</ele>
        <time>2013-07-29T14:54:35Z</time>
      </trkpt>
      <trkpt lat="43.030717" lon="-3.000833">
        <ele>1201.0</ele>
        <time>2013-07-29T14:54:36Z</time>
      </trkpt>
      <trkpt lat="43.030700" lon="-3.000933">
        <ele>1199.0</ele>
        <time>2013-07-29T14:54:37Z</time>
      </trkpt>
      <trkpt lat="43.030683" lon="-3.001050">
        <ele>1195.0</ele>
        <time>2013-07-29T14:54:38Z</time>
      </trkpt>
      <trkpt lat="43.030667" lon="-3.001167">
        <ele>1191.0</ele>
        <time>2013-07-29T14:54:39Z</time>
      </trkpt>
      <trkpt lat="43.030667" lon="-3.001283">
        <ele>1188.0</ele>
        <time>2013-07-29T14:54:40Z</time>
      </trkpt>
      <trkpt lat="43.030650" lon="-3.001383">
        <ele>1185.0</ele>
        <time>2013-07-29T14:54:41Z</time>
      </trkpt>
      <trkpt lat="43.030650" lon="-3.001483">
        <ele>1181.0</ele>
        <time>2013-07-29T14:54:42Z</time>
      </trkpt>
      <trkpt lat="43.030633" lon="-3.001583">
        <ele>1177.0</ele>
        <time>2013-07-29T14:54:43Z</time>
      </trkpt>
      <trkpt lat="43.030633" lon="-3.001700">
        <ele>1173.0</ele>
        <time>2013-07-29T14:54:44Z</time>
      </trkpt>
      <trkpt lat="43.030617" lon="-3.001833">
        <ele>1169.0</ele>
        <time>2013-07-29T14:54:45Z</time>
      </trkpt>
      <trkpt lat="43.030617" lon="-3.001967">
        <ele>1165.0</ele>
        <time>2013-07-29T14:54:46Z</time>
      </trkpt>
      <trkpt lat="43.030617" lon="-3.002067">
        <ele>1161.0</ele>
        <time>2013-07-29T14:54:47Z</time>
      </trkpt>
      <trkpt lat="43.030617" lon="-3.002183">
        <ele>1157.0</ele>
        <time>2013-07-29T14:54:48Z</time>
      </trkpt>
      <trkpt lat="43.030617" lon="-3.002283">
        <ele>1153.0</ele>
        <time>2013-07-29T14:54:49Z</time>
      </trkpt>
      <trkpt lat="43.030617" lon="-3.002383">
        <ele>1150.0</ele>
        <time>2013-07-29T14:54:50Z</time>
      </trkpt>
      <trkpt lat="43.030617" lon="-3.002500">
        <ele>1146.0</ele>
        <time>2013-07-29T14:54:51Z</time>
      </trkpt>
      <trkpt lat="43.030633" lon="-3.002633">
        <ele>1142.0</ele>
        <time>2013-07-29T14:54:52Z</time>
      </trkpt>
      <trkpt lat="43.030633" lon="-3.002750">
        <ele>1138.0</ele>
        <time>2013-07-29T14:54:53Z</time>
      </trkpt>
      <trkpt lat="43.030667" lon="-3.002867">
        <ele>1135.0</ele>
        <time>2013-07-29T14:54:54Z</time>
      </trkpt>
      <trkpt lat="43.030683" lon="-3.002950">
        <ele>1132.0</ele>
        <time>2013-07-29T14:54:55Z</time>
      </trkpt>
      <trkpt lat="43.030700" lon="-3.003050">
        <ele>1130.0</ele>
        <time>2013-07-29T14:54:56Z</time>
      </trkpt>
      <trkpt lat="43.030750" lon="-3.003133">
        <ele>1127.0</ele>
        <time>2013-07-29T14:54:57Z</time>
      </trkpt>
      <trkpt lat="43.030783" lon="-3.003217">
        <ele>1123.0</ele>
        <time>2013-07-29T14:54:58Z</time>
      </trkpt>
      <trkpt lat="43.030833" lon="-3.003300">
        <ele>1120.0</ele>
        <time>2013-07-29T14:54:59Z</time>
      </trkpt>
      <trkpt lat="43.030867" lon="-3.003383">
        <ele>1118.0</ele>
        <time>2013-07-29T14:55:00Z</time>
      </trkpt>
      <trkpt lat="43.030900" lon="-3.003483">
        <ele>1115.0</ele>
        <time>2013-07-29T14:55:01Z</time>
      </trkpt>
      <trkpt lat="43.030917" lon="-3.003583">
        <ele>1113.0</ele>
        <time>2013-07-29T14:55:02Z</time>
      </trkpt>
      <trkpt lat="43.030950" lon="-3.003667">
        <ele>1110.0</ele>
        <time>2013-07-29T14:55:03Z</time>
      </trkpt>
      <trkpt lat="43.030983" lon="-3.003767">
        <ele>1107.0</ele>
        <time>2013-07-29T14:55:04Z</time>
      </trkpt>
      <trkpt lat="43.030967" lon="-3.003867">
        <ele>1105.0</ele>
        <time>2013-07-29T14:55:05Z</time>
      </trkpt>
      <trkpt lat="43.030983" lon="-3.003967">
        <ele>1114.0</ele>
        <time>2013-07-29T14:55:06Z</time>
      </trkpt>
      <trkpt lat="43.031000" lon="-3.004083">
        <ele>1115.0</ele>
        <time>2013-07-29T14:55:07Z</time>
      </trkpt>
      <trkpt lat="43.031000" lon="-3.004183">
        <ele>1113.0</ele>
        <time>2013-07-29T14:55:08Z</time>
      </trkpt>
      <trkpt lat="43.031017" lon="-3.004417">
        <ele>1109.0</ele>
        <time>2013-07-29T14:55:10Z</time>
      </trkpt>
      <trkpt lat="43.031017" lon="-3.004533">
        <ele>1107.0</ele>
        <time>2013-07-29T14:55:11Z</time>
      </trkpt>
      <trkpt lat="43.031000" lon="-3.004667">
        <ele>1104.0</ele>
        <time>2013-07-29T14:55:12Z</time>
      </trkpt>
      <trkpt lat="43.031000" lon="-3.004783">
        <ele>1101.0</ele>
        <time>2013-07-29T14:55:13Z</time>
      </trkpt>
      <trkpt lat="43.030983" lon="-3.004900">
        <ele>1098.0</ele>
        <time>2013-07-29T14:55:14Z</time>
      </trkpt>
      <trkpt lat="43.031017" lon="-3.005183">
        <ele>1089.0</ele>
        <time>2013-07-29T14:55:17Z</time>
      </trkpt>
      <trkpt lat="43.031033" lon="-3.005267">
        <ele>1084.0</ele>
        <time>2013-07-29T14:55:18Z</time>
      </trkpt>
      <trkpt lat="43.031050" lon="-3.005367">
        <ele>1080.0</ele>
        <time>2013-07-29T14:55:19Z</time>
      </trkpt>
      <trkpt lat="43.031050" lon="-3.005483">
        <ele>1076.0</ele>
        <time>2013-07-29T14:55:20Z</time>
      </trkpt>
      <trkpt lat="43.031050" lon="-3.005617">
        <ele>1073.0</ele>
        <time>2013-07-29T14:55:21Z</time>
      </trkpt>
      <trkpt lat="43.031050" lon="-3.005717">
        <ele>1070.0</ele>
        <time>2013-07-29T14:55:22Z</time>
      </trkpt>
      <trkpt lat="43.031050" lon="-3.005833">
        <ele>1066.0</ele>
        <time>2013-07-29T14:55:23Z</time>
      </trkpt>
      <trkpt lat="43.031050" lon="-3.005933">
        <ele>1062.0</ele>
        <time>2013-07-29T14:55:24Z</time>
      </trkpt>
      <trkpt lat="43.031050" lon="-3.006050">
        <ele>1058.0</ele>
        <time>2013-07-29T14:55:25Z</time>
      </trkpt>
      <trkpt lat="43.031050" lon="-3.006167">
        <ele>1055.0</ele>
        <time>2013-07-29T14:55:26Z</time>
      </trkpt>
      <trkpt lat="43.031033" lon="-3.006317">
        <ele>1050.0</ele>
        <time>2013-07-29T14:55:27Z</time>
      </trkpt>
      <trkpt lat="43.031033" lon="-3.006433">
        <ele>1047.0</ele>
        <time>2013-07-29T14:55:28Z</time>
      </trkpt>
      <trkpt lat="43.031017" lon="-3.006533">
        <ele>1045.0</ele>
        <time>2013-07-29T14:55:29Z</time>
      </trkpt>
      <trkpt lat="43.031000" lon="-3.006633">
        <ele>1043.0</ele>
        <time>2013-07-29T14:55:30Z</time>
      </trkpt>
      <trkpt lat="43.031000" lon="-3.006717">
        <ele>1041.0</ele>
        <time>2013-07-29T14:55:31Z</time>
      </trkpt>
      <trkpt lat="43.030967" lon="-3.006817">
        <ele>1038.0</ele>
        <time>2013-07-29T14:55:32Z</time>
      </trkpt>
      <trkpt lat="43.030950" lon="-3.007050">
        <ele>1031.0</ele>
        <time>2013-07-29T14:55:34Z</time>
      </trkpt>
      <trkpt lat="43.030933" lon="-3.007167">
        <ele>1028.0</ele>
        <time>2013-07-29T14:55:35Z</time>
      </trkpt>
      <trkpt lat="43.030933" lon="-3.007250">
        <ele>1026.0</ele>
        <time>2013-07-29T14:55:36Z</time>
      </trkpt>
      <trkpt lat="43.030917" lon="-3.007350">
        <ele>1024.0</ele>
        <time>2013-07-29T14:55:37Z</time>
      </trkpt>
      <trkpt lat="43.030933" lon="-3.007433">
        <ele>1022.0</ele>
        <time>2013-07-29T14:55:38Z</time>
      </trkpt>
      <trkpt lat="43.030933" lon="-3.007550">
        <ele>1018.0</ele>
        <time>2013-07-29T14:55:39Z</time>
      </trkpt>
      <trkpt lat="43.030933" lon="-3.007667">
        <ele>1015.0</ele>
        <time>2013-07-29T14:55:40Z</time>
      </trkpt>
      <trkpt lat="43.030933" lon="-3.007767">
        <ele>1013.0</ele>
        <time>2013-07-29T14:55:41Z</time>
      </trkpt>
      <trkpt lat="43.030950" lon="-3.007867">
        <ele>1010.0</ele>
        <time>2013-07-29T14:55:42Z</time>
      </trkpt>
      <trkpt lat="43.030950" lon="-3.007950">
        <ele>1007.0</ele>
        <time>2013-07-29T14:55:43Z</time>
      </trkpt>
      <trkpt lat="43.030967" lon="-3.008033">
        <ele>1004.0</ele>
        <time>2013-07-29T14:55:44Z</time>
      </trkpt>
      <trkpt lat="43.031000" lon="-3.008133">
        <ele>1001.0</ele>
        <time>2013-07-29T14:55:45Z</time>
      </trkpt>
      <trkpt lat="43.031017" lon="-3.008267">
        <ele>997.0</ele>
        <time>2013-07-29T14:55:46Z</time>
      </trkpt>
      <trkpt lat="43.031033" lon="-3.008400">
        <ele>994.0</ele>
        <time>2013-07-29T14:55:47Z</time>
      </trkpt>
      <trkpt lat="43.031050" lon="-3.008517">
        <ele>991.0</ele>
        <time>2013-07-29T14:55:48Z</time>
      </trkpt>
      <trkpt lat="43.031067" lon="-3.008600">
        <ele>988.0</ele>
        <time>2013-07-29T14:55:49Z</time>
      </trkpt>
      <trkpt lat="43.031083" lon="-3.008683">
        <ele>986.0</ele>
        <time>2013-07-29T14:55:50Z</time>
      </trkpt>
      <trkpt lat="43.031117" lon="-3.008767">
        <ele>985.0</ele>
        <time>2013-07-29T14:55:51Z</time>
      </trkpt>
      <trkpt lat="43.031167" lon="-3.008850">
        <ele>982.0</ele>
        <time>2013-07-29T14:55:52Z</time>
      </trkpt>
      <trkpt lat="43.031217" lon="-3.008917">
        <ele>980.0</ele>
        <time>2013-07-29T14:55:53Z</time>
      </trkpt>
      <trkpt lat="43.031283" lon="-3.009000">
        <ele>977.0</ele>
        <time>2013-07-29T14:55:54Z</time>
      </trkpt>
      <trkpt lat="43.031367" lon="-3.009067">
        <ele>974.0</ele>
        <time>2013-07-29T14:55:55Z</time>
      </trkpt>
      <trkpt lat="43.031433" lon="-3.009133">
        <ele>972.0</ele>
        <time>2013-07-29T14:55:56Z</time>
      </trkpt>
      <trkpt lat="43.031517" lon="-3.009183">
        <ele>970.0</ele>
        <time>2013-07-29T14:55:57Z</time>
      </trkpt>
      <trkpt lat="43.031567" lon="-3.009233">
        <ele>968.0</ele>
        <time>2013-07-29T14:55:58Z</time>
      </trkpt>
      <trkpt lat="43.031633" lon="-3.009283">
        <ele>973.0</ele>
        <time>2013-07-29T14:55:59Z</time>
      </trkpt>
      <trkpt lat="43.031700" lon="-3.009350">
        <ele>972.0</ele>
        <time>2013-07-29T14:56:00Z</time>
      </trkpt>
      <trkpt lat="43.031767" lon="-3.009400">
        <ele>970.0</ele>
        <time>2013-07-29T14:56:01Z</time>
      </trkpt>
      <trkpt lat="43.031850" lon="-3.009450">
        <ele>968.0</ele>
        <time>2013-07-29T14:56:02Z</time>
      </trkpt>
      <trkpt lat="43.031933" lon="-3.009483">
        <ele>966.0</ele>
        <time>2013-07-29T14:56:03Z</time>
      </trkpt>
      <trkpt lat="43.032000" lon="-3.009500">
        <ele>965.0</ele>
        <time>2013-07-29T14:56:04Z</time>
      </trkpt>
      <trkpt lat="43.032067" lon="-3.009500">
        <ele>963.0</ele>
        <time>2013-07-29T14:56:05Z</time>
      </trkpt>
      <trkpt lat="43.032133" lon="-3.009517">
        <ele>962.0</ele>
        <time>2013-07-29T14:56:06Z</time>
      </trkpt>
      <trkpt lat="43.032217" lon="-3.009533">
        <ele>960.0</ele>
        <time>2013-07-29T14:56:07Z</time>
      </trkpt>
      <trkpt lat="43.032300" lon="-3.009550">
        <ele>958.0</ele>
        <time>2013-07-29T14:56:08Z</time>
      </trkpt>
      <trkpt lat="43.032383" lon="-3.009567">
        <ele>956.0</ele>
        <time>2013-07-29T14:56:09Z</time>
      </trkpt>
      <trkpt lat="43.032450" lon="-3.009567">
        <ele>954.0</ele>
        <time>2013-07-29T14:56:10Z</time>
      </trkpt>
      <trkpt lat="43.032533" lon="-3.009583">
        <ele>953.0</ele>
        <time>2013-07-29T14:56:11Z</time>
      </trkpt>
      <trkpt lat="43.032600" lon="-3.009583">
        <ele>950.0</ele>
        <time>2013-07-29T14:56:12Z</time>
      </trkpt>
      <trkpt lat="43.032667" lon="-3.009583">
        <ele>948.0</ele>
        <time>2013-07-29T14:56:13Z</time>
      </trkpt>
      <trkpt lat="43.032733" lon="-3.009583">
        <ele>945.0</ele>
        <time>2013-07-29T14:56:14Z</time>
      </trkpt>
      <trkpt lat="43.032817" lon="-3.009583">
        <ele>942.0</ele>
        <time>2013-07-29T14:56:15Z</time>
      </trkpt>
      <trkpt lat="43.032883" lon="-3.009583">
        <ele>939.0</ele>
        <time>2013-07-29T14:56:16Z</time>
      </trkpt>
      <trkpt lat="43.032967" lon="-3.009583">
        <ele>935.0</ele>
        <time>2013-07-29T14:56:17Z</time>
      </trkpt>
      <trkpt lat="43.033050" lon="-3.009583">
        <ele>933.0</ele>
        <time>2013-07-29T14:56:18Z</time>
      </trkpt>
      <trkpt lat="43.033117" lon="-3.009600">
        <ele>930.0</ele>
        <time>2013-07-29T14:56:19Z</time>
      </trkpt>
      <trkpt lat="43.033183" lon="-3.009600">
        <ele>928.0</ele>
        <time>2013-07-29T14:56:20Z</time>
      </trkpt>
      <trkpt lat="43.033250" lon="-3.009617">
        <ele>925.0</ele>
        <time>2013-07-29T14:56:21Z</time>
      </trkpt>
      <trkpt lat="43.033333" lon="-3.009633">
        <ele>923.0</ele>
        <time>2013-07-29T14:56:22Z</time>
      </trkpt>
      <trkpt lat="43.033383" lon="-3.009633">
        <ele>922.0</ele>
        <time>2013-07-29T14:56:23Z</time>
      </trkpt>
      <trkpt lat="43.033467" lon="-3.009650">
        <ele>919.0</ele>
        <time>2013-07-29T14:56:24Z</time>
      </trkpt>
      <trkpt lat="43.033533" lon="-3.009667">
        <ele>916.0</ele>
        <time>2013-07-29T14:56:25Z</time>
      </trkpt>
      <trkpt lat="43.033600" lon="-3.009700">
        <ele>913.0</ele>
        <time>2013-07-29T14:56:26Z</time>
      </trkpt>
      <trkpt lat="43.033683" lon="-3.009733">
        <ele>911.0</ele>
        <time>2013-07-29T14:56:27Z</time>
      </trkpt>
      <trkpt lat="43.033750" lon="-3.009750">
        <ele>908.0</ele>
        <time>2013-07-29T14:56:28Z</time>
      </trkpt>
      <trkpt lat="43.033817" lon="-3.009800">
        <ele>906.0</ele>
        <time>2013-07-29T14:56:29Z</time>
      </trkpt>
      <trkpt lat="43.033883" lon="-3.009817">
        <ele>904.0</ele>
        <time>2013-07-29T14:56:30Z</time>
      </trkpt>
      <trkpt lat="43.033967" lon="-3.009833">
        <ele>901.0</ele>
        <time>2013-07-29T14:56:31Z</time>
      </trkpt>
      <trkpt lat="43.034033" lon="-3.009850">
        <ele>899.0</ele>
        <time>2013-07-29T14:56:32Z</time>
      </trkpt>
      <trkpt lat="43.034117" lon="-3.009867">
        <ele>897.0</ele>
        <time>2013-07-29T14:56:33Z</time>
      </trkpt>
      <trkpt lat="43.034183" lon="-3.009883">
        <ele>894.0</ele>
        <time>2013-07-29T14:56:34Z</time>
      </trkpt>
      <trkpt lat="43.034250" lon="-3.009900">
        <ele>892.0</ele>
        <time>2013-07-29T14:56:35Z</time>
      </trkpt>
      <trkpt lat="43.034333" lon="-3.009917">
        <ele>889.0</ele>
        <time>2013-07-29T14:56:36Z</time>
      </trkpt>
      <trkpt lat="43.034400" lon="-3.009933">
        <ele>887.0</ele>
        <time>2013-07-29T14:56:37Z</time>
      </trkpt>
      <trkpt lat="43.034467" lon="-3.009933">
        <ele>884.0</ele>
        <time>2013-07-29T14:56:38Z</time>
      </trkpt>
      <trkpt lat="43.034550" lon="-3.009950">
        <ele>882.0</ele>
        <time>2013-07-29T14:56:39Z</time>
      </trkpt>
      <trkpt lat="43.034617" lon="-3.009967">
        <ele>880.0</ele>
        <time>2013-07-29T14:56:40Z</time>
      </trkpt>
      <trkpt lat="43.034683" lon="-3.009967">
        <ele>878.0</ele>
        <time>2013-07-29T14:56:41Z</time>
      </trkpt>
      <trkpt lat="43.034750" lon="-3.009967">
        <ele>875.0</ele>
        <time>2013-07-29T14:56:42Z</time>
      </trkpt>
      <trkpt lat="43.034817" lon="-3.009967">
        <ele>873.0</ele>
        <time>2013-07-29T14:56:43Z</time>
      </trkpt>
      <trkpt lat="43.034883" lon="-3.009967">
        <ele>870.0</ele>
        <time>2013-07-29T14:56:44Z</time>
      </trkpt>
      <trkpt lat="43.034950" lon="-3.009967">
        <ele>868.0</ele>
        <time>2013-07-29T14:56:45Z</time>
      </trkpt>
      <trkpt lat="43.035117" lon="-3.009967">
        <ele>861.0</ele>
        <time>2013-07-29T14:56:47Z</time>
      </trkpt>
      <trkpt lat="43.035183" lon="-3.009967">
        <ele>858.0</ele>
        <time>2013-07-29T14:56:48Z</time>
      </trkpt>
      <trkpt lat="43.035267" lon="-3.009967">
        <ele>855.0</ele>
        <time>2013-07-29T14:56:49Z</time>
      </trkpt>
      <trkpt lat="43.035333" lon="-3.009967">
        <ele>852.0</ele>
        <time>2013-07-29T14:56:50Z</time>
      </trkpt>
      <trkpt lat="43.035400" lon="-3.009967">
        <ele>849.0</ele>
        <time>2013-07-29T14:56:51Z</time>
      </trkpt>
      <trkpt lat="43.035467" lon="-3.009967">
        <ele>845.0</ele>
        <time>2013-07-29T14:56:52Z</time>
      </trkpt>
      <trkpt lat="43.035550" lon="-3.009967">
        <ele>840.0</ele>
        <time>2013-07-29T14:56:53Z</time>
      </trkpt>
      <trkpt lat="43.035633" lon="-3.009967">
        <ele>836.0</ele>
        <time>2013-07-29T14:56:54Z</time>
      </trkpt>
      <trkpt lat="43.035717" lon="-3.009950">
        <ele>833.0</ele>
        <time>2013-07-29T14:56:55Z</time>
      </trkpt>
      <trkpt lat="43.035783" lon="-3.009950">
        <ele>831.0</ele>
        <time>2013-07-29T14:56:56Z</time>
      </trkpt>
      <trkpt lat="43.035850" lon="-3.009950">
        <ele>829.0</ele>
        <time>2013-07-29T14:56:57Z</time>
      </trkpt>
      <trkpt lat="43.035917" lon="-3.009950">
        <ele>827.0</ele>
        <time>2013-07-29T14:56:58Z</time>
      </trkpt>
      <trkpt lat="43.035983" lon="-3.009950">
        <ele>823.0</ele>
        <time>2013-07-29T14:56:59Z</time>
      </trkpt>
      <trkpt lat="43.036150" lon="-3.009933">
        <ele>817.0</ele>
        <time>2013-07-29T14:57:01Z</time>
      </trkpt>
      <trkpt lat="43.036217" lon="-3.009933">
        <ele>814.0</ele>
        <time>2013-07-29T14:57:02Z</time>
      </trkpt>
      <trkpt lat="43.036283" lon="-3.009917">
        <ele>811.0</ele>
        <time>2013-07-29T14:57:03Z</time>
      </trkpt>
      <trkpt lat="43.036350" lon="-3.009917">
        <ele>809.0</ele>
        <time>2013-07-29T14:57:04Z</time>
      </trkpt>
      <trkpt lat="43.036417" lon="-3.009917">
        <ele>806.0</ele>
        <time>2013-07-29T14:57:05Z</time>
      </trkpt>
      <trkpt lat="43.036500" lon="-3.009917">
        <ele>802.0</ele>
        <time>2013-07-29T14:57:06Z</time>
      </trkpt>
      <trkpt lat="43.036567" lon="-3.009917">
        <ele>799.0</ele>
        <time>2013-07-29T14:57:07Z</time>
      </trkpt>
      <trkpt lat="43.036633" lon="-3.009917">
        <ele>796.0</ele>
        <time>2013-07-29T14:57:08Z</time>
      </trkpt>
      <trkpt lat="43.036717" lon="-3.009917">
        <ele>793.0</ele>
        <time>2013-07-29T14:57:09Z</time>
      </trkpt>
      <trkpt lat="43.036783" lon="-3.009933">
        <ele>790.0</ele>
        <time>2013-07-29T14:57:10Z</time>
      </trkpt>
      <trkpt lat="43.036850" lon="-3.009933">
        <ele>786.0</ele>
        <time>2013-07-29T14:57:11Z</time>
      </trkpt>
      <trkpt lat="43.036933" lon="-3.009950">
        <ele>783.0</ele>
        <time>2013-07-29T14:57:12Z</time>
      </trkpt>
      <trkpt lat="43.037000" lon="-3.009967">
        <ele>780.0</ele>
        <time>2013-07-29T14:57:13Z</time>
      </trkpt>
      <trkpt lat="43.037067" lon="-3.009967">
        <ele>777.0</ele>
        <time>2013-07-29T14:57:14Z</time>
      </trkpt>
      <trkpt lat="43.037150" lon="-3.009967">
        <ele>774.0</ele>
        <time>2013-07-29T14:57:15Z</time>
      </trkpt>
      <trkpt lat="43.037217" lon="-3.009983">
        <ele>772.0</ele>
        <time>2013-07-29T14:57:16Z</time>
      </trkpt>
      <trkpt lat="43.037283" lon="-3.010000">
        <ele>769.0</ele>
        <time>2013-07-29T14:57:17Z</time>
      </trkpt>
      <trkpt lat="43.037350" lon="-3.010000">
        <ele>766.0</ele>
        <time>2013-07-29T14:57:18Z</time>
      </trkpt>
      <trkpt lat="43.037433" lon="-3.010017">
        <ele>763.0</ele>
        <time>2013-07-29T14:57:19Z</time>
      </trkpt>
      <trkpt lat="43.037500" lon="-3.010017">
        <ele>761.0</ele>
        <time>2013-07-29T14:57:20Z</time>
      </trkpt>
      <trkpt lat="43.037583" lon="-3.010033">
        <ele>758.0</ele>
        <time>2013-07-29T14:57:21Z</time>
      </trkpt>
      <trkpt lat="43.037650" lon="-3.010033">
        <ele>755.0</ele>
        <time>2013-07-29T14:57:22Z</time>
      </trkpt>
      <trkpt lat="43.037717" lon="-3.010033">
        <ele>753.0</ele>
        <time>2013-07-29T14:57:23Z</time>
      </trkpt>
      <trkpt lat="43.037800" lon="-3.010033">
        <ele>750.0</ele>
        <time>2013-07-29T14:57:24Z</time>
      </trkpt>
      <trkpt lat="43.037867" lon="-3.010033">
        <ele>748.0</ele>
        <time>2013-07-29T14:57:25Z</time>
      </trkpt>
      <trkpt lat="43.037933" lon="-3.010017">
        <ele>745.0</ele>
        <time>2013-07-29T14:57:26Z</time>
      </trkpt>
      <trkpt lat="43.038000" lon="-3.009983">
        <ele>742.0</ele>
        <time>2013-07-29T14:57:27Z</time>
      </trkpt>
      <trkpt lat="43.038083" lon="-3.009933">
        <ele>739.0</ele>
        <time>2013-07-29T14:57:28Z</time>
      </trkpt>
      <trkpt lat="43.038167" lon="-3.009867">
        <ele>735.0</ele>
        <time>2013-07-29T14:57:29Z</time>
      </trkpt>
      <trkpt lat="43.038250" lon="-3.009833">
        <ele>732.0</ele>
        <time>2013-07-29T14:57:30Z</time>
      </trkpt>
      <trkpt lat="43.038333" lon="-3.009783">
        <ele>730.0</ele>
        <time>2013-07-29T14:57:31Z</time>
      </trkpt>
      <trkpt lat="43.038400" lon="-3.009750">
        <ele>727.0</ele>
        <time>2013-07-29T14:57:32Z</time>
      </trkpt>
      <trkpt lat="43.038483" lon="-3.009717">
        <ele>725.0</ele>
        <time>2013-07-29T14:57:33Z</time>
      </trkpt>
      <trkpt lat="43.038633" lon="-3.009683">
        <ele>721.0</ele>
        <time>2013-07-29T14:57:35Z</time>
      </trkpt>
      <trkpt lat="43.038717" lon="-3.009667">
        <ele>720.0</ele>
        <time>2013-07-29T14:57:36Z</time>
      </trkpt>
      <trkpt lat="43.038783" lon="-3.009650">
        <ele>719.0</ele>
        <time>2013-07-29T14:57:37Z</time>
      </trkpt>
      <trkpt lat="43.038867" lon="-3.009633">
        <ele>718.0</ele>
        <time>2013-07-29T14:57:38Z</time>
      </trkpt>
      <trkpt lat="43.038933" lon="-3.009600">
        <ele>718.0</ele>
        <time>2013-07-29T14:57:39Z</time>
      </trkpt>
      <trkpt lat="43.039000" lon="-3.009583">
        <ele>717.0</ele>
        <time>2013-07-29T14:57:40Z</time>
      </trkpt>
      <trkpt lat="43.039083" lon="-3.009567">
        <ele>717.0</ele>
        <time>2013-07-29T14:57:41Z</time>
      </trkpt>
      <trkpt lat="43.039167" lon="-3.009567">
        <ele>716.0</ele>
        <time>2013-07-29T14:57:42Z</time>
      </trkpt>
      <trkpt lat="43.039250" lon="-3.009550">
        <ele>716.0</ele>
        <time>2013-07-29T14:57:43Z</time>
      </trkpt>
      <trkpt lat="43.039300" lon="-3.009533">
        <ele>716.0</ele>
        <time>2013-07-29T14:57:44Z</time>
      </trkpt>
      <trkpt lat="43.039350" lon="-3.009500">
        <ele>716.0</ele>
        <time>2013-07-29T14:57:45Z</time>
      </trkpt>
      <trkpt lat="43.039400" lon="-3.009483">
        <ele>716.0</ele>
        <time>2013-07-29T14:57:46Z</time>
      </trkpt>
      <trkpt lat="43.039467" lon="-3.009450">
        <ele>714.0</ele>
        <time>2013-07-29T14:57:47Z</time>
      </trkpt>
      <trkpt lat="43.039550" lon="-3.009433">
        <ele>713.0</ele>
        <time>2013-07-29T14:57:48Z</time>
      </trkpt>
      <trkpt lat="43.039617" lon="-3.009400">
        <ele>712.0</ele>
        <time>2013-07-29T14:57:49Z</time>
      </trkpt>
      <trkpt lat="43.039683" lon="-3.009383">
        <ele>711.0</ele>
        <time>2013-07-29T14:57:50Z</time>
      </trkpt>
      <trkpt lat="43.039733" lon="-3.009350">
        <ele>711.0</ele>
        <time>2013-07-29T14:57:51Z</time>
      </trkpt>
      <trkpt lat="43.039800" lon="-3.009333">
        <ele>710.0</ele>
        <time>2013-07-29T14:57:52Z</time>
      </trkpt>
      <trkpt lat="43.039867" lon="-3.009317">
        <ele>709.0</ele>
        <time>2013-07-29T14:57:53Z</time>
      </trkpt>
      <trkpt lat="43.039950" lon="-3.009317">
        <ele>707.0</ele>
        <time>2013-07-29T14:57:54Z</time>
      </trkpt>
      <trkpt lat="43.040017" lon="-3.009300">
        <ele>707.0</ele>
        <time>2013-07-29T14:57:55Z</time>
      </trkpt>
      <trkpt lat="43.040083" lon="-3.009283">
        <ele>707.0</ele>
        <time>2013-07-29T14:57:56Z</time>
      </trkpt>
      <trkpt lat="43.040150" lon="-3.009267">
        <ele>707.0</ele>
        <time>2013-07-29T14:57:57Z</time>
      </trkpt>
      <trkpt lat="43.040217" lon="-3.009267">
        <ele>707.0</ele>
        <time>2013-07-29T14:57:58Z</time>
      </trkpt>
      <trkpt lat="43.040267" lon="-3.009267">
        <ele>708.0</ele>
        <time>2013-07-29T14:57:59Z</time>
      </trkpt>
      <trkpt lat="43.040333" lon="-3.009283">
        <ele>708.0</ele>
        <time>2013-07-29T14:58:00Z</time>
      </trkpt>
      <trkpt lat="43.040400" lon="-3.009283">
        <ele>707.0</ele>
        <time>2013-07-29T14:58:01Z</time>
      </trkpt>
      <trkpt lat="43.040467" lon="-3.009283">
        <ele>707.0</ele>
        <time>2013-07-29T14:58:02Z</time>
      </trkpt>
      <trkpt lat="43.040550" lon="-3.009283">
        <ele>706.0</ele>
        <time>2013-07-29T14:58:03Z</time>
      </trkpt>
      <trkpt lat="43.040633" lon="-3.009267">
        <ele>706.0</ele>
        <time>2013-07-29T14:58:04Z</time>
      </trkpt>
      <trkpt lat="43.040717" lon="-3.009267">
        <ele>707.0</ele>
        <time>2013-07-29T14:58:05Z</time>
      </trkpt>
      <trkpt lat="43.040783" lon="-3.009267">
        <ele>707.0</ele>
        <time>2013-07-29T14:58:06Z</time>
      </trkpt>
      <trkpt lat="43.040850" lon="-3.009250">
        <ele>708.0</ele>
        <time>2013-07-29T14:58:07Z</time>
      </trkpt>
      <trkpt lat="43.040917" lon="-3.009267">
        <ele>709.0</ele>
        <time>2013-07-29T14:58:08Z</time>
      </trkpt>
      <trkpt lat="43.040983" lon="-3.009283">
        <ele>710.0</ele>
        <time>2013-07-29T14:58:09Z</time>
      </trkpt>
      <trkpt lat="43.041050" lon="-3.009300">
        <ele>711.0</ele>
        <time>2013-07-29T14:58:10Z</time>
      </trkpt>
      <trkpt lat="43.041133" lon="-3.009317">
        <ele>712.0</ele>
        <time>2013-07-29T14:58:11Z</time>
      </trkpt>
      <trkpt lat="43.041217" lon="-3.009317">
        <ele>713.0</ele>
        <time>2013-07-29T14:58:12Z</time>
      </trkpt>
      <trkpt lat="43.041283" lon="-3.009317">
        <ele>715.0</ele>
        <time>2013-07-29T14:58:13Z</time>
      </trkpt>
      <trkpt lat="43.041350" lon="-3.009333">
        <ele>718.0</ele>
        <time>2013-07-29T14:58:14Z</time>
      </trkpt>
      <trkpt lat="43.041400" lon="-3.009333">
        <ele>720.0</ele>
        <time>2013-07-29T14:58:15Z</time>
      </trkpt>
      <trkpt lat="43.041450" lon="-3.009333">
        <ele>722.0</ele>
        <time>2013-07-29T14:58:16Z</time>
      </trkpt>
      <trkpt lat="43.041517" lon="-3.009333">
        <ele>723.0</ele>
        <time>2013-07-29T14:58:17Z</time>
      </trkpt>
      <trkpt lat="43.041567" lon="-3.009300">
        <ele>724.0</ele>
        <time>2013-07-29T14:58:18Z</time>
      </trkpt>
      <trkpt lat="43.041617" lon="-3.009233">
        <ele>725.0</ele>
        <time>2013-07-29T14:58:19Z</time>
      </trkpt>
      <trkpt lat="43.041667" lon="-3.009167">
        <ele>725.0</ele>
        <time>2013-07-29T14:58:20Z</time>
      </trkpt>
      <trkpt lat="43.041700" lon="-3.009067">
        <ele>725.0</ele>
        <time>2013-07-29T14:58:21Z</time>
      </trkpt>
      <trkpt lat="43.041683" lon="-3.008883">
        <ele>724.0</ele>
        <time>2013-07-29T14:58:23Z</time>
      </trkpt>
      <trkpt lat="43.041650" lon="-3.008783">
        <ele>724.0</ele>
        <time>2013-07-29T14:58:24Z</time>
      </trkpt>
      <trkpt lat="43.041600" lon="-3.008700">
        <ele>723.0</ele>
        <time>2013-07-29T14:58:25Z</time>
      </trkpt>
      <trkpt lat="43.041533" lon="-3.008633">
        <ele>723.0</ele>
        <time>2013-07-29T14:58:26Z</time>
      </trkpt>
      <trkpt lat="43.041450" lon="-3.008567">
        <ele>723.0</ele>
        <time>2013-07-29T14:58:27Z</time>
      </trkpt>
      <trkpt lat="43.041367" lon="-3.008550">
        <ele>723.0</ele>
        <time>2013-07-29T14:58:28Z</time>
      </trkpt>
      <trkpt lat="43.041267" lon="-3.008567">
        <ele>723.0</ele>
        <time>2013-07-29T14:58:29Z</time>
      </trkpt>
      <trkpt lat="43.041183" lon="-3.008617">
        <ele>723.0</ele>
        <time>2013-07-29T14:58:30Z</time>
      </trkpt>
      <trkpt lat="43.041117" lon="-3.008683">
        <ele>722.0</ele>
        <time>2013-07-29T14:58:31Z</time>
      </trkpt>
      <trkpt lat="43.041067" lon="-3.008767">
        <ele>723.0</ele>
        <time>2013-07-29T14:58:32Z</time>
      </trkpt>
      <trkpt lat="43.041033" lon="-3.008867">
        <ele>723.0</ele>
        <time>2013-07-29T14:58:33Z</time>
      </trkpt>
      <trkpt lat="43.041000" lon="-3.008950">
        <ele>723.0</ele>
        <time>2013-07-29T14:58:34Z</time>
      </trkpt>
      <trkpt lat="43.041000" lon="-3.009067">
        <ele>723.0</ele>
        <time>2013-07-29T14:58:35Z</time>
      </trkpt>
      <trkpt lat="43.041017" lon="-3.009167">
        <ele>723.0</ele>
        <time>2013-07-29T14:58:36Z</time>
      </trkpt>
      <trkpt lat="43.041033" lon="-3.009267">
        <ele>723.0</ele>
        <time>2013-07-29T14:58:37Z</time>
      </trkpt>
      <trkpt lat="43.041067" lon="-3.009350">
        <ele>723.0</ele>
        <time>2013-07-29T14:58:38Z</time>
      </trkpt>
      <trkpt lat="43.041117" lon="-3.009433">
        <ele>724.0</ele>
        <time>2013-07-29T14:58:39Z</time>
      </trkpt>
      <trkpt lat="43.041167" lon="-3.009517">
        <ele>726.0</ele>
        <time>2013-07-29T14:58:40Z</time>
      </trkpt>
      <trkpt lat="43.041217" lon="-3.009600">
        <ele>726.0</ele>
        <time>2013-07-29T14:58:41Z</time>
      </trkpt>
      <trkpt lat="43.041267" lon="-3.009683">
        <ele>727.0</ele>
        <time>2013-07-29T14:58:42Z</time>
      </trkpt>
      <trkpt lat="43.041317" lon="-3.009767">
        <ele>728.0</ele>
        <time>2013-07-29T14:58:43Z</time>
      </trkpt>
      <trkpt lat="43.041367" lon="-3.009833">
        <ele>730.0</ele>
        <time>2013-07-29T14:58:44Z</time>
      </trkpt>
      <trkpt lat="43.041417" lon="-3.009883">
        <ele>731.0</ele>
        <time>2013-07-29T14:58:45Z</time>
      </trkpt>
      <trkpt lat="43.041467" lon="-3.009917">
        <ele>732.0</ele>
        <time>2013-07-29T14:58:46Z</time>
      </trkpt>
      <trkpt lat="43.041517" lon="-3.009967">
        <ele>733.0</ele>
        <time>2013-07-29T14:58:47Z</time>
      </trkpt>
      <trkpt lat="43.041567" lon="-3.010017">
        <ele>732.0</ele>
        <time>2013-07-29T14:58:48Z</time>
      </trkpt>
      <trkpt lat="43.041617" lon="-3.010067">
        <ele>732.0</ele>
        <time>2013-07-29T14:58:49Z</time>
      </trkpt>
      <trkpt lat="43.041667" lon="-3.010133">
        <ele>732.0</ele>
        <time>2013-07-29T14:58:50Z</time>
      </trkpt>
      <trkpt lat="43.041733" lon="-3.010167">
        <ele>731.0</ele>
        <time>2013-07-29T14:58:51Z</time>
      </trkpt>
      <trkpt lat="43.041800" lon="-3.010200">
        <ele>733.0</ele>
        <time>2013-07-29T14:58:52Z</time>
      </trkpt>
      <trkpt lat="43.041850" lon="-3.010217">
        <ele>735.0</ele>
        <time>2013-07-29T14:58:53Z</time>
      </trkpt>
      <trkpt lat="43.041883" lon="-3.010250">
        <ele>735.0</ele>
        <time>2013-07-29T14:58:54Z</time>
      </trkpt>
      <trkpt lat="43.041933" lon="-3.010283">
        <ele>735.0</ele>
        <time>2013-07-29T14:58:55Z</time>
      </trkpt>
      <trkpt lat="43.042000" lon="-3.010300">
        <ele>735.0</ele>
        <time>2013-07-29T14:58:56Z</time>
      </trkpt>
      <trkpt lat="43.042083" lon="-3.010333">
        <ele>734.0</ele>
        <time>2013-07-29T14:58:57Z</time>
      </trkpt>
      <trkpt lat="43.042150" lon="-3.010367">
        <ele>734.0</ele>
        <time>2013-07-29T14:58:58Z</time>
      </trkpt>
      <trkpt lat="43.042200" lon="-3.010383">
        <ele>734.0</ele>
        <time>2013-07-29T14:58:59Z</time>
      </trkpt>
      <trkpt lat="43.042267" lon="-3.010417">
        <ele>735.0</ele>
        <time>2013-07-29T14:59:00Z</time>
      </trkpt>
      <trkpt lat="43.042333" lon="-3.010433">
        <ele>735.0</ele>
        <time>2013-07-29T14:59:01Z</time>
      </trkpt>
      <trkpt lat="43.042400" lon="-3.010450">
        <ele>734.0</ele>
        <time>2013-07-29T14:59:02Z</time>
      </trkpt>
      <trkpt lat="43.042483" lon="-3.010467">
        <ele>733.0</ele>
        <time>2013-07-29T14:59:03Z</time>
      </trkpt>
      <trkpt lat="43.042533" lon="-3.010483">
        <ele>733.0</ele>
        <time>2013-07-29T14:59:04Z</time>
      </trkpt>
      <trkpt lat="43.042600" lon="-3.010500">
        <ele>734.0</ele>
        <time>2013-07-29T14:59:05Z</time>
      </trkpt>
      <trkpt lat="43.042667" lon="-3.010517">
        <ele>734.0</ele>
        <time>2013-07-29T14:59:06Z</time>
      </trkpt>
      <trkpt lat="43.042733" lon="-3.010533">
        <ele>734.0</ele>
        <time>2013-07-29T14:59:07Z</time>
      </trkpt>
      <trkpt lat="43.042817" lon="-3.010550">
        <ele>735.0</ele>
        <time>2013-07-29T14:59:08Z</time>
      </trkpt>
      <trkpt lat="43.042883" lon="-3.010567">
        <ele>736.0</ele>
        <time>2013-07-29T14:59:09Z</time>
      </trkpt>
      <trkpt lat="43.042950" lon="-3.010583">
        <ele>737.0</ele>
        <time>2013-07-29T14:59:10Z</time>
      </trkpt>
      <trkpt lat="43.043033" lon="-3.010617">
        <ele>738.0</ele>
        <time>2013-07-29T14:59:11Z</time>
      </trkpt>
      <trkpt lat="43.043100" lon="-3.010633">
        <ele>739.0</ele>
        <time>2013-07-29T14:59:12Z</time>
      </trkpt>
      <trkpt lat="43.043183" lon="-3.010667">
        <ele>739.0</ele>
        <time>2013-07-29T14:59:13Z</time>
      </trkpt>
      <trkpt lat="43.043267" lon="-3.010683">
        <ele>740.0</ele>
        <time>2013-07-29T14:59:14Z</time>
      </trkpt>
      <trkpt lat="43.043333" lon="-3.010717">
        <ele>741.0</ele>
        <time>2013-07-29T14:59:15Z</time>
      </trkpt>
      <trkpt lat="43.043400" lon="-3.010733">
        <ele>742.0</ele>
        <time>2013-07-29T14:59:16Z</time>
      </trkpt>
      <trkpt lat="43.043467" lon="-3.010750">
        <ele>743.0</ele>
        <time>2013-07-29T14:59:17Z</time>
      </trkpt>
      <trkpt lat="43.043533" lon="-3.010783">
        <ele>743.0</ele>
        <time>2013-07-29T14:59:18Z</time>
      </trkpt>
      <trkpt lat="43.043600" lon="-3.010800">
        <ele>742.0</ele>
        <time>2013-07-29T14:59:19Z</time>
      </trkpt>
      <trkpt lat="43.043667" lon="-3.010817">
        <ele>740.0</ele>
        <time>2013-07-29T14:59:20Z</time>
      </trkpt>
      <trkpt lat="43.043750" lon="-3.010833">
        <ele>739.0</ele>
        <time>2013-07-29T14:59:21Z</time>
      </trkpt>
      <trkpt lat="43.043817" lon="-3.010850">
        <ele>739.0</ele>
        <time>2013-07-29T14:59:22Z</time>
      </trkpt>
      <trkpt lat="43.043883" lon="-3.010867">
        <ele>738.0</ele>
        <time>2013-07-29T14:59:23Z</time>
      </trkpt>
      <trkpt lat="43.043950" lon="-3.010883">
        <ele>737.0</ele>
        <time>2013-07-29T14:59:24Z</time>
      </trkpt>
      <trkpt lat="43.044017" lon="-3.010900">
        <ele>736.0</ele>
        <time>2013-07-29T14:59:25Z</time>
      </trkpt>
      <trkpt lat="43.044083" lon="-3.010933">
        <ele>735.0</ele>
        <time>2013-07-29T14:59:26Z</time>
      </trkpt>
      <trkpt lat="43.044167" lon="-3.010950">
        <ele>734.0</ele>
        <time>2013-07-29T14:59:27Z</time>
      </trkpt>
      <trkpt lat="43.044233" lon="-3.010967">
        <ele>734.0</ele>
        <time>2013-07-29T14:59:28Z</time>
      </trkpt>
      <trkpt lat="43.044300" lon="-3.010967">
        <ele>735.0</ele>
        <time>2013-07-29T14:59:29Z</time>
      </trkpt>
      <trkpt lat="43.044400" lon="-3.010967">
        <ele>737.0</ele>
        <time>2013-07-29T14:59:31Z</time>
      </trkpt>
      <trkpt lat="43.044450" lon="-3.010967">
        <ele>736.0</ele>
        <time>2013-07-29T14:59:32Z</time>
      </trkpt>
      <trkpt lat="43.044533" lon="-3.010983">
        <ele>735.0</ele>
        <time>2013-07-29T14:59:33Z</time>
      </trkpt>
      <trkpt lat="43.044617" lon="-3.010983">
        <ele>733.0</ele>
        <time>2013-07-29T14:59:34Z</time>
      </trkpt>
      <trkpt lat="43.044750" lon="-3.010950">
        <ele>734.0</ele>
        <time>2013-07-29T14:59:36Z</time>
      </trkpt>
      <trkpt lat="43.044817" lon="-3.010933">
        <ele>734.0</ele>
        <time>2013-07-29T14:59:37Z</time>
      </trkpt>
      <trkpt lat="43.044867" lon="-3.010933">
        <ele>734.0</ele>
        <time>2013-07-29T14:59:38Z</time>
      </trkpt>
      <trkpt lat="43.044933" lon="-3.010917">
        <ele>734.0</ele>
        <time>2013-07-29T14:59:39Z</time>
      </trkpt>
      <trkpt lat="43.045000" lon="-3.010900">
        <ele>733.0</ele>
        <time>2013-07-29T14:59:40Z</time>
      </trkpt>
      <trkpt lat="43.045067" lon="-3.010883">
        <ele>733.0</ele>
        <time>2013-07-29T14:59:41Z</time>
      </trkpt>
      <trkpt lat="43.045133" lon="-3.010850">
        <ele>732.0</ele>
        <time>2013-07-29T14:59:42Z</time>
      </trkpt>
      <trkpt lat="43.045200" lon="-3.010817">
        <ele>732.0</ele>
        <time>2013-07-29T14:59:43Z</time>
      </trkpt>
      <trkpt lat="43.045267" lon="-3.010783">
        <ele>732.0</ele>
        <time>2013-07-29T14:59:44Z</time>
      </trkpt>
      <trkpt lat="43.045317" lon="-3.010767">
        <ele>733.0</ele>
        <time>2013-07-29T14:59:45Z</time>
      </trkpt>
      <trkpt lat="43.045383" lon="-3.010733">
        <ele>733.0</ele>
        <time>2013-07-29T14:59:46Z</time>
      </trkpt>
      <trkpt lat="43.045433" lon="-3.010700">
        <ele>733.0</ele>
        <time>2013-07-29T14:59:47Z</time>
      </trkpt>
      <trkpt lat="43.045500" lon="-3.010667">
        <ele>733.0</ele>
        <time>2013-07-29T14:59:48Z</time>
      </trkpt>
      <trkpt lat="43.045567" lon="-3.010633">
        <ele>734.0</ele>
        <time>2013-07-29T14:59:49Z</time>
      </trkpt>
      <trkpt lat="43.045633" lon="-3.010600">
        <ele>734.0</ele>
        <time>2013-07-29T14:59:50Z</time>
      </trkpt>
      <trkpt lat="43.045683" lon="-3.010567">
        <ele>736.0</ele>
        <time>2013-07-29T14:59:51Z</time>
      </trkpt>
      <trkpt lat="43.045733" lon="-3.010550">
        <ele>736.0</ele>
        <time>2013-07-29T14:59:52Z</time>
      </trkpt>
      <trkpt lat="43.045800" lon="-3.010517">
        <ele>737.0</ele>
        <time>2013-07-29T14:59:53Z</time>
      </trkpt>
      <trkpt lat="43.045850" lon="-3.010483">
        <ele>738.0</ele>
        <time>2013-07-29T14:59:54Z</time>
      </trkpt>
      <trkpt lat="43.045900" lon="-3.010450">
        <ele>740.0</ele>
        <time>2013-07-29T14:59:55Z</time>
      </trkpt>
      <trkpt lat="43.045950" lon="-3.010417">
        <ele>742.0</ele>
        <time>2013-07-29T14:59:56Z</time>
      </trkpt>
      <trkpt lat="43.046000" lon="-3.010383">
        <ele>743.0</ele>
        <time>2013-07-29T14:59:57Z</time>
      </trkpt>
      <trkpt lat="43.046033" lon="-3.010333">
        <ele>745.0</ele>
        <time>2013-07-29T14:59:58Z</time>
      </trkpt>
      <trkpt lat="43.046050" lon="-3.010267">
        <ele>746.0</ele>
        <time>2013-07-29T14:59:59Z</time>
      </trkpt>
      <trkpt lat="43.046083" lon="-3.010200">
        <ele>748.0</ele>
        <time>2013-07-29T15:00:00Z</time>
      </trkpt>
      <trkpt lat="43.046117" lon="-3.010133">
        <ele>750.0</ele>
        <time>2013-07-29T15:00:01Z</time>
      </trkpt>
      <trkpt lat="43.046150" lon="-3.010067">
        <ele>752.0</ele>
        <time>2013-07-29T15:00:02Z</time>
      </trkpt>
      <trkpt lat="43.046183" lon="-3.009983">
        <ele>754.0</ele>
        <time>2013-07-29T15:00:03Z</time>
      </trkpt>
      <trkpt lat="43.046200" lon="-3.009900">
        <ele>758.0</ele>
        <time>2013-07-29T15:00:04Z</time>
      </trkpt>
      <trkpt lat="43.046200" lon="-3.009817">
        <ele>766.0</ele>
        <time>2013-07-29T15:00:06Z</time>
      </trkpt>
      <trkpt lat="43.046183" lon="-3.009767">
        <ele>769.0</ele>
        <time>2013-07-29T15:00:07Z</time>
      </trkpt>
      <trkpt lat="43.046183" lon="-3.009700">
        <ele>771.0</ele>
        <time>2013-07-29T15:00:08Z</time>
      </trkpt>
      <trkpt lat="43.046167" lon="-3.009617">
        <ele>772.0</ele>
        <time>2013-07-29T15:00:09Z</time>
      </trkpt>
      <trkpt lat="43.046117" lon="-3.009550">
        <ele>773.0</ele>
        <time>2013-07-29T15:00:10Z</time>
      </trkpt>
      <trkpt lat="43.046033" lon="-3.009533">
        <ele>775.0</ele>
        <time>2013-07-29T15:00:11Z</time>
      </trkpt>
      <trkpt lat="43.045950" lon="-3.009533">
        <ele>777.0</ele>
        <time>2013-07-29T15:00:12Z</time>
      </trkpt>
      <trkpt lat="43.045850" lon="-3.009567">
        <ele>779.0</ele>
        <time>2013-07-29T15:00:13Z</time>
      </trkpt>
      <trkpt lat="43.045750" lon="-3.009567">
        <ele>781.0</ele>
        <time>2013-07-29T15:00:14Z</time>
      </trkpt>
      <trkpt lat="43.045667" lon="-3.009550">
        <ele>785.0</ele>
        <time>2013-07-29T15:00:15Z</time>
      </trkpt>
      <trkpt lat="43.045550" lon="-3.009550">
        <ele>788.0</ele>
        <time>2013-07-29T15:00:16Z</time>
      </trkpt>
      <trkpt lat="43.045450" lon="-3.009567">
        <ele>790.0</ele>
        <time>2013-07-29T15:00:17Z</time>
      </trkpt>
      <trkpt lat="43.045367" lon="-3.009617">
        <ele>793.0</ele>
        <time>2013-07-29T15:00:18Z</time>
      </trkpt>
      <trkpt lat="43.045283" lon="-3.009683">
        <ele>796.0</ele>
        <time>2013-07-29T15:00:19Z</time>
      </trkpt>
      <trkpt lat="43.045233" lon="-3.009733">
        <ele>800.0</ele>
        <time>2013-07-29T15:00:20Z</time>
      </trkpt>
      <trkpt lat="43.045183" lon="-3.009783">
        <ele>805.0</ele>
        <time>2013-07-29T15:00:21Z</time>
      </trkpt>
      <trkpt lat="43.045133" lon="-3.009833">
        <ele>809.0</ele>
        <time>2013-07-29T15:00:22Z</time>
      </trkpt>
      <trkpt lat="43.045083" lon="-3.009883">
        <ele>812.0</ele>
        <time>2013-07-29T15:00:23Z</time>
      </trkpt>
      <trkpt lat="43.045017" lon="-3.009967">
        <ele>814.0</ele>
        <time>2013-07-29T15:00:24Z</time>
      </trkpt>
      <trkpt lat="43.044983" lon="-3.010067">
        <ele>816.0</ele>
        <time>2013-07-29T15:00:25Z</time>
      </trkpt>
      <trkpt lat="43.044967" lon="-3.010167">
        <ele>819.0</ele>
        <time>2013-07-29T15:00:26Z</time>
      </trkpt>
      <trkpt lat="43.044967" lon="-3.010267">
        <ele>822.0</ele>
        <time>2013-07-29T15:00:27Z</time>
      </trkpt>
      <trkpt lat="43.044983" lon="-3.010350">
        <ele>824.0</ele>
        <time>2013-07-29T15:00:28Z</time>
      </trkpt>
      <trkpt lat="43.045000" lon="-3.010417">
        <ele>826.0</ele>
        <time>2013-07-29T15:00:29Z</time>
      </trkpt>
      <trkpt lat="43.045017" lon="-3.010483">
        <ele>828.0</ele>
        <time>2013-07-29T15:00:30Z</time>
      </trkpt>
      <trkpt lat="43.045050" lon="-3.010533">
        <ele>830.0</ele>
        <time>2013-07-29T15:00:31Z</time>
      </trkpt>
      <trkpt lat="43.045100" lon="-3.010583">
        <ele>832.0</ele>
        <time>2013-07-29T15:00:32Z</time>
      </trkpt>
      <trkpt lat="43.045200" lon="-3.010667">
        <ele>835.0</ele>
        <time>2013-07-29T15:00:34Z</time>
      </trkpt>
      <trkpt lat="43.045250" lon="-3.010700">
        <ele>836.0</ele>
        <time>2013-07-29T15:00:35Z</time>
      </trkpt>
      <trkpt lat="43.045300" lon="-3.010717">
        <ele>838.0</ele>
        <time>2013-07-29T15:00:36Z</time>
      </trkpt>
      <trkpt lat="43.045367" lon="-3.010750">
        <ele>838.0</ele>
        <time>2013-07-29T15:00:37Z</time>
      </trkpt>
      <trkpt lat="43.045433" lon="-3.010767">
        <ele>839.0</ele>
        <time>2013-07-29T15:00:38Z</time>
      </trkpt>
      <trkpt lat="43.045483" lon="-3.010783">
        <ele>840.0</ele>
        <time>2013-07-29T15:00:39Z</time>
      </trkpt>
      <trkpt lat="43.045617" lon="-3.010750">
        <ele>843.0</ele>
        <time>2013-07-29T15:00:41Z</time>
      </trkpt>
      <trkpt lat="43.045667" lon="-3.010700">
        <ele>844.0</ele>
        <time>2013-07-29T15:00:42Z</time>
      </trkpt>
      <trkpt lat="43.045717" lon="-3.010617">
        <ele>844.0</ele>
        <time>2013-07-29T15:00:43Z</time>
      </trkpt>
      <trkpt lat="43.045750" lon="-3.010517">
        <ele>845.0</ele>
        <time>2013-07-29T15:00:44Z</time>
      </trkpt>
      <trkpt lat="43.045783" lon="-3.010383">
        <ele>845.0</ele>
        <time>2013-07-29T15:00:45Z</time>
      </trkpt>
      <trkpt lat="43.045800" lon="-3.010267">
        <ele>846.0</ele>
        <time>2013-07-29T15:00:46Z</time>
      </trkpt>
      <trkpt lat="43.045783" lon="-3.010117">
        <ele>847.0</ele>
        <time>2013-07-29T15:00:48Z</time>
      </trkpt>
      <trkpt lat="43.045750" lon="-3.010033">
        <ele>848.0</ele>
        <time>2013-07-29T15:00:49Z</time>
      </trkpt>
      <trkpt lat="43.045683" lon="-3.009933">
        <ele>850.0</ele>
        <time>2013-07-29T15:00:50Z</time>
      </trkpt>
      <trkpt lat="43.045617" lon="-3.009850">
        <ele>852.0</ele>
        <time>2013-07-29T15:00:51Z</time>
      </trkpt>
      <trkpt lat="43.045550" lon="-3.009767">
        <ele>854.0</ele>
        <time>2013-07-29T15:00:52Z</time>
      </trkpt>
      <trkpt lat="43.045450" lon="-3.009717">
        <ele>857.0</ele>
        <time>2013-07-29T15:00:53Z</time>
      </trkpt>
      <trkpt lat="43.045367" lon="-3.009667">
        <ele>860.0</ele>
        <time>2013-07-29T15:00:54Z</time>
      </trkpt>
      <trkpt lat="43.045283" lon="-3.009633">
        <ele>863.0</ele>
        <time>2013-07-29T15:00:55Z</time>
      </trkpt>
      <trkpt lat="43.045183" lon="-3.009617">
        <ele>866.0</ele>
        <time>2013-07-29T15:00:56Z</time>
      </trkpt>
      <trkpt lat="43.045083" lon="-3.009600">
        <ele>869.0</ele>
        <time>2013-07-29T15:00:57Z</time>
      </trkpt>
      <trkpt lat="43.045000" lon="-3.009600">
        <ele>872.0</ele>
        <time>2013-07-29T15:00:58Z</time>
      </trkpt>
      <trkpt lat="43.044933" lon="-3.009617">
        <ele>875.0</ele>
        <time>2013-07-29T15:00:59Z</time>
      </trkpt>
      <trkpt lat="43.044867" lon="-3.009633">
        <ele>879.0</ele>
        <time>2013-07-29T15:01:00Z</time>
      </trkpt>
      <trkpt lat="43.044800" lon="-3.009650">
        <ele>882.0</ele>
        <time>2013-07-29T15:01:01Z</time>
      </trkpt>
      <trkpt lat="43.044717" lon="-3.009650">
        <ele>884.0</ele>
        <time>2013-07-29T15:01:02Z</time>
      </trkpt>
      <trkpt lat="43.044617" lon="-3.009683">
        <ele>886.0</ele>
        <time>2013-07-29T15:01:03Z</time>
      </trkpt>
      <trkpt lat="43.044533" lon="-3.009700">
        <ele>890.0</ele>
        <time>2013-07-29T15:01:04Z</time>
      </trkpt>
      <trkpt lat="43.044467" lon="-3.009717">
        <ele>895.0</ele>
        <time>2013-07-29T15:01:05Z</time>
      </trkpt>
      <trkpt lat="43.044417" lon="-3.009750">
        <ele>900.0</ele>
        <time>2013-07-29T15:01:06Z</time>
      </trkpt>
      <trkpt lat="43.044367" lon="-3.009800">
        <ele>903.0</ele>
        <time>2013-07-29T15:01:07Z</time>
      </trkpt>
      <trkpt lat="43.044300" lon="-3.009867">
        <ele>905.0</ele>
        <time>2013-07-29T15:01:08Z</time>
      </trkpt>
      <trkpt lat="43.044217" lon="-3.009950">
        <ele>906.0</ele>
        <time>2013-07-29T15:01:09Z</time>
      </trkpt>
      <trkpt lat="43.044150" lon="-3.010033">
        <ele>907.0</ele>
        <time>2013-07-29T15:01:10Z</time>
      </trkpt>
      <trkpt lat="43.044117" lon="-3.010133">
        <ele>909.0</ele>
        <time>2013-07-29T15:01:11Z</time>
      </trkpt>
      <trkpt lat="43.044100" lon="-3.010200">
        <ele>910.0</ele>
        <time>2013-07-29T15:01:12Z</time>
      </trkpt>
      <trkpt lat="43.044117" lon="-3.010267">
        <ele>912.0</ele>
        <time>2013-07-29T15:01:13Z</time>
      </trkpt>
      <trkpt lat="43.044150" lon="-3.010317">
        <ele>913.0</ele>
        <time>2013-07-29T15:01:14Z</time>
      </trkpt>
      <trkpt lat="43.044183" lon="-3.010383">
        <ele>913.0</ele>
        <time>2013-07-29T15:01:15Z</time>
      </trkpt>
      <trkpt lat="43.044233" lon="-3.010433">
        <ele>914.0</ele>
        <time>2013-07-29T15:01:16Z</time>
      </trkpt>
      <trkpt lat="43.044283" lon="-3.010483">
        <ele>914.0</ele>
        <time>2013-07-29T15:01:17Z</time>
      </trkpt>
      <trkpt lat="43.044350" lon="-3.010500">
        <ele>914.0</ele>
        <time>2013-07-29T15:01:18Z</time>
      </trkpt>
      <trkpt lat="43.044417" lon="-3.010483">
        <ele>914.0</ele>
        <time>2013-07-29T15:01:19Z</time>
      </trkpt>
      <trkpt lat="43.044467" lon="-3.010467">
        <ele>915.0</ele>
        <time>2013-07-29T15:01:20Z</time>
      </trkpt>
      <trkpt lat="43.044517" lon="-3.010417">
        <ele>915.0</ele>
        <time>2013-07-29T15:01:21Z</time>
      </trkpt>
      <trkpt lat="43.044567" lon="-3.010350">
        <ele>915.0</ele>
        <time>2013-07-29T15:01:22Z</time>
      </trkpt>
      <trkpt lat="43.044633" lon="-3.010283">
        <ele>915.0</ele>
        <time>2013-07-29T15:01:23Z</time>
      </trkpt>
      <trkpt lat="43.044700" lon="-3.010217">
        <ele>916.0</ele>
        <time>2013-07-29T15:01:24Z</time>
      </trkpt>
      <trkpt lat="43.044750" lon="-3.010167">
        <ele>918.0</ele>
        <time>2013-07-29T15:01:25Z</time>
      </trkpt>
      <trkpt lat="43.044800" lon="-3.010100">
        <ele>920.0</ele>
        <time>2013-07-29T15:01:26Z</time>
      </trkpt>
      <trkpt lat="43.044850" lon="-3.010050">
        <ele>922.0</ele>
        <time>2013-07-29T15:01:27Z</time>
      </trkpt>
      <trkpt lat="43.044917" lon="-3.009983">
        <ele>918.0</ele>
        <time>2013-07-29T15:01:28Z</time>
      </trkpt>
      <trkpt lat="43.044983" lon="-3.009883">
        <ele>919.0</ele>
        <time>2013-07-29T15:01:29Z</time>
      </trkpt>
      <trkpt lat="43.045033" lon="-3.009800">
        <ele>920.0</ele>
        <time>2013-07-29T15:01:30Z</time>
      </trkpt>
      <trkpt lat="43.045050" lon="-3.009717">
        <ele>922.0</ele>
        <time>2013-07-29T15:01:31Z</time>
      </trkpt>
      <trkpt lat="43.045067" lon="-3.009650">
        <ele>926.0</ele>
        <time>2013-07-29T15:01:32Z</time>
      </trkpt>
      <trkpt lat="43.045083" lon="-3.009583">
        <ele>929.0</ele>
        <time>2013-07-29T15:01:33Z</time>
      </trkpt>
      <trkpt lat="43.045100" lon="-3.009483">
        <ele>931.0</ele>
        <time>2013-07-29T15:01:34Z</time>
      </trkpt>
      <trkpt lat="43.045133" lon="-3.009383">
        <ele>932.0</ele>
        <time>2013-07-29T15:01:35Z</time>
      </trkpt>
      <trkpt lat="43.045167" lon="-3.009283">
        <ele>933.0</ele>
        <time>2013-07-29T15:01:36Z</time>
      </trkpt>
      <trkpt lat="43.045167" lon="-3.009183">
        <ele>932.0</ele>
        <time>2013-07-29T15:01:37Z</time>
      </trkpt>
      <trkpt lat="43.045150" lon="-3.009083">
        <ele>934.0</ele>
        <time>2013-07-29T15:01:38Z</time>
      </trkpt>
      <trkpt lat="43.045117" lon="-3.008967">
        <ele>936.0</ele>
        <time>2013-07-29T15:01:39Z</time>
      </trkpt>
      <trkpt lat="43.045083" lon="-3.008867">
        <ele>937.0</ele>
        <time>2013-07-29T15:01:40Z</time>
      </trkpt>
      <trkpt lat="43.045017" lon="-3.008750">
        <ele>939.0</ele>
        <time>2013-07-29T15:01:41Z</time>
      </trkpt>
      <trkpt lat="43.044950" lon="-3.008667">
        <ele>941.0</ele>
        <time>2013-07-29T15:01:42Z</time>
      </trkpt>
      <trkpt lat="43.044883" lon="-3.008583">
        <ele>944.0</ele>
        <time>2013-07-29T15:01:43Z</time>
      </trkpt>
      <trkpt lat="43.044817" lon="-3.008500">
        <ele>946.0</ele>
        <time>2013-07-29T15:01:44Z</time>
      </trkpt>
      <trkpt lat="43.044733" lon="-3.008433">
        <ele>949.0</ele>
        <time>2013-07-29T15:01:45Z</time>
      </trkpt>
      <trkpt lat="43.044650" lon="-3.008383">
        <ele>951.0</ele>
        <time>2013-07-29T15:01:46Z</time>
      </trkpt>
      <trkpt lat="43.044550" lon="-3.008367">
        <ele>953.0</ele>
        <time>2013-07-29T15:01:47Z</time>
      </trkpt>
      <trkpt lat="43.044450" lon="-3.008367">
        <ele>955.0</ele>
        <time>2013-07-29T15:01:48Z</time>
      </trkpt>
      <trkpt lat="43.044367" lon="-3.008400">
        <ele>957.0</ele>
        <time>2013-07-29T15:01:49Z</time>
      </trkpt>
      <trkpt lat="43.044283" lon="-3.008450">
        <ele>960.0</ele>
        <time>2013-07-29T15:01:50Z</time>
      </trkpt>
      <trkpt lat="43.044200" lon="-3.008517">
        <ele>962.0</ele>
        <time>2013-07-29T15:01:51Z</time>
      </trkpt>
      <trkpt lat="43.044133" lon="-3.008583">
        <ele>965.0</ele>
        <time>2013-07-29T15:01:52Z</time>
      </trkpt>
      <trkpt lat="43.044050" lon="-3.008667">
        <ele>967.0</ele>
        <time>2013-07-29T15:01:53Z</time>
      </trkpt>
      <trkpt lat="43.043983" lon="-3.008767">
        <ele>970.0</ele>
        <time>2013-07-29T15:01:54Z</time>
      </trkpt>
      <trkpt lat="43.043933" lon="-3.008883">
        <ele>973.0</ele>
        <time>2013-07-29T15:01:55Z</time>
      </trkpt>
      <trkpt lat="43.043900" lon="-3.008967">
        <ele>976.0</ele>
        <time>2013-07-29T15:01:56Z</time>
      </trkpt>
      <trkpt lat="43.043883" lon="-3.009050">
        <ele>978.0</ele>
        <time>2013-07-29T15:01:57Z</time>
      </trkpt>
      <trkpt lat="43.043883" lon="-3.009133">
        <ele>981.0</ele>
        <time>2013-07-29T15:01:58Z</time>
      </trkpt>
      <trkpt lat="43.043900" lon="-3.009217">
        <ele>982.0</ele>
        <time>2013-07-29T15:01:59Z</time>
      </trkpt>
      <trkpt lat="43.043900" lon="-3.009317">
        <ele>984.0</ele>
        <time>2013-07-29T15:02:00Z</time>
      </trkpt>
      <trkpt lat="43.043917" lon="-3.009433">
        <ele>986.0</ele>
        <time>2013-07-29T15:02:01Z</time>
      </trkpt>
      <trkpt lat="43.043933" lon="-3.009533">
        <ele>988.0</ele>
        <time>2013-07-29T15:02:02Z</time>
      </trkpt>
      <trkpt lat="43.043917" lon="-3.009617">
        <ele>991.0</ele>
        <time>2013-07-29T15:02:03Z</time>
      </trkpt>
      <trkpt lat="43.043917" lon="-3.009700">
        <ele>993.0</ele>
        <time>2013-07-29T15:02:04Z</time>
      </trkpt>
      <trkpt lat="43.043933" lon="-3.009767">
        <ele>995.0</ele>
        <time>2013-07-29T15:02:05Z</time>
      </trkpt>
      <trkpt lat="43.043967" lon="-3.009867">
        <ele>997.0</ele>
        <time>2013-07-29T15:02:06Z</time>
      </trkpt>
      <trkpt lat="43.044000" lon="-3.009950">
        <ele>998.0</ele>
        <time>2013-07-29T15:02:07Z</time>
      </trkpt>
      <trkpt lat="43.044033" lon="-3.010017">
        <ele>1001.0</ele>
        <time>2013-07-29T15:02:08Z</time>
      </trkpt>
      <trkpt lat="43.044067" lon="-3.010050">
        <ele>1003.0</ele>
        <time>2013-07-29T15:02:09Z</time>
      </trkpt>
      <trkpt lat="43.044100" lon="-3.010083">
        <ele>1005.0</ele>
        <time>2013-07-29T15:02:10Z</time>
      </trkpt>
      <trkpt lat="43.044150" lon="-3.010100">
        <ele>1007.0</ele>
        <time>2013-07-29T15:02:11Z</time>
      </trkpt>
      <trkpt lat="43.044217" lon="-3.010100">
        <ele>1007.0</ele>
        <time>2013-07-29T15:02:12Z</time>
      </trkpt>
      <trkpt lat="43.044300" lon="-3.010083">
        <ele>1008.0</ele>
        <time>2013-07-29T15:02:13Z</time>
      </trkpt>
      <trkpt lat="43.044350" lon="-3.010033">
        <ele>1009.0</ele>
        <time>2013-07-29T15:02:14Z</time>
      </trkpt>
      <trkpt lat="43.044383" lon="-3.009983">
        <ele>1011.0</ele>
        <time>2013-07-29T15:02:15Z</time>
      </trkpt>
      <trkpt lat="43.044417" lon="-3.009900">
        <ele>1013.0</ele>
        <time>2013-07-29T15:02:16Z</time>
      </trkpt>
      <trkpt lat="43.044417" lon="-3.009817">
        <ele>1014.0</ele>
        <time>2013-07-29T15:02:17Z</time>
      </trkpt>
      <trkpt lat="43.044417" lon="-3.009717">
        <ele>1015.0</ele>
        <time>2013-07-29T15:02:18Z</time>
      </trkpt>
      <trkpt lat="43.044417" lon="-3.009600">
        <ele>1016.0</ele>
        <time>2013-07-29T15:02:19Z</time>
      </trkpt>
      <trkpt lat="43.044383" lon="-3.009483">
        <ele>1018.0</ele>
        <time>2013-07-29T15:02:20Z</time>
      </trkpt>
      <trkpt lat="43.044333" lon="-3.009383">
        <ele>1019.0</ele>
        <time>2013-07-29T15:02:21Z</time>
      </trkpt>
      <trkpt lat="43.044250" lon="-3.009300">
        <ele>1020.0</ele>
        <time>2013-07-29T15:02:22Z</time>
      </trkpt>
      <trkpt lat="43.044167" lon="-3.009233">
        <ele>1021.0</ele>
        <time>2013-07-29T15:02:23Z</time>
      </trkpt>
      <trkpt lat="43.044100" lon="-3.009183">
        <ele>1024.0</ele>
        <time>2013-07-29T15:02:24Z</time>
      </trkpt>
      <trkpt lat="43.044033" lon="-3.009150">
        <ele>1026.0</ele>
        <time>2013-07-29T15:02:25Z</time>
      </trkpt>
      <trkpt lat="43.043967" lon="-3.009117">
        <ele>1028.0</ele>
        <time>2013-07-29T15:02:26Z</time>
      </trkpt>
      <trkpt lat="43.043883" lon="-3.009100">
        <ele>1030.0</ele>
        <time>2013-07-29T15:02:27Z</time>
      </trkpt>
      <trkpt lat="43.043783" lon="-3.009100">
        <ele>1032.0</ele>
        <time>2013-07-29T15:02:28Z</time>
      </trkpt>
      <trkpt lat="43.043683" lon="-3.009117">
        <ele>1032.0</ele>
        <time>2013-07-29T15:02:29Z</time>
      </trkpt>
      <trkpt lat="43.043583" lon="-3.009150">
        <ele>1034.0</ele>
        <time>2013-07-29T15:02:30Z</time>
      </trkpt>
      <trkpt lat="43.043500" lon="-3.009200">
        <ele>1035.0</ele>
        <time>2013-07-29T15:02:31Z</time>
      </trkpt>
      <trkpt lat="43.043417" lon="-3.009233">
        <ele>1037.0</ele>
        <time>2013-07-29T15:02:32Z</time>
      </trkpt>
      <trkpt lat="43.043333" lon="-3.009267">
        <ele>1039.0</ele>
        <time>2013-07-29T15:02:33Z</time>
      </trkpt>
      <trkpt lat="43.043233" lon="-3.009267">
        <ele>1041.0</ele>
        <time>2013-07-29T15:02:34Z</time>
      </trkpt>
      <trkpt lat="43.043117" lon="-3.009283">
        <ele>1042.0</ele>
        <time>2013-07-29T15:02:35Z</time>
      </trkpt>
      <trkpt lat="43.043017" lon="-3.009283">
        <ele>1044.0</ele>
        <time>2013-07-29T15:02:36Z</time>
      </trkpt>
      <trkpt lat="43.042933" lon="-3.009300">
        <ele>1047.0</ele>
        <time>2013-07-29T15:02:37Z</time>
      </trkpt>
      <trkpt lat="43.042833" lon="-3.009333">
        <ele>1050.0</ele>
        <time>2013-07-29T15:02:38Z</time>
      </trkpt>
      <trkpt lat="43.042750" lon="-3.009367">
        <ele>1053.0</ele>
        <time>2013-07-29T15:02:39Z</time>
      </trkpt>
      <trkpt lat="43.042667" lon="-3.009400">
        <ele>1055.0</ele>
        <time>2013-07-29T15:02:40Z</time>
      </trkpt>
      <trkpt lat="43.042567" lon="-3.009450">
        <ele>1056.0</ele>
        <time>2013-07-29T15:02:41Z</time>
      </trkpt>
      <trkpt lat="43.042483" lon="-3.009500">
        <ele>1057.0</ele>
        <time>2013-07-29T15:02:42Z</time>
      </trkpt>
      <trkpt lat="43.042400" lon="-3.009583">
        <ele>1058.0</ele>
        <time>2013-07-29T15:02:43Z</time>
      </trkpt>
      <trkpt lat="43.042350" lon="-3.009667">
        <ele>1059.0</ele>
        <time>2013-07-29T15:02:44Z</time>
      </trkpt>
      <trkpt lat="43.042317" lon="-3.009767">
        <ele>1061.0</ele>
        <time>2013-07-29T15:02:45Z</time>
      </trkpt>
      <trkpt lat="43.042300" lon="-3.009850">
        <ele>1062.0</ele>
        <time>2013-07-29T15:02:46Z</time>
      </trkpt>
      <trkpt lat="43.042283" lon="-3.009950">
        <ele>1062.0</ele>
        <time>2013-07-29T15:02:47Z</time>
      </trkpt>
      <trkpt lat="43.042283" lon="-3.010050">
        <ele>1062.0</ele>
        <time>2013-07-29T15:02:48Z</time>
      </trkpt>
      <trkpt lat="43.042283" lon="-3.010150">
        <ele>1062.0</ele>
        <time>2013-07-29T15:02:49Z</time>
      </trkpt>
      <trkpt lat="43.042300" lon="-3.010267">
        <ele>1063.0</ele>
        <time>2013-07-29T15:02:50Z</time>
      </trkpt>
      <trkpt lat="43.042317" lon="-3.010367">
        <ele>1063.0</ele>
        <time>2013-07-29T15:02:51Z</time>
      </trkpt>
      <trkpt lat="43.042350" lon="-3.010467">
        <ele>1062.0</ele>
        <time>2013-07-29T15:02:52Z</time>
      </trkpt>
      <trkpt lat="43.042383" lon="-3.010567">
        <ele>1061.0</ele>
        <time>2013-07-29T15:02:53Z</time>
      </trkpt>
      <trkpt lat="43.042417" lon="-3.010650">
        <ele>1060.0</ele>
        <time>2013-07-29T15:02:54Z</time>
      </trkpt>
      <trkpt lat="43.042467" lon="-3.010733">
        <ele>1059.0</ele>
        <time>2013-07-29T15:02:55Z</time>
      </trkpt>
      <trkpt lat="43.042517" lon="-3.010800">
        <ele>1059.0</ele>
        <time>2013-07-29T15:02:56Z</time>
      </trkpt>
      <trkpt lat="43.042583" lon="-3.010867">
        <ele>1059.0</ele>
        <time>2013-07-29T15:02:57Z</time>
      </trkpt>
      <trkpt lat="43.042650" lon="-3.010883">
        <ele>1059.0</ele>
        <time>2013-07-29T15:02:58Z</time>
      </trkpt>
      <trkpt lat="43.042717" lon="-3.010900">
        <ele>1058.0</ele>
        <time>2013-07-29T15:02:59Z</time>
      </trkpt>
      <trkpt lat="43.042783" lon="-3.010933">
        <ele>1058.0</ele>
        <time>2013-07-29T15:03:00Z</time>
      </trkpt>
      <trkpt lat="43.042833" lon="-3.010950">
        <ele>1058.0</ele>
        <time>2013-07-29T15:03:01Z</time>
      </trkpt>
      <trkpt lat="43.042917" lon="-3.010967">
        <ele>1058.0</ele>
        <time>2013-07-29T15:03:02Z</time>
      </trkpt>
      <trkpt lat="43.043000" lon="-3.010967">
        <ele>1057.0</ele>
        <time>2013-07-29T15:03:03Z</time>
      </trkpt>
      <trkpt lat="43.043083" lon="-3.010967">
        <ele>1057.0</ele>
        <time>2013-07-29T15:03:04Z</time>
      </trkpt>
      <trkpt lat="43.043150" lon="-3.010967">
        <ele>1058.0</ele>
        <time>2013-07-29T15:03:05Z</time>
      </trkpt>
      <trkpt lat="43.043200" lon="-3.010950">
        <ele>1059.0</ele>
        <time>2013-07-29T15:03:06Z</time>
      </trkpt>
      <trkpt lat="43.043267" lon="-3.010950">
        <ele>1059.0</ele>
        <time>2013-07-29T15:03:07Z</time>
      </trkpt>
      <trkpt lat="43.043317" lon="-3.010950">
        <ele>1059.0</ele>
        <time>2013-07-29T15:03:08Z</time>
      </trkpt>
      <trkpt lat="43.043383" lon="-3.010950">
        <ele>1058.0</ele>
        <time>2013-07-29T15:03:09Z</time>
      </trkpt>
      <trkpt lat="43.043450" lon="-3.010950">
        <ele>1058.0</ele>
        <time>2013-07-29T15:03:10Z</time>
      </trkpt>
      <trkpt lat="43.043517" lon="-3.010950">
        <ele>1058.0</ele>
        <time>2013-07-29T15:03:11Z</time>
      </trkpt>
      <trkpt lat="43.043583" lon="-3.010933">
        <ele>1058.0</ele>
        <time>2013-07-29T15:03:12Z</time>
      </trkpt>
      <trkpt lat="43.043650" lon="-3.010917">
        <ele>1058.0</ele>
        <time>2013-07-29T15:03:13Z</time>
      </trkpt>
      <trkpt lat="43.043700" lon="-3.010917">
        <ele>1059.0</ele>
        <time>2013-07-29T15:03:14Z</time>
      </trkpt>
      <trkpt lat="43.043750" lon="-3.010900">
        <ele>1060.0</ele>
        <time>2013-07-29T15:03:15Z</time>
      </trkpt>
      <trkpt lat="43.043817" lon="-3.010883">
        <ele>1061.0</ele>
        <time>2013-07-29T15:03:16Z</time>
      </trkpt>
      <trkpt lat="43.043867" lon="-3.010850">
        <ele>1061.0</ele>
        <time>2013-07-29T15:03:17Z</time>
      </trkpt>
      <trkpt lat="43.043917" lon="-3.010817">
        <ele>1062.0</ele>
        <time>2013-07-29T15:03:18Z</time>
      </trkpt>
      <trkpt lat="43.043967" lon="-3.010783">
        <ele>1063.0</ele>
        <time>2013-07-29T15:03:19Z</time>
      </trkpt>
      <trkpt lat="43.044017" lon="-3.010767">
        <ele>1064.0</ele>
        <time>2013-07-29T15:03:20Z</time>
      </trkpt>
      <trkpt lat="43.044050" lon="-3.010733">
        <ele>1065.0</ele>
        <time>2013-07-29T15:03:21Z</time>
      </trkpt>
      <trkpt lat="43.044100" lon="-3.010700">
        <ele>1065.0</ele>
        <time>2013-07-29T15:03:22Z</time>
      </trkpt>
      <trkpt lat="43.044133" lon="-3.010650">
        <ele>1066.0</ele>
        <time>2013-07-29T15:03:23Z</time>
      </trkpt>
      <trkpt lat="43.044183" lon="-3.010600">
        <ele>1066.0</ele>
        <time>2013-07-29T15:03:24Z</time>
      </trkpt>
      <trkpt lat="43.044217" lon="-3.010533">
        <ele>1067.0</ele>
        <time>2013-07-29T15:03:25Z</time>
      </trkpt>
      <trkpt lat="43.044250" lon="-3.010467">
        <ele>1068.0</ele>
        <time>2013-07-29T15:03:26Z</time>
      </trkpt>
      <trkpt lat="43.044283" lon="-3.010400">
        <ele>1069.0</ele>
        <time>2013-07-29T15:03:27Z</time>
      </trkpt>
      <trkpt lat="43.044300" lon="-3.010350">
        <ele>1070.0</ele>
        <time>2013-07-29T15:03:28Z</time>
      </trkpt>
      <trkpt lat="43.044333" lon="-3.010283">
        <ele>1071.0</ele>
        <time>2013-07-29T15:03:29Z</time>
      </trkpt>
      <trkpt lat="43.044367" lon="-3.010233">
        <ele>1072.0</ele>
        <time>2013-07-29T15:03:30Z</time>
      </trkpt>
      <trkpt lat="43.044383" lon="-3.010167">
        <ele>1071.0</ele>
        <time>2013-07-29T15:03:31Z</time>
      </trkpt>
      <trkpt lat="43.044400" lon="-3.010100">
        <ele>1071.0</ele>
        <time>2013-07-29T15:03:32Z</time>
      </trkpt>
      <trkpt lat="43.044417" lon="-3.010033">
        <ele>1070.0</ele>
        <time>2013-07-29T15:03:33Z</time>
      </trkpt>
      <trkpt lat="43.044383" lon="-3.009900">
        <ele>1069.0</ele>
        <time>2013-07-29T15:03:35Z</time>
      </trkpt>
      <trkpt lat="43.044367" lon="-3.009817">
        <ele>1068.0</ele>
        <time>2013-07-29T15:03:36Z</time>
      </trkpt>
      <trkpt lat="43.044317" lon="-3.009733">
        <ele>1066.0</ele>
        <time>2013-07-29T15:03:37Z</time>
      </trkpt>
      <trkpt lat="43.044250" lon="-3.009667">
        <ele>1065.0</ele>
        <time>2013-07-29T15:03:38Z</time>
      </trkpt>
      <trkpt lat="43.044183" lon="-3.009617">
        <ele>1064.0</ele>
        <time>2013-07-29T15:03:39Z</time>
      </trkpt>
      <trkpt lat="43.044100" lon="-3.009567">
        <ele>1063.0</ele>
        <time>2013-07-29T15:03:40Z</time>
      </trkpt>
      <trkpt lat="43.044000" lon="-3.009533">
        <ele>1061.0</ele>
        <time>2013-07-29T15:03:41Z</time>
      </trkpt>
      <trkpt lat="43.043883" lon="-3.009500">
        <ele>1060.0</ele>
        <time>2013-07-29T15:03:42Z</time>
      </trkpt>
      <trkpt lat="43.043783" lon="-3.009483">
        <ele>1060.0</ele>
        <time>2013-07-29T15:03:43Z</time>
      </trkpt>
      <trkpt lat="43.043667" lon="-3.009467">
        <ele>1059.0</ele>
        <time>2013-07-29T15:03:44Z</time>
      </trkpt>
      <trkpt lat="43.043567" lon="-3.009467">
        <ele>1060.0</ele>
        <time>2013-07-29T15:03:45Z</time>
      </trkpt>
      <trkpt lat="43.043467" lon="-3.009483">
        <ele>1061.0</ele>
        <time>2013-07-29T15:03:46Z</time>
      </trkpt>
      <trkpt lat="43.043383" lon="-3.009500">
        <ele>1062.0</ele>
        <time>2013-07-29T15:03:47Z</time>
      </trkpt>
      <trkpt lat="43.043283" lon="-3.009517">
        <ele>1062.0</ele>
        <time>2013-07-29T15:03:48Z</time>
      </trkpt>
      <trkpt lat="43.043183" lon="-3.009533">
        <ele>1063.0</ele>
        <time>2013-07-29T15:03:49Z</time>
      </trkpt>
      <trkpt lat="43.043083" lon="-3.009567">
        <ele>1063.0</ele>
        <time>2013-07-29T15:03:50Z</time>
      </trkpt>
      <trkpt lat="43.042967" lon="-3.009583">
        <ele>1063.0</ele>
        <time>2013-07-29T15:03:51Z</time>
      </trkpt>
      <trkpt lat="43.042867" lon="-3.009600">
        <ele>1064.0</ele>
        <time>2013-07-29T15:03:52Z</time>
      </trkpt>
      <trkpt lat="43.042767" lon="-3.009633">
        <ele>1065.0</ele>
        <time>2013-07-29T15:03:53Z</time>
      </trkpt>
      <trkpt lat="43.042683" lon="-3.009683">
        <ele>1067.0</ele>
        <time>2013-07-29T15:03:54Z</time>
      </trkpt>
      <trkpt lat="43.042600" lon="-3.009717">
        <ele>1068.0</ele>
        <time>2013-07-29T15:03:55Z</time>
      </trkpt>
      <trkpt lat="43.042517" lon="-3.009767">
        <ele>1069.0</ele>
        <time>2013-07-29T15:03:56Z</time>
      </trkpt>
      <trkpt lat="43.042450" lon="-3.009833">
        <ele>1070.0</ele>
        <time>2013-07-29T15:03:57Z</time>
      </trkpt>
      <trkpt lat="43.042383" lon="-3.009917">
        <ele>1071.0</ele>
        <time>2013-07-29T15:03:58Z</time>
      </trkpt>
      <trkpt lat="43.042333" lon="-3.010000">
        <ele>1071.0</ele>
        <time>2013-07-29T15:03:59Z</time>
      </trkpt>
      <trkpt lat="43.042300" lon="-3.010100">
        <ele>1071.0</ele>
        <time>2013-07-29T15:04:00Z</time>
      </trkpt>
      <trkpt lat="43.042283" lon="-3.010200">
        <ele>1072.0</ele>
        <time>2013-07-29T15:04:01Z</time>
      </trkpt>
      <trkpt lat="43.042250" lon="-3.010383">
        <ele>1072.0</ele>
        <time>2013-07-29T15:04:03Z</time>
      </trkpt>
      <trkpt lat="43.042250" lon="-3.010500">
        <ele>1072.0</ele>
        <time>2013-07-29T15:04:04Z</time>
      </trkpt>
      <trkpt lat="43.042250" lon="-3.010617">
        <ele>1071.0</ele>
        <time>2013-07-29T15:04:05Z</time>
      </trkpt>
      <trkpt lat="43.042250" lon="-3.010717">
        <ele>1071.0</ele>
        <time>2013-07-29T15:04:06Z</time>
      </trkpt>
      <trkpt lat="43.042267" lon="-3.010833">
        <ele>1070.0</ele>
        <time>2013-07-29T15:04:07Z</time>
      </trkpt>
      <trkpt lat="43.042283" lon="-3.010933">
        <ele>1069.0</ele>
        <time>2013-07-29T15:04:08Z</time>
      </trkpt>
      <trkpt lat="43.042317" lon="-3.011017">
        <ele>1069.0</ele>
        <time>2013-07-29T15:04:09Z</time>
      </trkpt>
      <trkpt lat="43.042333" lon="-3.011100">
        <ele>1069.0</ele>
        <time>2013-07-29T15:04:10Z</time>
      </trkpt>
      <trkpt lat="43.042367" lon="-3.011183">
        <ele>1069.0</ele>
        <time>2013-07-29T15:04:11Z</time>
      </trkpt>
      <trkpt lat="43.042383" lon="-3.011250">
        <ele>1068.0</ele>
        <time>2013-07-29T15:04:12Z</time>
      </trkpt>
      <trkpt lat="43.042417" lon="-3.011300">
        <ele>1068.0</ele>
        <time>2013-07-29T15:04:13Z</time>
      </trkpt>
      <trkpt lat="43.042450" lon="-3.011367">
        <ele>1067.0</ele>
        <time>2013-07-29T15:04:14Z</time>
      </trkpt>
      <trkpt lat="43.042483" lon="-3.011450">
        <ele>1066.0</ele>
        <time>2013-07-29T15:04:15Z</time>
      </trkpt>
      <trkpt lat="43.042517" lon="-3.011517">
        <ele>1067.0</ele>
        <time>2013-07-29T15:04:16Z</time>
      </trkpt>
      <trkpt lat="43.042550" lon="-3.011567">
        <ele>1067.0</ele>
        <time>2013-07-29T15:04:17Z</time>
      </trkpt>
      <trkpt lat="43.042600" lon="-3.011617">
        <ele>1066.0</ele>
        <time>2013-07-29T15:04:18Z</time>
      </trkpt>
      <trkpt lat="43.042650" lon="-3.011633">
        <ele>1065.0</ele>
        <time>2013-07-29T15:04:19Z</time>
      </trkpt>
      <trkpt lat="43.042700" lon="-3.011650">
        <ele>1063.0</ele>
        <time>2013-07-29T15:04:20Z</time>
      </trkpt>
      <trkpt lat="43.042767" lon="-3.011667">
        <ele>1062.0</ele>
        <time>2013-07-29T15:04:21Z</time>
      </trkpt>
      <trkpt lat="43.042817" lon="-3.011683">
        <ele>1062.0</ele>
        <time>2013-07-29T15:04:22Z</time>
      </trkpt>
      <trkpt lat="43.042867" lon="-3.011717">
        <ele>1062.0</ele>
        <time>2013-07-29T15:04:23Z</time>
      </trkpt>
      <trkpt lat="43.042900" lon="-3.011733">
        <ele>1063.0</ele>
        <time>2013-07-29T15:04:24Z</time>
      </trkpt>
      <trkpt lat="43.042950" lon="-3.011733">
        <ele>1063.0</ele>
        <time>2013-07-29T15:04:25Z</time>
      </trkpt>
      <trkpt lat="43.042983" lon="-3.011750">
        <ele>1063.0</ele>
        <time>2013-07-29T15:04:26Z</time>
      </trkpt>
      <trkpt lat="43.043033" lon="-3.011750">
        <ele>1062.0</ele>
        <time>2013-07-29T15:04:27Z</time>
      </trkpt>
      <trkpt lat="43.043100" lon="-3.011733">
        <ele>1062.0</ele>
        <time>2013-07-29T15:04:28Z</time>
      </trkpt>
      <trkpt lat="43.043150" lon="-3.011733">
        <ele>1062.0</ele>
        <time>2013-07-29T15:04:29Z</time>
      </trkpt>
      <trkpt lat="43.043183" lon="-3.011733">
        <ele>1063.0</ele>
        <time>2013-07-29T15:04:30Z</time>
      </trkpt>
      <trkpt lat="43.043233" lon="-3.011750">
        <ele>1064.0</ele>
        <time>2013-07-29T15:04:31Z</time>
      </trkpt>
      <trkpt lat="43.043283" lon="-3.011767">
        <ele>1064.0</ele>
        <time>2013-07-29T15:04:32Z</time>
      </trkpt>
      <trkpt lat="43.043350" lon="-3.011767">
        <ele>1063.0</ele>
        <time>2013-07-29T15:04:33Z</time>
      </trkpt>
      <trkpt lat="43.043400" lon="-3.011783">
        <ele>1064.0</ele>
        <time>2013-07-29T15:04:34Z</time>
      </trkpt>
      <trkpt lat="43.043450" lon="-3.011783">
        <ele>1064.0</ele>
        <time>2013-07-29T15:04:35Z</time>
      </trkpt>
      <trkpt lat="43.043500" lon="-3.011800">
        <ele>1064.0</ele>
        <time>2013-07-29T15:04:36Z</time>
      </trkpt>
      <trkpt lat="43.043550" lon="-3.011817">
        <ele>1064.0</ele>
        <time>2013-07-29T15:04:37Z</time>
      </trkpt>
      <trkpt lat="43.043617" lon="-3.011817">
        <ele>1062.0</ele>
        <time>2013-07-29T15:04:38Z</time>
      </trkpt>
      <trkpt lat="43.043683" lon="-3.011833">
        <ele>1060.0</ele>
        <time>2013-07-29T15:04:39Z</time>
      </trkpt>
      <trkpt lat="43.043750" lon="-3.011833">
        <ele>1060.0</ele>
        <time>2013-07-29T15:04:40Z</time>
      </trkpt>
      <trkpt lat="43.043800" lon="-3.011833">
        <ele>1060.0</ele>
        <time>2013-07-29T15:04:41Z</time>
      </trkpt>
      <trkpt lat="43.043850" lon="-3.011833">
        <ele>1060.0</ele>
        <time>2013-07-29T15:04:42Z</time>
      </trkpt>
      <trkpt lat="43.043900" lon="-3.011817">
        <ele>1060.0</ele>
        <time>2013-07-29T15:04:43Z</time>
      </trkpt>
      <trkpt lat="43.043967" lon="-3.011800">
        <ele>1059.0</ele>
        <time>2013-07-29T15:04:44Z</time>
      </trkpt>
      <trkpt lat="43.044033" lon="-3.011800">
        <ele>1058.0</ele>
        <time>2013-07-29T15:04:45Z</time>
      </trkpt>
      <trkpt lat="43.044083" lon="-3.011783">
        <ele>1059.0</ele>
        <time>2013-07-29T15:04:46Z</time>
      </trkpt>
      <trkpt lat="43.044133" lon="-3.011783">
        <ele>1061.0</ele>
        <time>2013-07-29T15:04:47Z</time>
      </trkpt>
      <trkpt lat="43.044150" lon="-3.011767">
        <ele>1063.0</ele>
        <time>2013-07-29T15:04:48Z</time>
      </trkpt>
      <trkpt lat="43.044200" lon="-3.011750">
        <ele>1063.0</ele>
        <time>2013-07-29T15:04:49Z</time>
      </trkpt>
      <trkpt lat="43.044250" lon="-3.011717">
        <ele>1063.0</ele>
        <time>2013-07-29T15:04:50Z</time>
      </trkpt>
      <trkpt lat="43.044317" lon="-3.011700">
        <ele>1062.0</ele>
        <time>2013-07-29T15:04:51Z</time>
      </trkpt>
      <trkpt lat="43.044367" lon="-3.011667">
        <ele>1063.0</ele>
        <time>2013-07-29T15:04:52Z</time>
      </trkpt>
      <trkpt lat="43.044400" lon="-3.011633">
        <ele>1063.0</ele>
        <time>2013-07-29T15:04:53Z</time>
      </trkpt>
      <trkpt lat="43.044450" lon="-3.011617">
        <ele>1063.0</ele>
        <time>2013-07-29T15:04:54Z</time>
      </trkpt>
      <trkpt lat="43.044500" lon="-3.011583">
        <ele>1062.0</ele>
        <time>2013-07-29T15:04:55Z</time>
      </trkpt>
      <trkpt lat="43.044550" lon="-3.011550">
        <ele>1062.0</ele>
        <time>2013-07-29T15:04:56Z</time>
      </trkpt>
      <trkpt lat="43.044617" lon="-3.011500">
        <ele>1060.0</ele>
        <time>2013-07-29T15:04:57Z</time>
      </trkpt>
      <trkpt lat="43.044667" lon="-3.011467">
        <ele>1059.0</ele>
        <time>2013-07-29T15:04:58Z</time>
      </trkpt>
      <trkpt lat="43.044717" lon="-3.011433">
        <ele>1058.0</ele>
        <time>2013-07-29T15:04:59Z</time>
      </trkpt>
      <trkpt lat="43.044750" lon="-3.011400">
        <ele>1057.0</ele>
        <time>2013-07-29T15:05:00Z</time>
      </trkpt>
      <trkpt lat="43.044800" lon="-3.011350">
        <ele>1055.0</ele>
        <time>2013-07-29T15:05:01Z</time>
      </trkpt>
      <trkpt lat="43.044833" lon="-3.011283">
        <ele>1053.0</ele>
        <time>2013-07-29T15:05:02Z</time>
      </trkpt>
      <trkpt lat="43.044883" lon="-3.011200">
        <ele>1050.0</ele>
        <time>2013-07-29T15:05:03Z</time>
      </trkpt>
      <trkpt lat="43.044917" lon="-3.011100">
        <ele>1047.0</ele>
        <time>2013-07-29T15:05:04Z</time>
      </trkpt>
      <trkpt lat="43.044933" lon="-3.011017">
        <ele>1045.0</ele>
        <time>2013-07-29T15:05:05Z</time>
      </trkpt>
      <trkpt lat="43.044933" lon="-3.010933">
        <ele>1043.0</ele>
        <time>2013-07-29T15:05:06Z</time>
      </trkpt>
      <trkpt lat="43.044933" lon="-3.010850">
        <ele>1041.0</ele>
        <time>2013-07-29T15:05:07Z</time>
      </trkpt>
      <trkpt lat="43.044917" lon="-3.010750">
        <ele>1038.0</ele>
        <time>2013-07-29T15:05:08Z</time>
      </trkpt>
      <trkpt lat="43.044900" lon="-3.010650">
        <ele>1035.0</ele>
        <time>2013-07-29T15:05:09Z</time>
      </trkpt>
      <trkpt lat="43.044883" lon="-3.010567">
        <ele>1033.0</ele>
        <time>2013-07-29T15:05:10Z</time>
      </trkpt>
      <trkpt lat="43.044850" lon="-3.010467">
        <ele>1031.0</ele>
        <time>2013-07-29T15:05:11Z</time>
      </trkpt>
      <trkpt lat="43.044800" lon="-3.010383">
        <ele>1029.0</ele>
        <time>2013-07-29T15:05:12Z</time>
      </trkpt>
      <trkpt lat="43.044767" lon="-3.010317">
        <ele>1027.0</ele>
        <time>2013-07-29T15:05:13Z</time>
      </trkpt>
      <trkpt lat="43.044700" lon="-3.010233">
        <ele>1024.0</ele>
        <time>2013-07-29T15:05:14Z</time>
      </trkpt>
      <trkpt lat="43.044650" lon="-3.010167">
        <ele>1022.0</ele>
        <time>2013-07-29T15:05:15Z</time>
      </trkpt>
      <trkpt lat="43.044583" lon="-3.010083">
        <ele>1020.0</ele>
        <time>2013-07-29T15:05:16Z</time>
      </trkpt>
      <trkpt lat="43.044500" lon="-3.010000">
        <ele>1017.0</ele>
        <time>2013-07-29T15:05:17Z</time>
      </trkpt>
      <trkpt lat="43.044433" lon="-3.009933">
        <ele>1015.0</ele>
        <time>2013-07-29T15:05:18Z</time>
      </trkpt>
      <trkpt lat="43.044350" lon="-3.009867">
        <ele>1013.0</ele>
        <time>2013-07-29T15:05:19Z</time>
      </trkpt>
      <trkpt lat="43.044283" lon="-3.009817">
        <ele>1012.0</ele>
        <time>2013-07-29T15:05:20Z</time>
      </trkpt>
      <trkpt lat="43.044200" lon="-3.009767">
        <ele>1010.0</ele>
        <time>2013-07-29T15:05:21Z</time>
      </trkpt>
      <trkpt lat="43.044117" lon="-3.009717">
        <ele>1007.0</ele>
        <time>2013-07-29T15:05:22Z</time>
      </trkpt>
      <trkpt lat="43.044017" lon="-3.009667">
        <ele>1004.0</ele>
        <time>2013-07-29T15:05:23Z</time>
      </trkpt>
      <trkpt lat="43.043900" lon="-3.009633">
        <ele>1002.0</ele>
        <time>2013-07-29T15:05:24Z</time>
      </trkpt>
      <trkpt lat="43.043817" lon="-3.009600">
        <ele>1000.0</ele>
        <time>2013-07-29T15:05:25Z</time>
      </trkpt>
      <trkpt lat="43.043717" lon="-3.009567">
        <ele>998.0</ele>
        <time>2013-07-29T15:05:26Z</time>
      </trkpt>
      <trkpt lat="43.043633" lon="-3.009550">
        <ele>997.0</ele>
        <time>2013-07-29T15:05:27Z</time>
      </trkpt>
      <trkpt lat="43.043533" lon="-3.009533">
        <ele>994.0</ele>
        <time>2013-07-29T15:05:28Z</time>
      </trkpt>
      <trkpt lat="43.043417" lon="-3.009533">
        <ele>991.0</ele>
        <time>2013-07-29T15:05:29Z</time>
      </trkpt>
      <trkpt lat="43.043317" lon="-3.009533">
        <ele>989.0</ele>
        <time>2013-07-29T15:05:30Z</time>
      </trkpt>
      <trkpt lat="43.043217" lon="-3.009533">
        <ele>986.0</ele>
        <time>2013-07-29T15:05:31Z</time>
      </trkpt>
      <trkpt lat="43.043117" lon="-3.009533">
        <ele>984.0</ele>
        <time>2013-07-29T15:05:32Z</time>
      </trkpt>
      <trkpt lat="43.043017" lon="-3.009517">
        <ele>982.0</ele>
        <time>2013-07-29T15:05:33Z</time>
      </trkpt>
      <trkpt lat="43.042917" lon="-3.009500">
        <ele>980.0</ele>
        <time>2013-07-29T15:05:34Z</time>
      </trkpt>
      <trkpt lat="43.042817" lon="-3.009500">
        <ele>977.0</ele>
        <time>2013-07-29T15:05:35Z</time>
      </trkpt>
      <trkpt lat="43.042700" lon="-3.009550">
        <ele>975.0</ele>
        <time>2013-07-29T15:05:36Z</time>
      </trkpt>
      <trkpt lat="43.042617" lon="-3.009617">
        <ele>973.0</ele>
        <time>2013-07-29T15:05:37Z</time>
      </trkpt>
      <trkpt lat="43.042533" lon="-3.009717">
        <ele>971.0</ele>
        <time>2013-07-29T15:05:38Z</time>
      </trkpt>
      <trkpt lat="43.042467" lon="-3.009833">
        <ele>969.0</ele>
        <time>2013-07-29T15:05:39Z</time>
      </trkpt>
      <trkpt lat="43.042417" lon="-3.009950">
        <ele>967.0</ele>
        <time>2013-07-29T15:05:40Z</time>
      </trkpt>
      <trkpt lat="43.042383" lon="-3.010083">
        <ele>965.0</ele>
        <time>2013-07-29T15:05:41Z</time>
      </trkpt>
      <trkpt lat="43.042367" lon="-3.010200">
        <ele>963.0</ele>
        <time>2013-07-29T15:05:42Z</time>
      </trkpt>
      <trkpt lat="43.042367" lon="-3.010333">
        <ele>962.0</ele>
        <time>2013-07-29T15:05:43Z</time>
      </trkpt>
      <trkpt lat="43.042383" lon="-3.010433">
        <ele>960.0</ele>
        <time>2013-07-29T15:05:44Z</time>
      </trkpt>
      <trkpt lat="43.042400" lon="-3.010550">
        <ele>958.0</ele>
        <time>2013-07-29T15:05:45Z</time>
      </trkpt>
      <trkpt lat="43.042433" lon="-3.010650">
        <ele>956.0</ele>
        <time>2013-07-29T15:05:46Z</time>
      </trkpt>
      <trkpt lat="43.042450" lon="-3.010733">
        <ele>954.0</ele>
        <time>2013-07-29T15:05:47Z</time>
      </trkpt>
      <trkpt lat="43.042483" lon="-3.010817">
        <ele>962.0</ele>
        <time>2013-07-29T15:05:48Z</time>
      </trkpt>
      <trkpt lat="43.042533" lon="-3.010900">
        <ele>961.0</ele>
        <time>2013-07-29T15:05:49Z</time>
      </trkpt>
      <trkpt lat="43.042583" lon="-3.010983">
        <ele>961.0</ele>
        <time>2013-07-29T15:05:50Z</time>
      </trkpt>
      <trkpt lat="43.042633" lon="-3.011050">
        <ele>960.0</ele>
        <time>2013-07-29T15:05:51Z</time>
      </trkpt>
      <trkpt lat="43.042700" lon="-3.011117">
        <ele>959.0</ele>
        <time>2013-07-29T15:05:52Z</time>
      </trkpt>
      <trkpt lat="43.042750" lon="-3.011167">
        <ele>958.0</ele>
        <time>2013-07-29T15:05:53Z</time>
      </trkpt>
      <trkpt lat="43.042800" lon="-3.011217">
        <ele>957.0</ele>
        <time>2013-07-29T15:05:54Z</time>
      </trkpt>
      <trkpt lat="43.042833" lon="-3.011267">
        <ele>955.0</ele>
        <time>2013-07-29T15:05:55Z</time>
      </trkpt>
      <trkpt lat="43.042883" lon="-3.011317">
        <ele>953.0</ele>
        <time>2013-07-29T15:05:56Z</time>
      </trkpt>
      <trkpt lat="43.042950" lon="-3.011383">
        <ele>951.0</ele>
        <time>2013-07-29T15:05:57Z</time>
      </trkpt>
      <trkpt lat="43.043017" lon="-3.011433">
        <ele>948.0</ele>
        <time>2013-07-29T15:05:58Z</time>
      </trkpt>
      <trkpt lat="43.043067" lon="-3.011483">
        <ele>945.0</ele>
        <time>2013-07-29T15:05:59Z</time>
      </trkpt>
      <trkpt lat="43.043117" lon="-3.011533">
        <ele>943.0</ele>
        <time>2013-07-29T15:06:00Z</time>
      </trkpt>
      <trkpt lat="43.043167" lon="-3.011583">
        <ele>946.0</ele>
        <time>2013-07-29T15:06:01Z</time>
      </trkpt>
      <trkpt lat="43.043217" lon="-3.011650">
        <ele>944.0</ele>
        <time>2013-07-29T15:06:02Z</time>
      </trkpt>
      <trkpt lat="43.043267" lon="-3.011700">
        <ele>942.0</ele>
        <time>2013-07-29T15:06:03Z</time>
      </trkpt>
      <trkpt lat="43.043333" lon="-3.011750">
        <ele>940.0</ele>
        <time>2013-07-29T15:06:04Z</time>
      </trkpt>
      <trkpt lat="43.043400" lon="-3.011783">
        <ele>938.0</ele>
        <time>2013-07-29T15:06:05Z</time>
      </trkpt>
      <trkpt lat="43.043467" lon="-3.011833">
        <ele>935.0</ele>
        <time>2013-07-29T15:06:06Z</time>
      </trkpt>
      <trkpt lat="43.043533" lon="-3.011867">
        <ele>932.0</ele>
        <time>2013-07-29T15:06:07Z</time>
      </trkpt>
      <trkpt lat="43.043600" lon="-3.011900">
        <ele>929.0</ele>
        <time>2013-07-29T15:06:08Z</time>
      </trkpt>
      <trkpt lat="43.043683" lon="-3.011933">
        <ele>927.0</ele>
        <time>2013-07-29T15:06:09Z</time>
      </trkpt>
      <trkpt lat="43.043767" lon="-3.011950">
        <ele>925.0</ele>
        <time>2013-07-29T15:06:10Z</time>
      </trkpt>
      <trkpt lat="43.043833" lon="-3.011967">
        <ele>924.0</ele>
        <time>2013-07-29T15:06:11Z</time>
      </trkpt>
      <trkpt lat="43.043883" lon="-3.011967">
        <ele>922.0</ele>
        <time>2013-07-29T15:06:12Z</time>
      </trkpt>
      <trkpt lat="43.043950" lon="-3.011983">
        <ele>921.0</ele>
        <time>2013-07-29T15:06:13Z</time>
      </trkpt>
      <trkpt lat="43.044017" lon="-3.011983">
        <ele>919.0</ele>
        <time>2013-07-29T15:06:14Z</time>
      </trkpt>
      <trkpt lat="43.044100" lon="-3.011983">
        <ele>917.0</ele>
        <time>2013-07-29T15:06:15Z</time>
      </trkpt>
      <trkpt lat="43.044167" lon="-3.011967">
        <ele>916.0</ele>
        <time>2013-07-29T15:06:16Z</time>
      </trkpt>
      <trkpt lat="43.044250" lon="-3.011967">
        <ele>915.0</ele>
        <time>2013-07-29T15:06:17Z</time>
      </trkpt>
      <trkpt lat="43.044317" lon="-3.011967">
        <ele>914.0</ele>
        <time>2013-07-29T15:06:18Z</time>
      </trkpt>
      <trkpt lat="43.044367" lon="-3.011967">
        <ele>913.0</ele>
        <time>2013-07-29T15:06:19Z</time>
      </trkpt>
      <trkpt lat="43.044433" lon="-3.011950">
        <ele>912.0</ele>
        <time>2013-07-29T15:06:20Z</time>
      </trkpt>
      <trkpt lat="43.044517" lon="-3.011950">
        <ele>911.0</ele>
        <time>2013-07-29T15:06:21Z</time>
      </trkpt>
      <trkpt lat="43.044583" lon="-3.011933">
        <ele>909.0</ele>
        <time>2013-07-29T15:06:22Z</time>
      </trkpt>
      <trkpt lat="43.044650" lon="-3.011933">
        <ele>908.0</ele>
        <time>2013-07-29T15:06:23Z</time>
      </trkpt>
      <trkpt lat="43.044717" lon="-3.011917">
        <ele>907.0</ele>
        <time>2013-07-29T15:06:24Z</time>
      </trkpt>
      <trkpt lat="43.044767" lon="-3.011917">
        <ele>906.0</ele>
        <time>2013-07-29T15:06:25Z</time>
      </trkpt>
      <trkpt lat="43.044833" lon="-3.011917">
        <ele>904.0</ele>
        <time>2013-07-29T15:06:26Z</time>
      </trkpt>
      <trkpt lat="43.044900" lon="-3.011917">
        <ele>902.0</ele>
        <time>2013-07-29T15:06:27Z</time>
      </trkpt>
      <trkpt lat="43.044967" lon="-3.011917">
        <ele>901.0</ele>
        <time>2013-07-29T15:06:28Z</time>
      </trkpt>
      <trkpt lat="43.045033" lon="-3.011917">
        <ele>900.0</ele>
        <time>2013-07-29T15:06:29Z</time>
      </trkpt>
      <trkpt lat="43.045100" lon="-3.011917">
        <ele>899.0</ele>
        <time>2013-07-29T15:06:30Z</time>
      </trkpt>
      <trkpt lat="43.045167" lon="-3.011900">
        <ele>898.0</ele>
        <time>2013-07-29T15:06:31Z</time>
      </trkpt>
      <trkpt lat="43.045217" lon="-3.011900">
        <ele>897.0</ele>
        <time>2013-07-29T15:06:32Z</time>
      </trkpt>
      <trkpt lat="43.045300" lon="-3.011883">
        <ele>895.0</ele>
        <time>2013-07-29T15:06:33Z</time>
      </trkpt>
      <trkpt lat="43.045367" lon="-3.011883">
        <ele>893.0</ele>
        <time>2013-07-29T15:06:34Z</time>
      </trkpt>
      <trkpt lat="43.045467" lon="-3.011883">
        <ele>891.0</ele>
        <time>2013-07-29T15:06:35Z</time>
      </trkpt>
      <trkpt lat="43.045550" lon="-3.011883">
        <ele>889.0</ele>
        <time>2013-07-29T15:06:36Z</time>
      </trkpt>
      <trkpt lat="43.045617" lon="-3.011883">
        <ele>889.0</ele>
        <time>2013-07-29T15:06:37Z</time>
      </trkpt>
      <trkpt lat="43.045683" lon="-3.011867">
        <ele>889.0</ele>
        <time>2013-07-29T15:06:38Z</time>
      </trkpt>
      <trkpt lat="43.045733" lon="-3.011850">
        <ele>888.0</ele>
        <time>2013-07-29T15:06:39Z</time>
      </trkpt>
      <trkpt lat="43.045817" lon="-3.011833">
        <ele>886.0</ele>
        <time>2013-07-29T15:06:40Z</time>
      </trkpt>
      <trkpt lat="43.045883" lon="-3.011817">
        <ele>884.0</ele>
        <time>2013-07-29T15:06:41Z</time>
      </trkpt>
      <trkpt lat="43.045967" lon="-3.011800">
        <ele>882.0</ele>
        <time>2013-07-29T15:06:42Z</time>
      </trkpt>
      <trkpt lat="43.046033" lon="-3.011767">
        <ele>881.0</ele>
        <time>2013-07-29T15:06:43Z</time>
      </trkpt>
      <trkpt lat="43.046100" lon="-3.011750">
        <ele>880.0</ele>
        <time>2013-07-29T15:06:44Z</time>
      </trkpt>
      <trkpt lat="43.046150" lon="-3.011717">
        <ele>879.0</ele>
        <time>2013-07-29T15:06:45Z</time>
      </trkpt>
      <trkpt lat="43.046217" lon="-3.011683">
        <ele>877.0</ele>
        <time>2013-07-29T15:06:46Z</time>
      </trkpt>
      <trkpt lat="43.046283" lon="-3.011650">
        <ele>875.0</ele>
        <time>2013-07-29T15:06:47Z</time>
      </trkpt>
      <trkpt lat="43.046367" lon="-3.011617">
        <ele>873.0</ele>
        <time>2013-07-29T15:06:48Z</time>
      </trkpt>
      <trkpt lat="43.046467" lon="-3.011583">
        <ele>871.0</ele>
        <time>2013-07-29T15:06:49Z</time>
      </trkpt>
      <trkpt lat="43.046550" lon="-3.011567">
        <ele>869.0</ele>
        <time>2013-07-29T15:06:50Z</time>
      </trkpt>
      <trkpt lat="43.046633" lon="-3.011550">
        <ele>868.0</ele>
        <time>2013-07-29T15:06:51Z</time>
      </trkpt>
      <trkpt lat="43.046717" lon="-3.011533">
        <ele>867.0</ele>
        <time>2013-07-29T15:06:52Z</time>
      </trkpt>
      <trkpt lat="43.046783" lon="-3.011533">
        <ele>866.0</ele>
        <time>2013-07-29T15:06:53Z</time>
      </trkpt>
      <trkpt lat="43.046867" lon="-3.011533">
        <ele>865.0</ele>
        <time>2013-07-29T15:06:54Z</time>
      </trkpt>
      <trkpt lat="43.046933" lon="-3.011517">
        <ele>863.0</ele>
        <time>2013-07-29T15:06:55Z</time>
      </trkpt>
      <trkpt lat="43.047017" lon="-3.011517">
        <ele>861.0</ele>
        <time>2013-07-29T15:06:56Z</time>
      </trkpt>
      <trkpt lat="43.047083" lon="-3.011533">
        <ele>859.0</ele>
        <time>2013-07-29T15:06:57Z</time>
      </trkpt>
      <trkpt lat="43.047167" lon="-3.011533">
        <ele>857.0</ele>
        <time>2013-07-29T15:06:58Z</time>
      </trkpt>
      <trkpt lat="43.047233" lon="-3.011550">
        <ele>855.0</ele>
        <time>2013-07-29T15:06:59Z</time>
      </trkpt>
      <trkpt lat="43.047317" lon="-3.011567">
        <ele>853.0</ele>
        <time>2013-07-29T15:07:00Z</time>
      </trkpt>
      <trkpt lat="43.047383" lon="-3.011583">
        <ele>852.0</ele>
        <time>2013-07-29T15:07:01Z</time>
      </trkpt>
      <trkpt lat="43.047450" lon="-3.011600">
        <ele>850.0</ele>
        <time>2013-07-29T15:07:02Z</time>
      </trkpt>
      <trkpt lat="43.047500" lon="-3.011617">
        <ele>850.0</ele>
        <time>2013-07-29T15:07:03Z</time>
      </trkpt>
      <trkpt lat="43.047550" lon="-3.011633">
        <ele>849.0</ele>
        <time>2013-07-29T15:07:04Z</time>
      </trkpt>
      <trkpt lat="43.047600" lon="-3.011667">
        <ele>848.0</ele>
        <time>2013-07-29T15:07:05Z</time>
      </trkpt>
      <trkpt lat="43.047667" lon="-3.011683">
        <ele>847.0</ele>
        <time>2013-07-29T15:07:06Z</time>
      </trkpt>
      <trkpt lat="43.047733" lon="-3.011700">
        <ele>846.0</ele>
        <time>2013-07-29T15:07:07Z</time>
      </trkpt>
      <trkpt lat="43.047783" lon="-3.011717">
        <ele>844.0</ele>
        <time>2013-07-29T15:07:08Z</time>
      </trkpt>
      <trkpt lat="43.047833" lon="-3.011733">
        <ele>844.0</ele>
        <time>2013-07-29T15:07:09Z</time>
      </trkpt>
      <trkpt lat="43.047883" lon="-3.011750">
        <ele>843.0</ele>
        <time>2013-07-29T15:07:10Z</time>
      </trkpt>
      <trkpt lat="43.047933" lon="-3.011767">
        <ele>842.0</ele>
        <time>2013-07-29T15:07:11Z</time>
      </trkpt>
      <trkpt lat="43.047983" lon="-3.011767">
        <ele>841.0</ele>
        <time>2013-07-29T15:07:12Z</time>
      </trkpt>
      <trkpt lat="43.048050" lon="-3.011783">
        <ele>839.0</ele>
        <time>2013-07-29T15:07:13Z</time>
      </trkpt>
      <trkpt lat="43.048117" lon="-3.011800">
        <ele>838.0</ele>
        <time>2013-07-29T15:07:14Z</time>
      </trkpt>
      <trkpt lat="43.048183" lon="-3.011817">
        <ele>836.0</ele>
        <time>2013-07-29T15:07:15Z</time>
      </trkpt>
      <trkpt lat="43.048250" lon="-3.011833">
        <ele>836.0</ele>
        <time>2013-07-29T15:07:16Z</time>
      </trkpt>
      <trkpt lat="43.048283" lon="-3.011867">
        <ele>835.0</ele>
        <time>2013-07-29T15:07:17Z</time>
      </trkpt>
      <trkpt lat="43.048317" lon="-3.011883">
        <ele>833.0</ele>
        <time>2013-07-29T15:07:18Z</time>
      </trkpt>
      <trkpt lat="43.048367" lon="-3.011917">
        <ele>830.0</ele>
        <time>2013-07-29T15:07:19Z</time>
      </trkpt>
      <trkpt lat="43.048417" lon="-3.011933">
        <ele>826.0</ele>
        <time>2013-07-29T15:07:20Z</time>
      </trkpt>
      <trkpt lat="43.048500" lon="-3.011967">
        <ele>820.0</ele>
        <time>2013-07-29T15:07:21Z</time>
      </trkpt>
      <trkpt lat="43.048583" lon="-3.011983">
        <ele>815.0</ele>
        <time>2013-07-29T15:07:22Z</time>
      </trkpt>
      <trkpt lat="43.048667" lon="-3.011983">
        <ele>810.0</ele>
        <time>2013-07-29T15:07:23Z</time>
      </trkpt>
      <trkpt lat="43.048750" lon="-3.012000">
        <ele>807.0</ele>
        <time>2013-07-29T15:07:24Z</time>
      </trkpt>
      <trkpt lat="43.048817" lon="-3.012017">
        <ele>804.0</ele>
        <time>2013-07-29T15:07:25Z</time>
      </trkpt>
      <trkpt lat="43.048883" lon="-3.012017">
        <ele>802.0</ele>
        <time>2013-07-29T15:07:26Z</time>
      </trkpt>
      <trkpt lat="43.048950" lon="-3.012033">
        <ele>800.0</ele>
        <time>2013-07-29T15:07:27Z</time>
      </trkpt>
      <trkpt lat="43.049000" lon="-3.012017">
        <ele>798.0</ele>
        <time>2013-07-29T15:07:28Z</time>
      </trkpt>
      <trkpt lat="43.049067" lon="-3.012017">
        <ele>796.0</ele>
        <time>2013-07-29T15:07:29Z</time>
      </trkpt>
      <trkpt lat="43.049133" lon="-3.012000">
        <ele>793.0</ele>
        <time>2013-07-29T15:07:30Z</time>
      </trkpt>
      <trkpt lat="43.049200" lon="-3.011983">
        <ele>791.0</ele>
        <time>2013-07-29T15:07:31Z</time>
      </trkpt>
      <trkpt lat="43.049267" lon="-3.011967">
        <ele>789.0</ele>
        <time>2013-07-29T15:07:32Z</time>
      </trkpt>
      <trkpt lat="43.049333" lon="-3.011950">
        <ele>786.0</ele>
        <time>2013-07-29T15:07:33Z</time>
      </trkpt>
      <trkpt lat="43.049400" lon="-3.011933">
        <ele>785.0</ele>
        <time>2013-07-29T15:07:34Z</time>
      </trkpt>
      <trkpt lat="43.049467" lon="-3.011900">
        <ele>783.0</ele>
        <time>2013-07-29T15:07:35Z</time>
      </trkpt>
      <trkpt lat="43.049533" lon="-3.011883">
        <ele>780.0</ele>
        <time>2013-07-29T15:07:36Z</time>
      </trkpt>
      <trkpt lat="43.049600" lon="-3.011850">
        <ele>779.0</ele>
        <time>2013-07-29T15:07:37Z</time>
      </trkpt>
      <trkpt lat="43.049667" lon="-3.011850">
        <ele>777.0</ele>
        <time>2013-07-29T15:07:38Z</time>
      </trkpt>
      <trkpt lat="43.049733" lon="-3.011833">
        <ele>776.0</ele>
        <time>2013-07-29T15:07:39Z</time>
      </trkpt>
      <trkpt lat="43.049783" lon="-3.011800">
        <ele>774.0</ele>
        <time>2013-07-29T15:07:40Z</time>
      </trkpt>
      <trkpt lat="43.049850" lon="-3.011767">
        <ele>772.0</ele>
        <time>2013-07-29T15:07:41Z</time>
      </trkpt>
      <trkpt lat="43.049900" lon="-3.011717">
        <ele>770.0</ele>
        <time>2013-07-29T15:07:42Z</time>
      </trkpt>
      <trkpt lat="43.049933" lon="-3.011650">
        <ele>767.0</ele>
        <time>2013-07-29T15:07:43Z</time>
      </trkpt>
      <trkpt lat="43.049950" lon="-3.011567">
        <ele>764.0</ele>
        <time>2013-07-29T15:07:44Z</time>
      </trkpt>
      <trkpt lat="43.049967" lon="-3.011483">
        <ele>762.0</ele>
        <time>2013-07-29T15:07:45Z</time>
      </trkpt>
      <trkpt lat="43.049950" lon="-3.011400">
        <ele>760.0</ele>
        <time>2013-07-29T15:07:46Z</time>
      </trkpt>
      <trkpt lat="43.049917" lon="-3.011317">
        <ele>758.0</ele>
        <time>2013-07-29T15:07:47Z</time>
      </trkpt>
      <trkpt lat="43.049883" lon="-3.011233">
        <ele>755.0</ele>
        <time>2013-07-29T15:07:48Z</time>
      </trkpt>
      <trkpt lat="43.049817" lon="-3.011133">
        <ele>753.0</ele>
        <time>2013-07-29T15:07:49Z</time>
      </trkpt>
      <trkpt lat="43.049750" lon="-3.011050">
        <ele>750.0</ele>
        <time>2013-07-29T15:07:50Z</time>
      </trkpt>
      <trkpt lat="43.049667" lon="-3.011000">
        <ele>748.0</ele>
        <time>2013-07-29T15:07:51Z</time>
      </trkpt>
      <trkpt lat="43.049583" lon="-3.010967">
        <ele>746.0</ele>
        <time>2013-07-29T15:07:52Z</time>
      </trkpt>
      <trkpt lat="43.049500" lon="-3.010950">
        <ele>745.0</ele>
        <time>2013-07-29T15:07:53Z</time>
      </trkpt>
      <trkpt lat="43.049433" lon="-3.010933">
        <ele>743.0</ele>
        <time>2013-07-29T15:07:54Z</time>
      </trkpt>
      <trkpt lat="43.049350" lon="-3.010917">
        <ele>741.0</ele>
        <time>2013-07-29T15:07:55Z</time>
      </trkpt>
      <trkpt lat="43.049250" lon="-3.010917">
        <ele>739.0</ele>
        <time>2013-07-29T15:07:56Z</time>
      </trkpt>
      <trkpt lat="43.049167" lon="-3.010917">
        <ele>737.0</ele>
        <time>2013-07-29T15:07:57Z</time>
      </trkpt>
      <trkpt lat="43.049067" lon="-3.010933">
        <ele>735.0</ele>
        <time>2013-07-29T15:07:58Z</time>
      </trkpt>
      <trkpt lat="43.048967" lon="-3.010950">
        <ele>733.0</ele>
        <time>2013-07-29T15:07:59Z</time>
      </trkpt>
      <trkpt lat="43.048867" lon="-3.010967">
        <ele>731.0</ele>
        <time>2013-07-29T15:08:00Z</time>
      </trkpt>
      <trkpt lat="43.048767" lon="-3.011000">
        <ele>729.0</ele>
        <time>2013-07-29T15:08:01Z</time>
      </trkpt>
      <trkpt lat="43.048667" lon="-3.011017">
        <ele>726.0</ele>
        <time>2013-07-29T15:08:02Z</time>
      </trkpt>
      <trkpt lat="43.048583" lon="-3.011050">
        <ele>724.0</ele>
        <time>2013-07-29T15:08:03Z</time>
      </trkpt>
      <trkpt lat="43.048467" lon="-3.011067">
        <ele>721.0</ele>
        <time>2013-07-29T15:08:04Z</time>
      </trkpt>
      <trkpt lat="43.048367" lon="-3.011083">
        <ele>719.0</ele>
        <time>2013-07-29T15:08:05Z</time>
      </trkpt>
      <trkpt lat="43.048250" lon="-3.011083">
        <ele>718.0</ele>
        <time>2013-07-29T15:08:06Z</time>
      </trkpt>
      <trkpt lat="43.048167" lon="-3.011083">
        <ele>717.0</ele>
        <time>2013-07-29T15:08:07Z</time>
      </trkpt>
      <trkpt lat="43.048067" lon="-3.011083">
        <ele>715.0</ele>
        <time>2013-07-29T15:08:08Z</time>
      </trkpt>
      <trkpt lat="43.047983" lon="-3.011067">
        <ele>713.0</ele>
        <time>2013-07-29T15:08:09Z</time>
      </trkpt>
      <trkpt lat="43.047867" lon="-3.011033">
        <ele>710.0</ele>
        <time>2013-07-29T15:08:10Z</time>
      </trkpt>
      <trkpt lat="43.047767" lon="-3.011000">
        <ele>708.0</ele>
        <time>2013-07-29T15:08:11Z</time>
      </trkpt>
      <trkpt lat="43.047683" lon="-3.010950">
        <ele>707.0</ele>
        <time>2013-07-29T15:08:12Z</time>
      </trkpt>
      <trkpt lat="43.047617" lon="-3.010917">
        <ele>707.0</ele>
        <time>2013-07-29T15:08:13Z</time>
      </trkpt>
      <trkpt lat="43.047550" lon="-3.010850">
        <ele>706.0</ele>
        <time>2013-07-29T15:08:14Z</time>
      </trkpt>
      <trkpt lat="43.047483" lon="-3.010783">
        <ele>704.0</ele>
        <time>2013-07-29T15:08:15Z</time>
      </trkpt>
      <trkpt lat="43.047383" lon="-3.010717">
        <ele>701.0</ele>
        <time>2013-07-29T15:08:16Z</time>
      </trkpt>
      <trkpt lat="43.047300" lon="-3.010650">
        <ele>698.0</ele>
        <time>2013-07-29T15:08:17Z</time>
      </trkpt>
      <trkpt lat="43.047217" lon="-3.010583">
        <ele>696.0</ele>
        <time>2013-07-29T15:08:18Z</time>
      </trkpt>
      <trkpt lat="43.047133" lon="-3.010517">
        <ele>695.0</ele>
        <time>2013-07-29T15:08:19Z</time>
      </trkpt>
      <trkpt lat="43.047067" lon="-3.010433">
        <ele>695.0</ele>
        <time>2013-07-29T15:08:20Z</time>
      </trkpt>
      <trkpt lat="43.047000" lon="-3.010350">
        <ele>694.0</ele>
        <time>2013-07-29T15:08:21Z</time>
      </trkpt>
      <trkpt lat="43.046917" lon="-3.010267">
        <ele>692.0</ele>
        <time>2013-07-29T15:08:22Z</time>
      </trkpt>
      <trkpt lat="43.046817" lon="-3.010183">
        <ele>690.0</ele>
        <time>2013-07-29T15:08:23Z</time>
      </trkpt>
      <trkpt lat="43.046717" lon="-3.010117">
        <ele>688.0</ele>
        <time>2013-07-29T15:08:24Z</time>
      </trkpt>
      <trkpt lat="43.046633" lon="-3.010033">
        <ele>687.0</ele>
        <time>2013-07-29T15:08:25Z</time>
      </trkpt>
      <trkpt lat="43.046567" lon="-3.009967">
        <ele>686.0</ele>
        <time>2013-07-29T15:08:26Z</time>
      </trkpt>
      <trkpt lat="43.046483" lon="-3.009883">
        <ele>685.0</ele>
        <time>2013-07-29T15:08:27Z</time>
      </trkpt>
      <trkpt lat="43.046400" lon="-3.009817">
        <ele>683.0</ele>
        <time>2013-07-29T15:08:28Z</time>
      </trkpt>
      <trkpt lat="43.046300" lon="-3.009783">
        <ele>682.0</ele>
        <time>2013-07-29T15:08:29Z</time>
      </trkpt>
      <trkpt lat="43.046217" lon="-3.009767">
        <ele>680.0</ele>
        <time>2013-07-29T15:08:30Z</time>
      </trkpt>
      <trkpt lat="43.046133" lon="-3.009800">
        <ele>679.0</ele>
        <time>2013-07-29T15:08:31Z</time>
      </trkpt>
      <trkpt lat="43.046067" lon="-3.009850">
        <ele>678.0</ele>
        <time>2013-07-29T15:08:32Z</time>
      </trkpt>
      <trkpt lat="43.046017" lon="-3.009917">
        <ele>677.0</ele>
        <time>2013-07-29T15:08:33Z</time>
      </trkpt>
      <trkpt lat="43.045967" lon="-3.009983">
        <ele>675.0</ele>
        <time>2013-07-29T15:08:34Z</time>
      </trkpt>
      <trkpt lat="43.045933" lon="-3.010067">
        <ele>674.0</ele>
        <time>2013-07-29T15:08:35Z</time>
      </trkpt>
      <trkpt lat="43.045917" lon="-3.010133">
        <ele>673.0</ele>
        <time>2013-07-29T15:08:36Z</time>
      </trkpt>
      <trkpt lat="43.045917" lon="-3.010200">
        <ele>672.0</ele>
        <time>2013-07-29T15:08:37Z</time>
      </trkpt>
      <trkpt lat="43.045933" lon="-3.010283">
        <ele>670.0</ele>
        <time>2013-07-29T15:08:38Z</time>
      </trkpt>
      <trkpt lat="43.045950" lon="-3.010367">
        <ele>668.0</ele>
        <time>2013-07-29T15:08:39Z</time>
      </trkpt>
      <trkpt lat="43.045983" lon="-3.010450">
        <ele>666.0</ele>
        <time>2013-07-29T15:08:40Z</time>
      </trkpt>
      <trkpt lat="43.046017" lon="-3.010517">
        <ele>664.0</ele>
        <time>2013-07-29T15:08:41Z</time>
      </trkpt>
      <trkpt lat="43.046050" lon="-3.010567">
        <ele>662.0</ele>
        <time>2013-07-29T15:08:42Z</time>
      </trkpt>
      <trkpt lat="43.046100" lon="-3.010583">
        <ele>661.0</ele>
        <time>2013-07-29T15:08:43Z</time>
      </trkpt>
      <trkpt lat="43.046150" lon="-3.010583">
        <ele>659.0</ele>
        <time>2013-07-29T15:08:44Z</time>
      </trkpt>
      <trkpt lat="43.046217" lon="-3.010567">
        <ele>656.0</ele>
        <time>2013-07-29T15:08:45Z</time>
      </trkpt>
      <trkpt lat="43.046283" lon="-3.010517">
        <ele>655.0</ele>
        <time>2013-07-29T15:08:46Z</time>
      </trkpt>
      <trkpt lat="43.046333" lon="-3.010433">
        <ele>653.0</ele>
        <time>2013-07-29T15:08:47Z</time>
      </trkpt>
      <trkpt lat="43.046383" lon="-3.010333">
        <ele>651.0</ele>
        <time>2013-07-29T15:08:48Z</time>
      </trkpt>
      <trkpt lat="43.046417" lon="-3.010200">
        <ele>648.0</ele>
        <time>2013-07-29T15:08:49Z</time>
      </trkpt>
      <trkpt lat="43.046417" lon="-3.009917">
        <ele>644.0</ele>
        <time>2013-07-29T15:08:51Z</time>
      </trkpt>
      <trkpt lat="43.046400" lon="-3.009783">
        <ele>642.0</ele>
        <time>2013-07-29T15:08:52Z</time>
      </trkpt>
      <trkpt lat="43.046367" lon="-3.009650">
        <ele>639.0</ele>
        <time>2013-07-29T15:08:53Z</time>
      </trkpt>
      <trkpt lat="43.046333" lon="-3.009517">
        <ele>638.0</ele>
        <time>2013-07-29T15:08:54Z</time>
      </trkpt>
      <trkpt lat="43.046300" lon="-3.009400">
        <ele>636.0</ele>
        <time>2013-07-29T15:08:55Z</time>
      </trkpt>
      <trkpt lat="43.046233" lon="-3.009300">
        <ele>633.0</ele>
        <time>2013-07-29T15:08:56Z</time>
      </trkpt>
      <trkpt lat="43.046150" lon="-3.009217">
        <ele>632.0</ele>
        <time>2013-07-29T15:08:57Z</time>
      </trkpt>
      <trkpt lat="43.046067" lon="-3.009150">
        <ele>630.0</ele>
        <time>2013-07-29T15:08:58Z</time>
      </trkpt>
      <trkpt lat="43.045967" lon="-3.009083">
        <ele>628.0</ele>
        <time>2013-07-29T15:08:59Z</time>
      </trkpt>
      <trkpt lat="43.045883" lon="-3.009033">
        <ele>627.0</ele>
        <time>2013-07-29T15:09:00Z</time>
      </trkpt>
      <trkpt lat="43.045800" lon="-3.008983">
        <ele>625.0</ele>
        <time>2013-07-29T15:09:01Z</time>
      </trkpt>
      <trkpt lat="43.045717" lon="-3.008917">
        <ele>624.0</ele>
        <time>2013-07-29T15:09:02Z</time>
      </trkpt>
      <trkpt lat="43.045633" lon="-3.008867">
        <ele>622.0</ele>
        <time>2013-07-29T15:09:03Z</time>
      </trkpt>
      <trkpt lat="43.045533" lon="-3.008800">
        <ele>620.0</ele>
        <time>2013-07-29T15:09:04Z</time>
      </trkpt>
      <trkpt lat="43.045450" lon="-3.008733">
        <ele>618.0</ele>
        <time>2013-07-29T15:09:05Z</time>
      </trkpt>
      <trkpt lat="43.045367" lon="-3.008667">
        <ele>616.0</ele>
        <time>2013-07-29T15:09:06Z</time>
      </trkpt>
      <trkpt lat="43.045267" lon="-3.008583">
        <ele>614.0</ele>
        <time>2013-07-29T15:09:07Z</time>
      </trkpt>
      <trkpt lat="43.045183" lon="-3.008517">
        <ele>613.0</ele>
        <time>2013-07-29T15:09:08Z</time>
      </trkpt>
      <trkpt lat="43.045100" lon="-3.008433">
        <ele>611.0</ele>
        <time>2013-07-29T15:09:09Z</time>
      </trkpt>
      <trkpt lat="43.045017" lon="-3.008367">
        <ele>609.0</ele>
        <time>2013-07-29T15:09:10Z</time>
      </trkpt>
      <trkpt lat="43.044917" lon="-3.008300">
        <ele>607.0</ele>
        <time>2013-07-29T15:09:11Z</time>
      </trkpt>
      <trkpt lat="43.044833" lon="-3.008233">
        <ele>605.0</ele>
        <time>2013-07-29T15:09:12Z</time>
      </trkpt>
      <trkpt lat="43.044733" lon="-3.008167">
        <ele>604.0</ele>
        <time>2013-07-29T15:09:13Z</time>
      </trkpt>
      <trkpt lat="43.044650" lon="-3.008133">
        <ele>603.0</ele>
        <time>2013-07-29T15:09:14Z</time>
      </trkpt>
      <trkpt lat="43.044567" lon="-3.008117">
        <ele>602.0</ele>
        <time>2013-07-29T15:09:15Z</time>
      </trkpt>
      <trkpt lat="43.044483" lon="-3.008133">
        <ele>601.0</ele>
        <time>2013-07-29T15:09:16Z</time>
      </trkpt>
      <trkpt lat="43.044433" lon="-3.008183">
        <ele>599.0</ele>
        <time>2013-07-29T15:09:17Z</time>
      </trkpt>
      <trkpt lat="43.044383" lon="-3.008233">
        <ele>598.0</ele>
        <time>2013-07-29T15:09:18Z</time>
      </trkpt>
      <trkpt lat="43.044333" lon="-3.008300">
        <ele>596.0</ele>
        <time>2013-07-29T15:09:19Z</time>
      </trkpt>
      <trkpt lat="43.044317" lon="-3.008367">
        <ele>595.0</ele>
        <time>2013-07-29T15:09:20Z</time>
      </trkpt>
      <trkpt lat="43.044300" lon="-3.008450">
        <ele>594.0</ele>
        <time>2013-07-29T15:09:21Z</time>
      </trkpt>
      <trkpt lat="43.044300" lon="-3.008517">
        <ele>593.0</ele>
        <time>2013-07-29T15:09:22Z</time>
      </trkpt>
      <trkpt lat="43.044300" lon="-3.008583">
        <ele>591.0</ele>
        <time>2013-07-29T15:09:23Z</time>
      </trkpt>
      <trkpt lat="43.044317" lon="-3.008650">
        <ele>590.0</ele>
        <time>2013-07-29T15:09:24Z</time>
      </trkpt>
      <trkpt lat="43.044350" lon="-3.008717">
        <ele>588.0</ele>
        <time>2013-07-29T15:09:25Z</time>
      </trkpt>
      <trkpt lat="43.044383" lon="-3.008783">
        <ele>586.0</ele>
        <time>2013-07-29T15:09:26Z</time>
      </trkpt>
      <trkpt lat="43.044417" lon="-3.008850">
        <ele>583.0</ele>
        <time>2013-07-29T15:09:27Z</time>
      </trkpt>
      <trkpt lat="43.044533" lon="-3.009033">
        <ele>580.0</ele>
        <time>2013-07-29T15:09:30Z</time>
      </trkpt>
      <trkpt lat="43.044583" lon="-3.009083">
        <ele>579.0</ele>
        <time>2013-07-29T15:09:31Z</time>
      </trkpt>
      <trkpt lat="43.044633" lon="-3.009133">
        <ele>579.0</ele>
        <time>2013-07-29T15:09:32Z</time>
      </trkpt>
      <trkpt lat="43.044683" lon="-3.009167">
        <ele>578.0</ele>
        <time>2013-07-29T15:09:33Z</time>
      </trkpt>
      <trkpt lat="43.044733" lon="-3.009217">
        <ele>578.0</ele>
        <time>2013-07-29T15:09:34Z</time>
      </trkpt>
      <trkpt lat="43.044783" lon="-3.009267">
        <ele>577.0</ele>
        <time>2013-07-29T15:09:35Z</time>
      </trkpt>
      <trkpt lat="43.044833" lon="-3.009317">
        <ele>577.0</ele>
        <time>2013-07-29T15:09:36Z</time>
      </trkpt>
      <trkpt lat="43.044867" lon="-3.009350">
        <ele>577.0</ele>
        <time>2013-07-29T15:09:37Z</time>
      </trkpt>
      <trkpt lat="43.044917" lon="-3.009367">
        <ele>577.0</ele>
        <time>2013-07-29T15:09:38Z</time>
      </trkpt>
      <trkpt lat="43.044950" lon="-3.009400">
        <ele>576.0</ele>
        <time>2013-07-29T15:09:39Z</time>
      </trkpt>
      <trkpt lat="43.045000" lon="-3.009450">
        <ele>574.0</ele>
        <time>2013-07-29T15:09:40Z</time>
      </trkpt>
      <trkpt lat="43.045067" lon="-3.009517">
        <ele>572.0</ele>
        <time>2013-07-29T15:09:41Z</time>
      </trkpt>
      <trkpt lat="43.045133" lon="-3.009583">
        <ele>571.0</ele>
        <time>2013-07-29T15:09:42Z</time>
      </trkpt>
      <trkpt lat="43.045167" lon="-3.009633">
        <ele>570.0</ele>
        <time>2013-07-29T15:09:43Z</time>
      </trkpt>
      <trkpt lat="43.045217" lon="-3.009683">
        <ele>569.0</ele>
        <time>2013-07-29T15:09:44Z</time>
      </trkpt>
      <trkpt lat="43.045250" lon="-3.009733">
        <ele>569.0</ele>
        <time>2013-07-29T15:09:45Z</time>
      </trkpt>
      <trkpt lat="43.045300" lon="-3.009783">
        <ele>569.0</ele>
        <time>2013-07-29T15:09:46Z</time>
      </trkpt>
      <trkpt lat="43.045350" lon="-3.009833">
        <ele>568.0</ele>
        <time>2013-07-29T15:09:47Z</time>
      </trkpt>
      <trkpt lat="43.045400" lon="-3.009900">
        <ele>567.0</ele>
        <time>2013-07-29T15:09:48Z</time>
      </trkpt>
      <trkpt lat="43.045450" lon="-3.009967">
        <ele>567.0</ele>
        <time>2013-07-29T15:09:49Z</time>
      </trkpt>
      <trkpt lat="43.045500" lon="-3.010000">
        <ele>568.0</ele>
        <time>2013-07-29T15:09:50Z</time>
      </trkpt>
      <trkpt lat="43.045550" lon="-3.010050">
        <ele>568.0</ele>
        <time>2013-07-29T15:09:51Z</time>
      </trkpt>
      <trkpt lat="43.045600" lon="-3.010083">
        <ele>568.0</ele>
        <time>2013-07-29T15:09:52Z</time>
      </trkpt>
      <trkpt lat="43.045650" lon="-3.010133">
        <ele>568.0</ele>
        <time>2013-07-29T15:09:53Z</time>
      </trkpt>
      <trkpt lat="43.045717" lon="-3.010200">
        <ele>568.0</ele>
        <time>2013-07-29T15:09:54Z</time>
      </trkpt>
      <trkpt lat="43.045767" lon="-3.010233">
        <ele>568.0</ele>
        <time>2013-07-29T15:09:55Z</time>
      </trkpt>
      <trkpt lat="43.045817" lon="-3.010283">
        <ele>569.0</ele>
        <time>2013-07-29T15:09:56Z</time>
      </trkpt>
      <trkpt lat="43.045867" lon="-3.010333">
        <ele>570.0</ele>
        <time>2013-07-29T15:09:57Z</time>
      </trkpt>
      <trkpt lat="43.045917" lon="-3.010400">
        <ele>570.0</ele>
        <time>2013-07-29T15:09:58Z</time>
      </trkpt>
      <trkpt lat="43.045967" lon="-3.010450">
        <ele>571.0</ele>
        <time>2013-07-29T15:09:59Z</time>
      </trkpt>
      <trkpt lat="43.046017" lon="-3.010500">
        <ele>571.0</ele>
        <time>2013-07-29T15:10:00Z</time>
      </trkpt>
      <trkpt lat="43.046067" lon="-3.010533">
        <ele>571.0</ele>
        <time>2013-07-29T15:10:01Z</time>
      </trkpt>
      <trkpt lat="43.046117" lon="-3.010583">
        <ele>571.0</ele>
        <time>2013-07-29T15:10:02Z</time>
      </trkpt>
      <trkpt lat="43.046183" lon="-3.010617">
        <ele>570.0</ele>
        <time>2013-07-29T15:10:03Z</time>
      </trkpt>
      <trkpt lat="43.046267" lon="-3.010650">
        <ele>568.0</ele>
        <time>2013-07-29T15:10:04Z</time>
      </trkpt>
      <trkpt lat="43.046333" lon="-3.010683">
        <ele>567.0</ele>
        <time>2013-07-29T15:10:05Z</time>
      </trkpt>
      <trkpt lat="43.046417" lon="-3.010717">
        <ele>567.0</ele>
        <time>2013-07-29T15:10:06Z</time>
      </trkpt>
      <trkpt lat="43.046467" lon="-3.010767">
        <ele>566.0</ele>
        <time>2013-07-29T15:10:07Z</time>
      </trkpt>
      <trkpt lat="43.046533" lon="-3.010817">
        <ele>566.0</ele>
        <time>2013-07-29T15:10:08Z</time>
      </trkpt>
      <trkpt lat="43.046600" lon="-3.010867">
        <ele>565.0</ele>
        <time>2013-07-29T15:10:09Z</time>
      </trkpt>
      <trkpt lat="43.046650" lon="-3.010900">
        <ele>564.0</ele>
        <time>2013-07-29T15:10:10Z</time>
      </trkpt>
      <trkpt lat="43.046717" lon="-3.010950">
        <ele>563.0</ele>
        <time>2013-07-29T15:10:11Z</time>
      </trkpt>
      <trkpt lat="43.046783" lon="-3.011000">
        <ele>563.0</ele>
        <time>2013-07-29T15:10:12Z</time>
      </trkpt>
      <trkpt lat="43.046883" lon="-3.011083">
        <ele>562.0</ele>
        <time>2013-07-29T15:10:14Z</time>
      </trkpt>
      <trkpt lat="43.046933" lon="-3.011133">
        <ele>562.0</ele>
        <time>2013-07-29T15:10:15Z</time>
      </trkpt>
      <trkpt lat="43.046983" lon="-3.011167">
        <ele>561.0</ele>
        <time>2013-07-29T15:10:16Z</time>
      </trkpt>
      <trkpt lat="43.047033" lon="-3.011217">
        <ele>560.0</ele>
        <time>2013-07-29T15:10:17Z</time>
      </trkpt>
      <trkpt lat="43.047083" lon="-3.011250">
        <ele>559.0</ele>
        <time>2013-07-29T15:10:18Z</time>
      </trkpt>
      <trkpt lat="43.047133" lon="-3.011283">
        <ele>559.0</ele>
        <time>2013-07-29T15:10:19Z</time>
      </trkpt>
      <trkpt lat="43.047183" lon="-3.011317">
        <ele>558.0</ele>
        <time>2013-07-29T15:10:20Z</time>
      </trkpt>
      <trkpt lat="43.047250" lon="-3.011333">
        <ele>557.0</ele>
        <time>2013-07-29T15:10:21Z</time>
      </trkpt>
      <trkpt lat="43.047333" lon="-3.011317">
        <ele>555.0</ele>
        <time>2013-07-29T15:10:22Z</time>
      </trkpt>
      <trkpt lat="43.047467" lon="-3.011200">
        <ele>554.0</ele>
        <time>2013-07-29T15:10:24Z</time>
      </trkpt>
      <trkpt lat="43.047517" lon="-3.011100">
        <ele>554.0</ele>
        <time>2013-07-29T15:10:25Z</time>
      </trkpt>
      <trkpt lat="43.047533" lon="-3.010983">
        <ele>552.0</ele>
        <time>2013-07-29T15:10:26Z</time>
      </trkpt>
      <trkpt lat="43.047517" lon="-3.010850">
        <ele>551.0</ele>
        <time>2013-07-29T15:10:27Z</time>
      </trkpt>
      <trkpt lat="43.047483" lon="-3.010717">
        <ele>549.0</ele>
        <time>2013-07-29T15:10:28Z</time>
      </trkpt>
      <trkpt lat="43.047433" lon="-3.010617">
        <ele>548.0</ele>
        <time>2013-07-29T15:10:29Z</time>
      </trkpt>
      <trkpt lat="43.047367" lon="-3.010517">
        <ele>545.0</ele>
        <time>2013-07-29T15:10:30Z</time>
      </trkpt>
      <trkpt lat="43.047283" lon="-3.010417">
        <ele>542.0</ele>
        <time>2013-07-29T15:10:31Z</time>
      </trkpt>
      <trkpt lat="43.047217" lon="-3.010333">
        <ele>541.0</ele>
        <time>2013-07-29T15:10:32Z</time>
      </trkpt>
      <trkpt lat="43.047133" lon="-3.010283">
        <ele>539.0</ele>
        <time>2013-07-29T15:10:33Z</time>
      </trkpt>
      <trkpt lat="43.047050" lon="-3.010217">
        <ele>538.0</ele>
        <time>2013-07-29T15:10:34Z</time>
      </trkpt>
      <trkpt lat="43.046967" lon="-3.010183">
        <ele>537.0</ele>
        <time>2013-07-29T15:10:35Z</time>
      </trkpt>
      <trkpt lat="43.046867" lon="-3.010150">
        <ele>536.0</ele>
        <time>2013-07-29T15:10:36Z</time>
      </trkpt>
      <trkpt lat="43.046767" lon="-3.010117">
        <ele>536.0</ele>
        <time>2013-07-29T15:10:37Z</time>
      </trkpt>
      <trkpt lat="43.046683" lon="-3.010117">
        <ele>535.0</ele>
        <time>2013-07-29T15:10:38Z</time>
      </trkpt>
      <trkpt lat="43.046583" lon="-3.010117">
        <ele>534.0</ele>
        <time>2013-07-29T15:10:39Z</time>
      </trkpt>
      <trkpt lat="43.046500" lon="-3.010117">
        <ele>533.0</ele>
        <time>2013-07-29T15:10:40Z</time>
      </trkpt>
      <trkpt lat="43.046417" lon="-3.010117">
        <ele>533.0</ele>
        <time>2013-07-29T15:10:41Z</time>
      </trkpt>
      <trkpt lat="43.046333" lon="-3.010117">
        <ele>533.0</ele>
        <time>2013-07-29T15:10:42Z</time>
      </trkpt>
      <trkpt lat="43.046233" lon="-3.010133">
        <ele>531.0</ele>
        <time>2013-07-29T15:10:43Z</time>
      </trkpt>
      <trkpt lat="43.046150" lon="-3.010150">
        <ele>530.0</ele>
        <time>2013-07-29T15:10:44Z</time>
      </trkpt>
      <trkpt lat="43.046050" lon="-3.010167">
        <ele>530.0</ele>
        <time>2013-07-29T15:10:45Z</time>
      </trkpt>
      <trkpt lat="43.045967" lon="-3.010183">
        <ele>529.0</ele>
        <time>2013-07-29T15:10:46Z</time>
      </trkpt>
      <trkpt lat="43.045883" lon="-3.010200">
        <ele>529.0</ele>
        <time>2013-07-29T15:10:47Z</time>
      </trkpt>
      <trkpt lat="43.045800" lon="-3.010233">
        <ele>528.0</ele>
        <time>2013-07-29T15:10:48Z</time>
      </trkpt>
      <trkpt lat="43.045717" lon="-3.010250">
        <ele>528.0</ele>
        <time>2013-07-29T15:10:49Z</time>
      </trkpt>
      <trkpt lat="43.045617" lon="-3.010283">
        <ele>528.0</ele>
        <time>2013-07-29T15:10:50Z</time>
      </trkpt>
      <trkpt lat="43.045533" lon="-3.010300">
        <ele>529.0</ele>
        <time>2013-07-29T15:10:51Z</time>
      </trkpt>
      <trkpt lat="43.045467" lon="-3.010333">
        <ele>530.0</ele>
        <time>2013-07-29T15:10:52Z</time>
      </trkpt>
      <trkpt lat="43.045383" lon="-3.010350">
        <ele>531.0</ele>
        <time>2013-07-29T15:10:53Z</time>
      </trkpt>
      <trkpt lat="43.045300" lon="-3.010367">
        <ele>532.0</ele>
        <time>2013-07-29T15:10:54Z</time>
      </trkpt>
      <trkpt lat="43.045217" lon="-3.010400">
        <ele>532.0</ele>
        <time>2013-07-29T15:10:55Z</time>
      </trkpt>
      <trkpt lat="43.045133" lon="-3.010433">
        <ele>533.0</ele>
        <time>2013-07-29T15:10:56Z</time>
      </trkpt>
      <trkpt lat="43.045050" lon="-3.010467">
        <ele>534.0</ele>
        <time>2013-07-29T15:10:57Z</time>
      </trkpt>
      <trkpt lat="43.044983" lon="-3.010500">
        <ele>534.0</ele>
        <time>2013-07-29T15:10:58Z</time>
      </trkpt>
      <trkpt lat="43.044933" lon="-3.010567">
        <ele>536.0</ele>
        <time>2013-07-29T15:10:59Z</time>
      </trkpt>
      <trkpt lat="43.044900" lon="-3.010650">
        <ele>537.0</ele>
        <time>2013-07-29T15:11:00Z</time>
      </trkpt>
      <trkpt lat="43.044867" lon="-3.010750">
        <ele>536.0</ele>
        <time>2013-07-29T15:11:01Z</time>
      </trkpt>
      <trkpt lat="43.044867" lon="-3.010867">
        <ele>536.0</ele>
        <time>2013-07-29T15:11:02Z</time>
      </trkpt>
      <trkpt lat="43.044883" lon="-3.010967">
        <ele>537.0</ele>
        <time>2013-07-29T15:11:03Z</time>
      </trkpt>
      <trkpt lat="43.044900" lon="-3.011067">
        <ele>538.0</ele>
        <time>2013-07-29T15:11:04Z</time>
      </trkpt>
      <trkpt lat="43.044917" lon="-3.011133">
        <ele>538.0</ele>
        <time>2013-07-29T15:11:05Z</time>
      </trkpt>
      <trkpt lat="43.044950" lon="-3.011217">
        <ele>539.0</ele>
        <time>2013-07-29T15:11:06Z</time>
      </trkpt>
      <trkpt lat="43.044967" lon="-3.011300">
        <ele>539.0</ele>
        <time>2013-07-29T15:11:07Z</time>
      </trkpt>
      <trkpt lat="43.045000" lon="-3.011367">
        <ele>540.0</ele>
        <time>2013-07-29T15:11:08Z</time>
      </trkpt>
      <trkpt lat="43.045050" lon="-3.011450">
        <ele>541.0</ele>
        <time>2013-07-29T15:11:09Z</time>
      </trkpt>
      <trkpt lat="43.045100" lon="-3.011533">
        <ele>542.0</ele>
        <time>2013-07-29T15:11:10Z</time>
      </trkpt>
      <trkpt lat="43.045150" lon="-3.011583">
        <ele>544.0</ele>
        <time>2013-07-29T15:11:11Z</time>
      </trkpt>
      <trkpt lat="43.045200" lon="-3.011650">
        <ele>545.0</ele>
        <time>2013-07-29T15:11:12Z</time>
      </trkpt>
      <trkpt lat="43.045233" lon="-3.011700">
        <ele>547.0</ele>
        <time>2013-07-29T15:11:13Z</time>
      </trkpt>
      <trkpt lat="43.045283" lon="-3.011750">
        <ele>547.0</ele>
        <time>2013-07-29T15:11:14Z</time>
      </trkpt>
      <trkpt lat="43.045333" lon="-3.011817">
        <ele>548.0</ele>
        <time>2013-07-29T15:11:15Z</time>
      </trkpt>
      <trkpt lat="43.045383" lon="-3.011867">
        <ele>549.0</ele>
        <time>2013-07-29T15:11:16Z</time>
      </trkpt>
      <trkpt lat="43.045433" lon="-3.011917">
        <ele>550.0</ele>
        <time>2013-07-29T15:11:17Z</time>
      </trkpt>
      <trkpt lat="43.045550" lon="-3.012017">
        <ele>555.0</ele>
        <time>2013-07-29T15:11:20Z</time>
      </trkpt>
      <trkpt lat="43.045600" lon="-3.012050">
        <ele>556.0</ele>
        <time>2013-07-29T15:11:21Z</time>
      </trkpt>
      <trkpt lat="43.045650" lon="-3.012067">
        <ele>556.0</ele>
        <time>2013-07-29T15:11:22Z</time>
      </trkpt>
      <trkpt lat="43.045717" lon="-3.012100">
        <ele>556.0</ele>
        <time>2013-07-29T15:11:23Z</time>
      </trkpt>
      <trkpt lat="43.045767" lon="-3.012117">
        <ele>557.0</ele>
        <time>2013-07-29T15:11:24Z</time>
      </trkpt>
      <trkpt lat="43.045833" lon="-3.012117">
        <ele>558.0</ele>
        <time>2013-07-29T15:11:25Z</time>
      </trkpt>
      <trkpt lat="43.045900" lon="-3.012100">
        <ele>557.0</ele>
        <time>2013-07-29T15:11:26Z</time>
      </trkpt>
      <trkpt lat="43.045967" lon="-3.012033">
        <ele>556.0</ele>
        <time>2013-07-29T15:11:27Z</time>
      </trkpt>
      <trkpt lat="43.046033" lon="-3.011967">
        <ele>555.0</ele>
        <time>2013-07-29T15:11:28Z</time>
      </trkpt>
      <trkpt lat="43.046083" lon="-3.011867">
        <ele>554.0</ele>
        <time>2013-07-29T15:11:29Z</time>
      </trkpt>
      <trkpt lat="43.046117" lon="-3.011767">
        <ele>553.0</ele>
        <time>2013-07-29T15:11:30Z</time>
      </trkpt>
      <trkpt lat="43.046117" lon="-3.011550">
        <ele>551.0</ele>
        <time>2013-07-29T15:11:32Z</time>
      </trkpt>
      <trkpt lat="43.046100" lon="-3.011433">
        <ele>550.0</ele>
        <time>2013-07-29T15:11:33Z</time>
      </trkpt>
      <trkpt lat="43.046067" lon="-3.011317">
        <ele>549.0</ele>
        <time>2013-07-29T15:11:34Z</time>
      </trkpt>
      <trkpt lat="43.046033" lon="-3.011200">
        <ele>550.0</ele>
        <time>2013-07-29T15:11:35Z</time>
      </trkpt>
      <trkpt lat="43.045950" lon="-3.011100">
        <ele>550.0</ele>
        <time>2013-07-29T15:11:36Z</time>
      </trkpt>
      <trkpt lat="43.045833" lon="-3.011033">
        <ele>549.0</ele>
        <time>2013-07-29T15:11:37Z</time>
      </trkpt>
      <trkpt lat="43.045733" lon="-3.011000">
        <ele>548.0</ele>
        <time>2013-07-29T15:11:38Z</time>
      </trkpt>
      <trkpt lat="43.045633" lon="-3.010967">
        <ele>547.0</ele>
        <time>2013-07-29T15:11:39Z</time>
      </trkpt>
      <trkpt lat="43.045533" lon="-3.010933">
        <ele>546.0</ele>
        <time>2013-07-29T15:11:40Z</time>
      </trkpt>
      <trkpt lat="43.045450" lon="-3.010900">
        <ele>546.0</ele>
        <time>2013-07-29T15:11:41Z</time>
      </trkpt>
      <trkpt lat="43.045367" lon="-3.010900">
        <ele>546.0</ele>
        <time>2013-07-29T15:11:42Z</time>
      </trkpt>
      <trkpt lat="43.045300" lon="-3.010900">
        <ele>546.0</ele>
        <time>2013-07-29T15:11:43Z</time>
      </trkpt>
      <trkpt lat="43.045217" lon="-3.010900">
        <ele>546.0</ele>
        <time>2013-07-29T15:11:44Z</time>
      </trkpt>
      <trkpt lat="43.045133" lon="-3.010883">
        <ele>546.0</ele>
        <time>2013-07-29T15:11:45Z</time>
      </trkpt>
      <trkpt lat="43.045067" lon="-3.010867">
        <ele>547.0</ele>
        <time>2013-07-29T15:11:46Z</time>
      </trkpt>
      <trkpt lat="43.044983" lon="-3.010867">
        <ele>547.0</ele>
        <time>2013-07-29T15:11:47Z</time>
      </trkpt>
      <trkpt lat="43.044900" lon="-3.010867">
        <ele>547.0</ele>
        <time>2013-07-29T15:11:48Z</time>
      </trkpt>
      <trkpt lat="43.044817" lon="-3.010867">
        <ele>547.0</ele>
        <time>2013-07-29T15:11:49Z</time>
      </trkpt>
      <trkpt lat="43.044717" lon="-3.010867">
        <ele>547.0</ele>
        <time>2013-07-29T15:11:50Z</time>
      </trkpt>
      <trkpt lat="43.044617" lon="-3.010883">
        <ele>548.0</ele>
        <time>2013-07-29T15:11:51Z</time>
      </trkpt>
      <trkpt lat="43.044533" lon="-3.010883">
        <ele>549.0</ele>
        <time>2013-07-29T15:11:52Z</time>
      </trkpt>
      <trkpt lat="43.044433" lon="-3.010883">
        <ele>550.0</ele>
        <time>2013-07-29T15:11:53Z</time>
      </trkpt>
      <trkpt lat="43.044350" lon="-3.010883">
        <ele>551.0</ele>
        <time>2013-07-29T15:11:54Z</time>
      </trkpt>
      <trkpt lat="43.044250" lon="-3.010867">
        <ele>552.0</ele>
        <time>2013-07-29T15:11:55Z</time>
      </trkpt>
      <trkpt lat="43.044167" lon="-3.010833">
        <ele>553.0</ele>
        <time>2013-07-29T15:11:56Z</time>
      </trkpt>
      <trkpt lat="43.044083" lon="-3.010783">
        <ele>555.0</ele>
        <time>2013-07-29T15:11:57Z</time>
      </trkpt>
      <trkpt lat="43.044000" lon="-3.010717">
        <ele>556.0</ele>
        <time>2013-07-29T15:11:58Z</time>
      </trkpt>
      <trkpt lat="43.043933" lon="-3.010633">
        <ele>557.0</ele>
        <time>2013-07-29T15:11:59Z</time>
      </trkpt>
      <trkpt lat="43.043883" lon="-3.010533">
        <ele>558.0</ele>
        <time>2013-07-29T15:12:00Z</time>
      </trkpt>
      <trkpt lat="43.043850" lon="-3.010433">
        <ele>560.0</ele>
        <time>2013-07-29T15:12:01Z</time>
      </trkpt>
      <trkpt lat="43.043833" lon="-3.010333">
        <ele>561.0</ele>
        <time>2013-07-29T15:12:02Z</time>
      </trkpt>
      <trkpt lat="43.043833" lon="-3.010217">
        <ele>562.0</ele>
        <time>2013-07-29T15:12:03Z</time>
      </trkpt>
      <trkpt lat="43.043850" lon="-3.010100">
        <ele>563.0</ele>
        <time>2013-07-29T15:12:04Z</time>
      </trkpt>
      <trkpt lat="43.043883" lon="-3.010000">
        <ele>563.0</ele>
        <time>2013-07-29T15:12:05Z</time>
      </trkpt>
      <trkpt lat="43.043933" lon="-3.009917">
        <ele>565.0</ele>
        <time>2013-07-29T15:12:06Z</time>
      </trkpt>
      <trkpt lat="43.043983" lon="-3.009850">
        <ele>566.0</ele>
        <time>2013-07-29T15:12:07Z</time>
      </trkpt>
      <trkpt lat="43.044033" lon="-3.009800">
        <ele>568.0</ele>
        <time>2013-07-29T15:12:08Z</time>
      </trkpt>
      <trkpt lat="43.044083" lon="-3.009767">
        <ele>569.0</ele>
        <time>2013-07-29T15:12:09Z</time>
      </trkpt>
      <trkpt lat="43.044150" lon="-3.009733">
        <ele>569.0</ele>
        <time>2013-07-29T15:12:10Z</time>
      </trkpt>
      <trkpt lat="43.044217" lon="-3.009700">
        <ele>570.0</ele>
        <time>2013-07-29T15:12:11Z</time>
      </trkpt>
      <trkpt lat="43.044283" lon="-3.009683">
        <ele>571.0</ele>
        <time>2013-07-29T15:12:12Z</time>
      </trkpt>
      <trkpt lat="43.044350" lon="-3.009667">
        <ele>572.0</ele>
        <time>2013-07-29T15:12:13Z</time>
      </trkpt>
      <trkpt lat="43.044417" lon="-3.009667">
        <ele>573.0</ele>
        <time>2013-07-29T15:12:14Z</time>
      </trkpt>
      <trkpt lat="43.044483" lon="-3.009667">
        <ele>573.0</ele>
        <time>2013-07-29T15:12:15Z</time>
      </trkpt>
      <trkpt lat="43.044550" lon="-3.009667">
        <ele>574.0</ele>
        <time>2013-07-29T15:12:16Z</time>
      </trkpt>
      <trkpt lat="43.044617" lon="-3.009667">
        <ele>574.0</ele>
        <time>2013-07-29T15:12:17Z</time>
      </trkpt>
      <trkpt lat="43.044683" lon="-3.009667">
        <ele>573.0</ele>
        <time>2013-07-29T15:12:18Z</time>
      </trkpt>
      <trkpt lat="43.044767" lon="-3.009667">
        <ele>572.0</ele>
        <time>2013-07-29T15:12:19Z</time>
      </trkpt>
      <trkpt lat="43.044850" lon="-3.009683">
        <ele>571.0</ele>
        <time>2013-07-29T15:12:20Z</time>
      </trkpt>
      <trkpt lat="43.044917" lon="-3.009700">
        <ele>571.0</ele>
        <time>2013-07-29T15:12:21Z</time>
      </trkpt>
      <trkpt lat="43.044983" lon="-3.009700">
        <ele>572.0</ele>
        <time>2013-07-29T15:12:22Z</time>
      </trkpt>
      <trkpt lat="43.045033" lon="-3.009717">
        <ele>572.0</ele>
        <time>2013-07-29T15:12:23Z</time>
      </trkpt>
      <trkpt lat="43.045100" lon="-3.009733">
        <ele>571.0</ele>
        <time>2013-07-29T15:12:24Z</time>
      </trkpt>
      <trkpt lat="43.045150" lon="-3.009767">
        <ele>570.0</ele>
        <time>2013-07-29T15:12:25Z</time>
      </trkpt>
      <trkpt lat="43.045200" lon="-3.009783">
        <ele>569.0</ele>
        <time>2013-07-29T15:12:26Z</time>
      </trkpt>
      <trkpt lat="43.045250" lon="-3.009833">
        <ele>568.0</ele>
        <time>2013-07-29T15:12:27Z</time>
      </trkpt>
      <trkpt lat="43.045283" lon="-3.009867">
        <ele>566.0</ele>
        <time>2013-07-29T15:12:28Z</time>
      </trkpt>
      <trkpt lat="43.045317" lon="-3.009917">
        <ele>565.0</ele>
        <time>2013-07-29T15:12:29Z</time>
      </trkpt>
      <trkpt lat="43.045367" lon="-3.009950">
        <ele>563.0</ele>
        <time>2013-07-29T15:12:30Z</time>
      </trkpt>
      <trkpt lat="43.045400" lon="-3.009983">
        <ele>561.0</ele>
        <time>2013-07-29T15:12:31Z</time>
      </trkpt>
      <trkpt lat="43.045450" lon="-3.010033">
        <ele>559.0</ele>
        <time>2013-07-29T15:12:32Z</time>
      </trkpt>
      <trkpt lat="43.045483" lon="-3.010083">
        <ele>557.0</ele>
        <time>2013-07-29T15:12:33Z</time>
      </trkpt>
      <trkpt lat="43.045517" lon="-3.010150">
        <ele>554.0</ele>
        <time>2013-07-29T15:12:34Z</time>
      </trkpt>
      <trkpt lat="43.045550" lon="-3.010217">
        <ele>551.0</ele>
        <time>2013-07-29T15:12:35Z</time>
      </trkpt>
      <trkpt lat="43.045567" lon="-3.010300">
        <ele>549.0</ele>
        <time>2013-07-29T15:12:36Z</time>
      </trkpt>
      <trkpt lat="43.045600" lon="-3.010367">
        <ele>547.0</ele>
        <time>2013-07-29T15:12:37Z</time>
      </trkpt>
      <trkpt lat="43.045633" lon="-3.010433">
        <ele>546.0</ele>
        <time>2013-07-29T15:12:38Z</time>
      </trkpt>
      <trkpt lat="43.045667" lon="-3.010500">
        <ele>544.0</ele>
        <time>2013-07-29T15:12:39Z</time>
      </trkpt>
      <trkpt lat="43.045700" lon="-3.010567">
        <ele>542.0</ele>
        <time>2013-07-29T15:12:40Z</time>
      </trkpt>
      <trkpt lat="43.045733" lon="-3.010633">
        <ele>539.0</ele>
        <time>2013-07-29T15:12:41Z</time>
      </trkpt>
      <trkpt lat="43.045750" lon="-3.010700">
        <ele>537.0</ele>
        <time>2013-07-29T15:12:42Z</time>
      </trkpt>
      <trkpt lat="43.045750" lon="-3.010783">
        <ele>535.0</ele>
        <time>2013-07-29T15:12:43Z</time>
      </trkpt>
      <trkpt lat="43.045783" lon="-3.010850">
        <ele>533.0</ele>
        <time>2013-07-29T15:12:44Z</time>
      </trkpt>
      <trkpt lat="43.045800" lon="-3.010917">
        <ele>530.0</ele>
        <time>2013-07-29T15:12:45Z</time>
      </trkpt>
      <trkpt lat="43.045833" lon="-3.010983">
        <ele>527.0</ele>
        <time>2013-07-29T15:12:46Z</time>
      </trkpt>
      <trkpt lat="43.045867" lon="-3.011050">
        <ele>525.0</ele>
        <time>2013-07-29T15:12:47Z</time>
      </trkpt>
      <trkpt lat="43.045917" lon="-3.011100">
        <ele>524.0</ele>
        <time>2013-07-29T15:12:48Z</time>
      </trkpt>
      <trkpt lat="43.045967" lon="-3.011133">
        <ele>522.0</ele>
        <time>2013-07-29T15:12:49Z</time>
      </trkpt>
      <trkpt lat="43.046033" lon="-3.011133">
        <ele>521.0</ele>
        <time>2013-07-29T15:12:50Z</time>
      </trkpt>
      <trkpt lat="43.046100" lon="-3.011083">
        <ele>519.0</ele>
        <time>2013-07-29T15:12:51Z</time>
      </trkpt>
      <trkpt lat="43.046150" lon="-3.010983">
        <ele>516.0</ele>
        <time>2013-07-29T15:12:52Z</time>
      </trkpt>
      <trkpt lat="43.046167" lon="-3.010867">
        <ele>514.0</ele>
        <time>2013-07-29T15:12:53Z</time>
      </trkpt>
      <trkpt lat="43.046167" lon="-3.010750">
        <ele>512.0</ele>
        <time>2013-07-29T15:12:54Z</time>
      </trkpt>
      <trkpt lat="43.046117" lon="-3.010633">
        <ele>510.0</ele>
        <time>2013-07-29T15:12:55Z</time>
      </trkpt>
      <trkpt lat="43.046050" lon="-3.010550">
        <ele>508.0</ele>
        <time>2013-07-29T15:12:56Z</time>
      </trkpt>
      <trkpt lat="43.045967" lon="-3.010483">
        <ele>506.0</ele>
        <time>2013-07-29T15:12:57Z</time>
      </trkpt>
      <trkpt lat="43.045867" lon="-3.010450">
        <ele>504.0</ele>
        <time>2013-07-29T15:12:58Z</time>
      </trkpt>
      <trkpt lat="43.045750" lon="-3.010433">
        <ele>502.0</ele>
        <time>2013-07-29T15:12:59Z</time>
      </trkpt>
      <trkpt lat="43.045667" lon="-3.010417">
        <ele>500.0</ele>
        <time>2013-07-29T15:13:00Z</time>
      </trkpt>
      <trkpt lat="43.045567" lon="-3.010433">
        <ele>499.0</ele>
        <time>2013-07-29T15:13:01Z</time>
      </trkpt>
      <trkpt lat="43.045483" lon="-3.010433">
        <ele>498.0</ele>
        <time>2013-07-29T15:13:02Z</time>
      </trkpt>
      <trkpt lat="43.045400" lon="-3.010450">
        <ele>496.0</ele>
        <time>2013-07-29T15:13:03Z</time>
      </trkpt>
      <trkpt lat="43.045300" lon="-3.010467">
        <ele>495.0</ele>
        <time>2013-07-29T15:13:04Z</time>
      </trkpt>
      <trkpt lat="43.045217" lon="-3.010483">
        <ele>493.0</ele>
        <time>2013-07-29T15:13:05Z</time>
      </trkpt>
      <trkpt lat="43.045117" lon="-3.010500">
        <ele>492.0</ele>
        <time>2013-07-29T15:13:06Z</time>
      </trkpt>
      <trkpt lat="43.045017" lon="-3.010500">
        <ele>490.0</ele>
        <time>2013-07-29T15:13:07Z</time>
      </trkpt>
      <trkpt lat="43.044917" lon="-3.010500">
        <ele>489.0</ele>
        <time>2013-07-29T15:13:08Z</time>
      </trkpt>
      <trkpt lat="43.044817" lon="-3.010500">
        <ele>488.0</ele>
        <time>2013-07-29T15:13:09Z</time>
      </trkpt>
      <trkpt lat="43.044733" lon="-3.010517">
        <ele>487.0</ele>
        <time>2013-07-29T15:13:10Z</time>
      </trkpt>
      <trkpt lat="43.044567" lon="-3.010667">
        <ele>485.0</ele>
        <time>2013-07-29T15:13:12Z</time>
      </trkpt>
      <trkpt lat="43.044483" lon="-3.010950">
        <ele>483.0</ele>
        <time>2013-07-29T15:13:15Z</time>
      </trkpt>
      <trkpt lat="43.044500" lon="-3.011033">
        <ele>483.0</ele>
        <time>2013-07-29T15:13:16Z</time>
      </trkpt>
      <trkpt lat="43.044517" lon="-3.011100">
        <ele>482.0</ele>
        <time>2013-07-29T15:13:17Z</time>
      </trkpt>
      <trkpt lat="43.044533" lon="-3.011167">
        <ele>482.0</ele>
        <time>2013-07-29T15:13:18Z</time>
      </trkpt>
      <trkpt lat="43.044567" lon="-3.011233">
        <ele>481.0</ele>
        <time>2013-07-29T15:13:19Z</time>
      </trkpt>
      <trkpt lat="43.044600" lon="-3.011300">
        <ele>481.0</ele>
        <time>2013-07-29T15:13:20Z</time>
      </trkpt>
      <trkpt lat="43.044633" lon="-3.011367">
        <ele>480.0</ele>
        <time>2013-07-29T15:13:21Z</time>
      </trkpt>
      <trkpt lat="43.044667" lon="-3.011400">
        <ele>480.0</ele>
        <time>2013-07-29T15:13:22Z</time>
      </trkpt>
      <trkpt lat="43.044700" lon="-3.011433">
        <ele>480.0</ele>
        <time>2013-07-29T15:13:23Z</time>
      </trkpt>
      <trkpt lat="43.044733" lon="-3.011467">
        <ele>480.0</ele>
        <time>2013-07-29T15:13:24Z</time>
      </trkpt>
      <trkpt lat="43.044800" lon="-3.011500">
        <ele>479.0</ele>
        <time>2013-07-29T15:13:25Z</time>
      </trkpt>
      <trkpt lat="43.044850" lon="-3.011550">
        <ele>479.0</ele>
        <time>2013-07-29T15:13:26Z</time>
      </trkpt>
      <trkpt lat="43.044883" lon="-3.011583">
        <ele>480.0</ele>
        <time>2013-07-29T15:13:27Z</time>
      </trkpt>
      <trkpt lat="43.044917" lon="-3.011617">
        <ele>481.0</ele>
        <time>2013-07-29T15:13:28Z</time>
      </trkpt>
      <trkpt lat="43.044950" lon="-3.011667">
        <ele>482.0</ele>
        <time>2013-07-29T15:13:29Z</time>
      </trkpt>
      <trkpt lat="43.045000" lon="-3.011700">
        <ele>483.0</ele>
        <time>2013-07-29T15:13:30Z</time>
      </trkpt>
      <trkpt lat="43.045067" lon="-3.011750">
        <ele>483.0</ele>
        <time>2013-07-29T15:13:31Z</time>
      </trkpt>
      <trkpt lat="43.045117" lon="-3.011800">
        <ele>483.0</ele>
        <time>2013-07-29T15:13:32Z</time>
      </trkpt>
      <trkpt lat="43.045167" lon="-3.011850">
        <ele>482.0</ele>
        <time>2013-07-29T15:13:33Z</time>
      </trkpt>
      <trkpt lat="43.045200" lon="-3.011883">
        <ele>483.0</ele>
        <time>2013-07-29T15:13:34Z</time>
      </trkpt>
      <trkpt lat="43.045233" lon="-3.011950">
        <ele>483.0</ele>
        <time>2013-07-29T15:13:35Z</time>
      </trkpt>
      <trkpt lat="43.045283" lon="-3.012017">
        <ele>483.0</ele>
        <time>2013-07-29T15:13:36Z</time>
      </trkpt>
      <trkpt lat="43.045317" lon="-3.012067">
        <ele>482.0</ele>
        <time>2013-07-29T15:13:37Z</time>
      </trkpt>
      <trkpt lat="43.045367" lon="-3.012117">
        <ele>482.0</ele>
        <time>2013-07-29T15:13:38Z</time>
      </trkpt>
      <trkpt lat="43.045417" lon="-3.012117">
        <ele>481.0</ele>
        <time>2013-07-29T15:13:39Z</time>
      </trkpt>
      <trkpt lat="43.045467" lon="-3.012083">
        <ele>479.0</ele>
        <time>2013-07-29T15:13:40Z</time>
      </trkpt>
      <trkpt lat="43.045517" lon="-3.012000">
        <ele>476.0</ele>
        <time>2013-07-29T15:13:41Z</time>
      </trkpt>
      <trkpt lat="43.045517" lon="-3.011900">
        <ele>474.0</ele>
        <time>2013-07-29T15:13:42Z</time>
      </trkpt>
      <trkpt lat="43.045467" lon="-3.011817">
        <ele>472.0</ele>
        <time>2013-07-29T15:13:43Z</time>
      </trkpt>
      <trkpt lat="43.045200" lon="-3.011617">
        <ele>466.0</ele>
        <time>2013-07-29T15:13:46Z</time>
      </trkpt>
      <trkpt lat="43.045100" lon="-3.011550">
        <ele>465.0</ele>
        <time>2013-07-29T15:13:47Z</time>
      </trkpt>
      <trkpt lat="43.044917" lon="-3.011483">
        <ele>461.0</ele>
        <time>2013-07-29T15:13:49Z</time>
      </trkpt>
      <trkpt lat="43.044817" lon="-3.011450">
        <ele>460.0</ele>
        <time>2013-07-29T15:13:50Z</time>
      </trkpt>
      <trkpt lat="43.044700" lon="-3.011417">
        <ele>459.0</ele>
        <time>2013-07-29T15:13:51Z</time>
      </trkpt>
      <trkpt lat="43.044583" lon="-3.011383">
        <ele>458.0</ele>
        <time>2013-07-29T15:13:52Z</time>
      </trkpt>
      <trkpt lat="43.044467" lon="-3.011367">
        <ele>458.0</ele>
        <time>2013-07-29T15:13:53Z</time>
      </trkpt>
      <trkpt lat="43.044367" lon="-3.011350">
        <ele>458.0</ele>
        <time>2013-07-29T15:13:54Z</time>
      </trkpt>
      <trkpt lat="43.044250" lon="-3.011350">
        <ele>458.0</ele>
        <time>2013-07-29T15:13:55Z</time>
      </trkpt>
      <trkpt lat="43.044133" lon="-3.011367">
        <ele>458.0</ele>
        <time>2013-07-29T15:13:56Z</time>
      </trkpt>
      <trkpt lat="43.044033" lon="-3.011367">
        <ele>458.0</ele>
        <time>2013-07-29T15:13:57Z</time>
      </trkpt>
      <trkpt lat="43.043917" lon="-3.011383">
        <ele>459.0</ele>
        <time>2013-07-29T15:13:58Z</time>
      </trkpt>
      <trkpt lat="43.043833" lon="-3.011383">
        <ele>460.0</ele>
        <time>2013-07-29T15:13:59Z</time>
      </trkpt>
      <trkpt lat="43.043733" lon="-3.011417">
        <ele>461.0</ele>
        <time>2013-07-29T15:14:00Z</time>
      </trkpt>
      <trkpt lat="43.043650" lon="-3.011483">
        <ele>462.0</ele>
        <time>2013-07-29T15:14:01Z</time>
      </trkpt>
      <trkpt lat="43.043583" lon="-3.011583">
        <ele>462.0</ele>
        <time>2013-07-29T15:14:02Z</time>
      </trkpt>
      <trkpt lat="43.043550" lon="-3.011683">
        <ele>463.0</ele>
        <time>2013-07-29T15:14:03Z</time>
      </trkpt>
      <trkpt lat="43.043550" lon="-3.011783">
        <ele>464.0</ele>
        <time>2013-07-29T15:14:04Z</time>
      </trkpt>
      <trkpt lat="43.043583" lon="-3.011850">
        <ele>464.0</ele>
        <time>2013-07-29T15:14:05Z</time>
      </trkpt>
      <trkpt lat="43.043633" lon="-3.011900">
        <ele>465.0</ele>
        <time>2013-07-29T15:14:06Z</time>
      </trkpt>
      <trkpt lat="43.043667" lon="-3.011950">
        <ele>466.0</ele>
        <time>2013-07-29T15:14:07Z</time>
      </trkpt>
      <trkpt lat="43.043717" lon="-3.012000">
        <ele>467.0</ele>
        <time>2013-07-29T15:14:08Z</time>
      </trkpt>
      <trkpt lat="43.043750" lon="-3.012017">
        <ele>467.0</ele>
        <time>2013-07-29T15:14:09Z</time>
      </trkpt>
      <trkpt lat="43.043817" lon="-3.012050">
        <ele>466.0</ele>
        <time>2013-07-29T15:14:10Z</time>
      </trkpt>
      <trkpt lat="43.043883" lon="-3.012067">
        <ele>464.0</ele>
        <time>2013-07-29T15:14:11Z</time>
      </trkpt>
      <trkpt lat="43.043967" lon="-3.012050">
        <ele>463.0</ele>
        <time>2013-07-29T15:14:12Z</time>
      </trkpt>
      <trkpt lat="43.044017" lon="-3.012000">
        <ele>465.0</ele>
        <time>2013-07-29T15:14:13Z</time>
      </trkpt>
      <trkpt lat="43.044050" lon="-3.011933">
        <ele>466.0</ele>
        <time>2013-07-29T15:14:14Z</time>
      </trkpt>
      <trkpt lat="43.044067" lon="-3.011850">
        <ele>466.0</ele>
        <time>2013-07-29T15:14:15Z</time>
      </trkpt>
      <trkpt lat="43.044083" lon="-3.011733">
        <ele>467.0</ele>
        <time>2013-07-29T15:14:16Z</time>
      </trkpt>
      <trkpt lat="43.044067" lon="-3.011633">
        <ele>467.0</ele>
        <time>2013-07-29T15:14:17Z</time>
      </trkpt>
      <trkpt lat="43.044050" lon="-3.011533">
        <ele>467.0</ele>
        <time>2013-07-29T15:14:18Z</time>
      </trkpt>
      <trkpt lat="43.044000" lon="-3.011433">
        <ele>467.0</ele>
        <time>2013-07-29T15:14:19Z</time>
      </trkpt>
      <trkpt lat="43.043933" lon="-3.011350">
        <ele>468.0</ele>
        <time>2013-07-29T15:14:20Z</time>
      </trkpt>
      <trkpt lat="43.043850" lon="-3.011267">
        <ele>468.0</ele>
        <time>2013-07-29T15:14:21Z</time>
      </trkpt>
      <trkpt lat="43.043750" lon="-3.011200">
        <ele>468.0</ele>
        <time>2013-07-29T15:14:22Z</time>
      </trkpt>
      <trkpt lat="43.043650" lon="-3.011133">
        <ele>469.0</ele>
        <time>2013-07-29T15:14:23Z</time>
      </trkpt>
      <trkpt lat="43.043567" lon="-3.011067">
        <ele>470.0</ele>
        <time>2013-07-29T15:14:24Z</time>
      </trkpt>
      <trkpt lat="43.043467" lon="-3.011000">
        <ele>471.0</ele>
        <time>2013-07-29T15:14:25Z</time>
      </trkpt>
      <trkpt lat="43.043367" lon="-3.010933">
        <ele>472.0</ele>
        <time>2013-07-29T15:14:26Z</time>
      </trkpt>
      <trkpt lat="43.043250" lon="-3.010883">
        <ele>473.0</ele>
        <time>2013-07-29T15:14:27Z</time>
      </trkpt>
      <trkpt lat="43.043150" lon="-3.010850">
        <ele>474.0</ele>
        <time>2013-07-29T15:14:28Z</time>
      </trkpt>
      <trkpt lat="43.043050" lon="-3.010817">
        <ele>475.0</ele>
        <time>2013-07-29T15:14:29Z</time>
      </trkpt>
      <trkpt lat="43.042950" lon="-3.010783">
        <ele>477.0</ele>
        <time>2013-07-29T15:14:30Z</time>
      </trkpt>
      <trkpt lat="43.042867" lon="-3.010750">
        <ele>479.0</ele>
        <time>2013-07-29T15:14:31Z</time>
      </trkpt>
      <trkpt lat="43.042767" lon="-3.010717">
        <ele>480.0</ele>
        <time>2013-07-29T15:14:32Z</time>
      </trkpt>
      <trkpt lat="43.042650" lon="-3.010700">
        <ele>481.0</ele>
        <time>2013-07-29T15:14:33Z</time>
      </trkpt>
      <trkpt lat="43.042550" lon="-3.010667">
        <ele>482.0</ele>
        <time>2013-07-29T15:14:34Z</time>
      </trkpt>
      <trkpt lat="43.042450" lon="-3.010650">
        <ele>482.0</ele>
        <time>2013-07-29T15:14:35Z</time>
      </trkpt>
      <trkpt lat="43.042350" lon="-3.010617">
        <ele>483.0</ele>
        <time>2013-07-29T15:14:36Z</time>
      </trkpt>
      <trkpt lat="43.042250" lon="-3.010600">
        <ele>485.0</ele>
        <time>2013-07-29T15:14:37Z</time>
      </trkpt>
      <trkpt lat="43.042133" lon="-3.010583">
        <ele>485.0</ele>
        <time>2013-07-29T15:14:38Z</time>
      </trkpt>
      <trkpt lat="43.042033" lon="-3.010567">
        <ele>486.0</ele>
        <time>2013-07-29T15:14:39Z</time>
      </trkpt>
      <trkpt lat="43.041917" lon="-3.010550">
        <ele>487.0</ele>
        <time>2013-07-29T15:14:40Z</time>
      </trkpt>
      <trkpt lat="43.041817" lon="-3.010533">
        <ele>488.0</ele>
        <time>2013-07-29T15:14:41Z</time>
      </trkpt>
      <trkpt lat="43.041733" lon="-3.010517">
        <ele>489.0</ele>
        <time>2013-07-29T15:14:42Z</time>
      </trkpt>
      <trkpt lat="43.041650" lon="-3.010500">
        <ele>490.0</ele>
        <time>2013-07-29T15:14:43Z</time>
      </trkpt>
      <trkpt lat="43.041550" lon="-3.010483">
        <ele>491.0</ele>
        <time>2013-07-29T15:14:44Z</time>
      </trkpt>
      <trkpt lat="43.041450" lon="-3.010467">
        <ele>491.0</ele>
        <time>2013-07-29T15:14:45Z</time>
      </trkpt>
      <trkpt lat="43.041350" lon="-3.010450">
        <ele>491.0</ele>
        <time>2013-07-29T15:14:46Z</time>
      </trkpt>
      <trkpt lat="43.041250" lon="-3.010433">
        <ele>492.0</ele>
        <time>2013-07-29T15:14:47Z</time>
      </trkpt>
      <trkpt lat="43.041150" lon="-3.010417">
        <ele>493.0</ele>
        <time>2013-07-29T15:14:48Z</time>
      </trkpt>
      <trkpt lat="43.041067" lon="-3.010417">
        <ele>494.0</ele>
        <time>2013-07-29T15:14:49Z</time>
      </trkpt>
      <trkpt lat="43.040983" lon="-3.010400">
        <ele>494.0</ele>
        <time>2013-07-29T15:14:50Z</time>
      </trkpt>
      <trkpt lat="43.040883" lon="-3.010400">
        <ele>494.0</ele>
        <time>2013-07-29T15:14:51Z</time>
      </trkpt>
      <trkpt lat="43.040767" lon="-3.010383">
        <ele>493.0</ele>
        <time>2013-07-29T15:14:52Z</time>
      </trkpt>
      <trkpt lat="43.040650" lon="-3.010400">
        <ele>492.0</ele>
        <time>2013-07-29T15:14:53Z</time>
      </trkpt>
      <trkpt lat="43.040550" lon="-3.010400">
        <ele>492.0</ele>
        <time>2013-07-29T15:14:54Z</time>
      </trkpt>
      <trkpt lat="43.040467" lon="-3.010400">
        <ele>492.0</ele>
        <time>2013-07-29T15:14:55Z</time>
      </trkpt>
      <trkpt lat="43.040383" lon="-3.010400">
        <ele>491.0</ele>
        <time>2013-07-29T15:14:56Z</time>
      </trkpt>
      <trkpt lat="43.040283" lon="-3.010400">
        <ele>491.0</ele>
        <time>2013-07-29T15:14:57Z</time>
      </trkpt>
      <trkpt lat="43.040183" lon="-3.010383">
        <ele>489.0</ele>
        <time>2013-07-29T15:14:58Z</time>
      </trkpt>
      <trkpt lat="43.040067" lon="-3.010383">
        <ele>487.0</ele>
        <time>2013-07-29T15:14:59Z</time>
      </trkpt>
      <trkpt lat="43.039967" lon="-3.010400">
        <ele>486.0</ele>
        <time>2013-07-29T15:15:00Z</time>
      </trkpt>
      <trkpt lat="43.039867" lon="-3.010400">
        <ele>484.0</ele>
        <time>2013-07-29T15:15:01Z</time>
      </trkpt>
      <trkpt lat="43.039783" lon="-3.010400">
        <ele>483.0</ele>
        <time>2013-07-29T15:15:02Z</time>
      </trkpt>
      <trkpt lat="43.039700" lon="-3.010400">
        <ele>481.0</ele>
        <time>2013-07-29T15:15:03Z</time>
      </trkpt>
      <trkpt lat="43.039600" lon="-3.010417">
        <ele>479.0</ele>
        <time>2013-07-29T15:15:04Z</time>
      </trkpt>
      <trkpt lat="43.039500" lon="-3.010433">
        <ele>477.0</ele>
        <time>2013-07-29T15:15:05Z</time>
      </trkpt>
      <trkpt lat="43.039417" lon="-3.010450">
        <ele>474.0</ele>
        <time>2013-07-29T15:15:06Z</time>
      </trkpt>
      <trkpt lat="43.039350" lon="-3.010500">
        <ele>473.0</ele>
        <time>2013-07-29T15:15:07Z</time>
      </trkpt>
      <trkpt lat="43.039317" lon="-3.010583">
        <ele>471.0</ele>
        <time>2013-07-29T15:15:08Z</time>
      </trkpt>
      <trkpt lat="43.039300" lon="-3.010667">
        <ele>469.0</ele>
        <time>2013-07-29T15:15:09Z</time>
      </trkpt>
      <trkpt lat="43.039300" lon="-3.010750">
        <ele>465.0</ele>
        <time>2013-07-29T15:15:10Z</time>
      </trkpt>
      <trkpt lat="43.039317" lon="-3.010850">
        <ele>463.0</ele>
        <time>2013-07-29T15:15:11Z</time>
      </trkpt>
      <trkpt lat="43.039300" lon="-3.010917">
        <ele>460.0</ele>
        <time>2013-07-29T15:15:12Z</time>
      </trkpt>
      <trkpt lat="43.039317" lon="-3.010983">
        <ele>466.0</ele>
        <time>2013-07-29T15:15:13Z</time>
      </trkpt>
      <trkpt lat="43.039350" lon="-3.011050">
        <ele>465.0</ele>
        <time>2013-07-29T15:15:14Z</time>
      </trkpt>
      <trkpt lat="43.039367" lon="-3.011117">
        <ele>463.0</ele>
        <time>2013-07-29T15:15:15Z</time>
      </trkpt>
      <trkpt lat="43.039417" lon="-3.011183">
        <ele>461.0</ele>
        <time>2013-07-29T15:15:16Z</time>
      </trkpt>
      <trkpt lat="43.039450" lon="-3.011233">
        <ele>457.0</ele>
        <time>2013-07-29T15:15:17Z</time>
      </trkpt>
      <trkpt lat="43.039500" lon="-3.011283">
        <ele>452.0</ele>
        <time>2013-07-29T15:15:18Z</time>
      </trkpt>
      <trkpt lat="43.039533" lon="-3.011350">
        <ele>449.0</ele>
        <time>2013-07-29T15:15:19Z</time>
      </trkpt>
      <trkpt lat="43.039617" lon="-3.011467">
        <ele>442.0</ele>
        <time>2013-07-29T15:15:21Z</time>
      </trkpt>
      <trkpt lat="43.039667" lon="-3.011500">
        <ele>438.0</ele>
        <time>2013-07-29T15:15:22Z</time>
      </trkpt>
      <trkpt lat="43.039717" lon="-3.011533">
        <ele>435.0</ele>
        <time>2013-07-29T15:15:23Z</time>
      </trkpt>
      <trkpt lat="43.039783" lon="-3.011550">
        <ele>432.0</ele>
        <time>2013-07-29T15:15:24Z</time>
      </trkpt>
      <trkpt lat="43.039867" lon="-3.011567">
        <ele>428.0</ele>
        <time>2013-07-29T15:15:25Z</time>
      </trkpt>
      <trkpt lat="43.039933" lon="-3.011600">
        <ele>425.0</ele>
        <time>2013-07-29T15:15:26Z</time>
      </trkpt>
      <trkpt lat="43.040017" lon="-3.011633">
        <ele>423.0</ele>
        <time>2013-07-29T15:15:27Z</time>
      </trkpt>
      <trkpt lat="43.040150" lon="-3.011683">
        <ele>418.0</ele>
        <time>2013-07-29T15:15:29Z</time>
      </trkpt>
      <trkpt lat="43.040233" lon="-3.011683">
        <ele>416.0</ele>
        <time>2013-07-29T15:15:30Z</time>
      </trkpt>
      <trkpt lat="43.040383" lon="-3.011683">
        <ele>412.0</ele>
        <time>2013-07-29T15:15:32Z</time>
      </trkpt>
      <trkpt lat="43.040467" lon="-3.011683">
        <ele>411.0</ele>
        <time>2013-07-29T15:15:33Z</time>
      </trkpt>
      <trkpt lat="43.040583" lon="-3.011683">
        <ele>409.0</ele>
        <time>2013-07-29T15:15:35Z</time>
      </trkpt>
      <trkpt lat="43.040650" lon="-3.011683">
        <ele>408.0</ele>
        <time>2013-07-29T15:15:36Z</time>
      </trkpt>
      <trkpt lat="43.040717" lon="-3.011683">
        <ele>407.0</ele>
        <time>2013-07-29T15:15:37Z</time>
      </trkpt>
      <trkpt lat="43.040783" lon="-3.011700">
        <ele>406.0</ele>
        <time>2013-07-29T15:15:38Z</time>
      </trkpt>
      <trkpt lat="43.040900" lon="-3.011783">
        <ele>405.0</ele>
        <time>2013-07-29T15:15:40Z</time>
      </trkpt>
      <trkpt lat="43.040967" lon="-3.011800">
        <ele>406.0</ele>
        <time>2013-07-29T15:15:41Z</time>
      </trkpt>
      <trkpt lat="43.041033" lon="-3.011800">
        <ele>406.0</ele>
        <time>2013-07-29T15:15:42Z</time>
      </trkpt>
      <trkpt lat="43.041100" lon="-3.011767">
        <ele>405.0</ele>
        <time>2013-07-29T15:15:43Z</time>
      </trkpt>
      <trkpt lat="43.041167" lon="-3.011700">
        <ele>404.0</ele>
        <time>2013-07-29T15:15:44Z</time>
      </trkpt>
      <trkpt lat="43.041217" lon="-3.011633">
        <ele>403.0</ele>
        <time>2013-07-29T15:15:45Z</time>
      </trkpt>
      <trkpt lat="43.041267" lon="-3.011550">
        <ele>403.0</ele>
        <time>2013-07-29T15:15:46Z</time>
      </trkpt>
      <trkpt lat="43.041283" lon="-3.011433">
        <ele>402.0</ele>
        <time>2013-07-29T15:15:47Z</time>
      </trkpt>
      <trkpt lat="43.041267" lon="-3.011300">
        <ele>401.0</ele>
        <time>2013-07-29T15:15:48Z</time>
      </trkpt>
      <trkpt lat="43.041200" lon="-3.011183">
        <ele>400.0</ele>
        <time>2013-07-29T15:15:49Z</time>
      </trkpt>
      <trkpt lat="43.041100" lon="-3.011117">
        <ele>399.0</ele>
        <time>2013-07-29T15:15:50Z</time>
      </trkpt>
      <trkpt lat="43.041017" lon="-3.011050">
        <ele>399.0</ele>
        <time>2013-07-29T15:15:51Z</time>
      </trkpt>
      <trkpt lat="43.040917" lon="-3.011017">
        <ele>398.0</ele>
        <time>2013-07-29T15:15:52Z</time>
      </trkpt>
      <trkpt lat="43.040833" lon="-3.010983">
        <ele>398.0</ele>
        <time>2013-07-29T15:15:53Z</time>
      </trkpt>
      <trkpt lat="43.040750" lon="-3.010967">
        <ele>398.0</ele>
        <time>2013-07-29T15:15:54Z</time>
      </trkpt>
      <trkpt lat="43.040667" lon="-3.010950">
        <ele>398.0</ele>
        <time>2013-07-29T15:15:55Z</time>
      </trkpt>
      <trkpt lat="43.040583" lon="-3.010950">
        <ele>398.0</ele>
        <time>2013-07-29T15:15:56Z</time>
      </trkpt>
      <trkpt lat="43.040483" lon="-3.010950">
        <ele>397.0</ele>
        <time>2013-07-29T15:15:57Z</time>
      </trkpt>
      <trkpt lat="43.040383" lon="-3.010933">
        <ele>397.0</ele>
        <time>2013-07-29T15:15:58Z</time>
      </trkpt>
      <trkpt lat="43.040300" lon="-3.010933">
        <ele>396.0</ele>
        <time>2013-07-29T15:15:59Z</time>
      </trkpt>
      <trkpt lat="43.040233" lon="-3.010917">
        <ele>396.0</ele>
        <time>2013-07-29T15:16:00Z</time>
      </trkpt>
      <trkpt lat="43.040150" lon="-3.010917">
        <ele>395.0</ele>
        <time>2013-07-29T15:16:01Z</time>
      </trkpt>
      <trkpt lat="43.040067" lon="-3.010900">
        <ele>395.0</ele>
        <time>2013-07-29T15:16:02Z</time>
      </trkpt>
      <trkpt lat="43.039967" lon="-3.010883">
        <ele>393.0</ele>
        <time>2013-07-29T15:16:03Z</time>
      </trkpt>
      <trkpt lat="43.039867" lon="-3.010867">
        <ele>392.0</ele>
        <time>2013-07-29T15:16:04Z</time>
      </trkpt>
      <trkpt lat="43.039783" lon="-3.010833">
        <ele>390.0</ele>
        <time>2013-07-29T15:16:05Z</time>
      </trkpt>
      <trkpt lat="43.039700" lon="-3.010783">
        <ele>389.0</ele>
        <time>2013-07-29T15:16:06Z</time>
      </trkpt>
      <trkpt lat="43.039633" lon="-3.010700">
        <ele>389.0</ele>
        <time>2013-07-29T15:16:07Z</time>
      </trkpt>
      <trkpt lat="43.039567" lon="-3.010617">
        <ele>388.0</ele>
        <time>2013-07-29T15:16:08Z</time>
      </trkpt>
      <trkpt lat="43.039533" lon="-3.010500">
        <ele>387.0</ele>
        <time>2013-07-29T15:16:09Z</time>
      </trkpt>
      <trkpt lat="43.039517" lon="-3.010367">
        <ele>385.0</ele>
        <time>2013-07-29T15:16:10Z</time>
      </trkpt>
      <trkpt lat="43.039550" lon="-3.010217">
        <ele>384.0</ele>
        <time>2013-07-29T15:16:11Z</time>
      </trkpt>
      <trkpt lat="43.039650" lon="-3.010150">
        <ele>382.0</ele>
        <time>2013-07-29T15:16:12Z</time>
      </trkpt>
      <trkpt lat="43.039750" lon="-3.010133">
        <ele>381.0</ele>
        <time>2013-07-29T15:16:13Z</time>
      </trkpt>
      <trkpt lat="43.039817" lon="-3.010183">
        <ele>381.0</ele>
        <time>2013-07-29T15:16:14Z</time>
      </trkpt>
      <trkpt lat="43.039867" lon="-3.010250">
        <ele>382.0</ele>
        <time>2013-07-29T15:16:15Z</time>
      </trkpt>
      <trkpt lat="43.039900" lon="-3.010317">
        <ele>382.0</ele>
        <time>2013-07-29T15:16:16Z</time>
      </trkpt>
      <trkpt lat="43.039917" lon="-3.010367">
        <ele>383.0</ele>
        <time>2013-07-29T15:16:17Z</time>
      </trkpt>
      <trkpt lat="43.039933" lon="-3.010400">
        <ele>383.0</ele>
        <time>2013-07-29T15:16:18Z</time>
      </trkpt>
      <trkpt lat="43.039967" lon="-3.010467">
        <ele>383.0</ele>
        <time>2013-07-29T15:16:19Z</time>
      </trkpt>
      <trkpt lat="43.040000" lon="-3.010550">
        <ele>383.0</ele>
        <time>2013-07-29T15:16:20Z</time>
      </trkpt>
      <trkpt lat="43.040017" lon="-3.010633">
        <ele>383.0</ele>
        <time>2013-07-29T15:16:21Z</time>
      </trkpt>
      <trkpt lat="43.040017" lon="-3.010700">
        <ele>383.0</ele>
        <time>2013-07-29T15:16:22Z</time>
      </trkpt>
      <trkpt lat="43.040017" lon="-3.010783">
        <ele>383.0</ele>
        <time>2013-07-29T15:16:23Z</time>
      </trkpt>
      <trkpt lat="43.040000" lon="-3.010867">
        <ele>382.0</ele>
        <time>2013-07-29T15:16:24Z</time>
      </trkpt>
      <trkpt lat="43.040017" lon="-3.010933">
        <ele>382.0</ele>
        <time>2013-07-29T15:16:25Z</time>
      </trkpt>
      <trkpt lat="43.040050" lon="-3.011017">
        <ele>381.0</ele>
        <time>2013-07-29T15:16:26Z</time>
      </trkpt>
      <trkpt lat="43.040083" lon="-3.011050">
        <ele>381.0</ele>
        <time>2013-07-29T15:16:27Z</time>
      </trkpt>
      <trkpt lat="43.040117" lon="-3.011083">
        <ele>380.0</ele>
        <time>2013-07-29T15:16:28Z</time>
      </trkpt>
      <trkpt lat="43.040167" lon="-3.011083">
        <ele>378.0</ele>
        <time>2013-07-29T15:16:29Z</time>
      </trkpt>
      <trkpt lat="43.040233" lon="-3.011083">
        <ele>377.0</ele>
        <time>2013-07-29T15:16:30Z</time>
      </trkpt>
      <trkpt lat="43.040283" lon="-3.011117">
        <ele>375.0</ele>
        <time>2013-07-29T15:16:31Z</time>
      </trkpt>
      <trkpt lat="43.040333" lon="-3.011150">
        <ele>374.0</ele>
        <time>2013-07-29T15:16:32Z</time>
      </trkpt>
      <trkpt lat="43.040383" lon="-3.011200">
        <ele>373.0</ele>
        <time>2013-07-29T15:16:33Z</time>
      </trkpt>
      <trkpt lat="43.040417" lon="-3.011233">
        <ele>374.0</ele>
        <time>2013-07-29T15:16:34Z</time>
      </trkpt>
      <trkpt lat="43.040467" lon="-3.011233">
        <ele>374.0</ele>
        <time>2013-07-29T15:16:35Z</time>
      </trkpt>
      <trkpt lat="43.040533" lon="-3.011250">
        <ele>373.0</ele>
        <time>2013-07-29T15:16:36Z</time>
      </trkpt>
      <trkpt lat="43.040617" lon="-3.011217">
        <ele>372.0</ele>
        <time>2013-07-29T15:16:37Z</time>
      </trkpt>
      <trkpt lat="43.040683" lon="-3.011150">
        <ele>370.0</ele>
        <time>2013-07-29T15:16:38Z</time>
      </trkpt>
      <trkpt lat="43.040717" lon="-3.010767">
        <ele>365.0</ele>
        <time>2013-07-29T15:16:41Z</time>
      </trkpt>
      <trkpt lat="43.040600" lon="-3.010583">
        <ele>362.0</ele>
        <time>2013-07-29T15:16:43Z</time>
      </trkpt>
      <trkpt lat="43.040517" lon="-3.010517">
        <ele>361.0</ele>
        <time>2013-07-29T15:16:44Z</time>
      </trkpt>
      <trkpt lat="43.040450" lon="-3.010450">
        <ele>361.0</ele>
        <time>2013-07-29T15:16:45Z</time>
      </trkpt>
      <trkpt lat="43.040367" lon="-3.010400">
        <ele>363.0</ele>
        <time>2013-07-29T15:16:46Z</time>
      </trkpt>
      <trkpt lat="43.040267" lon="-3.010367">
        <ele>362.0</ele>
        <time>2013-07-29T15:16:47Z</time>
      </trkpt>
      <trkpt lat="43.040167" lon="-3.010367">
        <ele>362.0</ele>
        <time>2013-07-29T15:16:48Z</time>
      </trkpt>
      <trkpt lat="43.040083" lon="-3.010367">
        <ele>361.0</ele>
        <time>2013-07-29T15:16:49Z</time>
      </trkpt>
      <trkpt lat="43.039983" lon="-3.010383">
        <ele>361.0</ele>
        <time>2013-07-29T15:16:50Z</time>
      </trkpt>
      <trkpt lat="43.039900" lon="-3.010400">
        <ele>361.0</ele>
        <time>2013-07-29T15:16:51Z</time>
      </trkpt>
      <trkpt lat="43.039817" lon="-3.010417">
        <ele>360.0</ele>
        <time>2013-07-29T15:16:52Z</time>
      </trkpt>
      <trkpt lat="43.039733" lon="-3.010417">
        <ele>359.0</ele>
        <time>2013-07-29T15:16:53Z</time>
      </trkpt>
      <trkpt lat="43.039633" lon="-3.010433">
        <ele>359.0</ele>
        <time>2013-07-29T15:16:54Z</time>
      </trkpt>
      <trkpt lat="43.039550" lon="-3.010450">
        <ele>358.0</ele>
        <time>2013-07-29T15:16:55Z</time>
      </trkpt>
      <trkpt lat="43.039467" lon="-3.010433">
        <ele>357.0</ele>
        <time>2013-07-29T15:16:56Z</time>
      </trkpt>
      <trkpt lat="43.039383" lon="-3.010383">
        <ele>355.0</ele>
        <time>2013-07-29T15:16:57Z</time>
      </trkpt>
      <trkpt lat="43.039300" lon="-3.010317">
        <ele>353.0</ele>
        <time>2013-07-29T15:16:58Z</time>
      </trkpt>
      <trkpt lat="43.039233" lon="-3.010250">
        <ele>350.0</ele>
        <time>2013-07-29T15:16:59Z</time>
      </trkpt>
      <trkpt lat="43.039150" lon="-3.010167">
        <ele>348.0</ele>
        <time>2013-07-29T15:17:00Z</time>
      </trkpt>
      <trkpt lat="43.039100" lon="-3.010067">
        <ele>347.0</ele>
        <time>2013-07-29T15:17:01Z</time>
      </trkpt>
      <trkpt lat="43.039067" lon="-3.009950">
        <ele>345.0</ele>
        <time>2013-07-29T15:17:02Z</time>
      </trkpt>
      <trkpt lat="43.039050" lon="-3.009817">
        <ele>343.0</ele>
        <time>2013-07-29T15:17:03Z</time>
      </trkpt>
      <trkpt lat="43.039200" lon="-3.009517">
        <ele>338.0</ele>
        <time>2013-07-29T15:17:06Z</time>
      </trkpt>
      <trkpt lat="43.039283" lon="-3.009500">
        <ele>336.0</ele>
        <time>2013-07-29T15:17:07Z</time>
      </trkpt>
      <trkpt lat="43.039333" lon="-3.009533">
        <ele>335.0</ele>
        <time>2013-07-29T15:17:08Z</time>
      </trkpt>
      <trkpt lat="43.039400" lon="-3.009567">
        <ele>334.0</ele>
        <time>2013-07-29T15:17:09Z</time>
      </trkpt>
      <trkpt lat="43.039450" lon="-3.009617">
        <ele>332.0</ele>
        <time>2013-07-29T15:17:10Z</time>
      </trkpt>
      <trkpt lat="43.039483" lon="-3.009683">
        <ele>334.0</ele>
        <time>2013-07-29T15:17:11Z</time>
      </trkpt>
      <trkpt lat="43.039517" lon="-3.009733">
        <ele>334.0</ele>
        <time>2013-07-29T15:17:12Z</time>
      </trkpt>
      <trkpt lat="43.039550" lon="-3.009817">
        <ele>332.0</ele>
        <time>2013-07-29T15:17:13Z</time>
      </trkpt>
      <trkpt lat="43.039550" lon="-3.009900">
        <ele>331.0</ele>
        <time>2013-07-29T15:17:14Z</time>
      </trkpt>
      <trkpt lat="43.039567" lon="-3.009983">
        <ele>331.0</ele>
        <time>2013-07-29T15:17:15Z</time>
      </trkpt>
      <trkpt lat="43.039567" lon="-3.010067">
        <ele>331.0</ele>
        <time>2013-07-29T15:17:16Z</time>
      </trkpt>
      <trkpt lat="43.039583" lon="-3.010133">
        <ele>331.0</ele>
        <time>2013-07-29T15:17:17Z</time>
      </trkpt>
      <trkpt lat="43.039617" lon="-3.010200">
        <ele>330.0</ele>
        <time>2013-07-29T15:17:18Z</time>
      </trkpt>
      <trkpt lat="43.039650" lon="-3.010250">
        <ele>329.0</ele>
        <time>2013-07-29T15:17:19Z</time>
      </trkpt>
      <trkpt lat="43.039700" lon="-3.010317">
        <ele>328.0</ele>
        <time>2013-07-29T15:17:20Z</time>
      </trkpt>
      <trkpt lat="43.039733" lon="-3.010383">
        <ele>328.0</ele>
        <time>2013-07-29T15:17:21Z</time>
      </trkpt>
      <trkpt lat="43.039783" lon="-3.010450">
        <ele>326.0</ele>
        <time>2013-07-29T15:17:22Z</time>
      </trkpt>
      <trkpt lat="43.039833" lon="-3.010483">
        <ele>326.0</ele>
        <time>2013-07-29T15:17:23Z</time>
      </trkpt>
      <trkpt lat="43.039900" lon="-3.010500">
        <ele>325.0</ele>
        <time>2013-07-29T15:17:24Z</time>
      </trkpt>
      <trkpt lat="43.039967" lon="-3.010517">
        <ele>322.0</ele>
        <time>2013-07-29T15:17:25Z</time>
      </trkpt>
      <trkpt lat="43.040017" lon="-3.010533">
        <ele>321.0</ele>
        <time>2013-07-29T15:17:26Z</time>
      </trkpt>
      <trkpt lat="43.040083" lon="-3.010550">
        <ele>321.0</ele>
        <time>2013-07-29T15:17:27Z</time>
      </trkpt>
      <trkpt lat="43.040133" lon="-3.010567">
        <ele>320.0</ele>
        <time>2013-07-29T15:17:28Z</time>
      </trkpt>
      <trkpt lat="43.040200" lon="-3.010583">
        <ele>319.0</ele>
        <time>2013-07-29T15:17:29Z</time>
      </trkpt>
      <trkpt lat="43.040250" lon="-3.010600">
        <ele>318.0</ele>
        <time>2013-07-29T15:17:30Z</time>
      </trkpt>
      <trkpt lat="43.040317" lon="-3.010617">
        <ele>317.0</ele>
        <time>2013-07-29T15:17:31Z</time>
      </trkpt>
      <trkpt lat="43.040333" lon="-3.010633">
        <ele>316.0</ele>
        <time>2013-07-29T15:17:32Z</time>
      </trkpt>
      <trkpt lat="43.040333" lon="-3.010633">
        <ele>312.0</ele>
        <time>2013-07-29T15:17:34Z</time>
      </trkpt>
      <trkpt lat="43.040333" lon="-3.010633">
        <ele>312.0</ele>
        <time>2013-07-29T15:17:35Z</time>
      </trkpt>
      <trkpt lat="43.040333" lon="-3.010633">
        <ele>311.0</ele>
        <time>2013-07-29T15:17:36Z</time>
      </trkpt>
      <trkpt lat="43.040317" lon="-3.010633">
        <ele>310.0</ele>
        <time>2013-07-29T15:17:37Z</time>
      </trkpt>
      <trkpt lat="43.040317" lon="-3.010633">
        <ele>309.0</ele>
        <time>2013-07-29T15:17:38Z</time>
      </trkpt>
      <trkpt lat="43.040333" lon="-3.010633">
        <ele>309.0</ele>
        <time>2013-07-29T15:17:39Z</time>
      </trkpt>
    </trkseg>
  </trk>
</gpx>
